<?xml version="1.0" encoding="UTF-8" standalone="no" ?>
<gpx xmlns="http://www.topografix.com/GPX/1/1" xmlns:xsi="http://www.w3.org/2001/XMLSchema-instance" xsi:schemaLocation="http://www.topografix.com/GPX/1/1 http://www.topografix.com/GPX/1/1/gpx.xsd" version="1.1" creator="VisuGPX - https://www.visugpx.com">
  <metadata>
    <name>Mornant Bleu</name>
    <desc><![CDATA[Parcours officiel de Mornant et balisé, passant par St Sorlin, Chaussan et St Laurent]]></desc>
  </metadata>
  <trk>
    <name><![CDATA[Mornant - 18km]]></name>
    <trkseg>
      <trkpt lat="45.64074" lon="4.66844">
        <ele>435</ele>
        <time>2017-02-25T08:19:56Z</time>
      </trkpt>
      <trkpt lat="45.6408" lon="4.66849">
        <ele>436</ele>
        <time>2017-02-25T08:20:09Z</time>
      </trkpt>
      <trkpt lat="45.64086" lon="4.66851">
        <ele>436</ele>
        <time>2017-02-25T08:20:11Z</time>
      </trkpt>
      <trkpt lat="45.64093" lon="4.66851">
        <ele>437</ele>
        <time>2017-02-25T08:20:14Z</time>
      </trkpt>
      <trkpt lat="45.64098" lon="4.66851">
        <ele>437</ele>
        <time>2017-02-25T08:20:17Z</time>
      </trkpt>
      <trkpt lat="45.64104" lon="4.66851">
        <ele>438</ele>
        <time>2017-02-25T08:20:20Z</time>
      </trkpt>
      <trkpt lat="45.6411" lon="4.66851">
        <ele>439</ele>
        <time>2017-02-25T08:20:23Z</time>
      </trkpt>
      <trkpt lat="45.64116" lon="4.66851">
        <ele>440</ele>
        <time>2017-02-25T08:20:26Z</time>
      </trkpt>
      <trkpt lat="45.64122" lon="4.66852">
        <ele>441</ele>
        <time>2017-02-25T08:20:29Z</time>
      </trkpt>
      <trkpt lat="45.64129" lon="4.66852">
        <ele>442</ele>
        <time>2017-02-25T08:20:32Z</time>
      </trkpt>
      <trkpt lat="45.64134" lon="4.66851">
        <ele>443</ele>
        <time>2017-02-25T08:20:35Z</time>
      </trkpt>
      <trkpt lat="45.64141" lon="4.6685">
        <ele>443</ele>
        <time>2017-02-25T08:20:38Z</time>
      </trkpt>
      <trkpt lat="45.64147" lon="4.66848">
        <ele>443</ele>
        <time>2017-02-25T08:20:41Z</time>
      </trkpt>
      <trkpt lat="45.64153" lon="4.66847">
        <ele>444</ele>
        <time>2017-02-25T08:20:44Z</time>
      </trkpt>
      <trkpt lat="45.64158" lon="4.66845">
        <ele>443</ele>
        <time>2017-02-25T08:20:47Z</time>
      </trkpt>
      <trkpt lat="45.64164" lon="4.66844">
        <ele>443</ele>
        <time>2017-02-25T08:20:50Z</time>
      </trkpt>
      <trkpt lat="45.6417" lon="4.66843">
        <ele>443</ele>
        <time>2017-02-25T08:20:53Z</time>
      </trkpt>
      <trkpt lat="45.64176" lon="4.66843">
        <ele>443</ele>
        <time>2017-02-25T08:20:56Z</time>
      </trkpt>
      <trkpt lat="45.64182" lon="4.66842">
        <ele>443</ele>
        <time>2017-02-25T08:20:59Z</time>
      </trkpt>
      <trkpt lat="45.64189" lon="4.6684">
        <ele>443</ele>
        <time>2017-02-25T08:21:02Z</time>
      </trkpt>
      <trkpt lat="45.64195" lon="4.66839">
        <ele>444</ele>
        <time>2017-02-25T08:21:05Z</time>
      </trkpt>
      <trkpt lat="45.642" lon="4.66841">
        <ele>444</ele>
        <time>2017-02-25T08:21:07Z</time>
      </trkpt>
      <trkpt lat="45.64207" lon="4.66842">
        <ele>443</ele>
        <time>2017-02-25T08:21:10Z</time>
      </trkpt>
      <trkpt lat="45.64212" lon="4.66843">
        <ele>443</ele>
        <time>2017-02-25T08:21:12Z</time>
      </trkpt>
      <trkpt lat="45.64217" lon="4.66843">
        <ele>443</ele>
        <time>2017-02-25T08:21:14Z</time>
      </trkpt>
      <trkpt lat="45.64222" lon="4.66844">
        <ele>443</ele>
        <time>2017-02-25T08:21:16Z</time>
      </trkpt>
      <trkpt lat="45.64227" lon="4.66846">
        <ele>443</ele>
        <time>2017-02-25T08:21:18Z</time>
      </trkpt>
      <trkpt lat="45.64231" lon="4.66849">
        <ele>443</ele>
        <time>2017-02-25T08:21:20Z</time>
      </trkpt>
      <trkpt lat="45.64236" lon="4.66852">
        <ele>443</ele>
        <time>2017-02-25T08:21:22Z</time>
      </trkpt>
      <trkpt lat="45.6424" lon="4.66856">
        <ele>443</ele>
        <time>2017-02-25T08:21:24Z</time>
      </trkpt>
      <trkpt lat="45.64245" lon="4.66859">
        <ele>443</ele>
        <time>2017-02-25T08:21:26Z</time>
      </trkpt>
      <trkpt lat="45.6425" lon="4.66864">
        <ele>443</ele>
        <time>2017-02-25T08:21:28Z</time>
      </trkpt>
      <trkpt lat="45.64256" lon="4.66871">
        <ele>443</ele>
        <time>2017-02-25T08:21:31Z</time>
      </trkpt>
      <trkpt lat="45.64261" lon="4.66876">
        <ele>443</ele>
        <time>2017-02-25T08:21:33Z</time>
      </trkpt>
      <trkpt lat="45.64265" lon="4.66882">
        <ele>443</ele>
        <time>2017-02-25T08:21:35Z</time>
      </trkpt>
      <trkpt lat="45.64269" lon="4.66889">
        <ele>444</ele>
        <time>2017-02-25T08:21:37Z</time>
      </trkpt>
      <trkpt lat="45.64273" lon="4.66896">
        <ele>444</ele>
        <time>2017-02-25T08:21:39Z</time>
      </trkpt>
      <trkpt lat="45.64277" lon="4.66903">
        <ele>445</ele>
        <time>2017-02-25T08:21:41Z</time>
      </trkpt>
      <trkpt lat="45.6428" lon="4.66908">
        <ele>445</ele>
        <time>2017-02-25T08:21:43Z</time>
      </trkpt>
      <trkpt lat="45.64284" lon="4.66916">
        <ele>445</ele>
        <time>2017-02-25T08:21:45Z</time>
      </trkpt>
      <trkpt lat="45.64288" lon="4.66923">
        <ele>446</ele>
        <time>2017-02-25T08:21:47Z</time>
      </trkpt>
      <trkpt lat="45.64291" lon="4.6693">
        <ele>446</ele>
        <time>2017-02-25T08:21:49Z</time>
      </trkpt>
      <trkpt lat="45.64294" lon="4.66936">
        <ele>447</ele>
        <time>2017-02-25T08:21:51Z</time>
      </trkpt>
      <trkpt lat="45.64298" lon="4.66942">
        <ele>448</ele>
        <time>2017-02-25T08:21:53Z</time>
      </trkpt>
      <trkpt lat="45.64301" lon="4.66948">
        <ele>449</ele>
        <time>2017-02-25T08:21:55Z</time>
      </trkpt>
      <trkpt lat="45.64305" lon="4.66956">
        <ele>450</ele>
        <time>2017-02-25T08:21:58Z</time>
      </trkpt>
      <trkpt lat="45.64309" lon="4.66963">
        <ele>451</ele>
        <time>2017-02-25T08:22:01Z</time>
      </trkpt>
      <trkpt lat="45.64313" lon="4.6697">
        <ele>451</ele>
        <time>2017-02-25T08:22:04Z</time>
      </trkpt>
      <trkpt lat="45.64316" lon="4.66978">
        <ele>450</ele>
        <time>2017-02-25T08:22:07Z</time>
      </trkpt>
      <trkpt lat="45.64319" lon="4.66985">
        <ele>449</ele>
        <time>2017-02-25T08:22:10Z</time>
      </trkpt>
      <trkpt lat="45.64322" lon="4.66992">
        <ele>448</ele>
        <time>2017-02-25T08:22:13Z</time>
      </trkpt>
      <trkpt lat="45.64325" lon="4.67">
        <ele>448</ele>
        <time>2017-02-25T08:22:17Z</time>
      </trkpt>
      <trkpt lat="45.6433" lon="4.67">
        <ele>449</ele>
        <time>2017-02-25T08:22:22Z</time>
      </trkpt>
      <trkpt lat="45.64335" lon="4.66998">
        <ele>451</ele>
        <time>2017-02-25T08:22:26Z</time>
      </trkpt>
      <trkpt lat="45.6434" lon="4.66994">
        <ele>453</ele>
        <time>2017-02-25T08:22:30Z</time>
      </trkpt>
      <trkpt lat="45.64344" lon="4.66991">
        <ele>454</ele>
        <time>2017-02-25T08:22:34Z</time>
      </trkpt>
      <trkpt lat="45.64349" lon="4.66989">
        <ele>456</ele>
        <time>2017-02-25T08:22:38Z</time>
      </trkpt>
      <trkpt lat="45.64355" lon="4.66987">
        <ele>457</ele>
        <time>2017-02-25T08:22:41Z</time>
      </trkpt>
      <trkpt lat="45.64359" lon="4.66985">
        <ele>458</ele>
        <time>2017-02-25T08:22:44Z</time>
      </trkpt>
      <trkpt lat="45.64365" lon="4.66984">
        <ele>460</ele>
        <time>2017-02-25T08:22:48Z</time>
      </trkpt>
      <trkpt lat="45.6437" lon="4.66983">
        <ele>462</ele>
        <time>2017-02-25T08:22:52Z</time>
      </trkpt>
      <trkpt lat="45.64376" lon="4.66984">
        <ele>464</ele>
        <time>2017-02-25T08:22:56Z</time>
      </trkpt>
      <trkpt lat="45.64381" lon="4.66987">
        <ele>465</ele>
        <time>2017-02-25T08:23:00Z</time>
      </trkpt>
      <trkpt lat="45.64383" lon="4.66993">
        <ele>466</ele>
        <time>2017-02-25T08:23:03Z</time>
      </trkpt>
      <trkpt lat="45.6438" lon="4.66999">
        <ele>466</ele>
        <time>2017-02-25T08:23:06Z</time>
      </trkpt>
      <trkpt lat="45.64379" lon="4.67006">
        <ele>466</ele>
        <time>2017-02-25T08:23:09Z</time>
      </trkpt>
      <trkpt lat="45.64378" lon="4.67013">
        <ele>465</ele>
        <time>2017-02-25T08:23:11Z</time>
      </trkpt>
      <trkpt lat="45.64376" lon="4.67021">
        <ele>465</ele>
        <time>2017-02-25T08:23:13Z</time>
      </trkpt>
      <trkpt lat="45.64376" lon="4.67028">
        <ele>464</ele>
        <time>2017-02-25T08:23:15Z</time>
      </trkpt>
      <trkpt lat="45.64376" lon="4.67037">
        <ele>464</ele>
        <time>2017-02-25T08:23:17Z</time>
      </trkpt>
      <trkpt lat="45.64376" lon="4.67046">
        <ele>464</ele>
        <time>2017-02-25T08:23:19Z</time>
      </trkpt>
      <trkpt lat="45.64378" lon="4.67055">
        <ele>464</ele>
        <time>2017-02-25T08:23:21Z</time>
      </trkpt>
      <trkpt lat="45.64379" lon="4.67065">
        <ele>464</ele>
        <time>2017-02-25T08:23:23Z</time>
      </trkpt>
      <trkpt lat="45.6438" lon="4.67075">
        <ele>464</ele>
        <time>2017-02-25T08:23:25Z</time>
      </trkpt>
      <trkpt lat="45.64381" lon="4.67083">
        <ele>464</ele>
        <time>2017-02-25T08:23:27Z</time>
      </trkpt>
      <trkpt lat="45.64383" lon="4.67095">
        <ele>464</ele>
        <time>2017-02-25T08:23:29Z</time>
      </trkpt>
      <trkpt lat="45.64384" lon="4.67107">
        <ele>463</ele>
        <time>2017-02-25T08:23:31Z</time>
      </trkpt>
      <trkpt lat="45.64385" lon="4.67119">
        <ele>463</ele>
        <time>2017-02-25T08:23:33Z</time>
      </trkpt>
      <trkpt lat="45.64386" lon="4.67131">
        <ele>463</ele>
        <time>2017-02-25T08:23:35Z</time>
      </trkpt>
      <trkpt lat="45.64387" lon="4.67142">
        <ele>463</ele>
        <time>2017-02-25T08:23:37Z</time>
      </trkpt>
      <trkpt lat="45.64388" lon="4.67152">
        <ele>463</ele>
        <time>2017-02-25T08:23:39Z</time>
      </trkpt>
      <trkpt lat="45.64388" lon="4.6716">
        <ele>463</ele>
        <time>2017-02-25T08:23:41Z</time>
      </trkpt>
      <trkpt lat="45.64389" lon="4.67169">
        <ele>462</ele>
        <time>2017-02-25T08:23:43Z</time>
      </trkpt>
      <trkpt lat="45.64389" lon="4.67177">
        <ele>462</ele>
        <time>2017-02-25T08:23:45Z</time>
      </trkpt>
      <trkpt lat="45.64391" lon="4.67186">
        <ele>462</ele>
        <time>2017-02-25T08:23:47Z</time>
      </trkpt>
      <trkpt lat="45.64393" lon="4.67194">
        <ele>461</ele>
        <time>2017-02-25T08:23:49Z</time>
      </trkpt>
      <trkpt lat="45.64395" lon="4.67203">
        <ele>461</ele>
        <time>2017-02-25T08:23:51Z</time>
      </trkpt>
      <trkpt lat="45.64397" lon="4.67213">
        <ele>461</ele>
        <time>2017-02-25T08:23:53Z</time>
      </trkpt>
      <trkpt lat="45.64399" lon="4.67223">
        <ele>461</ele>
        <time>2017-02-25T08:23:55Z</time>
      </trkpt>
      <trkpt lat="45.64401" lon="4.67232">
        <ele>461</ele>
        <time>2017-02-25T08:23:57Z</time>
      </trkpt>
      <trkpt lat="45.64401" lon="4.67242">
        <ele>461</ele>
        <time>2017-02-25T08:23:59Z</time>
      </trkpt>
      <trkpt lat="45.64403" lon="4.6725">
        <ele>462</ele>
        <time>2017-02-25T08:24:01Z</time>
      </trkpt>
      <trkpt lat="45.64405" lon="4.67259">
        <ele>462</ele>
        <time>2017-02-25T08:24:03Z</time>
      </trkpt>
      <trkpt lat="45.64406" lon="4.67266">
        <ele>463</ele>
        <time>2017-02-25T08:24:05Z</time>
      </trkpt>
      <trkpt lat="45.64407" lon="4.67273">
        <ele>463</ele>
        <time>2017-02-25T08:24:07Z</time>
      </trkpt>
      <trkpt lat="45.64407" lon="4.67282">
        <ele>464</ele>
        <time>2017-02-25T08:24:10Z</time>
      </trkpt>
      <trkpt lat="45.64402" lon="4.67284">
        <ele>464</ele>
        <time>2017-02-25T08:24:12Z</time>
      </trkpt>
      <trkpt lat="45.64395" lon="4.67284">
        <ele>464</ele>
        <time>2017-02-25T08:24:14Z</time>
      </trkpt>
      <trkpt lat="45.64387" lon="4.67284">
        <ele>464</ele>
        <time>2017-02-25T08:24:16Z</time>
      </trkpt>
      <trkpt lat="45.64379" lon="4.67285">
        <ele>464</ele>
        <time>2017-02-25T08:24:18Z</time>
      </trkpt>
      <trkpt lat="45.6437" lon="4.67285">
        <ele>463</ele>
        <time>2017-02-25T08:24:20Z</time>
      </trkpt>
      <trkpt lat="45.64362" lon="4.67284">
        <ele>463</ele>
        <time>2017-02-25T08:24:22Z</time>
      </trkpt>
      <trkpt lat="45.64355" lon="4.67277">
        <ele>462</ele>
        <time>2017-02-25T08:24:24Z</time>
      </trkpt>
      <trkpt lat="45.64352" lon="4.67271">
        <ele>461</ele>
        <time>2017-02-25T08:24:25Z</time>
      </trkpt>
      <trkpt lat="45.64348" lon="4.6726">
        <ele>461</ele>
        <time>2017-02-25T08:24:26Z</time>
      </trkpt>
      <trkpt lat="45.64344" lon="4.67255">
        <ele>461</ele>
        <time>2017-02-25T08:24:27Z</time>
      </trkpt>
      <trkpt lat="45.64341" lon="4.67251">
        <ele>460</ele>
        <time>2017-02-25T08:24:28Z</time>
      </trkpt>
      <trkpt lat="45.64335" lon="4.67246">
        <ele>459</ele>
        <time>2017-02-25T08:24:29Z</time>
      </trkpt>
      <trkpt lat="45.6433" lon="4.67239">
        <ele>459</ele>
        <time>2017-02-25T08:24:30Z</time>
      </trkpt>
      <trkpt lat="45.64326" lon="4.67236">
        <ele>458</ele>
        <time>2017-02-25T08:24:31Z</time>
      </trkpt>
      <trkpt lat="45.6432" lon="4.67233">
        <ele>458</ele>
        <time>2017-02-25T08:24:32Z</time>
      </trkpt>
      <trkpt lat="45.64314" lon="4.67233">
        <ele>457</ele>
        <time>2017-02-25T08:24:33Z</time>
      </trkpt>
      <trkpt lat="45.64307" lon="4.67233">
        <ele>457</ele>
        <time>2017-02-25T08:24:34Z</time>
      </trkpt>
      <trkpt lat="45.64301" lon="4.67233">
        <ele>457</ele>
        <time>2017-02-25T08:24:35Z</time>
      </trkpt>
      <trkpt lat="45.64294" lon="4.67233">
        <ele>458</ele>
        <time>2017-02-25T08:24:36Z</time>
      </trkpt>
      <trkpt lat="45.64287" lon="4.67233">
        <ele>458</ele>
        <time>2017-02-25T08:24:37Z</time>
      </trkpt>
      <trkpt lat="45.64281" lon="4.67233">
        <ele>458</ele>
        <time>2017-02-25T08:24:38Z</time>
      </trkpt>
      <trkpt lat="45.64276" lon="4.67232">
        <ele>458</ele>
        <time>2017-02-25T08:24:39Z</time>
      </trkpt>
      <trkpt lat="45.6427" lon="4.67232">
        <ele>458</ele>
        <time>2017-02-25T08:24:40Z</time>
      </trkpt>
      <trkpt lat="45.64264" lon="4.67232">
        <ele>458</ele>
        <time>2017-02-25T08:24:41Z</time>
      </trkpt>
      <trkpt lat="45.64258" lon="4.67231">
        <ele>458</ele>
        <time>2017-02-25T08:24:42Z</time>
      </trkpt>
      <trkpt lat="45.64252" lon="4.6723">
        <ele>458</ele>
        <time>2017-02-25T08:24:43Z</time>
      </trkpt>
      <trkpt lat="45.64246" lon="4.67229">
        <ele>458</ele>
        <time>2017-02-25T08:24:44Z</time>
      </trkpt>
      <trkpt lat="45.64241" lon="4.6723">
        <ele>458</ele>
        <time>2017-02-25T08:24:45Z</time>
      </trkpt>
      <trkpt lat="45.64235" lon="4.67231">
        <ele>459</ele>
        <time>2017-02-25T08:24:46Z</time>
      </trkpt>
      <trkpt lat="45.64229" lon="4.67232">
        <ele>459</ele>
        <time>2017-02-25T08:24:47Z</time>
      </trkpt>
      <trkpt lat="45.64225" lon="4.67237">
        <ele>460</ele>
        <time>2017-02-25T08:24:48Z</time>
      </trkpt>
      <trkpt lat="45.64219" lon="4.67241">
        <ele>460</ele>
        <time>2017-02-25T08:24:49Z</time>
      </trkpt>
      <trkpt lat="45.64213" lon="4.67242">
        <ele>461</ele>
        <time>2017-02-25T08:24:50Z</time>
      </trkpt>
      <trkpt lat="45.64206" lon="4.67244">
        <ele>461</ele>
        <time>2017-02-25T08:24:51Z</time>
      </trkpt>
      <trkpt lat="45.64199" lon="4.67244">
        <ele>461</ele>
        <time>2017-02-25T08:24:52Z</time>
      </trkpt>
      <trkpt lat="45.64193" lon="4.67245">
        <ele>461</ele>
        <time>2017-02-25T08:24:53Z</time>
      </trkpt>
      <trkpt lat="45.64187" lon="4.67245">
        <ele>461</ele>
        <time>2017-02-25T08:24:54Z</time>
      </trkpt>
      <trkpt lat="45.6418" lon="4.67244">
        <ele>460</ele>
        <time>2017-02-25T08:24:55Z</time>
      </trkpt>
      <trkpt lat="45.64174" lon="4.67243">
        <ele>460</ele>
        <time>2017-02-25T08:24:56Z</time>
      </trkpt>
      <trkpt lat="45.64161" lon="4.67244">
        <ele>459</ele>
        <time>2017-02-25T08:24:58Z</time>
      </trkpt>
      <trkpt lat="45.64154" lon="4.67244">
        <ele>459</ele>
        <time>2017-02-25T08:24:59Z</time>
      </trkpt>
      <trkpt lat="45.64148" lon="4.67245">
        <ele>459</ele>
        <time>2017-02-25T08:25:00Z</time>
      </trkpt>
      <trkpt lat="45.64141" lon="4.67244">
        <ele>458</ele>
        <time>2017-02-25T08:25:01Z</time>
      </trkpt>
      <trkpt lat="45.64134" lon="4.67244">
        <ele>458</ele>
        <time>2017-02-25T08:25:02Z</time>
      </trkpt>
      <trkpt lat="45.64127" lon="4.67244">
        <ele>458</ele>
        <time>2017-02-25T08:25:03Z</time>
      </trkpt>
      <trkpt lat="45.64119" lon="4.67243">
        <ele>457</ele>
        <time>2017-02-25T08:25:04Z</time>
      </trkpt>
      <trkpt lat="45.64113" lon="4.67243">
        <ele>457</ele>
        <time>2017-02-25T08:25:05Z</time>
      </trkpt>
      <trkpt lat="45.64104" lon="4.67245">
        <ele>457</ele>
        <time>2017-02-25T08:25:06Z</time>
      </trkpt>
      <trkpt lat="45.64097" lon="4.67245">
        <ele>456</ele>
        <time>2017-02-25T08:25:07Z</time>
      </trkpt>
      <trkpt lat="45.64083" lon="4.67245">
        <ele>456</ele>
        <time>2017-02-25T08:25:09Z</time>
      </trkpt>
      <trkpt lat="45.64075" lon="4.67246">
        <ele>456</ele>
        <time>2017-02-25T08:25:10Z</time>
      </trkpt>
      <trkpt lat="45.64068" lon="4.67247">
        <ele>456</ele>
        <time>2017-02-25T08:25:11Z</time>
      </trkpt>
      <trkpt lat="45.64062" lon="4.67248">
        <ele>456</ele>
        <time>2017-02-25T08:25:12Z</time>
      </trkpt>
      <trkpt lat="45.64055" lon="4.67248">
        <ele>456</ele>
        <time>2017-02-25T08:25:13Z</time>
      </trkpt>
      <trkpt lat="45.64049" lon="4.67249">
        <ele>455</ele>
        <time>2017-02-25T08:25:14Z</time>
      </trkpt>
      <trkpt lat="45.64043" lon="4.67252">
        <ele>455</ele>
        <time>2017-02-25T08:25:15Z</time>
      </trkpt>
      <trkpt lat="45.64037" lon="4.67254">
        <ele>454</ele>
        <time>2017-02-25T08:25:16Z</time>
      </trkpt>
      <trkpt lat="45.6403" lon="4.67256">
        <ele>454</ele>
        <time>2017-02-25T08:25:17Z</time>
      </trkpt>
      <trkpt lat="45.64024" lon="4.67258">
        <ele>453</ele>
        <time>2017-02-25T08:25:18Z</time>
      </trkpt>
      <trkpt lat="45.64017" lon="4.6726">
        <ele>453</ele>
        <time>2017-02-25T08:25:19Z</time>
      </trkpt>
      <trkpt lat="45.6401" lon="4.67262">
        <ele>452</ele>
        <time>2017-02-25T08:25:20Z</time>
      </trkpt>
      <trkpt lat="45.64004" lon="4.67264">
        <ele>452</ele>
        <time>2017-02-25T08:25:21Z</time>
      </trkpt>
      <trkpt lat="45.63996" lon="4.67266">
        <ele>452</ele>
        <time>2017-02-25T08:25:22Z</time>
      </trkpt>
      <trkpt lat="45.63989" lon="4.67269">
        <ele>452</ele>
        <time>2017-02-25T08:25:23Z</time>
      </trkpt>
      <trkpt lat="45.6398" lon="4.67272">
        <ele>451</ele>
        <time>2017-02-25T08:25:24Z</time>
      </trkpt>
      <trkpt lat="45.63972" lon="4.67274">
        <ele>450</ele>
        <time>2017-02-25T08:25:25Z</time>
      </trkpt>
      <trkpt lat="45.63963" lon="4.67278">
        <ele>450</ele>
        <time>2017-02-25T08:25:26Z</time>
      </trkpt>
      <trkpt lat="45.63956" lon="4.67282">
        <ele>449</ele>
        <time>2017-02-25T08:25:27Z</time>
      </trkpt>
      <trkpt lat="45.63949" lon="4.67285">
        <ele>448</ele>
        <time>2017-02-25T08:25:28Z</time>
      </trkpt>
      <trkpt lat="45.63941" lon="4.67288">
        <ele>448</ele>
        <time>2017-02-25T08:25:29Z</time>
      </trkpt>
      <trkpt lat="45.63934" lon="4.67291">
        <ele>447</ele>
        <time>2017-02-25T08:25:30Z</time>
      </trkpt>
      <trkpt lat="45.63926" lon="4.67294">
        <ele>446</ele>
        <time>2017-02-25T08:25:31Z</time>
      </trkpt>
      <trkpt lat="45.63919" lon="4.67299">
        <ele>445</ele>
        <time>2017-02-25T08:25:32Z</time>
      </trkpt>
      <trkpt lat="45.63913" lon="4.67305">
        <ele>444</ele>
        <time>2017-02-25T08:25:33Z</time>
      </trkpt>
      <trkpt lat="45.63906" lon="4.67312">
        <ele>443</ele>
        <time>2017-02-25T08:25:34Z</time>
      </trkpt>
      <trkpt lat="45.639" lon="4.67318">
        <ele>443</ele>
        <time>2017-02-25T08:25:35Z</time>
      </trkpt>
      <trkpt lat="45.63892" lon="4.67327">
        <ele>443</ele>
        <time>2017-02-25T08:25:36Z</time>
      </trkpt>
      <trkpt lat="45.63885" lon="4.67335">
        <ele>442</ele>
        <time>2017-02-25T08:25:37Z</time>
      </trkpt>
      <trkpt lat="45.63879" lon="4.67342">
        <ele>442</ele>
        <time>2017-02-25T08:25:38Z</time>
      </trkpt>
      <trkpt lat="45.63873" lon="4.67347">
        <ele>441</ele>
        <time>2017-02-25T08:25:39Z</time>
      </trkpt>
      <trkpt lat="45.63866" lon="4.67351">
        <ele>440</ele>
        <time>2017-02-25T08:25:40Z</time>
      </trkpt>
      <trkpt lat="45.63859" lon="4.67355">
        <ele>440</ele>
        <time>2017-02-25T08:25:41Z</time>
      </trkpt>
      <trkpt lat="45.63851" lon="4.67359">
        <ele>439</ele>
        <time>2017-02-25T08:25:42Z</time>
      </trkpt>
      <trkpt lat="45.63844" lon="4.67364">
        <ele>437</ele>
        <time>2017-02-25T08:25:43Z</time>
      </trkpt>
      <trkpt lat="45.63836" lon="4.6737">
        <ele>434</ele>
        <time>2017-02-25T08:25:44Z</time>
      </trkpt>
      <trkpt lat="45.63826" lon="4.67375">
        <ele>430</ele>
        <time>2017-02-25T08:25:45Z</time>
      </trkpt>
      <trkpt lat="45.63817" lon="4.67379">
        <ele>426</ele>
        <time>2017-02-25T08:25:46Z</time>
      </trkpt>
      <trkpt lat="45.63809" lon="4.67384">
        <ele>422</ele>
        <time>2017-02-25T08:25:47Z</time>
      </trkpt>
      <trkpt lat="45.63802" lon="4.67389">
        <ele>419</ele>
        <time>2017-02-25T08:25:48Z</time>
      </trkpt>
      <trkpt lat="45.63796" lon="4.67393">
        <ele>417</ele>
        <time>2017-02-25T08:25:49Z</time>
      </trkpt>
      <trkpt lat="45.63789" lon="4.67397">
        <ele>416</ele>
        <time>2017-02-25T08:25:50Z</time>
      </trkpt>
      <trkpt lat="45.63784" lon="4.674">
        <ele>416</ele>
        <time>2017-02-25T08:25:53Z</time>
      </trkpt>
      <trkpt lat="45.63784" lon="4.67406">
        <ele>415</ele>
        <time>2017-02-25T08:25:55Z</time>
      </trkpt>
      <trkpt lat="45.6379" lon="4.67415">
        <ele>415</ele>
        <time>2017-02-25T08:25:57Z</time>
      </trkpt>
      <trkpt lat="45.63793" lon="4.6742">
        <ele>416</ele>
        <time>2017-02-25T08:25:59Z</time>
      </trkpt>
      <trkpt lat="45.63799" lon="4.67424">
        <ele>415</ele>
        <time>2017-02-25T08:26:02Z</time>
      </trkpt>
      <trkpt lat="45.63804" lon="4.67429">
        <ele>414</ele>
        <time>2017-02-25T08:26:04Z</time>
      </trkpt>
      <trkpt lat="45.63808" lon="4.67434">
        <ele>414</ele>
        <time>2017-02-25T08:26:06Z</time>
      </trkpt>
      <trkpt lat="45.63814" lon="4.6744">
        <ele>412</ele>
        <time>2017-02-25T08:26:08Z</time>
      </trkpt>
      <trkpt lat="45.63819" lon="4.67446">
        <ele>410</ele>
        <time>2017-02-25T08:26:10Z</time>
      </trkpt>
      <trkpt lat="45.63824" lon="4.67452">
        <ele>410</ele>
        <time>2017-02-25T08:26:12Z</time>
      </trkpt>
      <trkpt lat="45.6383" lon="4.67458">
        <ele>410</ele>
        <time>2017-02-25T08:26:14Z</time>
      </trkpt>
      <trkpt lat="45.63835" lon="4.67465">
        <ele>410</ele>
        <time>2017-02-25T08:26:16Z</time>
      </trkpt>
      <trkpt lat="45.6384" lon="4.67471">
        <ele>410</ele>
        <time>2017-02-25T08:26:18Z</time>
      </trkpt>
      <trkpt lat="45.63844" lon="4.67477">
        <ele>410</ele>
        <time>2017-02-25T08:26:20Z</time>
      </trkpt>
      <trkpt lat="45.63848" lon="4.67484">
        <ele>410</ele>
        <time>2017-02-25T08:26:22Z</time>
      </trkpt>
      <trkpt lat="45.63853" lon="4.67489">
        <ele>410</ele>
        <time>2017-02-25T08:26:24Z</time>
      </trkpt>
      <trkpt lat="45.63857" lon="4.67495">
        <ele>410</ele>
        <time>2017-02-25T08:26:26Z</time>
      </trkpt>
      <trkpt lat="45.63862" lon="4.67502">
        <ele>410</ele>
        <time>2017-02-25T08:26:28Z</time>
      </trkpt>
      <trkpt lat="45.63867" lon="4.67508">
        <ele>410</ele>
        <time>2017-02-25T08:26:30Z</time>
      </trkpt>
      <trkpt lat="45.63872" lon="4.67514">
        <ele>410</ele>
        <time>2017-02-25T08:26:32Z</time>
      </trkpt>
      <trkpt lat="45.63877" lon="4.67521">
        <ele>410</ele>
        <time>2017-02-25T08:26:34Z</time>
      </trkpt>
      <trkpt lat="45.63881" lon="4.67527">
        <ele>410</ele>
        <time>2017-02-25T08:26:36Z</time>
      </trkpt>
      <trkpt lat="45.63885" lon="4.67534">
        <ele>409</ele>
        <time>2017-02-25T08:26:38Z</time>
      </trkpt>
      <trkpt lat="45.63887" lon="4.67541">
        <ele>409</ele>
        <time>2017-02-25T08:26:40Z</time>
      </trkpt>
      <trkpt lat="45.63883" lon="4.67546">
        <ele>409</ele>
        <time>2017-02-25T08:26:42Z</time>
      </trkpt>
      <trkpt lat="45.63878" lon="4.67549">
        <ele>409</ele>
        <time>2017-02-25T08:26:44Z</time>
      </trkpt>
      <trkpt lat="45.63873" lon="4.67553">
        <ele>409</ele>
        <time>2017-02-25T08:26:46Z</time>
      </trkpt>
      <trkpt lat="45.63872" lon="4.6756">
        <ele>409</ele>
        <time>2017-02-25T08:26:48Z</time>
      </trkpt>
      <trkpt lat="45.63873" lon="4.67568">
        <ele>409</ele>
        <time>2017-02-25T08:26:50Z</time>
      </trkpt>
      <trkpt lat="45.63876" lon="4.67573">
        <ele>410</ele>
        <time>2017-02-25T08:26:51Z</time>
      </trkpt>
      <trkpt lat="45.63881" lon="4.67581">
        <ele>410</ele>
        <time>2017-02-25T08:26:53Z</time>
      </trkpt>
      <trkpt lat="45.63885" lon="4.67589">
        <ele>411</ele>
        <time>2017-02-25T08:26:55Z</time>
      </trkpt>
      <trkpt lat="45.63888" lon="4.67598">
        <ele>411</ele>
        <time>2017-02-25T08:26:57Z</time>
      </trkpt>
      <trkpt lat="45.6389" lon="4.67607">
        <ele>411</ele>
        <time>2017-02-25T08:26:59Z</time>
      </trkpt>
      <trkpt lat="45.63893" lon="4.67616">
        <ele>411</ele>
        <time>2017-02-25T08:27:01Z</time>
      </trkpt>
      <trkpt lat="45.63895" lon="4.67625">
        <ele>411</ele>
        <time>2017-02-25T08:27:03Z</time>
      </trkpt>
      <trkpt lat="45.63897" lon="4.67635">
        <ele>411</ele>
        <time>2017-02-25T08:27:05Z</time>
      </trkpt>
      <trkpt lat="45.63899" lon="4.67645">
        <ele>411</ele>
        <time>2017-02-25T08:27:07Z</time>
      </trkpt>
      <trkpt lat="45.63902" lon="4.67654">
        <ele>411</ele>
        <time>2017-02-25T08:27:09Z</time>
      </trkpt>
      <trkpt lat="45.63905" lon="4.67662">
        <ele>411</ele>
        <time>2017-02-25T08:27:11Z</time>
      </trkpt>
      <trkpt lat="45.63909" lon="4.6767">
        <ele>411</ele>
        <time>2017-02-25T08:27:13Z</time>
      </trkpt>
      <trkpt lat="45.63914" lon="4.67678">
        <ele>411</ele>
        <time>2017-02-25T08:27:15Z</time>
      </trkpt>
      <trkpt lat="45.63918" lon="4.67687">
        <ele>411</ele>
        <time>2017-02-25T08:27:17Z</time>
      </trkpt>
      <trkpt lat="45.63924" lon="4.67696">
        <ele>411</ele>
        <time>2017-02-25T08:27:19Z</time>
      </trkpt>
      <trkpt lat="45.63927" lon="4.67701">
        <ele>411</ele>
        <time>2017-02-25T08:27:20Z</time>
      </trkpt>
      <trkpt lat="45.6393" lon="4.67707">
        <ele>411</ele>
        <time>2017-02-25T08:27:21Z</time>
      </trkpt>
      <trkpt lat="45.63933" lon="4.67712">
        <ele>411</ele>
        <time>2017-02-25T08:27:22Z</time>
      </trkpt>
      <trkpt lat="45.63935" lon="4.67718">
        <ele>411</ele>
        <time>2017-02-25T08:27:23Z</time>
      </trkpt>
      <trkpt lat="45.63938" lon="4.67728">
        <ele>411</ele>
        <time>2017-02-25T08:27:24Z</time>
      </trkpt>
      <trkpt lat="45.63944" lon="4.67739">
        <ele>411</ele>
        <time>2017-02-25T08:27:26Z</time>
      </trkpt>
      <trkpt lat="45.63952" lon="4.67748">
        <ele>410</ele>
        <time>2017-02-25T08:27:28Z</time>
      </trkpt>
      <trkpt lat="45.63955" lon="4.67755">
        <ele>410</ele>
        <time>2017-02-25T08:27:29Z</time>
      </trkpt>
      <trkpt lat="45.63957" lon="4.67761">
        <ele>409</ele>
        <time>2017-02-25T08:27:30Z</time>
      </trkpt>
      <trkpt lat="45.6396" lon="4.67766">
        <ele>409</ele>
        <time>2017-02-25T08:27:31Z</time>
      </trkpt>
      <trkpt lat="45.63963" lon="4.67773">
        <ele>409</ele>
        <time>2017-02-25T08:27:35Z</time>
      </trkpt>
      <trkpt lat="45.63965" lon="4.6778">
        <ele>409</ele>
        <time>2017-02-25T08:27:37Z</time>
      </trkpt>
      <trkpt lat="45.63969" lon="4.67788">
        <ele>409</ele>
        <time>2017-02-25T08:27:39Z</time>
      </trkpt>
      <trkpt lat="45.63972" lon="4.67794">
        <ele>409</ele>
        <time>2017-02-25T08:27:41Z</time>
      </trkpt>
      <trkpt lat="45.63969" lon="4.67801">
        <ele>409</ele>
        <time>2017-02-25T08:27:44Z</time>
      </trkpt>
      <trkpt lat="45.63962" lon="4.67806">
        <ele>409</ele>
        <time>2017-02-25T08:27:47Z</time>
      </trkpt>
      <trkpt lat="45.63957" lon="4.67807">
        <ele>409</ele>
        <time>2017-02-25T08:27:49Z</time>
      </trkpt>
      <trkpt lat="45.63952" lon="4.67808">
        <ele>409</ele>
        <time>2017-02-25T08:27:50Z</time>
      </trkpt>
      <trkpt lat="45.63945" lon="4.67808">
        <ele>409</ele>
        <time>2017-02-25T08:27:52Z</time>
      </trkpt>
      <trkpt lat="45.63938" lon="4.67807">
        <ele>409</ele>
        <time>2017-02-25T08:27:54Z</time>
      </trkpt>
      <trkpt lat="45.63931" lon="4.67806">
        <ele>409</ele>
        <time>2017-02-25T08:27:56Z</time>
      </trkpt>
      <trkpt lat="45.63923" lon="4.67807">
        <ele>409</ele>
        <time>2017-02-25T08:27:58Z</time>
      </trkpt>
      <trkpt lat="45.63916" lon="4.67808">
        <ele>409</ele>
        <time>2017-02-25T08:27:59Z</time>
      </trkpt>
      <trkpt lat="45.63911" lon="4.67808">
        <ele>408</ele>
        <time>2017-02-25T08:28:00Z</time>
      </trkpt>
      <trkpt lat="45.63907" lon="4.67807">
        <ele>408</ele>
        <time>2017-02-25T08:28:01Z</time>
      </trkpt>
      <trkpt lat="45.63902" lon="4.67808">
        <ele>408</ele>
        <time>2017-02-25T08:28:02Z</time>
      </trkpt>
      <trkpt lat="45.63897" lon="4.67808">
        <ele>408</ele>
        <time>2017-02-25T08:28:03Z</time>
      </trkpt>
      <trkpt lat="45.63892" lon="4.67807">
        <ele>408</ele>
        <time>2017-02-25T08:28:04Z</time>
      </trkpt>
      <trkpt lat="45.63886" lon="4.67805">
        <ele>408</ele>
        <time>2017-02-25T08:28:05Z</time>
      </trkpt>
      <trkpt lat="45.6388" lon="4.67804">
        <ele>408</ele>
        <time>2017-02-25T08:28:06Z</time>
      </trkpt>
      <trkpt lat="45.63875" lon="4.67804">
        <ele>408</ele>
        <time>2017-02-25T08:28:07Z</time>
      </trkpt>
      <trkpt lat="45.6387" lon="4.67804">
        <ele>409</ele>
        <time>2017-02-25T08:28:08Z</time>
      </trkpt>
      <trkpt lat="45.63865" lon="4.67804">
        <ele>409</ele>
        <time>2017-02-25T08:28:09Z</time>
      </trkpt>
      <trkpt lat="45.63856" lon="4.67804">
        <ele>409</ele>
        <time>2017-02-25T08:28:11Z</time>
      </trkpt>
      <trkpt lat="45.63847" lon="4.67804">
        <ele>409</ele>
        <time>2017-02-25T08:28:13Z</time>
      </trkpt>
      <trkpt lat="45.63842" lon="4.67806">
        <ele>409</ele>
        <time>2017-02-25T08:28:14Z</time>
      </trkpt>
      <trkpt lat="45.63837" lon="4.67806">
        <ele>409</ele>
        <time>2017-02-25T08:28:15Z</time>
      </trkpt>
      <trkpt lat="45.63833" lon="4.67806">
        <ele>409</ele>
        <time>2017-02-25T08:28:16Z</time>
      </trkpt>
      <trkpt lat="45.63828" lon="4.67806">
        <ele>409</ele>
        <time>2017-02-25T08:28:17Z</time>
      </trkpt>
      <trkpt lat="45.63823" lon="4.67806">
        <ele>409</ele>
        <time>2017-02-25T08:28:18Z</time>
      </trkpt>
      <trkpt lat="45.63818" lon="4.67806">
        <ele>409</ele>
        <time>2017-02-25T08:28:19Z</time>
      </trkpt>
      <trkpt lat="45.63813" lon="4.67805">
        <ele>409</ele>
        <time>2017-02-25T08:28:20Z</time>
      </trkpt>
      <trkpt lat="45.63808" lon="4.67805">
        <ele>409</ele>
        <time>2017-02-25T08:28:21Z</time>
      </trkpt>
      <trkpt lat="45.63802" lon="4.67806">
        <ele>409</ele>
        <time>2017-02-25T08:28:22Z</time>
      </trkpt>
      <trkpt lat="45.63797" lon="4.67808">
        <ele>409</ele>
        <time>2017-02-25T08:28:23Z</time>
      </trkpt>
      <trkpt lat="45.63791" lon="4.67809">
        <ele>408</ele>
        <time>2017-02-25T08:28:24Z</time>
      </trkpt>
      <trkpt lat="45.63785" lon="4.6781">
        <ele>408</ele>
        <time>2017-02-25T08:28:25Z</time>
      </trkpt>
      <trkpt lat="45.63779" lon="4.6781">
        <ele>408</ele>
        <time>2017-02-25T08:28:26Z</time>
      </trkpt>
      <trkpt lat="45.63775" lon="4.6781">
        <ele>408</ele>
        <time>2017-02-25T08:28:27Z</time>
      </trkpt>
      <trkpt lat="45.6377" lon="4.6781">
        <ele>409</ele>
        <time>2017-02-25T08:28:28Z</time>
      </trkpt>
      <trkpt lat="45.63765" lon="4.67811">
        <ele>409</ele>
        <time>2017-02-25T08:28:29Z</time>
      </trkpt>
      <trkpt lat="45.63759" lon="4.67808">
        <ele>409</ele>
        <time>2017-02-25T08:28:30Z</time>
      </trkpt>
      <trkpt lat="45.63753" lon="4.67809">
        <ele>408</ele>
        <time>2017-02-25T08:28:31Z</time>
      </trkpt>
      <trkpt lat="45.63748" lon="4.6781">
        <ele>408</ele>
        <time>2017-02-25T08:28:32Z</time>
      </trkpt>
      <trkpt lat="45.63742" lon="4.67811">
        <ele>407</ele>
        <time>2017-02-25T08:28:33Z</time>
      </trkpt>
      <trkpt lat="45.63735" lon="4.67811">
        <ele>407</ele>
        <time>2017-02-25T08:28:34Z</time>
      </trkpt>
      <trkpt lat="45.63728" lon="4.67811">
        <ele>406</ele>
        <time>2017-02-25T08:28:35Z</time>
      </trkpt>
      <trkpt lat="45.6372" lon="4.67811">
        <ele>406</ele>
        <time>2017-02-25T08:28:36Z</time>
      </trkpt>
      <trkpt lat="45.63714" lon="4.6781">
        <ele>406</ele>
        <time>2017-02-25T08:28:37Z</time>
      </trkpt>
      <trkpt lat="45.63706" lon="4.67811">
        <ele>406</ele>
        <time>2017-02-25T08:28:38Z</time>
      </trkpt>
      <trkpt lat="45.63699" lon="4.6781">
        <ele>405</ele>
        <time>2017-02-25T08:28:39Z</time>
      </trkpt>
      <trkpt lat="45.63693" lon="4.6781">
        <ele>405</ele>
        <time>2017-02-25T08:28:40Z</time>
      </trkpt>
      <trkpt lat="45.63686" lon="4.6781">
        <ele>405</ele>
        <time>2017-02-25T08:28:41Z</time>
      </trkpt>
      <trkpt lat="45.63681" lon="4.67811">
        <ele>405</ele>
        <time>2017-02-25T08:28:42Z</time>
      </trkpt>
      <trkpt lat="45.63673" lon="4.67811">
        <ele>405</ele>
        <time>2017-02-25T08:28:43Z</time>
      </trkpt>
      <trkpt lat="45.63667" lon="4.67811">
        <ele>405</ele>
        <time>2017-02-25T08:28:44Z</time>
      </trkpt>
      <trkpt lat="45.63661" lon="4.67812">
        <ele>405</ele>
        <time>2017-02-25T08:28:45Z</time>
      </trkpt>
      <trkpt lat="45.63655" lon="4.67812">
        <ele>405</ele>
        <time>2017-02-25T08:28:46Z</time>
      </trkpt>
      <trkpt lat="45.63648" lon="4.67812">
        <ele>404</ele>
        <time>2017-02-25T08:28:47Z</time>
      </trkpt>
      <trkpt lat="45.63641" lon="4.67812">
        <ele>404</ele>
        <time>2017-02-25T08:28:48Z</time>
      </trkpt>
      <trkpt lat="45.63636" lon="4.67812">
        <ele>404</ele>
        <time>2017-02-25T08:28:49Z</time>
      </trkpt>
      <trkpt lat="45.6363" lon="4.67813">
        <ele>404</ele>
        <time>2017-02-25T08:28:50Z</time>
      </trkpt>
      <trkpt lat="45.63625" lon="4.67812">
        <ele>403</ele>
        <time>2017-02-25T08:28:51Z</time>
      </trkpt>
      <trkpt lat="45.63619" lon="4.67812">
        <ele>403</ele>
        <time>2017-02-25T08:28:52Z</time>
      </trkpt>
      <trkpt lat="45.63613" lon="4.67811">
        <ele>403</ele>
        <time>2017-02-25T08:28:53Z</time>
      </trkpt>
      <trkpt lat="45.63606" lon="4.67811">
        <ele>403</ele>
        <time>2017-02-25T08:28:54Z</time>
      </trkpt>
      <trkpt lat="45.636" lon="4.67811">
        <ele>403</ele>
        <time>2017-02-25T08:28:55Z</time>
      </trkpt>
      <trkpt lat="45.63594" lon="4.67811">
        <ele>403</ele>
        <time>2017-02-25T08:28:56Z</time>
      </trkpt>
      <trkpt lat="45.63588" lon="4.67813">
        <ele>403</ele>
        <time>2017-02-25T08:28:57Z</time>
      </trkpt>
      <trkpt lat="45.63583" lon="4.67812">
        <ele>403</ele>
        <time>2017-02-25T08:28:58Z</time>
      </trkpt>
      <trkpt lat="45.63577" lon="4.67813">
        <ele>403</ele>
        <time>2017-02-25T08:28:59Z</time>
      </trkpt>
      <trkpt lat="45.63571" lon="4.67814">
        <ele>403</ele>
        <time>2017-02-25T08:29:00Z</time>
      </trkpt>
      <trkpt lat="45.63565" lon="4.67815">
        <ele>403</ele>
        <time>2017-02-25T08:29:01Z</time>
      </trkpt>
      <trkpt lat="45.6356" lon="4.67815">
        <ele>403</ele>
        <time>2017-02-25T08:29:02Z</time>
      </trkpt>
      <trkpt lat="45.63554" lon="4.67815">
        <ele>403</ele>
        <time>2017-02-25T08:29:03Z</time>
      </trkpt>
      <trkpt lat="45.63549" lon="4.67816">
        <ele>403</ele>
        <time>2017-02-25T08:29:04Z</time>
      </trkpt>
      <trkpt lat="45.63542" lon="4.67818">
        <ele>402</ele>
        <time>2017-02-25T08:29:05Z</time>
      </trkpt>
      <trkpt lat="45.63536" lon="4.67819">
        <ele>402</ele>
        <time>2017-02-25T08:29:06Z</time>
      </trkpt>
      <trkpt lat="45.6353" lon="4.6782">
        <ele>402</ele>
        <time>2017-02-25T08:29:07Z</time>
      </trkpt>
      <trkpt lat="45.63524" lon="4.67821">
        <ele>401</ele>
        <time>2017-02-25T08:29:08Z</time>
      </trkpt>
      <trkpt lat="45.63517" lon="4.67822">
        <ele>401</ele>
        <time>2017-02-25T08:29:09Z</time>
      </trkpt>
      <trkpt lat="45.63511" lon="4.67823">
        <ele>401</ele>
        <time>2017-02-25T08:29:10Z</time>
      </trkpt>
      <trkpt lat="45.63505" lon="4.67823">
        <ele>400</ele>
        <time>2017-02-25T08:29:11Z</time>
      </trkpt>
      <trkpt lat="45.635" lon="4.67822">
        <ele>400</ele>
        <time>2017-02-25T08:29:12Z</time>
      </trkpt>
      <trkpt lat="45.63494" lon="4.67822">
        <ele>399</ele>
        <time>2017-02-25T08:29:13Z</time>
      </trkpt>
      <trkpt lat="45.63488" lon="4.67821">
        <ele>398</ele>
        <time>2017-02-25T08:29:14Z</time>
      </trkpt>
      <trkpt lat="45.63483" lon="4.6782">
        <ele>398</ele>
        <time>2017-02-25T08:29:15Z</time>
      </trkpt>
      <trkpt lat="45.63478" lon="4.67819">
        <ele>398</ele>
        <time>2017-02-25T08:29:16Z</time>
      </trkpt>
      <trkpt lat="45.63472" lon="4.67817">
        <ele>398</ele>
        <time>2017-02-25T08:29:17Z</time>
      </trkpt>
      <trkpt lat="45.63466" lon="4.67816">
        <ele>398</ele>
        <time>2017-02-25T08:29:18Z</time>
      </trkpt>
      <trkpt lat="45.63461" lon="4.67815">
        <ele>398</ele>
        <time>2017-02-25T08:29:19Z</time>
      </trkpt>
      <trkpt lat="45.63455" lon="4.67813">
        <ele>399</ele>
        <time>2017-02-25T08:29:20Z</time>
      </trkpt>
      <trkpt lat="45.63449" lon="4.67811">
        <ele>399</ele>
        <time>2017-02-25T08:29:21Z</time>
      </trkpt>
      <trkpt lat="45.63444" lon="4.67809">
        <ele>398</ele>
        <time>2017-02-25T08:29:22Z</time>
      </trkpt>
      <trkpt lat="45.63438" lon="4.67808">
        <ele>398</ele>
        <time>2017-02-25T08:29:23Z</time>
      </trkpt>
      <trkpt lat="45.63432" lon="4.67806">
        <ele>398</ele>
        <time>2017-02-25T08:29:24Z</time>
      </trkpt>
      <trkpt lat="45.63427" lon="4.67804">
        <ele>398</ele>
        <time>2017-02-25T08:29:25Z</time>
      </trkpt>
      <trkpt lat="45.63421" lon="4.67802">
        <ele>398</ele>
        <time>2017-02-25T08:29:26Z</time>
      </trkpt>
      <trkpt lat="45.63415" lon="4.678">
        <ele>398</ele>
        <time>2017-02-25T08:29:27Z</time>
      </trkpt>
      <trkpt lat="45.63409" lon="4.67798">
        <ele>398</ele>
        <time>2017-02-25T08:29:28Z</time>
      </trkpt>
      <trkpt lat="45.634" lon="4.67795">
        <ele>399</ele>
        <time>2017-02-25T08:29:29Z</time>
      </trkpt>
      <trkpt lat="45.63393" lon="4.67793">
        <ele>399</ele>
        <time>2017-02-25T08:29:30Z</time>
      </trkpt>
      <trkpt lat="45.63386" lon="4.67792">
        <ele>399</ele>
        <time>2017-02-25T08:29:31Z</time>
      </trkpt>
      <trkpt lat="45.6338" lon="4.67791">
        <ele>398</ele>
        <time>2017-02-25T08:29:32Z</time>
      </trkpt>
      <trkpt lat="45.63374" lon="4.67789">
        <ele>397</ele>
        <time>2017-02-25T08:29:33Z</time>
      </trkpt>
      <trkpt lat="45.63366" lon="4.67786">
        <ele>394</ele>
        <time>2017-02-25T08:29:34Z</time>
      </trkpt>
      <trkpt lat="45.63359" lon="4.67784">
        <ele>392</ele>
        <time>2017-02-25T08:29:35Z</time>
      </trkpt>
      <trkpt lat="45.63351" lon="4.67782">
        <ele>390</ele>
        <time>2017-02-25T08:29:36Z</time>
      </trkpt>
      <trkpt lat="45.63345" lon="4.67781">
        <ele>389</ele>
        <time>2017-02-25T08:29:37Z</time>
      </trkpt>
      <trkpt lat="45.63338" lon="4.67779">
        <ele>388</ele>
        <time>2017-02-25T08:29:38Z</time>
      </trkpt>
      <trkpt lat="45.6333" lon="4.67777">
        <ele>387</ele>
        <time>2017-02-25T08:29:39Z</time>
      </trkpt>
      <trkpt lat="45.63323" lon="4.67776">
        <ele>386</ele>
        <time>2017-02-25T08:29:40Z</time>
      </trkpt>
      <trkpt lat="45.63317" lon="4.67774">
        <ele>386</ele>
        <time>2017-02-25T08:29:41Z</time>
      </trkpt>
      <trkpt lat="45.63312" lon="4.67772">
        <ele>385</ele>
        <time>2017-02-25T08:29:42Z</time>
      </trkpt>
      <trkpt lat="45.63307" lon="4.67772">
        <ele>385</ele>
        <time>2017-02-25T08:29:43Z</time>
      </trkpt>
      <trkpt lat="45.63302" lon="4.67772">
        <ele>385</ele>
        <time>2017-02-25T08:29:44Z</time>
      </trkpt>
      <trkpt lat="45.63295" lon="4.67771">
        <ele>384</ele>
        <time>2017-02-25T08:29:47Z</time>
      </trkpt>
      <trkpt lat="45.63289" lon="4.67769">
        <ele>384</ele>
        <time>2017-02-25T08:29:49Z</time>
      </trkpt>
      <trkpt lat="45.63282" lon="4.67767">
        <ele>383</ele>
        <time>2017-02-25T08:29:51Z</time>
      </trkpt>
      <trkpt lat="45.63277" lon="4.67766">
        <ele>383</ele>
        <time>2017-02-25T08:29:53Z</time>
      </trkpt>
      <trkpt lat="45.63271" lon="4.67765">
        <ele>382</ele>
        <time>2017-02-25T08:29:55Z</time>
      </trkpt>
      <trkpt lat="45.63266" lon="4.67764">
        <ele>382</ele>
        <time>2017-02-25T08:29:57Z</time>
      </trkpt>
      <trkpt lat="45.63261" lon="4.67764">
        <ele>382</ele>
        <time>2017-02-25T08:29:59Z</time>
      </trkpt>
      <trkpt lat="45.63257" lon="4.67764">
        <ele>381</ele>
        <time>2017-02-25T08:30:01Z</time>
      </trkpt>
      <trkpt lat="45.63251" lon="4.67765">
        <ele>381</ele>
        <time>2017-02-25T08:30:04Z</time>
      </trkpt>
      <trkpt lat="45.63245" lon="4.67767">
        <ele>380</ele>
        <time>2017-02-25T08:30:07Z</time>
      </trkpt>
      <trkpt lat="45.63239" lon="4.67768">
        <ele>380</ele>
        <time>2017-02-25T08:30:10Z</time>
      </trkpt>
      <trkpt lat="45.63233" lon="4.6777">
        <ele>380</ele>
        <time>2017-02-25T08:30:13Z</time>
      </trkpt>
      <trkpt lat="45.63229" lon="4.67774">
        <ele>380</ele>
        <time>2017-02-25T08:30:16Z</time>
      </trkpt>
      <trkpt lat="45.63224" lon="4.67775">
        <ele>378</ele>
        <time>2017-02-25T08:30:19Z</time>
      </trkpt>
      <trkpt lat="45.63219" lon="4.67778">
        <ele>378</ele>
        <time>2017-02-25T08:30:22Z</time>
      </trkpt>
      <trkpt lat="45.63214" lon="4.6778">
        <ele>376</ele>
        <time>2017-02-25T08:30:25Z</time>
      </trkpt>
      <trkpt lat="45.63205" lon="4.67768">
        <ele>375</ele>
        <time>2017-02-25T08:30:27Z</time>
      </trkpt>
      <trkpt lat="45.632" lon="4.67765">
        <ele>375</ele>
        <time>2017-02-25T08:30:28Z</time>
      </trkpt>
      <trkpt lat="45.63196" lon="4.67764">
        <ele>375</ele>
        <time>2017-02-25T08:30:29Z</time>
      </trkpt>
      <trkpt lat="45.63192" lon="4.6776">
        <ele>375</ele>
        <time>2017-02-25T08:30:30Z</time>
      </trkpt>
      <trkpt lat="45.63185" lon="4.67756">
        <ele>375</ele>
        <time>2017-02-25T08:30:32Z</time>
      </trkpt>
      <trkpt lat="45.63179" lon="4.67753">
        <ele>376</ele>
        <time>2017-02-25T08:30:34Z</time>
      </trkpt>
      <trkpt lat="45.63173" lon="4.67754">
        <ele>376</ele>
        <time>2017-02-25T08:30:36Z</time>
      </trkpt>
      <trkpt lat="45.63168" lon="4.67755">
        <ele>376</ele>
        <time>2017-02-25T08:30:38Z</time>
      </trkpt>
      <trkpt lat="45.6316" lon="4.67755">
        <ele>376</ele>
        <time>2017-02-25T08:30:41Z</time>
      </trkpt>
      <trkpt lat="45.63155" lon="4.67754">
        <ele>376</ele>
        <time>2017-02-25T08:30:43Z</time>
      </trkpt>
      <trkpt lat="45.6315" lon="4.67754">
        <ele>375</ele>
        <time>2017-02-25T08:30:45Z</time>
      </trkpt>
      <trkpt lat="45.63141" lon="4.67754">
        <ele>374</ele>
        <time>2017-02-25T08:30:47Z</time>
      </trkpt>
      <trkpt lat="45.63137" lon="4.67754">
        <ele>373</ele>
        <time>2017-02-25T08:30:48Z</time>
      </trkpt>
      <trkpt lat="45.63131" lon="4.67753">
        <ele>372</ele>
        <time>2017-02-25T08:30:49Z</time>
      </trkpt>
      <trkpt lat="45.63126" lon="4.67753">
        <ele>372</ele>
        <time>2017-02-25T08:30:50Z</time>
      </trkpt>
      <trkpt lat="45.6312" lon="4.67754">
        <ele>371</ele>
        <time>2017-02-25T08:30:51Z</time>
      </trkpt>
      <trkpt lat="45.63114" lon="4.67753">
        <ele>371</ele>
        <time>2017-02-25T08:30:52Z</time>
      </trkpt>
      <trkpt lat="45.63107" lon="4.67753">
        <ele>371</ele>
        <time>2017-02-25T08:30:53Z</time>
      </trkpt>
      <trkpt lat="45.63101" lon="4.67752">
        <ele>371</ele>
        <time>2017-02-25T08:30:54Z</time>
      </trkpt>
      <trkpt lat="45.63094" lon="4.67752">
        <ele>371</ele>
        <time>2017-02-25T08:30:55Z</time>
      </trkpt>
      <trkpt lat="45.63088" lon="4.67753">
        <ele>370</ele>
        <time>2017-02-25T08:30:56Z</time>
      </trkpt>
      <trkpt lat="45.63081" lon="4.67753">
        <ele>370</ele>
        <time>2017-02-25T08:30:57Z</time>
      </trkpt>
      <trkpt lat="45.63073" lon="4.67753">
        <ele>369</ele>
        <time>2017-02-25T08:30:58Z</time>
      </trkpt>
      <trkpt lat="45.63067" lon="4.67753">
        <ele>369</ele>
        <time>2017-02-25T08:30:59Z</time>
      </trkpt>
      <trkpt lat="45.6306" lon="4.67753">
        <ele>369</ele>
        <time>2017-02-25T08:31:00Z</time>
      </trkpt>
      <trkpt lat="45.63053" lon="4.67753">
        <ele>369</ele>
        <time>2017-02-25T08:31:01Z</time>
      </trkpt>
      <trkpt lat="45.63047" lon="4.67752">
        <ele>369</ele>
        <time>2017-02-25T08:31:02Z</time>
      </trkpt>
      <trkpt lat="45.63041" lon="4.67752">
        <ele>369</ele>
        <time>2017-02-25T08:31:03Z</time>
      </trkpt>
      <trkpt lat="45.63035" lon="4.67751">
        <ele>368</ele>
        <time>2017-02-25T08:31:04Z</time>
      </trkpt>
      <trkpt lat="45.63028" lon="4.67751">
        <ele>368</ele>
        <time>2017-02-25T08:31:05Z</time>
      </trkpt>
      <trkpt lat="45.63023" lon="4.67751">
        <ele>368</ele>
        <time>2017-02-25T08:31:06Z</time>
      </trkpt>
      <trkpt lat="45.63017" lon="4.67752">
        <ele>368</ele>
        <time>2017-02-25T08:31:07Z</time>
      </trkpt>
      <trkpt lat="45.63011" lon="4.67753">
        <ele>368</ele>
        <time>2017-02-25T08:31:08Z</time>
      </trkpt>
      <trkpt lat="45.63004" lon="4.67754">
        <ele>368</ele>
        <time>2017-02-25T08:31:09Z</time>
      </trkpt>
      <trkpt lat="45.62999" lon="4.67753">
        <ele>368</ele>
        <time>2017-02-25T08:31:10Z</time>
      </trkpt>
      <trkpt lat="45.62994" lon="4.67754">
        <ele>367</ele>
        <time>2017-02-25T08:31:11Z</time>
      </trkpt>
      <trkpt lat="45.62988" lon="4.67754">
        <ele>367</ele>
        <time>2017-02-25T08:31:12Z</time>
      </trkpt>
      <trkpt lat="45.62982" lon="4.67753">
        <ele>367</ele>
        <time>2017-02-25T08:31:13Z</time>
      </trkpt>
      <trkpt lat="45.62977" lon="4.67755">
        <ele>367</ele>
        <time>2017-02-25T08:31:14Z</time>
      </trkpt>
      <trkpt lat="45.62972" lon="4.67755">
        <ele>366</ele>
        <time>2017-02-25T08:31:15Z</time>
      </trkpt>
      <trkpt lat="45.62964" lon="4.67756">
        <ele>366</ele>
        <time>2017-02-25T08:31:17Z</time>
      </trkpt>
      <trkpt lat="45.62956" lon="4.67756">
        <ele>365</ele>
        <time>2017-02-25T08:31:19Z</time>
      </trkpt>
      <trkpt lat="45.62952" lon="4.67759">
        <ele>364</ele>
        <time>2017-02-25T08:31:20Z</time>
      </trkpt>
      <trkpt lat="45.62944" lon="4.67759">
        <ele>363</ele>
        <time>2017-02-25T08:31:22Z</time>
      </trkpt>
      <trkpt lat="45.62939" lon="4.67762">
        <ele>362</ele>
        <time>2017-02-25T08:31:23Z</time>
      </trkpt>
      <trkpt lat="45.6293" lon="4.67767">
        <ele>360</ele>
        <time>2017-02-25T08:31:25Z</time>
      </trkpt>
      <trkpt lat="45.62923" lon="4.67769">
        <ele>359</ele>
        <time>2017-02-25T08:31:27Z</time>
      </trkpt>
      <trkpt lat="45.62918" lon="4.67771">
        <ele>358</ele>
        <time>2017-02-25T08:31:29Z</time>
      </trkpt>
      <trkpt lat="45.62912" lon="4.67773">
        <ele>357</ele>
        <time>2017-02-25T08:31:32Z</time>
      </trkpt>
      <trkpt lat="45.62907" lon="4.67773">
        <ele>356</ele>
        <time>2017-02-25T08:31:34Z</time>
      </trkpt>
      <trkpt lat="45.62901" lon="4.67773">
        <ele>354</ele>
        <time>2017-02-25T08:31:38Z</time>
      </trkpt>
      <trkpt lat="45.62897" lon="4.67771">
        <ele>353</ele>
        <time>2017-02-25T08:31:40Z</time>
      </trkpt>
      <trkpt lat="45.62891" lon="4.67767">
        <ele>351</ele>
        <time>2017-02-25T08:31:43Z</time>
      </trkpt>
      <trkpt lat="45.62886" lon="4.67761">
        <ele>350</ele>
        <time>2017-02-25T08:31:46Z</time>
      </trkpt>
      <trkpt lat="45.62883" lon="4.67756">
        <ele>348</ele>
        <time>2017-02-25T08:31:48Z</time>
      </trkpt>
      <trkpt lat="45.62879" lon="4.67752">
        <ele>348</ele>
        <time>2017-02-25T08:31:50Z</time>
      </trkpt>
      <trkpt lat="45.62874" lon="4.67748">
        <ele>347</ele>
        <time>2017-02-25T08:31:53Z</time>
      </trkpt>
      <trkpt lat="45.62868" lon="4.67744">
        <ele>347</ele>
        <time>2017-02-25T08:31:56Z</time>
      </trkpt>
      <trkpt lat="45.62863" lon="4.67743">
        <ele>347</ele>
        <time>2017-02-25T08:31:58Z</time>
      </trkpt>
      <trkpt lat="45.62858" lon="4.67743">
        <ele>347</ele>
        <time>2017-02-25T08:32:00Z</time>
      </trkpt>
      <trkpt lat="45.62851" lon="4.67742">
        <ele>347</ele>
        <time>2017-02-25T08:32:03Z</time>
      </trkpt>
      <trkpt lat="45.62845" lon="4.67743">
        <ele>348</ele>
        <time>2017-02-25T08:32:06Z</time>
      </trkpt>
      <trkpt lat="45.62839" lon="4.67743">
        <ele>348</ele>
        <time>2017-02-25T08:32:09Z</time>
      </trkpt>
      <trkpt lat="45.62833" lon="4.67747">
        <ele>347</ele>
        <time>2017-02-25T08:32:12Z</time>
      </trkpt>
      <trkpt lat="45.62829" lon="4.6775">
        <ele>348</ele>
        <time>2017-02-25T08:32:14Z</time>
      </trkpt>
      <trkpt lat="45.62823" lon="4.67751">
        <ele>347</ele>
        <time>2017-02-25T08:32:17Z</time>
      </trkpt>
      <trkpt lat="45.62819" lon="4.67752">
        <ele>346</ele>
        <time>2017-02-25T08:32:19Z</time>
      </trkpt>
      <trkpt lat="45.62811" lon="4.67753">
        <ele>347</ele>
        <time>2017-02-25T08:32:22Z</time>
      </trkpt>
      <trkpt lat="45.62807" lon="4.67755">
        <ele>347</ele>
        <time>2017-02-25T08:32:24Z</time>
      </trkpt>
      <trkpt lat="45.62802" lon="4.67757">
        <ele>347</ele>
        <time>2017-02-25T08:32:26Z</time>
      </trkpt>
      <trkpt lat="45.62797" lon="4.67758">
        <ele>347</ele>
        <time>2017-02-25T08:32:28Z</time>
      </trkpt>
      <trkpt lat="45.62791" lon="4.67758">
        <ele>347</ele>
        <time>2017-02-25T08:32:30Z</time>
      </trkpt>
      <trkpt lat="45.62786" lon="4.67757">
        <ele>348</ele>
        <time>2017-02-25T08:32:32Z</time>
      </trkpt>
      <trkpt lat="45.6278" lon="4.67754">
        <ele>348</ele>
        <time>2017-02-25T08:32:34Z</time>
      </trkpt>
      <trkpt lat="45.62775" lon="4.67753">
        <ele>348</ele>
        <time>2017-02-25T08:32:36Z</time>
      </trkpt>
      <trkpt lat="45.62771" lon="4.67752">
        <ele>348</ele>
        <time>2017-02-25T08:32:38Z</time>
      </trkpt>
      <trkpt lat="45.62766" lon="4.67749">
        <ele>348</ele>
        <time>2017-02-25T08:32:40Z</time>
      </trkpt>
      <trkpt lat="45.62762" lon="4.67745">
        <ele>347</ele>
        <time>2017-02-25T08:32:42Z</time>
      </trkpt>
      <trkpt lat="45.62758" lon="4.67742">
        <ele>347</ele>
        <time>2017-02-25T08:32:44Z</time>
      </trkpt>
      <trkpt lat="45.62753" lon="4.67741">
        <ele>346</ele>
        <time>2017-02-25T08:32:46Z</time>
      </trkpt>
      <trkpt lat="45.62748" lon="4.67739">
        <ele>346</ele>
        <time>2017-02-25T08:32:48Z</time>
      </trkpt>
      <trkpt lat="45.62742" lon="4.67737">
        <ele>345</ele>
        <time>2017-02-25T08:32:51Z</time>
      </trkpt>
      <trkpt lat="45.62737" lon="4.67735">
        <ele>345</ele>
        <time>2017-02-25T08:32:53Z</time>
      </trkpt>
      <trkpt lat="45.62732" lon="4.67736">
        <ele>344</ele>
        <time>2017-02-25T08:32:55Z</time>
      </trkpt>
      <trkpt lat="45.62727" lon="4.67737">
        <ele>344</ele>
        <time>2017-02-25T08:32:57Z</time>
      </trkpt>
      <trkpt lat="45.62719" lon="4.67736">
        <ele>345</ele>
        <time>2017-02-25T08:33:00Z</time>
      </trkpt>
      <trkpt lat="45.62714" lon="4.67735">
        <ele>346</ele>
        <time>2017-02-25T08:33:02Z</time>
      </trkpt>
      <trkpt lat="45.62709" lon="4.67736">
        <ele>346</ele>
        <time>2017-02-25T08:33:04Z</time>
      </trkpt>
      <trkpt lat="45.62703" lon="4.67736">
        <ele>347</ele>
        <time>2017-02-25T08:33:06Z</time>
      </trkpt>
      <trkpt lat="45.62698" lon="4.67735">
        <ele>347</ele>
        <time>2017-02-25T08:33:08Z</time>
      </trkpt>
      <trkpt lat="45.62692" lon="4.67734">
        <ele>348</ele>
        <time>2017-02-25T08:33:10Z</time>
      </trkpt>
      <trkpt lat="45.62687" lon="4.67734">
        <ele>348</ele>
        <time>2017-02-25T08:33:12Z</time>
      </trkpt>
      <trkpt lat="45.62682" lon="4.67733">
        <ele>348</ele>
        <time>2017-02-25T08:33:14Z</time>
      </trkpt>
      <trkpt lat="45.62675" lon="4.67732">
        <ele>348</ele>
        <time>2017-02-25T08:33:17Z</time>
      </trkpt>
      <trkpt lat="45.6267" lon="4.67733">
        <ele>348</ele>
        <time>2017-02-25T08:33:19Z</time>
      </trkpt>
      <trkpt lat="45.62663" lon="4.67734">
        <ele>348</ele>
        <time>2017-02-25T08:33:22Z</time>
      </trkpt>
      <trkpt lat="45.62658" lon="4.67735">
        <ele>349</ele>
        <time>2017-02-25T08:33:24Z</time>
      </trkpt>
      <trkpt lat="45.62653" lon="4.67735">
        <ele>349</ele>
        <time>2017-02-25T08:33:26Z</time>
      </trkpt>
      <trkpt lat="45.62648" lon="4.67735">
        <ele>349</ele>
        <time>2017-02-25T08:33:28Z</time>
      </trkpt>
      <trkpt lat="45.62642" lon="4.67735">
        <ele>349</ele>
        <time>2017-02-25T08:33:30Z</time>
      </trkpt>
      <trkpt lat="45.62636" lon="4.67735">
        <ele>350</ele>
        <time>2017-02-25T08:33:32Z</time>
      </trkpt>
      <trkpt lat="45.62631" lon="4.67735">
        <ele>350</ele>
        <time>2017-02-25T08:33:34Z</time>
      </trkpt>
      <trkpt lat="45.62626" lon="4.67734">
        <ele>351</ele>
        <time>2017-02-25T08:33:36Z</time>
      </trkpt>
      <trkpt lat="45.6262" lon="4.67734">
        <ele>351</ele>
        <time>2017-02-25T08:33:38Z</time>
      </trkpt>
      <trkpt lat="45.62615" lon="4.67734">
        <ele>351</ele>
        <time>2017-02-25T08:33:40Z</time>
      </trkpt>
      <trkpt lat="45.6261" lon="4.67733">
        <ele>350</ele>
        <time>2017-02-25T08:33:42Z</time>
      </trkpt>
      <trkpt lat="45.62605" lon="4.67732">
        <ele>349</ele>
        <time>2017-02-25T08:33:44Z</time>
      </trkpt>
      <trkpt lat="45.626" lon="4.67732">
        <ele>349</ele>
        <time>2017-02-25T08:33:46Z</time>
      </trkpt>
      <trkpt lat="45.62595" lon="4.6773">
        <ele>349</ele>
        <time>2017-02-25T08:33:48Z</time>
      </trkpt>
      <trkpt lat="45.6259" lon="4.67732">
        <ele>348</ele>
        <time>2017-02-25T08:33:50Z</time>
      </trkpt>
      <trkpt lat="45.62585" lon="4.67733">
        <ele>348</ele>
        <time>2017-02-25T08:33:52Z</time>
      </trkpt>
      <trkpt lat="45.62579" lon="4.67731">
        <ele>348</ele>
        <time>2017-02-25T08:33:55Z</time>
      </trkpt>
      <trkpt lat="45.62572" lon="4.67732">
        <ele>349</ele>
        <time>2017-02-25T08:33:58Z</time>
      </trkpt>
      <trkpt lat="45.62565" lon="4.67732">
        <ele>349</ele>
        <time>2017-02-25T08:34:01Z</time>
      </trkpt>
      <trkpt lat="45.6256" lon="4.67732">
        <ele>350</ele>
        <time>2017-02-25T08:34:03Z</time>
      </trkpt>
      <trkpt lat="45.62555" lon="4.67733">
        <ele>350</ele>
        <time>2017-02-25T08:34:05Z</time>
      </trkpt>
      <trkpt lat="45.62551" lon="4.67734">
        <ele>351</ele>
        <time>2017-02-25T08:34:07Z</time>
      </trkpt>
      <trkpt lat="45.62546" lon="4.67734">
        <ele>351</ele>
        <time>2017-02-25T08:34:09Z</time>
      </trkpt>
      <trkpt lat="45.62541" lon="4.67735">
        <ele>352</ele>
        <time>2017-02-25T08:34:11Z</time>
      </trkpt>
      <trkpt lat="45.62536" lon="4.67736">
        <ele>352</ele>
        <time>2017-02-25T08:34:13Z</time>
      </trkpt>
      <trkpt lat="45.62531" lon="4.67737">
        <ele>353</ele>
        <time>2017-02-25T08:34:15Z</time>
      </trkpt>
      <trkpt lat="45.62527" lon="4.67738">
        <ele>353</ele>
        <time>2017-02-25T08:34:17Z</time>
      </trkpt>
      <trkpt lat="45.62522" lon="4.67739">
        <ele>354</ele>
        <time>2017-02-25T08:34:19Z</time>
      </trkpt>
      <trkpt lat="45.62517" lon="4.67739">
        <ele>354</ele>
        <time>2017-02-25T08:34:21Z</time>
      </trkpt>
      <trkpt lat="45.62512" lon="4.67739">
        <ele>354</ele>
        <time>2017-02-25T08:34:23Z</time>
      </trkpt>
      <trkpt lat="45.62507" lon="4.67739">
        <ele>354</ele>
        <time>2017-02-25T08:34:25Z</time>
      </trkpt>
      <trkpt lat="45.62502" lon="4.67739">
        <ele>354</ele>
        <time>2017-02-25T08:34:27Z</time>
      </trkpt>
      <trkpt lat="45.62497" lon="4.67739">
        <ele>354</ele>
        <time>2017-02-25T08:34:29Z</time>
      </trkpt>
      <trkpt lat="45.62492" lon="4.6774">
        <ele>353</ele>
        <time>2017-02-25T08:34:31Z</time>
      </trkpt>
      <trkpt lat="45.62487" lon="4.6774">
        <ele>353</ele>
        <time>2017-02-25T08:34:33Z</time>
      </trkpt>
      <trkpt lat="45.62482" lon="4.6774">
        <ele>353</ele>
        <time>2017-02-25T08:34:35Z</time>
      </trkpt>
      <trkpt lat="45.62477" lon="4.6774">
        <ele>353</ele>
        <time>2017-02-25T08:34:37Z</time>
      </trkpt>
      <trkpt lat="45.62472" lon="4.67741">
        <ele>354</ele>
        <time>2017-02-25T08:34:39Z</time>
      </trkpt>
      <trkpt lat="45.62466" lon="4.67742">
        <ele>354</ele>
        <time>2017-02-25T08:34:42Z</time>
      </trkpt>
      <trkpt lat="45.62461" lon="4.67742">
        <ele>355</ele>
        <time>2017-02-25T08:34:44Z</time>
      </trkpt>
      <trkpt lat="45.62457" lon="4.67742">
        <ele>355</ele>
        <time>2017-02-25T08:34:46Z</time>
      </trkpt>
      <trkpt lat="45.62452" lon="4.67743">
        <ele>356</ele>
        <time>2017-02-25T08:34:48Z</time>
      </trkpt>
      <trkpt lat="45.62448" lon="4.67743">
        <ele>356</ele>
        <time>2017-02-25T08:34:50Z</time>
      </trkpt>
      <trkpt lat="45.62443" lon="4.67743">
        <ele>356</ele>
        <time>2017-02-25T08:34:52Z</time>
      </trkpt>
      <trkpt lat="45.62438" lon="4.67743">
        <ele>356</ele>
        <time>2017-02-25T08:34:54Z</time>
      </trkpt>
      <trkpt lat="45.62433" lon="4.67743">
        <ele>356</ele>
        <time>2017-02-25T08:34:56Z</time>
      </trkpt>
      <trkpt lat="45.62428" lon="4.67745">
        <ele>357</ele>
        <time>2017-02-25T08:34:58Z</time>
      </trkpt>
      <trkpt lat="45.62423" lon="4.67747">
        <ele>357</ele>
        <time>2017-02-25T08:35:00Z</time>
      </trkpt>
      <trkpt lat="45.62418" lon="4.67749">
        <ele>358</ele>
        <time>2017-02-25T08:35:02Z</time>
      </trkpt>
      <trkpt lat="45.62413" lon="4.67751">
        <ele>358</ele>
        <time>2017-02-25T08:35:04Z</time>
      </trkpt>
      <trkpt lat="45.62408" lon="4.67751">
        <ele>358</ele>
        <time>2017-02-25T08:35:06Z</time>
      </trkpt>
      <trkpt lat="45.62403" lon="4.67749">
        <ele>358</ele>
        <time>2017-02-25T08:35:08Z</time>
      </trkpt>
      <trkpt lat="45.62398" lon="4.67747">
        <ele>357</ele>
        <time>2017-02-25T08:35:10Z</time>
      </trkpt>
      <trkpt lat="45.62392" lon="4.67745">
        <ele>357</ele>
        <time>2017-02-25T08:35:12Z</time>
      </trkpt>
      <trkpt lat="45.62387" lon="4.67742">
        <ele>356</ele>
        <time>2017-02-25T08:35:14Z</time>
      </trkpt>
      <trkpt lat="45.62381" lon="4.67739">
        <ele>357</ele>
        <time>2017-02-25T08:35:16Z</time>
      </trkpt>
      <trkpt lat="45.62376" lon="4.67737">
        <ele>357</ele>
        <time>2017-02-25T08:35:18Z</time>
      </trkpt>
      <trkpt lat="45.62369" lon="4.67735">
        <ele>357</ele>
        <time>2017-02-25T08:35:20Z</time>
      </trkpt>
      <trkpt lat="45.62363" lon="4.67733">
        <ele>358</ele>
        <time>2017-02-25T08:35:22Z</time>
      </trkpt>
      <trkpt lat="45.62358" lon="4.6773">
        <ele>358</ele>
        <time>2017-02-25T08:35:24Z</time>
      </trkpt>
      <trkpt lat="45.62352" lon="4.67727">
        <ele>358</ele>
        <time>2017-02-25T08:35:26Z</time>
      </trkpt>
      <trkpt lat="45.62346" lon="4.67725">
        <ele>358</ele>
        <time>2017-02-25T08:35:28Z</time>
      </trkpt>
      <trkpt lat="45.62341" lon="4.67726">
        <ele>359</ele>
        <time>2017-02-25T08:35:30Z</time>
      </trkpt>
      <trkpt lat="45.62335" lon="4.67726">
        <ele>359</ele>
        <time>2017-02-25T08:35:32Z</time>
      </trkpt>
      <trkpt lat="45.6233" lon="4.67728">
        <ele>359</ele>
        <time>2017-02-25T08:35:34Z</time>
      </trkpt>
      <trkpt lat="45.62325" lon="4.67729">
        <ele>359</ele>
        <time>2017-02-25T08:35:36Z</time>
      </trkpt>
      <trkpt lat="45.6232" lon="4.6773">
        <ele>359</ele>
        <time>2017-02-25T08:35:38Z</time>
      </trkpt>
      <trkpt lat="45.62314" lon="4.6773">
        <ele>359</ele>
        <time>2017-02-25T08:35:40Z</time>
      </trkpt>
      <trkpt lat="45.62308" lon="4.67731">
        <ele>359</ele>
        <time>2017-02-25T08:35:42Z</time>
      </trkpt>
      <trkpt lat="45.62303" lon="4.67733">
        <ele>359</ele>
        <time>2017-02-25T08:35:44Z</time>
      </trkpt>
      <trkpt lat="45.62297" lon="4.67734">
        <ele>360</ele>
        <time>2017-02-25T08:35:46Z</time>
      </trkpt>
      <trkpt lat="45.62292" lon="4.67735">
        <ele>360</ele>
        <time>2017-02-25T08:35:48Z</time>
      </trkpt>
      <trkpt lat="45.62286" lon="4.67735">
        <ele>360</ele>
        <time>2017-02-25T08:35:50Z</time>
      </trkpt>
      <trkpt lat="45.62281" lon="4.67735">
        <ele>360</ele>
        <time>2017-02-25T08:35:52Z</time>
      </trkpt>
      <trkpt lat="45.62275" lon="4.67734">
        <ele>360</ele>
        <time>2017-02-25T08:35:54Z</time>
      </trkpt>
      <trkpt lat="45.6227" lon="4.67732">
        <ele>360</ele>
        <time>2017-02-25T08:35:56Z</time>
      </trkpt>
      <trkpt lat="45.62265" lon="4.67729">
        <ele>361</ele>
        <time>2017-02-25T08:35:58Z</time>
      </trkpt>
      <trkpt lat="45.62259" lon="4.67727">
        <ele>361</ele>
        <time>2017-02-25T08:36:00Z</time>
      </trkpt>
      <trkpt lat="45.62254" lon="4.67726">
        <ele>362</ele>
        <time>2017-02-25T08:36:02Z</time>
      </trkpt>
      <trkpt lat="45.62248" lon="4.67724">
        <ele>362</ele>
        <time>2017-02-25T08:36:04Z</time>
      </trkpt>
      <trkpt lat="45.62243" lon="4.67722">
        <ele>363</ele>
        <time>2017-02-25T08:36:06Z</time>
      </trkpt>
      <trkpt lat="45.62237" lon="4.67721">
        <ele>363</ele>
        <time>2017-02-25T08:36:08Z</time>
      </trkpt>
      <trkpt lat="45.62231" lon="4.67719">
        <ele>364</ele>
        <time>2017-02-25T08:36:10Z</time>
      </trkpt>
      <trkpt lat="45.62225" lon="4.67716">
        <ele>365</ele>
        <time>2017-02-25T08:36:12Z</time>
      </trkpt>
      <trkpt lat="45.6222" lon="4.67714">
        <ele>365</ele>
        <time>2017-02-25T08:36:14Z</time>
      </trkpt>
      <trkpt lat="45.62215" lon="4.67712">
        <ele>365</ele>
        <time>2017-02-25T08:36:16Z</time>
      </trkpt>
      <trkpt lat="45.62209" lon="4.67711">
        <ele>366</ele>
        <time>2017-02-25T08:36:18Z</time>
      </trkpt>
      <trkpt lat="45.62204" lon="4.67711">
        <ele>366</ele>
        <time>2017-02-25T08:36:20Z</time>
      </trkpt>
      <trkpt lat="45.62198" lon="4.67712">
        <ele>366</ele>
        <time>2017-02-25T08:36:22Z</time>
      </trkpt>
      <trkpt lat="45.62193" lon="4.67713">
        <ele>365</ele>
        <time>2017-02-25T08:36:24Z</time>
      </trkpt>
      <trkpt lat="45.62186" lon="4.67714">
        <ele>365</ele>
        <time>2017-02-25T08:36:26Z</time>
      </trkpt>
      <trkpt lat="45.62181" lon="4.67713">
        <ele>365</ele>
        <time>2017-02-25T08:36:28Z</time>
      </trkpt>
      <trkpt lat="45.62176" lon="4.67714">
        <ele>365</ele>
        <time>2017-02-25T08:36:30Z</time>
      </trkpt>
      <trkpt lat="45.6217" lon="4.67715">
        <ele>364</ele>
        <time>2017-02-25T08:36:32Z</time>
      </trkpt>
      <trkpt lat="45.62165" lon="4.67714">
        <ele>364</ele>
        <time>2017-02-25T08:36:35Z</time>
      </trkpt>
      <trkpt lat="45.62168" lon="4.67719">
        <ele>363</ele>
        <time>2017-02-25T08:36:43Z</time>
      </trkpt>
      <trkpt lat="45.62164" lon="4.67716">
        <ele>363</ele>
        <time>2017-02-25T08:36:46Z</time>
      </trkpt>
      <trkpt lat="45.62159" lon="4.67715">
        <ele>362</ele>
        <time>2017-02-25T08:36:49Z</time>
      </trkpt>
      <trkpt lat="45.62154" lon="4.67713">
        <ele>363</ele>
        <time>2017-02-25T08:36:51Z</time>
      </trkpt>
      <trkpt lat="45.62147" lon="4.67712">
        <ele>363</ele>
        <time>2017-02-25T08:36:54Z</time>
      </trkpt>
      <trkpt lat="45.62141" lon="4.67711">
        <ele>363</ele>
        <time>2017-02-25T08:36:57Z</time>
      </trkpt>
      <trkpt lat="45.62135" lon="4.67709">
        <ele>363</ele>
        <time>2017-02-25T08:37:00Z</time>
      </trkpt>
      <trkpt lat="45.6213" lon="4.67707">
        <ele>364</ele>
        <time>2017-02-25T08:37:02Z</time>
      </trkpt>
      <trkpt lat="45.62125" lon="4.67707">
        <ele>364</ele>
        <time>2017-02-25T08:37:04Z</time>
      </trkpt>
      <trkpt lat="45.6212" lon="4.67707">
        <ele>365</ele>
        <time>2017-02-25T08:37:06Z</time>
      </trkpt>
      <trkpt lat="45.62114" lon="4.67707">
        <ele>365</ele>
        <time>2017-02-25T08:37:08Z</time>
      </trkpt>
      <trkpt lat="45.62109" lon="4.67706">
        <ele>366</ele>
        <time>2017-02-25T08:37:10Z</time>
      </trkpt>
      <trkpt lat="45.62103" lon="4.67706">
        <ele>366</ele>
        <time>2017-02-25T08:37:12Z</time>
      </trkpt>
      <trkpt lat="45.62098" lon="4.67706">
        <ele>366</ele>
        <time>2017-02-25T08:37:14Z</time>
      </trkpt>
      <trkpt lat="45.62092" lon="4.67705">
        <ele>367</ele>
        <time>2017-02-25T08:37:16Z</time>
      </trkpt>
      <trkpt lat="45.62086" lon="4.67703">
        <ele>367</ele>
        <time>2017-02-25T08:37:18Z</time>
      </trkpt>
      <trkpt lat="45.6208" lon="4.67701">
        <ele>368</ele>
        <time>2017-02-25T08:37:20Z</time>
      </trkpt>
      <trkpt lat="45.62075" lon="4.67699">
        <ele>368</ele>
        <time>2017-02-25T08:37:22Z</time>
      </trkpt>
      <trkpt lat="45.62069" lon="4.67696">
        <ele>368</ele>
        <time>2017-02-25T08:37:24Z</time>
      </trkpt>
      <trkpt lat="45.62063" lon="4.67695">
        <ele>368</ele>
        <time>2017-02-25T08:37:26Z</time>
      </trkpt>
      <trkpt lat="45.62058" lon="4.67694">
        <ele>368</ele>
        <time>2017-02-25T08:37:28Z</time>
      </trkpt>
      <trkpt lat="45.62051" lon="4.67693">
        <ele>368</ele>
        <time>2017-02-25T08:37:30Z</time>
      </trkpt>
      <trkpt lat="45.62045" lon="4.67692">
        <ele>368</ele>
        <time>2017-02-25T08:37:32Z</time>
      </trkpt>
      <trkpt lat="45.62038" lon="4.6769">
        <ele>368</ele>
        <time>2017-02-25T08:37:34Z</time>
      </trkpt>
      <trkpt lat="45.62032" lon="4.67688">
        <ele>368</ele>
        <time>2017-02-25T08:37:36Z</time>
      </trkpt>
      <trkpt lat="45.62027" lon="4.67686">
        <ele>368</ele>
        <time>2017-02-25T08:37:38Z</time>
      </trkpt>
      <trkpt lat="45.62021" lon="4.67683">
        <ele>368</ele>
        <time>2017-02-25T08:37:40Z</time>
      </trkpt>
      <trkpt lat="45.62016" lon="4.67681">
        <ele>369</ele>
        <time>2017-02-25T08:37:42Z</time>
      </trkpt>
      <trkpt lat="45.6201" lon="4.67679">
        <ele>368</ele>
        <time>2017-02-25T08:37:45Z</time>
      </trkpt>
      <trkpt lat="45.62005" lon="4.67676">
        <ele>368</ele>
        <time>2017-02-25T08:37:48Z</time>
      </trkpt>
      <trkpt lat="45.62" lon="4.67673">
        <ele>368</ele>
        <time>2017-02-25T08:37:51Z</time>
      </trkpt>
      <trkpt lat="45.61994" lon="4.6767">
        <ele>367</ele>
        <time>2017-02-25T08:37:54Z</time>
      </trkpt>
      <trkpt lat="45.61989" lon="4.67669">
        <ele>367</ele>
        <time>2017-02-25T08:37:56Z</time>
      </trkpt>
      <trkpt lat="45.61984" lon="4.67668">
        <ele>367</ele>
        <time>2017-02-25T08:37:58Z</time>
      </trkpt>
      <trkpt lat="45.61979" lon="4.67668">
        <ele>367</ele>
        <time>2017-02-25T08:38:00Z</time>
      </trkpt>
      <trkpt lat="45.61974" lon="4.67669">
        <ele>368</ele>
        <time>2017-02-25T08:38:02Z</time>
      </trkpt>
      <trkpt lat="45.61968" lon="4.6767">
        <ele>368</ele>
        <time>2017-02-25T08:38:04Z</time>
      </trkpt>
      <trkpt lat="45.61961" lon="4.67669">
        <ele>368</ele>
        <time>2017-02-25T08:38:06Z</time>
      </trkpt>
      <trkpt lat="45.61956" lon="4.67668">
        <ele>368</ele>
        <time>2017-02-25T08:38:08Z</time>
      </trkpt>
      <trkpt lat="45.6195" lon="4.67667">
        <ele>368</ele>
        <time>2017-02-25T08:38:10Z</time>
      </trkpt>
      <trkpt lat="45.61943" lon="4.67667">
        <ele>368</ele>
        <time>2017-02-25T08:38:12Z</time>
      </trkpt>
      <trkpt lat="45.61938" lon="4.67667">
        <ele>368</ele>
        <time>2017-02-25T08:38:14Z</time>
      </trkpt>
      <trkpt lat="45.61931" lon="4.67664">
        <ele>369</ele>
        <time>2017-02-25T08:38:16Z</time>
      </trkpt>
      <trkpt lat="45.61928" lon="4.67657">
        <ele>370</ele>
        <time>2017-02-25T08:38:18Z</time>
      </trkpt>
      <trkpt lat="45.61928" lon="4.67648">
        <ele>370</ele>
        <time>2017-02-25T08:38:20Z</time>
      </trkpt>
      <trkpt lat="45.61922" lon="4.67645">
        <ele>371</ele>
        <time>2017-02-25T08:38:22Z</time>
      </trkpt>
      <trkpt lat="45.61917" lon="4.67641">
        <ele>371</ele>
        <time>2017-02-25T08:38:24Z</time>
      </trkpt>
      <trkpt lat="45.61914" lon="4.67637">
        <ele>371</ele>
        <time>2017-02-25T08:38:26Z</time>
      </trkpt>
      <trkpt lat="45.61905" lon="4.67634">
        <ele>371</ele>
        <time>2017-02-25T08:38:28Z</time>
      </trkpt>
      <trkpt lat="45.61899" lon="4.67634">
        <ele>371</ele>
        <time>2017-02-25T08:38:29Z</time>
      </trkpt>
      <trkpt lat="45.61894" lon="4.67635">
        <ele>370</ele>
        <time>2017-02-25T08:38:30Z</time>
      </trkpt>
      <trkpt lat="45.61889" lon="4.67635">
        <ele>370</ele>
        <time>2017-02-25T08:38:31Z</time>
      </trkpt>
      <trkpt lat="45.61883" lon="4.67634">
        <ele>369</ele>
        <time>2017-02-25T08:38:32Z</time>
      </trkpt>
      <trkpt lat="45.61879" lon="4.67632">
        <ele>368</ele>
        <time>2017-02-25T08:38:33Z</time>
      </trkpt>
      <trkpt lat="45.6187" lon="4.67629">
        <ele>368</ele>
        <time>2017-02-25T08:38:35Z</time>
      </trkpt>
      <trkpt lat="45.61865" lon="4.67621">
        <ele>368</ele>
        <time>2017-02-25T08:38:37Z</time>
      </trkpt>
      <trkpt lat="45.61862" lon="4.67609">
        <ele>367</ele>
        <time>2017-02-25T08:38:39Z</time>
      </trkpt>
      <trkpt lat="45.6186" lon="4.67603">
        <ele>367</ele>
        <time>2017-02-25T08:38:40Z</time>
      </trkpt>
      <trkpt lat="45.61858" lon="4.67597">
        <ele>366</ele>
        <time>2017-02-25T08:38:41Z</time>
      </trkpt>
      <trkpt lat="45.61853" lon="4.67594">
        <ele>366</ele>
        <time>2017-02-25T08:38:42Z</time>
      </trkpt>
      <trkpt lat="45.61845" lon="4.67594">
        <ele>366</ele>
        <time>2017-02-25T08:38:44Z</time>
      </trkpt>
      <trkpt lat="45.61837" lon="4.67598">
        <ele>366</ele>
        <time>2017-02-25T08:38:46Z</time>
      </trkpt>
      <trkpt lat="45.61829" lon="4.67602">
        <ele>367</ele>
        <time>2017-02-25T08:38:48Z</time>
      </trkpt>
      <trkpt lat="45.61824" lon="4.67602">
        <ele>367</ele>
        <time>2017-02-25T08:38:49Z</time>
      </trkpt>
      <trkpt lat="45.6182" lon="4.67598">
        <ele>367</ele>
        <time>2017-02-25T08:38:50Z</time>
      </trkpt>
      <trkpt lat="45.61815" lon="4.67596">
        <ele>366</ele>
        <time>2017-02-25T08:38:51Z</time>
      </trkpt>
      <trkpt lat="45.6181" lon="4.67593">
        <ele>366</ele>
        <time>2017-02-25T08:38:52Z</time>
      </trkpt>
      <trkpt lat="45.61805" lon="4.6759">
        <ele>366</ele>
        <time>2017-02-25T08:38:53Z</time>
      </trkpt>
      <trkpt lat="45.618" lon="4.67589">
        <ele>366</ele>
        <time>2017-02-25T08:38:54Z</time>
      </trkpt>
      <trkpt lat="45.61795" lon="4.67586">
        <ele>366</ele>
        <time>2017-02-25T08:38:55Z</time>
      </trkpt>
      <trkpt lat="45.61789" lon="4.67584">
        <ele>367</ele>
        <time>2017-02-25T08:38:56Z</time>
      </trkpt>
      <trkpt lat="45.6178" lon="4.67582">
        <ele>367</ele>
        <time>2017-02-25T08:38:58Z</time>
      </trkpt>
      <trkpt lat="45.61775" lon="4.6758">
        <ele>366</ele>
        <time>2017-02-25T08:38:59Z</time>
      </trkpt>
      <trkpt lat="45.6177" lon="4.67578">
        <ele>366</ele>
        <time>2017-02-25T08:39:00Z</time>
      </trkpt>
      <trkpt lat="45.61765" lon="4.67576">
        <ele>365</ele>
        <time>2017-02-25T08:39:01Z</time>
      </trkpt>
      <trkpt lat="45.6176" lon="4.67573">
        <ele>365</ele>
        <time>2017-02-25T08:39:02Z</time>
      </trkpt>
      <trkpt lat="45.61756" lon="4.6757">
        <ele>364</ele>
        <time>2017-02-25T08:39:03Z</time>
      </trkpt>
      <trkpt lat="45.6175" lon="4.67568">
        <ele>364</ele>
        <time>2017-02-25T08:39:04Z</time>
      </trkpt>
      <trkpt lat="45.61745" lon="4.67565">
        <ele>364</ele>
        <time>2017-02-25T08:39:05Z</time>
      </trkpt>
      <trkpt lat="45.61737" lon="4.67558">
        <ele>365</ele>
        <time>2017-02-25T08:39:07Z</time>
      </trkpt>
      <trkpt lat="45.61732" lon="4.67557">
        <ele>365</ele>
        <time>2017-02-25T08:39:08Z</time>
      </trkpt>
      <trkpt lat="45.61727" lon="4.67555">
        <ele>366</ele>
        <time>2017-02-25T08:39:09Z</time>
      </trkpt>
      <trkpt lat="45.61722" lon="4.67553">
        <ele>367</ele>
        <time>2017-02-25T08:39:10Z</time>
      </trkpt>
      <trkpt lat="45.61717" lon="4.6755">
        <ele>367</ele>
        <time>2017-02-25T08:39:11Z</time>
      </trkpt>
      <trkpt lat="45.61712" lon="4.67546">
        <ele>367</ele>
        <time>2017-02-25T08:39:12Z</time>
      </trkpt>
      <trkpt lat="45.61707" lon="4.67542">
        <ele>367</ele>
        <time>2017-02-25T08:39:13Z</time>
      </trkpt>
      <trkpt lat="45.61701" lon="4.67539">
        <ele>366</ele>
        <time>2017-02-25T08:39:14Z</time>
      </trkpt>
      <trkpt lat="45.61696" lon="4.67536">
        <ele>365</ele>
        <time>2017-02-25T08:39:15Z</time>
      </trkpt>
      <trkpt lat="45.61686" lon="4.67535">
        <ele>365</ele>
        <time>2017-02-25T08:39:17Z</time>
      </trkpt>
      <trkpt lat="45.61677" lon="4.6753">
        <ele>365</ele>
        <time>2017-02-25T08:39:19Z</time>
      </trkpt>
      <trkpt lat="45.61672" lon="4.67528">
        <ele>365</ele>
        <time>2017-02-25T08:39:20Z</time>
      </trkpt>
      <trkpt lat="45.61663" lon="4.6753">
        <ele>365</ele>
        <time>2017-02-25T08:39:21Z</time>
      </trkpt>
      <trkpt lat="45.61659" lon="4.67528">
        <ele>365</ele>
        <time>2017-02-25T08:39:22Z</time>
      </trkpt>
      <trkpt lat="45.61654" lon="4.67526">
        <ele>365</ele>
        <time>2017-02-25T08:39:23Z</time>
      </trkpt>
      <trkpt lat="45.61649" lon="4.67524">
        <ele>364</ele>
        <time>2017-02-25T08:39:24Z</time>
      </trkpt>
      <trkpt lat="45.61644" lon="4.67517">
        <ele>364</ele>
        <time>2017-02-25T08:39:25Z</time>
      </trkpt>
      <trkpt lat="45.61639" lon="4.67514">
        <ele>364</ele>
        <time>2017-02-25T08:39:26Z</time>
      </trkpt>
      <trkpt lat="45.61634" lon="4.67508">
        <ele>364</ele>
        <time>2017-02-25T08:39:27Z</time>
      </trkpt>
      <trkpt lat="45.6163" lon="4.67503">
        <ele>364</ele>
        <time>2017-02-25T08:39:28Z</time>
      </trkpt>
      <trkpt lat="45.61624" lon="4.67498">
        <ele>364</ele>
        <time>2017-02-25T08:39:29Z</time>
      </trkpt>
      <trkpt lat="45.6162" lon="4.67492">
        <ele>363</ele>
        <time>2017-02-25T08:39:30Z</time>
      </trkpt>
      <trkpt lat="45.61616" lon="4.67486">
        <ele>363</ele>
        <time>2017-02-25T08:39:31Z</time>
      </trkpt>
      <trkpt lat="45.6161" lon="4.6748">
        <ele>362</ele>
        <time>2017-02-25T08:39:32Z</time>
      </trkpt>
      <trkpt lat="45.61605" lon="4.67473">
        <ele>362</ele>
        <time>2017-02-25T08:39:33Z</time>
      </trkpt>
      <trkpt lat="45.61602" lon="4.67465">
        <ele>362</ele>
        <time>2017-02-25T08:39:34Z</time>
      </trkpt>
      <trkpt lat="45.61602" lon="4.67455">
        <ele>362</ele>
        <time>2017-02-25T08:39:35Z</time>
      </trkpt>
      <trkpt lat="45.61603" lon="4.67448">
        <ele>362</ele>
        <time>2017-02-25T08:39:36Z</time>
      </trkpt>
      <trkpt lat="45.61605" lon="4.67442">
        <ele>363</ele>
        <time>2017-02-25T08:39:37Z</time>
      </trkpt>
      <trkpt lat="45.61607" lon="4.6743">
        <ele>362</ele>
        <time>2017-02-25T08:39:39Z</time>
      </trkpt>
      <trkpt lat="45.61605" lon="4.67418">
        <ele>362</ele>
        <time>2017-02-25T08:39:41Z</time>
      </trkpt>
      <trkpt lat="45.61603" lon="4.67411">
        <ele>361</ele>
        <time>2017-02-25T08:39:42Z</time>
      </trkpt>
      <trkpt lat="45.61601" lon="4.67402">
        <ele>360</ele>
        <time>2017-02-25T08:39:43Z</time>
      </trkpt>
      <trkpt lat="45.61599" lon="4.67395">
        <ele>359</ele>
        <time>2017-02-25T08:39:44Z</time>
      </trkpt>
      <trkpt lat="45.61596" lon="4.67387">
        <ele>359</ele>
        <time>2017-02-25T08:39:45Z</time>
      </trkpt>
      <trkpt lat="45.61594" lon="4.67374">
        <ele>358</ele>
        <time>2017-02-25T08:39:46Z</time>
      </trkpt>
      <trkpt lat="45.61591" lon="4.67365">
        <ele>358</ele>
        <time>2017-02-25T08:39:47Z</time>
      </trkpt>
      <trkpt lat="45.61589" lon="4.67357">
        <ele>358</ele>
        <time>2017-02-25T08:39:48Z</time>
      </trkpt>
      <trkpt lat="45.61585" lon="4.67346">
        <ele>358</ele>
        <time>2017-02-25T08:39:49Z</time>
      </trkpt>
      <trkpt lat="45.61579" lon="4.67334">
        <ele>358</ele>
        <time>2017-02-25T08:39:50Z</time>
      </trkpt>
      <trkpt lat="45.61575" lon="4.67324">
        <ele>358</ele>
        <time>2017-02-25T08:39:51Z</time>
      </trkpt>
      <trkpt lat="45.61569" lon="4.67313">
        <ele>358</ele>
        <time>2017-02-25T08:39:52Z</time>
      </trkpt>
      <trkpt lat="45.61562" lon="4.67303">
        <ele>358</ele>
        <time>2017-02-25T08:39:53Z</time>
      </trkpt>
      <trkpt lat="45.61556" lon="4.67295">
        <ele>358</ele>
        <time>2017-02-25T08:39:54Z</time>
      </trkpt>
      <trkpt lat="45.61548" lon="4.6729">
        <ele>357</ele>
        <time>2017-02-25T08:39:55Z</time>
      </trkpt>
      <trkpt lat="45.61543" lon="4.67282">
        <ele>355</ele>
        <time>2017-02-25T08:39:56Z</time>
      </trkpt>
      <trkpt lat="45.61537" lon="4.67274">
        <ele>353</ele>
        <time>2017-02-25T08:39:58Z</time>
      </trkpt>
      <trkpt lat="45.61538" lon="4.67264">
        <ele>349</ele>
        <time>2017-02-25T08:40:00Z</time>
      </trkpt>
      <trkpt lat="45.61545" lon="4.67258">
        <ele>346</ele>
        <time>2017-02-25T08:40:02Z</time>
      </trkpt>
      <trkpt lat="45.61549" lon="4.67256">
        <ele>345</ele>
        <time>2017-02-25T08:40:03Z</time>
      </trkpt>
      <trkpt lat="45.61555" lon="4.67249">
        <ele>346</ele>
        <time>2017-02-25T08:40:05Z</time>
      </trkpt>
      <trkpt lat="45.61559" lon="4.67239">
        <ele>349</ele>
        <time>2017-02-25T08:40:07Z</time>
      </trkpt>
      <trkpt lat="45.6156" lon="4.67232">
        <ele>351</ele>
        <time>2017-02-25T08:40:08Z</time>
      </trkpt>
      <trkpt lat="45.61562" lon="4.67224">
        <ele>354</ele>
        <time>2017-02-25T08:40:09Z</time>
      </trkpt>
      <trkpt lat="45.61565" lon="4.67218">
        <ele>357</ele>
        <time>2017-02-25T08:40:10Z</time>
      </trkpt>
      <trkpt lat="45.61568" lon="4.67212">
        <ele>357</ele>
        <time>2017-02-25T08:40:11Z</time>
      </trkpt>
      <trkpt lat="45.61574" lon="4.67209">
        <ele>357</ele>
        <time>2017-02-25T08:40:12Z</time>
      </trkpt>
      <trkpt lat="45.61579" lon="4.67207">
        <ele>357</ele>
        <time>2017-02-25T08:40:13Z</time>
      </trkpt>
      <trkpt lat="45.61585" lon="4.67202">
        <ele>356</ele>
        <time>2017-02-25T08:40:14Z</time>
      </trkpt>
      <trkpt lat="45.61591" lon="4.67198">
        <ele>354</ele>
        <time>2017-02-25T08:40:15Z</time>
      </trkpt>
      <trkpt lat="45.61596" lon="4.67194">
        <ele>353</ele>
        <time>2017-02-25T08:40:16Z</time>
      </trkpt>
      <trkpt lat="45.61604" lon="4.6719">
        <ele>351</ele>
        <time>2017-02-25T08:40:17Z</time>
      </trkpt>
      <trkpt lat="45.61609" lon="4.67183">
        <ele>349</ele>
        <time>2017-02-25T08:40:18Z</time>
      </trkpt>
      <trkpt lat="45.61615" lon="4.67179">
        <ele>347</ele>
        <time>2017-02-25T08:40:19Z</time>
      </trkpt>
      <trkpt lat="45.6162" lon="4.67174">
        <ele>345</ele>
        <time>2017-02-25T08:40:20Z</time>
      </trkpt>
      <trkpt lat="45.61626" lon="4.67166">
        <ele>342</ele>
        <time>2017-02-25T08:40:21Z</time>
      </trkpt>
      <trkpt lat="45.61629" lon="4.67159">
        <ele>341</ele>
        <time>2017-02-25T08:40:22Z</time>
      </trkpt>
      <trkpt lat="45.61632" lon="4.6715">
        <ele>339</ele>
        <time>2017-02-25T08:40:23Z</time>
      </trkpt>
      <trkpt lat="45.61634" lon="4.67142">
        <ele>338</ele>
        <time>2017-02-25T08:40:24Z</time>
      </trkpt>
      <trkpt lat="45.61634" lon="4.67132">
        <ele>337</ele>
        <time>2017-02-25T08:40:25Z</time>
      </trkpt>
      <trkpt lat="45.61634" lon="4.67123">
        <ele>337</ele>
        <time>2017-02-25T08:40:26Z</time>
      </trkpt>
      <trkpt lat="45.61635" lon="4.67116">
        <ele>337</ele>
        <time>2017-02-25T08:40:27Z</time>
      </trkpt>
      <trkpt lat="45.61635" lon="4.67109">
        <ele>337</ele>
        <time>2017-02-25T08:40:28Z</time>
      </trkpt>
      <trkpt lat="45.61632" lon="4.67102">
        <ele>336</ele>
        <time>2017-02-25T08:40:29Z</time>
      </trkpt>
      <trkpt lat="45.61628" lon="4.67095">
        <ele>336</ele>
        <time>2017-02-25T08:40:30Z</time>
      </trkpt>
      <trkpt lat="45.61625" lon="4.67087">
        <ele>336</ele>
        <time>2017-02-25T08:40:31Z</time>
      </trkpt>
      <trkpt lat="45.61622" lon="4.67079">
        <ele>336</ele>
        <time>2017-02-25T08:40:32Z</time>
      </trkpt>
      <trkpt lat="45.61618" lon="4.6707">
        <ele>336</ele>
        <time>2017-02-25T08:40:33Z</time>
      </trkpt>
      <trkpt lat="45.61614" lon="4.67063">
        <ele>337</ele>
        <time>2017-02-25T08:40:34Z</time>
      </trkpt>
      <trkpt lat="45.61608" lon="4.67057">
        <ele>337</ele>
        <time>2017-02-25T08:40:35Z</time>
      </trkpt>
      <trkpt lat="45.61604" lon="4.67051">
        <ele>337</ele>
        <time>2017-02-25T08:40:36Z</time>
      </trkpt>
      <trkpt lat="45.61604" lon="4.67044">
        <ele>337</ele>
        <time>2017-02-25T08:40:37Z</time>
      </trkpt>
      <trkpt lat="45.61601" lon="4.67039">
        <ele>337</ele>
        <time>2017-02-25T08:40:38Z</time>
      </trkpt>
      <trkpt lat="45.61597" lon="4.67034">
        <ele>337</ele>
        <time>2017-02-25T08:40:39Z</time>
      </trkpt>
      <trkpt lat="45.61591" lon="4.67029">
        <ele>337</ele>
        <time>2017-02-25T08:40:40Z</time>
      </trkpt>
      <trkpt lat="45.61586" lon="4.67024">
        <ele>336</ele>
        <time>2017-02-25T08:40:41Z</time>
      </trkpt>
      <trkpt lat="45.61578" lon="4.67027">
        <ele>336</ele>
        <time>2017-02-25T08:40:42Z</time>
      </trkpt>
      <trkpt lat="45.61573" lon="4.67023">
        <ele>336</ele>
        <time>2017-02-25T08:40:43Z</time>
      </trkpt>
      <trkpt lat="45.61568" lon="4.6702">
        <ele>336</ele>
        <time>2017-02-25T08:40:44Z</time>
      </trkpt>
      <trkpt lat="45.61564" lon="4.67015">
        <ele>336</ele>
        <time>2017-02-25T08:40:45Z</time>
      </trkpt>
      <trkpt lat="45.61559" lon="4.6701">
        <ele>336</ele>
        <time>2017-02-25T08:40:46Z</time>
      </trkpt>
      <trkpt lat="45.61554" lon="4.67004">
        <ele>336</ele>
        <time>2017-02-25T08:40:47Z</time>
      </trkpt>
      <trkpt lat="45.61551" lon="4.66997">
        <ele>336</ele>
        <time>2017-02-25T08:40:48Z</time>
      </trkpt>
      <trkpt lat="45.61548" lon="4.6699">
        <ele>336</ele>
        <time>2017-02-25T08:40:49Z</time>
      </trkpt>
      <trkpt lat="45.61546" lon="4.66982">
        <ele>337</ele>
        <time>2017-02-25T08:40:50Z</time>
      </trkpt>
      <trkpt lat="45.61546" lon="4.66974">
        <ele>337</ele>
        <time>2017-02-25T08:40:51Z</time>
      </trkpt>
      <trkpt lat="45.61545" lon="4.66968">
        <ele>337</ele>
        <time>2017-02-25T08:40:52Z</time>
      </trkpt>
      <trkpt lat="45.61542" lon="4.66962">
        <ele>337</ele>
        <time>2017-02-25T08:40:53Z</time>
      </trkpt>
      <trkpt lat="45.6154" lon="4.66956">
        <ele>337</ele>
        <time>2017-02-25T08:40:54Z</time>
      </trkpt>
      <trkpt lat="45.61537" lon="4.66951">
        <ele>337</ele>
        <time>2017-02-25T08:40:55Z</time>
      </trkpt>
      <trkpt lat="45.61534" lon="4.66947">
        <ele>337</ele>
        <time>2017-02-25T08:40:56Z</time>
      </trkpt>
      <trkpt lat="45.6153" lon="4.66941">
        <ele>338</ele>
        <time>2017-02-25T08:40:58Z</time>
      </trkpt>
      <trkpt lat="45.61528" lon="4.66931">
        <ele>338</ele>
        <time>2017-02-25T08:41:00Z</time>
      </trkpt>
      <trkpt lat="45.61527" lon="4.66925">
        <ele>339</ele>
        <time>2017-02-25T08:41:02Z</time>
      </trkpt>
      <trkpt lat="45.61532" lon="4.66928">
        <ele>339</ele>
        <time>2017-02-25T08:41:04Z</time>
      </trkpt>
      <trkpt lat="45.61538" lon="4.66936">
        <ele>340</ele>
        <time>2017-02-25T08:41:06Z</time>
      </trkpt>
      <trkpt lat="45.61542" lon="4.6694">
        <ele>340</ele>
        <time>2017-02-25T08:41:08Z</time>
      </trkpt>
      <trkpt lat="45.61546" lon="4.66942">
        <ele>341</ele>
        <time>2017-02-25T08:41:10Z</time>
      </trkpt>
      <trkpt lat="45.61552" lon="4.66945">
        <ele>341</ele>
        <time>2017-02-25T08:41:12Z</time>
      </trkpt>
      <trkpt lat="45.61556" lon="4.66949">
        <ele>341</ele>
        <time>2017-02-25T08:41:15Z</time>
      </trkpt>
      <trkpt lat="45.6156" lon="4.66952">
        <ele>341</ele>
        <time>2017-02-25T08:41:18Z</time>
      </trkpt>
      <trkpt lat="45.61566" lon="4.66953">
        <ele>341</ele>
        <time>2017-02-25T08:41:21Z</time>
      </trkpt>
      <trkpt lat="45.61571" lon="4.66954">
        <ele>341</ele>
        <time>2017-02-25T08:41:24Z</time>
      </trkpt>
      <trkpt lat="45.61577" lon="4.66952">
        <ele>341</ele>
        <time>2017-02-25T08:41:27Z</time>
      </trkpt>
      <trkpt lat="45.61583" lon="4.66948">
        <ele>341</ele>
        <time>2017-02-25T08:41:30Z</time>
      </trkpt>
      <trkpt lat="45.61588" lon="4.66944">
        <ele>341</ele>
        <time>2017-02-25T08:41:33Z</time>
      </trkpt>
      <trkpt lat="45.61592" lon="4.66939">
        <ele>341</ele>
        <time>2017-02-25T08:41:36Z</time>
      </trkpt>
      <trkpt lat="45.61594" lon="4.66931">
        <ele>342</ele>
        <time>2017-02-25T08:41:40Z</time>
      </trkpt>
      <trkpt lat="45.61596" lon="4.66925">
        <ele>343</ele>
        <time>2017-02-25T08:41:44Z</time>
      </trkpt>
      <trkpt lat="45.61597" lon="4.66918">
        <ele>344</ele>
        <time>2017-02-25T08:41:48Z</time>
      </trkpt>
      <trkpt lat="45.61598" lon="4.66911">
        <ele>345</ele>
        <time>2017-02-25T08:41:52Z</time>
      </trkpt>
      <trkpt lat="45.61599" lon="4.66904">
        <ele>347</ele>
        <time>2017-02-25T08:41:56Z</time>
      </trkpt>
      <trkpt lat="45.616" lon="4.66897">
        <ele>348</ele>
        <time>2017-02-25T08:42:00Z</time>
      </trkpt>
      <trkpt lat="45.61601" lon="4.6689">
        <ele>350</ele>
        <time>2017-02-25T08:42:04Z</time>
      </trkpt>
      <trkpt lat="45.61602" lon="4.66882">
        <ele>352</ele>
        <time>2017-02-25T08:42:08Z</time>
      </trkpt>
      <trkpt lat="45.61604" lon="4.66876">
        <ele>353</ele>
        <time>2017-02-25T08:42:12Z</time>
      </trkpt>
      <trkpt lat="45.61607" lon="4.66869">
        <ele>354</ele>
        <time>2017-02-25T08:42:16Z</time>
      </trkpt>
      <trkpt lat="45.61611" lon="4.66864">
        <ele>355</ele>
        <time>2017-02-25T08:42:20Z</time>
      </trkpt>
      <trkpt lat="45.61613" lon="4.66863">
        <ele>355</ele>
        <time>2017-02-25T08:42:38Z</time>
      </trkpt>
      <trkpt lat="45.61613" lon="4.66863">
        <ele>356</ele>
        <time>2017-02-25T08:42:41Z</time>
      </trkpt>
      <trkpt lat="45.61616" lon="4.66858">
        <ele>357</ele>
        <time>2017-02-25T08:42:57Z</time>
      </trkpt>
      <trkpt lat="45.61621" lon="4.66851">
        <ele>357</ele>
        <time>2017-02-25T08:43:01Z</time>
      </trkpt>
      <trkpt lat="45.61625" lon="4.66846">
        <ele>357</ele>
        <time>2017-02-25T08:43:04Z</time>
      </trkpt>
      <trkpt lat="45.6163" lon="4.6684">
        <ele>357</ele>
        <time>2017-02-25T08:43:07Z</time>
      </trkpt>
      <trkpt lat="45.61633" lon="4.66835">
        <ele>357</ele>
        <time>2017-02-25T08:43:09Z</time>
      </trkpt>
      <trkpt lat="45.61637" lon="4.6683">
        <ele>357</ele>
        <time>2017-02-25T08:43:12Z</time>
      </trkpt>
      <trkpt lat="45.61641" lon="4.66826">
        <ele>357</ele>
        <time>2017-02-25T08:43:14Z</time>
      </trkpt>
      <trkpt lat="45.61645" lon="4.66822">
        <ele>357</ele>
        <time>2017-02-25T08:43:16Z</time>
      </trkpt>
      <trkpt lat="45.61649" lon="4.66815">
        <ele>357</ele>
        <time>2017-02-25T08:43:19Z</time>
      </trkpt>
      <trkpt lat="45.61652" lon="4.66809">
        <ele>357</ele>
        <time>2017-02-25T08:43:21Z</time>
      </trkpt>
      <trkpt lat="45.61654" lon="4.66803">
        <ele>358</ele>
        <time>2017-02-25T08:43:23Z</time>
      </trkpt>
      <trkpt lat="45.61656" lon="4.66794">
        <ele>358</ele>
        <time>2017-02-25T08:43:26Z</time>
      </trkpt>
      <trkpt lat="45.61656" lon="4.66786">
        <ele>359</ele>
        <time>2017-02-25T08:43:28Z</time>
      </trkpt>
      <trkpt lat="45.61657" lon="4.66779">
        <ele>359</ele>
        <time>2017-02-25T08:43:30Z</time>
      </trkpt>
      <trkpt lat="45.61657" lon="4.66773">
        <ele>359</ele>
        <time>2017-02-25T08:43:32Z</time>
      </trkpt>
      <trkpt lat="45.61658" lon="4.66766">
        <ele>360</ele>
        <time>2017-02-25T08:43:34Z</time>
      </trkpt>
      <trkpt lat="45.61658" lon="4.66759">
        <ele>360</ele>
        <time>2017-02-25T08:43:36Z</time>
      </trkpt>
      <trkpt lat="45.61659" lon="4.66753">
        <ele>360</ele>
        <time>2017-02-25T08:43:38Z</time>
      </trkpt>
      <trkpt lat="45.61659" lon="4.66744">
        <ele>360</ele>
        <time>2017-02-25T08:43:41Z</time>
      </trkpt>
      <trkpt lat="45.61661" lon="4.66735">
        <ele>360</ele>
        <time>2017-02-25T08:43:44Z</time>
      </trkpt>
      <trkpt lat="45.61665" lon="4.66727">
        <ele>361</ele>
        <time>2017-02-25T08:43:47Z</time>
      </trkpt>
      <trkpt lat="45.6167" lon="4.66722">
        <ele>361</ele>
        <time>2017-02-25T08:43:50Z</time>
      </trkpt>
      <trkpt lat="45.61675" lon="4.66718">
        <ele>362</ele>
        <time>2017-02-25T08:43:53Z</time>
      </trkpt>
      <trkpt lat="45.6168" lon="4.66714">
        <ele>362</ele>
        <time>2017-02-25T08:43:56Z</time>
      </trkpt>
      <trkpt lat="45.61685" lon="4.66711">
        <ele>362</ele>
        <time>2017-02-25T08:43:59Z</time>
      </trkpt>
      <trkpt lat="45.6169" lon="4.66708">
        <ele>361</ele>
        <time>2017-02-25T08:44:02Z</time>
      </trkpt>
      <trkpt lat="45.61695" lon="4.66705">
        <ele>361</ele>
        <time>2017-02-25T08:44:05Z</time>
      </trkpt>
      <trkpt lat="45.61701" lon="4.66702">
        <ele>360</ele>
        <time>2017-02-25T08:44:08Z</time>
      </trkpt>
      <trkpt lat="45.61707" lon="4.66698">
        <ele>360</ele>
        <time>2017-02-25T08:44:11Z</time>
      </trkpt>
      <trkpt lat="45.61711" lon="4.66694">
        <ele>360</ele>
        <time>2017-02-25T08:44:13Z</time>
      </trkpt>
      <trkpt lat="45.61715" lon="4.66691">
        <ele>360</ele>
        <time>2017-02-25T08:44:15Z</time>
      </trkpt>
      <trkpt lat="45.61719" lon="4.66688">
        <ele>361</ele>
        <time>2017-02-25T08:44:17Z</time>
      </trkpt>
      <trkpt lat="45.61725" lon="4.66684">
        <ele>362</ele>
        <time>2017-02-25T08:44:20Z</time>
      </trkpt>
      <trkpt lat="45.6173" lon="4.66679">
        <ele>362</ele>
        <time>2017-02-25T08:44:23Z</time>
      </trkpt>
      <trkpt lat="45.61734" lon="4.66676">
        <ele>363</ele>
        <time>2017-02-25T08:44:25Z</time>
      </trkpt>
      <trkpt lat="45.61738" lon="4.66672">
        <ele>363</ele>
        <time>2017-02-25T08:44:27Z</time>
      </trkpt>
      <trkpt lat="45.61741" lon="4.66666">
        <ele>363</ele>
        <time>2017-02-25T08:44:29Z</time>
      </trkpt>
      <trkpt lat="45.61741" lon="4.66659">
        <ele>363</ele>
        <time>2017-02-25T08:44:31Z</time>
      </trkpt>
      <trkpt lat="45.6174" lon="4.66652">
        <ele>363</ele>
        <time>2017-02-25T08:44:33Z</time>
      </trkpt>
      <trkpt lat="45.61737" lon="4.66645">
        <ele>363</ele>
        <time>2017-02-25T08:44:35Z</time>
      </trkpt>
      <trkpt lat="45.61735" lon="4.66639">
        <ele>364</ele>
        <time>2017-02-25T08:44:37Z</time>
      </trkpt>
      <trkpt lat="45.61733" lon="4.66633">
        <ele>364</ele>
        <time>2017-02-25T08:44:39Z</time>
      </trkpt>
      <trkpt lat="45.61731" lon="4.66627">
        <ele>364</ele>
        <time>2017-02-25T08:44:41Z</time>
      </trkpt>
      <trkpt lat="45.61728" lon="4.66618">
        <ele>364</ele>
        <time>2017-02-25T08:44:44Z</time>
      </trkpt>
      <trkpt lat="45.61726" lon="4.66611">
        <ele>364</ele>
        <time>2017-02-25T08:44:46Z</time>
      </trkpt>
      <trkpt lat="45.61724" lon="4.66606">
        <ele>365</ele>
        <time>2017-02-25T08:44:48Z</time>
      </trkpt>
      <trkpt lat="45.61722" lon="4.66599">
        <ele>365</ele>
        <time>2017-02-25T08:44:50Z</time>
      </trkpt>
      <trkpt lat="45.61721" lon="4.66592">
        <ele>366</ele>
        <time>2017-02-25T08:44:52Z</time>
      </trkpt>
      <trkpt lat="45.61719" lon="4.66586">
        <ele>367</ele>
        <time>2017-02-25T08:44:54Z</time>
      </trkpt>
      <trkpt lat="45.61716" lon="4.66578">
        <ele>368</ele>
        <time>2017-02-25T08:44:57Z</time>
      </trkpt>
      <trkpt lat="45.61713" lon="4.6657">
        <ele>369</ele>
        <time>2017-02-25T08:45:00Z</time>
      </trkpt>
      <trkpt lat="45.61711" lon="4.66564">
        <ele>370</ele>
        <time>2017-02-25T08:45:02Z</time>
      </trkpt>
      <trkpt lat="45.61708" lon="4.66559">
        <ele>370</ele>
        <time>2017-02-25T08:45:04Z</time>
      </trkpt>
      <trkpt lat="45.61704" lon="4.66552">
        <ele>372</ele>
        <time>2017-02-25T08:45:07Z</time>
      </trkpt>
      <trkpt lat="45.617" lon="4.66544">
        <ele>373</ele>
        <time>2017-02-25T08:45:10Z</time>
      </trkpt>
      <trkpt lat="45.617" lon="4.66534">
        <ele>374</ele>
        <time>2017-02-25T08:45:13Z</time>
      </trkpt>
      <trkpt lat="45.61701" lon="4.66525">
        <ele>375</ele>
        <time>2017-02-25T08:45:16Z</time>
      </trkpt>
      <trkpt lat="45.61705" lon="4.66526">
        <ele>375</ele>
        <time>2017-02-25T08:45:38Z</time>
      </trkpt>
      <trkpt lat="45.61705" lon="4.66526">
        <ele>376</ele>
        <time>2017-02-25T08:45:41Z</time>
      </trkpt>
      <trkpt lat="45.61705" lon="4.66526">
        <ele>375</ele>
        <time>2017-02-25T08:46:08Z</time>
      </trkpt>
      <trkpt lat="45.61705" lon="4.66526">
        <ele>375</ele>
        <time>2017-02-25T08:46:11Z</time>
      </trkpt>
      <trkpt lat="45.61705" lon="4.66526">
        <ele>376</ele>
        <time>2017-02-25T08:46:39Z</time>
      </trkpt>
      <trkpt lat="45.61705" lon="4.66526">
        <ele>376</ele>
        <time>2017-02-25T08:46:41Z</time>
      </trkpt>
      <trkpt lat="45.61705" lon="4.66526">
        <ele>376</ele>
        <time>2017-02-25T08:47:09Z</time>
      </trkpt>
      <trkpt lat="45.61705" lon="4.66526">
        <ele>376</ele>
        <time>2017-02-25T08:47:11Z</time>
      </trkpt>
      <trkpt lat="45.61706" lon="4.66519">
        <ele>376</ele>
        <time>2017-02-25T08:47:26Z</time>
      </trkpt>
      <trkpt lat="45.61708" lon="4.66511">
        <ele>376</ele>
        <time>2017-02-25T08:47:29Z</time>
      </trkpt>
      <trkpt lat="45.61709" lon="4.66504">
        <ele>376</ele>
        <time>2017-02-25T08:47:31Z</time>
      </trkpt>
      <trkpt lat="45.61711" lon="4.66498">
        <ele>375</ele>
        <time>2017-02-25T08:47:33Z</time>
      </trkpt>
      <trkpt lat="45.61713" lon="4.66491">
        <ele>375</ele>
        <time>2017-02-25T08:47:35Z</time>
      </trkpt>
      <trkpt lat="45.61715" lon="4.66481">
        <ele>375</ele>
        <time>2017-02-25T08:47:38Z</time>
      </trkpt>
      <trkpt lat="45.61717" lon="4.66475">
        <ele>375</ele>
        <time>2017-02-25T08:47:40Z</time>
      </trkpt>
      <trkpt lat="45.61719" lon="4.66467">
        <ele>374</ele>
        <time>2017-02-25T08:47:42Z</time>
      </trkpt>
      <trkpt lat="45.6172" lon="4.6646">
        <ele>374</ele>
        <time>2017-02-25T08:47:44Z</time>
      </trkpt>
      <trkpt lat="45.61722" lon="4.66454">
        <ele>374</ele>
        <time>2017-02-25T08:47:46Z</time>
      </trkpt>
      <trkpt lat="45.61723" lon="4.66448">
        <ele>373</ele>
        <time>2017-02-25T08:47:48Z</time>
      </trkpt>
      <trkpt lat="45.61725" lon="4.66442">
        <ele>373</ele>
        <time>2017-02-25T08:47:50Z</time>
      </trkpt>
      <trkpt lat="45.61727" lon="4.66435">
        <ele>373</ele>
        <time>2017-02-25T08:47:52Z</time>
      </trkpt>
      <trkpt lat="45.61729" lon="4.66429">
        <ele>374</ele>
        <time>2017-02-25T08:47:54Z</time>
      </trkpt>
      <trkpt lat="45.61731" lon="4.66422">
        <ele>374</ele>
        <time>2017-02-25T08:47:56Z</time>
      </trkpt>
      <trkpt lat="45.61732" lon="4.66416">
        <ele>375</ele>
        <time>2017-02-25T08:47:58Z</time>
      </trkpt>
      <trkpt lat="45.61733" lon="4.66409">
        <ele>375</ele>
        <time>2017-02-25T08:48:00Z</time>
      </trkpt>
      <trkpt lat="45.61734" lon="4.66403">
        <ele>376</ele>
        <time>2017-02-25T08:48:02Z</time>
      </trkpt>
      <trkpt lat="45.61734" lon="4.66396">
        <ele>375</ele>
        <time>2017-02-25T08:48:04Z</time>
      </trkpt>
      <trkpt lat="45.61736" lon="4.6639">
        <ele>375</ele>
        <time>2017-02-25T08:48:06Z</time>
      </trkpt>
      <trkpt lat="45.61737" lon="4.6638">
        <ele>375</ele>
        <time>2017-02-25T08:48:09Z</time>
      </trkpt>
      <trkpt lat="45.61739" lon="4.66373">
        <ele>375</ele>
        <time>2017-02-25T08:48:11Z</time>
      </trkpt>
      <trkpt lat="45.6174" lon="4.66366">
        <ele>375</ele>
        <time>2017-02-25T08:48:13Z</time>
      </trkpt>
      <trkpt lat="45.61742" lon="4.66359">
        <ele>375</ele>
        <time>2017-02-25T08:48:15Z</time>
      </trkpt>
      <trkpt lat="45.61745" lon="4.66353">
        <ele>375</ele>
        <time>2017-02-25T08:48:17Z</time>
      </trkpt>
      <trkpt lat="45.61747" lon="4.66346">
        <ele>375</ele>
        <time>2017-02-25T08:48:19Z</time>
      </trkpt>
      <trkpt lat="45.61749" lon="4.6634">
        <ele>375</ele>
        <time>2017-02-25T08:48:21Z</time>
      </trkpt>
      <trkpt lat="45.61751" lon="4.66334">
        <ele>375</ele>
        <time>2017-02-25T08:48:23Z</time>
      </trkpt>
      <trkpt lat="45.61754" lon="4.66328">
        <ele>375</ele>
        <time>2017-02-25T08:48:25Z</time>
      </trkpt>
      <trkpt lat="45.61755" lon="4.66322">
        <ele>376</ele>
        <time>2017-02-25T08:48:27Z</time>
      </trkpt>
      <trkpt lat="45.61758" lon="4.66316">
        <ele>376</ele>
        <time>2017-02-25T08:48:29Z</time>
      </trkpt>
      <trkpt lat="45.6176" lon="4.6631">
        <ele>376</ele>
        <time>2017-02-25T08:48:31Z</time>
      </trkpt>
      <trkpt lat="45.61763" lon="4.66304">
        <ele>376</ele>
        <time>2017-02-25T08:48:33Z</time>
      </trkpt>
      <trkpt lat="45.61765" lon="4.66299">
        <ele>376</ele>
        <time>2017-02-25T08:48:35Z</time>
      </trkpt>
      <trkpt lat="45.61767" lon="4.66293">
        <ele>377</ele>
        <time>2017-02-25T08:48:37Z</time>
      </trkpt>
      <trkpt lat="45.6177" lon="4.66287">
        <ele>376</ele>
        <time>2017-02-25T08:48:39Z</time>
      </trkpt>
      <trkpt lat="45.61772" lon="4.66281">
        <ele>376</ele>
        <time>2017-02-25T08:48:41Z</time>
      </trkpt>
      <trkpt lat="45.61774" lon="4.66275">
        <ele>376</ele>
        <time>2017-02-25T08:48:43Z</time>
      </trkpt>
      <trkpt lat="45.61777" lon="4.66267">
        <ele>376</ele>
        <time>2017-02-25T08:48:46Z</time>
      </trkpt>
      <trkpt lat="45.61779" lon="4.66261">
        <ele>375</ele>
        <time>2017-02-25T08:48:48Z</time>
      </trkpt>
      <trkpt lat="45.61782" lon="4.66255">
        <ele>375</ele>
        <time>2017-02-25T08:48:50Z</time>
      </trkpt>
      <trkpt lat="45.61784" lon="4.66248">
        <ele>375</ele>
        <time>2017-02-25T08:48:52Z</time>
      </trkpt>
      <trkpt lat="45.61786" lon="4.66242">
        <ele>376</ele>
        <time>2017-02-25T08:48:54Z</time>
      </trkpt>
      <trkpt lat="45.61787" lon="4.66236">
        <ele>376</ele>
        <time>2017-02-25T08:48:56Z</time>
      </trkpt>
      <trkpt lat="45.61789" lon="4.6623">
        <ele>376</ele>
        <time>2017-02-25T08:48:58Z</time>
      </trkpt>
      <trkpt lat="45.61792" lon="4.66222">
        <ele>377</ele>
        <time>2017-02-25T08:49:01Z</time>
      </trkpt>
      <trkpt lat="45.61795" lon="4.66216">
        <ele>377</ele>
        <time>2017-02-25T08:49:03Z</time>
      </trkpt>
      <trkpt lat="45.61797" lon="4.6621">
        <ele>378</ele>
        <time>2017-02-25T08:49:05Z</time>
      </trkpt>
      <trkpt lat="45.61798" lon="4.66203">
        <ele>379</ele>
        <time>2017-02-25T08:49:07Z</time>
      </trkpt>
      <trkpt lat="45.618" lon="4.66197">
        <ele>380</ele>
        <time>2017-02-25T08:49:09Z</time>
      </trkpt>
      <trkpt lat="45.61802" lon="4.66191">
        <ele>381</ele>
        <time>2017-02-25T08:49:11Z</time>
      </trkpt>
      <trkpt lat="45.61803" lon="4.66185">
        <ele>382</ele>
        <time>2017-02-25T08:49:13Z</time>
      </trkpt>
      <trkpt lat="45.61805" lon="4.66176">
        <ele>383</ele>
        <time>2017-02-25T08:49:16Z</time>
      </trkpt>
      <trkpt lat="45.61806" lon="4.66168">
        <ele>384</ele>
        <time>2017-02-25T08:49:19Z</time>
      </trkpt>
      <trkpt lat="45.61806" lon="4.66159">
        <ele>385</ele>
        <time>2017-02-25T08:49:22Z</time>
      </trkpt>
      <trkpt lat="45.61807" lon="4.6615">
        <ele>386</ele>
        <time>2017-02-25T08:49:25Z</time>
      </trkpt>
      <trkpt lat="45.61808" lon="4.66142">
        <ele>386</ele>
        <time>2017-02-25T08:49:28Z</time>
      </trkpt>
      <trkpt lat="45.61808" lon="4.66133">
        <ele>385</ele>
        <time>2017-02-25T08:49:31Z</time>
      </trkpt>
      <trkpt lat="45.61808" lon="4.66125">
        <ele>384</ele>
        <time>2017-02-25T08:49:34Z</time>
      </trkpt>
      <trkpt lat="45.61808" lon="4.66116">
        <ele>383</ele>
        <time>2017-02-25T08:49:37Z</time>
      </trkpt>
      <trkpt lat="45.61807" lon="4.66107">
        <ele>382</ele>
        <time>2017-02-25T08:49:40Z</time>
      </trkpt>
      <trkpt lat="45.61807" lon="4.66099">
        <ele>381</ele>
        <time>2017-02-25T08:49:43Z</time>
      </trkpt>
      <trkpt lat="45.61806" lon="4.6609">
        <ele>382</ele>
        <time>2017-02-25T08:49:46Z</time>
      </trkpt>
      <trkpt lat="45.61806" lon="4.66081">
        <ele>382</ele>
        <time>2017-02-25T08:49:49Z</time>
      </trkpt>
      <trkpt lat="45.61804" lon="4.66072">
        <ele>381</ele>
        <time>2017-02-25T08:49:52Z</time>
      </trkpt>
      <trkpt lat="45.61803" lon="4.66064">
        <ele>381</ele>
        <time>2017-02-25T08:49:55Z</time>
      </trkpt>
      <trkpt lat="45.61803" lon="4.66055">
        <ele>381</ele>
        <time>2017-02-25T08:49:58Z</time>
      </trkpt>
      <trkpt lat="45.61803" lon="4.66046">
        <ele>381</ele>
        <time>2017-02-25T08:50:01Z</time>
      </trkpt>
      <trkpt lat="45.61803" lon="4.66037">
        <ele>381</ele>
        <time>2017-02-25T08:50:04Z</time>
      </trkpt>
      <trkpt lat="45.61804" lon="4.66029">
        <ele>382</ele>
        <time>2017-02-25T08:50:07Z</time>
      </trkpt>
      <trkpt lat="45.61805" lon="4.66021">
        <ele>382</ele>
        <time>2017-02-25T08:50:10Z</time>
      </trkpt>
      <trkpt lat="45.61805" lon="4.66012">
        <ele>383</ele>
        <time>2017-02-25T08:50:13Z</time>
      </trkpt>
      <trkpt lat="45.61807" lon="4.66003">
        <ele>383</ele>
        <time>2017-02-25T08:50:16Z</time>
      </trkpt>
      <trkpt lat="45.61808" lon="4.65994">
        <ele>385</ele>
        <time>2017-02-25T08:50:19Z</time>
      </trkpt>
      <trkpt lat="45.61809" lon="4.65986">
        <ele>386</ele>
        <time>2017-02-25T08:50:22Z</time>
      </trkpt>
      <trkpt lat="45.61809" lon="4.65978">
        <ele>387</ele>
        <time>2017-02-25T08:50:25Z</time>
      </trkpt>
      <trkpt lat="45.61809" lon="4.6597">
        <ele>388</ele>
        <time>2017-02-25T08:50:28Z</time>
      </trkpt>
      <trkpt lat="45.61809" lon="4.65962">
        <ele>389</ele>
        <time>2017-02-25T08:50:31Z</time>
      </trkpt>
      <trkpt lat="45.61806" lon="4.65954">
        <ele>390</ele>
        <time>2017-02-25T08:50:34Z</time>
      </trkpt>
      <trkpt lat="45.61803" lon="4.65947">
        <ele>390</ele>
        <time>2017-02-25T08:50:37Z</time>
      </trkpt>
      <trkpt lat="45.61798" lon="4.6594">
        <ele>391</ele>
        <time>2017-02-25T08:50:40Z</time>
      </trkpt>
      <trkpt lat="45.61794" lon="4.65936">
        <ele>392</ele>
        <time>2017-02-25T08:50:43Z</time>
      </trkpt>
      <trkpt lat="45.61789" lon="4.6593">
        <ele>393</ele>
        <time>2017-02-25T08:50:46Z</time>
      </trkpt>
      <trkpt lat="45.61785" lon="4.65923">
        <ele>394</ele>
        <time>2017-02-25T08:50:49Z</time>
      </trkpt>
      <trkpt lat="45.61781" lon="4.65916">
        <ele>394</ele>
        <time>2017-02-25T08:50:52Z</time>
      </trkpt>
      <trkpt lat="45.61778" lon="4.65909">
        <ele>394</ele>
        <time>2017-02-25T08:50:55Z</time>
      </trkpt>
      <trkpt lat="45.61774" lon="4.65901">
        <ele>395</ele>
        <time>2017-02-25T08:50:58Z</time>
      </trkpt>
      <trkpt lat="45.6177" lon="4.65894">
        <ele>395</ele>
        <time>2017-02-25T08:51:01Z</time>
      </trkpt>
      <trkpt lat="45.61768" lon="4.65888">
        <ele>394</ele>
        <time>2017-02-25T08:51:03Z</time>
      </trkpt>
      <trkpt lat="45.61766" lon="4.65882">
        <ele>394</ele>
        <time>2017-02-25T08:51:05Z</time>
      </trkpt>
      <trkpt lat="45.61764" lon="4.65876">
        <ele>393</ele>
        <time>2017-02-25T08:51:07Z</time>
      </trkpt>
      <trkpt lat="45.61761" lon="4.65867">
        <ele>393</ele>
        <time>2017-02-25T08:51:10Z</time>
      </trkpt>
      <trkpt lat="45.6176" lon="4.65858">
        <ele>393</ele>
        <time>2017-02-25T08:51:13Z</time>
      </trkpt>
      <trkpt lat="45.61765" lon="4.65853">
        <ele>393</ele>
        <time>2017-02-25T08:51:16Z</time>
      </trkpt>
      <trkpt lat="45.61771" lon="4.65855">
        <ele>394</ele>
        <time>2017-02-25T08:51:19Z</time>
      </trkpt>
      <trkpt lat="45.61775" lon="4.65857">
        <ele>394</ele>
        <time>2017-02-25T08:51:21Z</time>
      </trkpt>
      <trkpt lat="45.61781" lon="4.65859">
        <ele>395</ele>
        <time>2017-02-25T08:51:24Z</time>
      </trkpt>
      <trkpt lat="45.61787" lon="4.65859">
        <ele>395</ele>
        <time>2017-02-25T08:51:27Z</time>
      </trkpt>
      <trkpt lat="45.61793" lon="4.65859">
        <ele>395</ele>
        <time>2017-02-25T08:51:30Z</time>
      </trkpt>
      <trkpt lat="45.61799" lon="4.65859">
        <ele>396</ele>
        <time>2017-02-25T08:51:33Z</time>
      </trkpt>
      <trkpt lat="45.61805" lon="4.65857">
        <ele>396</ele>
        <time>2017-02-25T08:51:36Z</time>
      </trkpt>
      <trkpt lat="45.6181" lon="4.65854">
        <ele>397</ele>
        <time>2017-02-25T08:51:39Z</time>
      </trkpt>
      <trkpt lat="45.61815" lon="4.65852">
        <ele>397</ele>
        <time>2017-02-25T08:51:41Z</time>
      </trkpt>
      <trkpt lat="45.61821" lon="4.65849">
        <ele>398</ele>
        <time>2017-02-25T08:51:44Z</time>
      </trkpt>
      <trkpt lat="45.61827" lon="4.65847">
        <ele>398</ele>
        <time>2017-02-25T08:51:47Z</time>
      </trkpt>
      <trkpt lat="45.61833" lon="4.65843">
        <ele>398</ele>
        <time>2017-02-25T08:51:50Z</time>
      </trkpt>
      <trkpt lat="45.61839" lon="4.6584">
        <ele>397</ele>
        <time>2017-02-25T08:51:53Z</time>
      </trkpt>
      <trkpt lat="45.61845" lon="4.65836">
        <ele>398</ele>
        <time>2017-02-25T08:51:56Z</time>
      </trkpt>
      <trkpt lat="45.6185" lon="4.65833">
        <ele>399</ele>
        <time>2017-02-25T08:51:59Z</time>
      </trkpt>
      <trkpt lat="45.61855" lon="4.65829">
        <ele>400</ele>
        <time>2017-02-25T08:52:02Z</time>
      </trkpt>
      <trkpt lat="45.61859" lon="4.65825">
        <ele>401</ele>
        <time>2017-02-25T08:52:05Z</time>
      </trkpt>
      <trkpt lat="45.61864" lon="4.6582">
        <ele>402</ele>
        <time>2017-02-25T08:52:08Z</time>
      </trkpt>
      <trkpt lat="45.61868" lon="4.65814">
        <ele>403</ele>
        <time>2017-02-25T08:52:11Z</time>
      </trkpt>
      <trkpt lat="45.61873" lon="4.65808">
        <ele>404</ele>
        <time>2017-02-25T08:52:14Z</time>
      </trkpt>
      <trkpt lat="45.61876" lon="4.65803">
        <ele>404</ele>
        <time>2017-02-25T08:52:16Z</time>
      </trkpt>
      <trkpt lat="45.6188" lon="4.65796">
        <ele>404</ele>
        <time>2017-02-25T08:52:19Z</time>
      </trkpt>
      <trkpt lat="45.61883" lon="4.65788">
        <ele>404</ele>
        <time>2017-02-25T08:52:22Z</time>
      </trkpt>
      <trkpt lat="45.61886" lon="4.65783">
        <ele>404</ele>
        <time>2017-02-25T08:52:24Z</time>
      </trkpt>
      <trkpt lat="45.61887" lon="4.65777">
        <ele>404</ele>
        <time>2017-02-25T08:52:26Z</time>
      </trkpt>
      <trkpt lat="45.6189" lon="4.65768">
        <ele>403</ele>
        <time>2017-02-25T08:52:29Z</time>
      </trkpt>
      <trkpt lat="45.61893" lon="4.6576">
        <ele>403</ele>
        <time>2017-02-25T08:52:32Z</time>
      </trkpt>
      <trkpt lat="45.61896" lon="4.65751">
        <ele>403</ele>
        <time>2017-02-25T08:52:35Z</time>
      </trkpt>
      <trkpt lat="45.61898" lon="4.65745">
        <ele>403</ele>
        <time>2017-02-25T08:52:37Z</time>
      </trkpt>
      <trkpt lat="45.61899" lon="4.65738">
        <ele>403</ele>
        <time>2017-02-25T08:52:39Z</time>
      </trkpt>
      <trkpt lat="45.619" lon="4.65731">
        <ele>404</ele>
        <time>2017-02-25T08:52:41Z</time>
      </trkpt>
      <trkpt lat="45.619" lon="4.65725">
        <ele>404</ele>
        <time>2017-02-25T08:52:43Z</time>
      </trkpt>
      <trkpt lat="45.61901" lon="4.65718">
        <ele>404</ele>
        <time>2017-02-25T08:52:45Z</time>
      </trkpt>
      <trkpt lat="45.61901" lon="4.65708">
        <ele>404</ele>
        <time>2017-02-25T08:52:48Z</time>
      </trkpt>
      <trkpt lat="45.61902" lon="4.65702">
        <ele>404</ele>
        <time>2017-02-25T08:52:50Z</time>
      </trkpt>
      <trkpt lat="45.61903" lon="4.65692">
        <ele>405</ele>
        <time>2017-02-25T08:52:53Z</time>
      </trkpt>
      <trkpt lat="45.61904" lon="4.65683">
        <ele>406</ele>
        <time>2017-02-25T08:52:56Z</time>
      </trkpt>
      <trkpt lat="45.61905" lon="4.65674">
        <ele>406</ele>
        <time>2017-02-25T08:52:59Z</time>
      </trkpt>
      <trkpt lat="45.61907" lon="4.65665">
        <ele>407</ele>
        <time>2017-02-25T08:53:02Z</time>
      </trkpt>
      <trkpt lat="45.61908" lon="4.65659">
        <ele>407</ele>
        <time>2017-02-25T08:53:04Z</time>
      </trkpt>
      <trkpt lat="45.6191" lon="4.65653">
        <ele>408</ele>
        <time>2017-02-25T08:53:06Z</time>
      </trkpt>
      <trkpt lat="45.61911" lon="4.65647">
        <ele>408</ele>
        <time>2017-02-25T08:53:08Z</time>
      </trkpt>
      <trkpt lat="45.61913" lon="4.65638">
        <ele>409</ele>
        <time>2017-02-25T08:53:11Z</time>
      </trkpt>
      <trkpt lat="45.61915" lon="4.65631">
        <ele>410</ele>
        <time>2017-02-25T08:53:14Z</time>
      </trkpt>
      <trkpt lat="45.61917" lon="4.65623">
        <ele>411</ele>
        <time>2017-02-25T08:53:17Z</time>
      </trkpt>
      <trkpt lat="45.61918" lon="4.65616">
        <ele>412</ele>
        <time>2017-02-25T08:53:20Z</time>
      </trkpt>
      <trkpt lat="45.61921" lon="4.65612">
        <ele>413</ele>
        <time>2017-02-25T08:53:39Z</time>
      </trkpt>
      <trkpt lat="45.61921" lon="4.65612">
        <ele>413</ele>
        <time>2017-02-25T08:53:41Z</time>
      </trkpt>
      <trkpt lat="45.61921" lon="4.65612">
        <ele>413</ele>
        <time>2017-02-25T08:54:09Z</time>
      </trkpt>
      <trkpt lat="45.61921" lon="4.65612">
        <ele>414</ele>
        <time>2017-02-25T08:54:11Z</time>
      </trkpt>
      <trkpt lat="45.61923" lon="4.65605">
        <ele>414</ele>
        <time>2017-02-25T08:54:24Z</time>
      </trkpt>
      <trkpt lat="45.61926" lon="4.65599">
        <ele>415</ele>
        <time>2017-02-25T08:54:28Z</time>
      </trkpt>
      <trkpt lat="45.61928" lon="4.65592">
        <ele>415</ele>
        <time>2017-02-25T08:54:32Z</time>
      </trkpt>
      <trkpt lat="45.61928" lon="4.65584">
        <ele>415</ele>
        <time>2017-02-25T08:54:37Z</time>
      </trkpt>
      <trkpt lat="45.61929" lon="4.65577">
        <ele>415</ele>
        <time>2017-02-25T08:54:41Z</time>
      </trkpt>
      <trkpt lat="45.61931" lon="4.6557">
        <ele>415</ele>
        <time>2017-02-25T08:54:44Z</time>
      </trkpt>
      <trkpt lat="45.61932" lon="4.65561">
        <ele>415</ele>
        <time>2017-02-25T08:54:47Z</time>
      </trkpt>
      <trkpt lat="45.61933" lon="4.65552">
        <ele>415</ele>
        <time>2017-02-25T08:54:50Z</time>
      </trkpt>
      <trkpt lat="45.61935" lon="4.65544">
        <ele>414</ele>
        <time>2017-02-25T08:54:53Z</time>
      </trkpt>
      <trkpt lat="45.61937" lon="4.65535">
        <ele>414</ele>
        <time>2017-02-25T08:54:56Z</time>
      </trkpt>
      <trkpt lat="45.61938" lon="4.65527">
        <ele>414</ele>
        <time>2017-02-25T08:54:59Z</time>
      </trkpt>
      <trkpt lat="45.6194" lon="4.65521">
        <ele>414</ele>
        <time>2017-02-25T08:55:01Z</time>
      </trkpt>
      <trkpt lat="45.61943" lon="4.65512">
        <ele>414</ele>
        <time>2017-02-25T08:55:03Z</time>
      </trkpt>
      <trkpt lat="45.61945" lon="4.65506">
        <ele>414</ele>
        <time>2017-02-25T08:55:04Z</time>
      </trkpt>
      <trkpt lat="45.61949" lon="4.65497">
        <ele>414</ele>
        <time>2017-02-25T08:55:05Z</time>
      </trkpt>
      <trkpt lat="45.61951" lon="4.65491">
        <ele>414</ele>
        <time>2017-02-25T08:55:06Z</time>
      </trkpt>
      <trkpt lat="45.61954" lon="4.65482">
        <ele>413</ele>
        <time>2017-02-25T08:55:07Z</time>
      </trkpt>
      <trkpt lat="45.61956" lon="4.65474">
        <ele>414</ele>
        <time>2017-02-25T08:55:08Z</time>
      </trkpt>
      <trkpt lat="45.61959" lon="4.65466">
        <ele>414</ele>
        <time>2017-02-25T08:55:09Z</time>
      </trkpt>
      <trkpt lat="45.61961" lon="4.65458">
        <ele>413</ele>
        <time>2017-02-25T08:55:10Z</time>
      </trkpt>
      <trkpt lat="45.61966" lon="4.6545">
        <ele>413</ele>
        <time>2017-02-25T08:55:11Z</time>
      </trkpt>
      <trkpt lat="45.61969" lon="4.65441">
        <ele>413</ele>
        <time>2017-02-25T08:55:12Z</time>
      </trkpt>
      <trkpt lat="45.61972" lon="4.65433">
        <ele>413</ele>
        <time>2017-02-25T08:55:13Z</time>
      </trkpt>
      <trkpt lat="45.61975" lon="4.65424">
        <ele>412</ele>
        <time>2017-02-25T08:55:14Z</time>
      </trkpt>
      <trkpt lat="45.61977" lon="4.65417">
        <ele>412</ele>
        <time>2017-02-25T08:55:15Z</time>
      </trkpt>
      <trkpt lat="45.6198" lon="4.65408">
        <ele>411</ele>
        <time>2017-02-25T08:55:16Z</time>
      </trkpt>
      <trkpt lat="45.61982" lon="4.65399">
        <ele>410</ele>
        <time>2017-02-25T08:55:17Z</time>
      </trkpt>
      <trkpt lat="45.61985" lon="4.65391">
        <ele>410</ele>
        <time>2017-02-25T08:55:18Z</time>
      </trkpt>
      <trkpt lat="45.61989" lon="4.65383">
        <ele>410</ele>
        <time>2017-02-25T08:55:19Z</time>
      </trkpt>
      <trkpt lat="45.61992" lon="4.65375">
        <ele>410</ele>
        <time>2017-02-25T08:55:20Z</time>
      </trkpt>
      <trkpt lat="45.61994" lon="4.65367">
        <ele>410</ele>
        <time>2017-02-25T08:55:21Z</time>
      </trkpt>
      <trkpt lat="45.61997" lon="4.6536">
        <ele>410</ele>
        <time>2017-02-25T08:55:22Z</time>
      </trkpt>
      <trkpt lat="45.61999" lon="4.65352">
        <ele>410</ele>
        <time>2017-02-25T08:55:23Z</time>
      </trkpt>
      <trkpt lat="45.62" lon="4.65346">
        <ele>410</ele>
        <time>2017-02-25T08:55:24Z</time>
      </trkpt>
      <trkpt lat="45.62003" lon="4.65338">
        <ele>409</ele>
        <time>2017-02-25T08:55:25Z</time>
      </trkpt>
      <trkpt lat="45.62005" lon="4.65331">
        <ele>409</ele>
        <time>2017-02-25T08:55:26Z</time>
      </trkpt>
      <trkpt lat="45.62008" lon="4.6532">
        <ele>410</ele>
        <time>2017-02-25T08:55:28Z</time>
      </trkpt>
      <trkpt lat="45.6201" lon="4.65309">
        <ele>410</ele>
        <time>2017-02-25T08:55:30Z</time>
      </trkpt>
      <trkpt lat="45.62013" lon="4.65297">
        <ele>410</ele>
        <time>2017-02-25T08:55:32Z</time>
      </trkpt>
      <trkpt lat="45.62016" lon="4.65287">
        <ele>411</ele>
        <time>2017-02-25T08:55:34Z</time>
      </trkpt>
      <trkpt lat="45.62018" lon="4.65277">
        <ele>411</ele>
        <time>2017-02-25T08:55:36Z</time>
      </trkpt>
      <trkpt lat="45.62022" lon="4.65267">
        <ele>411</ele>
        <time>2017-02-25T08:55:38Z</time>
      </trkpt>
      <trkpt lat="45.62024" lon="4.65256">
        <ele>411</ele>
        <time>2017-02-25T08:55:40Z</time>
      </trkpt>
      <trkpt lat="45.62027" lon="4.65244">
        <ele>411</ele>
        <time>2017-02-25T08:55:42Z</time>
      </trkpt>
      <trkpt lat="45.62029" lon="4.65232">
        <ele>410</ele>
        <time>2017-02-25T08:55:44Z</time>
      </trkpt>
      <trkpt lat="45.62032" lon="4.65223">
        <ele>410</ele>
        <time>2017-02-25T08:55:46Z</time>
      </trkpt>
      <trkpt lat="45.62036" lon="4.65216">
        <ele>409</ele>
        <time>2017-02-25T08:55:48Z</time>
      </trkpt>
      <trkpt lat="45.62041" lon="4.65207">
        <ele>409</ele>
        <time>2017-02-25T08:55:50Z</time>
      </trkpt>
      <trkpt lat="45.62038" lon="4.65199">
        <ele>409</ele>
        <time>2017-02-25T08:55:53Z</time>
      </trkpt>
      <trkpt lat="45.62037" lon="4.65192">
        <ele>410</ele>
        <time>2017-02-25T08:55:55Z</time>
      </trkpt>
      <trkpt lat="45.62037" lon="4.65185">
        <ele>410</ele>
        <time>2017-02-25T08:55:57Z</time>
      </trkpt>
      <trkpt lat="45.62035" lon="4.65177">
        <ele>410</ele>
        <time>2017-02-25T08:55:59Z</time>
      </trkpt>
      <trkpt lat="45.62034" lon="4.65169">
        <ele>411</ele>
        <time>2017-02-25T08:56:01Z</time>
      </trkpt>
      <trkpt lat="45.62033" lon="4.65162">
        <ele>411</ele>
        <time>2017-02-25T08:56:03Z</time>
      </trkpt>
      <trkpt lat="45.62032" lon="4.65154">
        <ele>411</ele>
        <time>2017-02-25T08:56:05Z</time>
      </trkpt>
      <trkpt lat="45.62031" lon="4.65145">
        <ele>412</ele>
        <time>2017-02-25T08:56:08Z</time>
      </trkpt>
      <trkpt lat="45.6203" lon="4.65138">
        <ele>412</ele>
        <time>2017-02-25T08:56:10Z</time>
      </trkpt>
      <trkpt lat="45.62029" lon="4.65131">
        <ele>412</ele>
        <time>2017-02-25T08:56:12Z</time>
      </trkpt>
      <trkpt lat="45.62029" lon="4.65124">
        <ele>413</ele>
        <time>2017-02-25T08:56:14Z</time>
      </trkpt>
      <trkpt lat="45.62028" lon="4.65115">
        <ele>413</ele>
        <time>2017-02-25T08:56:17Z</time>
      </trkpt>
      <trkpt lat="45.62027" lon="4.65109">
        <ele>414</ele>
        <time>2017-02-25T08:56:19Z</time>
      </trkpt>
      <trkpt lat="45.62026" lon="4.65102">
        <ele>414</ele>
        <time>2017-02-25T08:56:21Z</time>
      </trkpt>
      <trkpt lat="45.62025" lon="4.65095">
        <ele>414</ele>
        <time>2017-02-25T08:56:23Z</time>
      </trkpt>
      <trkpt lat="45.62023" lon="4.65089">
        <ele>415</ele>
        <time>2017-02-25T08:56:25Z</time>
      </trkpt>
      <trkpt lat="45.62022" lon="4.65082">
        <ele>415</ele>
        <time>2017-02-25T08:56:27Z</time>
      </trkpt>
      <trkpt lat="45.62021" lon="4.65075">
        <ele>416</ele>
        <time>2017-02-25T08:56:29Z</time>
      </trkpt>
      <trkpt lat="45.6202" lon="4.65068">
        <ele>416</ele>
        <time>2017-02-25T08:56:31Z</time>
      </trkpt>
      <trkpt lat="45.62019" lon="4.65061">
        <ele>417</ele>
        <time>2017-02-25T08:56:33Z</time>
      </trkpt>
      <trkpt lat="45.62018" lon="4.65054">
        <ele>417</ele>
        <time>2017-02-25T08:56:35Z</time>
      </trkpt>
      <trkpt lat="45.62016" lon="4.65047">
        <ele>416</ele>
        <time>2017-02-25T08:56:37Z</time>
      </trkpt>
      <trkpt lat="45.62016" lon="4.65039">
        <ele>416</ele>
        <time>2017-02-25T08:56:39Z</time>
      </trkpt>
      <trkpt lat="45.62014" lon="4.65031">
        <ele>416</ele>
        <time>2017-02-25T08:56:41Z</time>
      </trkpt>
      <trkpt lat="45.62013" lon="4.65024">
        <ele>415</ele>
        <time>2017-02-25T08:56:43Z</time>
      </trkpt>
      <trkpt lat="45.62011" lon="4.65017">
        <ele>414</ele>
        <time>2017-02-25T08:56:45Z</time>
      </trkpt>
      <trkpt lat="45.62009" lon="4.65009">
        <ele>414</ele>
        <time>2017-02-25T08:56:47Z</time>
      </trkpt>
      <trkpt lat="45.62008" lon="4.65002">
        <ele>413</ele>
        <time>2017-02-25T08:56:49Z</time>
      </trkpt>
      <trkpt lat="45.62005" lon="4.64995">
        <ele>413</ele>
        <time>2017-02-25T08:56:51Z</time>
      </trkpt>
      <trkpt lat="45.62003" lon="4.64988">
        <ele>413</ele>
        <time>2017-02-25T08:56:53Z</time>
      </trkpt>
      <trkpt lat="45.62001" lon="4.64982">
        <ele>414</ele>
        <time>2017-02-25T08:56:55Z</time>
      </trkpt>
      <trkpt lat="45.61998" lon="4.64974">
        <ele>414</ele>
        <time>2017-02-25T08:56:57Z</time>
      </trkpt>
      <trkpt lat="45.61995" lon="4.64966">
        <ele>414</ele>
        <time>2017-02-25T08:56:59Z</time>
      </trkpt>
      <trkpt lat="45.61992" lon="4.64959">
        <ele>414</ele>
        <time>2017-02-25T08:57:01Z</time>
      </trkpt>
      <trkpt lat="45.6199" lon="4.64951">
        <ele>414</ele>
        <time>2017-02-25T08:57:03Z</time>
      </trkpt>
      <trkpt lat="45.61987" lon="4.64944">
        <ele>414</ele>
        <time>2017-02-25T08:57:05Z</time>
      </trkpt>
      <trkpt lat="45.61985" lon="4.64937">
        <ele>416</ele>
        <time>2017-02-25T08:57:07Z</time>
      </trkpt>
      <trkpt lat="45.61983" lon="4.64929">
        <ele>417</ele>
        <time>2017-02-25T08:57:09Z</time>
      </trkpt>
      <trkpt lat="45.61982" lon="4.64922">
        <ele>418</ele>
        <time>2017-02-25T08:57:11Z</time>
      </trkpt>
      <trkpt lat="45.6198" lon="4.64915">
        <ele>419</ele>
        <time>2017-02-25T08:57:13Z</time>
      </trkpt>
      <trkpt lat="45.61978" lon="4.64909">
        <ele>419</ele>
        <time>2017-02-25T08:57:15Z</time>
      </trkpt>
      <trkpt lat="45.61976" lon="4.64902">
        <ele>419</ele>
        <time>2017-02-25T08:57:17Z</time>
      </trkpt>
      <trkpt lat="45.61974" lon="4.64897">
        <ele>419</ele>
        <time>2017-02-25T08:57:19Z</time>
      </trkpt>
      <trkpt lat="45.61972" lon="4.6489">
        <ele>419</ele>
        <time>2017-02-25T08:57:21Z</time>
      </trkpt>
      <trkpt lat="45.61969" lon="4.64883">
        <ele>418</ele>
        <time>2017-02-25T08:57:24Z</time>
      </trkpt>
      <trkpt lat="45.61967" lon="4.64875">
        <ele>418</ele>
        <time>2017-02-25T08:57:27Z</time>
      </trkpt>
      <trkpt lat="45.61964" lon="4.64869">
        <ele>418</ele>
        <time>2017-02-25T08:57:30Z</time>
      </trkpt>
      <trkpt lat="45.61961" lon="4.6486">
        <ele>418</ele>
        <time>2017-02-25T08:57:33Z</time>
      </trkpt>
      <trkpt lat="45.61959" lon="4.64854">
        <ele>418</ele>
        <time>2017-02-25T08:57:36Z</time>
      </trkpt>
      <trkpt lat="45.61957" lon="4.64846">
        <ele>418</ele>
        <time>2017-02-25T08:57:39Z</time>
      </trkpt>
      <trkpt lat="45.61956" lon="4.64838">
        <ele>418</ele>
        <time>2017-02-25T08:57:42Z</time>
      </trkpt>
      <trkpt lat="45.61955" lon="4.6483">
        <ele>418</ele>
        <time>2017-02-25T08:57:45Z</time>
      </trkpt>
      <trkpt lat="45.61954" lon="4.64822">
        <ele>418</ele>
        <time>2017-02-25T08:57:48Z</time>
      </trkpt>
      <trkpt lat="45.61953" lon="4.64814">
        <ele>418</ele>
        <time>2017-02-25T08:57:51Z</time>
      </trkpt>
      <trkpt lat="45.61952" lon="4.64807">
        <ele>418</ele>
        <time>2017-02-25T08:57:54Z</time>
      </trkpt>
      <trkpt lat="45.61951" lon="4.64801">
        <ele>418</ele>
        <time>2017-02-25T08:57:57Z</time>
      </trkpt>
      <trkpt lat="45.61951" lon="4.64793">
        <ele>418</ele>
        <time>2017-02-25T08:58:00Z</time>
      </trkpt>
      <trkpt lat="45.61951" lon="4.64786">
        <ele>418</ele>
        <time>2017-02-25T08:58:03Z</time>
      </trkpt>
      <trkpt lat="45.6195" lon="4.64779">
        <ele>417</ele>
        <time>2017-02-25T08:58:06Z</time>
      </trkpt>
      <trkpt lat="45.61948" lon="4.64772">
        <ele>417</ele>
        <time>2017-02-25T08:58:09Z</time>
      </trkpt>
      <trkpt lat="45.61946" lon="4.64766">
        <ele>417</ele>
        <time>2017-02-25T08:58:12Z</time>
      </trkpt>
      <trkpt lat="45.61946" lon="4.64759">
        <ele>417</ele>
        <time>2017-02-25T08:58:15Z</time>
      </trkpt>
      <trkpt lat="45.61946" lon="4.6475">
        <ele>417</ele>
        <time>2017-02-25T08:58:19Z</time>
      </trkpt>
      <trkpt lat="45.61945" lon="4.64742">
        <ele>417</ele>
        <time>2017-02-25T08:58:22Z</time>
      </trkpt>
      <trkpt lat="45.61945" lon="4.64734">
        <ele>417</ele>
        <time>2017-02-25T08:58:25Z</time>
      </trkpt>
      <trkpt lat="45.61945" lon="4.64725">
        <ele>417</ele>
        <time>2017-02-25T08:58:28Z</time>
      </trkpt>
      <trkpt lat="45.61944" lon="4.64717">
        <ele>417</ele>
        <time>2017-02-25T08:58:31Z</time>
      </trkpt>
      <trkpt lat="45.61943" lon="4.6471">
        <ele>417</ele>
        <time>2017-02-25T08:58:34Z</time>
      </trkpt>
      <trkpt lat="45.61942" lon="4.64702">
        <ele>417</ele>
        <time>2017-02-25T08:58:37Z</time>
      </trkpt>
      <trkpt lat="45.6194" lon="4.64693">
        <ele>417</ele>
        <time>2017-02-25T08:58:40Z</time>
      </trkpt>
      <trkpt lat="45.61939" lon="4.64685">
        <ele>417</ele>
        <time>2017-02-25T08:58:43Z</time>
      </trkpt>
      <trkpt lat="45.61936" lon="4.64676">
        <ele>417</ele>
        <time>2017-02-25T08:58:46Z</time>
      </trkpt>
      <trkpt lat="45.61934" lon="4.64666">
        <ele>418</ele>
        <time>2017-02-25T08:58:49Z</time>
      </trkpt>
      <trkpt lat="45.61933" lon="4.64657">
        <ele>418</ele>
        <time>2017-02-25T08:58:52Z</time>
      </trkpt>
      <trkpt lat="45.61931" lon="4.64648">
        <ele>419</ele>
        <time>2017-02-25T08:58:55Z</time>
      </trkpt>
      <trkpt lat="45.61927" lon="4.6464">
        <ele>419</ele>
        <time>2017-02-25T08:58:58Z</time>
      </trkpt>
      <trkpt lat="45.61925" lon="4.64634">
        <ele>419</ele>
        <time>2017-02-25T08:59:00Z</time>
      </trkpt>
      <trkpt lat="45.61923" lon="4.64626">
        <ele>420</ele>
        <time>2017-02-25T08:59:03Z</time>
      </trkpt>
      <trkpt lat="45.61921" lon="4.64619">
        <ele>421</ele>
        <time>2017-02-25T08:59:05Z</time>
      </trkpt>
      <trkpt lat="45.61919" lon="4.64611">
        <ele>422</ele>
        <time>2017-02-25T08:59:08Z</time>
      </trkpt>
      <trkpt lat="45.61917" lon="4.64603">
        <ele>423</ele>
        <time>2017-02-25T08:59:11Z</time>
      </trkpt>
      <trkpt lat="45.61914" lon="4.64598">
        <ele>423</ele>
        <time>2017-02-25T08:59:14Z</time>
      </trkpt>
      <trkpt lat="45.61914" lon="4.64601">
        <ele>423</ele>
        <time>2017-02-25T08:59:39Z</time>
      </trkpt>
      <trkpt lat="45.61914" lon="4.64601">
        <ele>423</ele>
        <time>2017-02-25T08:59:41Z</time>
      </trkpt>
      <trkpt lat="45.61914" lon="4.64601">
        <ele>422</ele>
        <time>2017-02-25T09:00:09Z</time>
      </trkpt>
      <trkpt lat="45.61914" lon="4.64601">
        <ele>422</ele>
        <time>2017-02-25T09:00:11Z</time>
      </trkpt>
      <trkpt lat="45.61912" lon="4.64594">
        <ele>423</ele>
        <time>2017-02-25T09:00:23Z</time>
      </trkpt>
      <trkpt lat="45.61909" lon="4.64586">
        <ele>423</ele>
        <time>2017-02-25T09:00:26Z</time>
      </trkpt>
      <trkpt lat="45.61906" lon="4.64577">
        <ele>423</ele>
        <time>2017-02-25T09:00:29Z</time>
      </trkpt>
      <trkpt lat="45.61903" lon="4.64572">
        <ele>424</ele>
        <time>2017-02-25T09:00:31Z</time>
      </trkpt>
      <trkpt lat="45.619" lon="4.64567">
        <ele>424</ele>
        <time>2017-02-25T09:00:33Z</time>
      </trkpt>
      <trkpt lat="45.61897" lon="4.64562">
        <ele>425</ele>
        <time>2017-02-25T09:00:35Z</time>
      </trkpt>
      <trkpt lat="45.61894" lon="4.64556">
        <ele>426</ele>
        <time>2017-02-25T09:00:37Z</time>
      </trkpt>
      <trkpt lat="45.6189" lon="4.64551">
        <ele>426</ele>
        <time>2017-02-25T09:00:39Z</time>
      </trkpt>
      <trkpt lat="45.61887" lon="4.64547">
        <ele>427</ele>
        <time>2017-02-25T09:00:41Z</time>
      </trkpt>
      <trkpt lat="45.61882" lon="4.64542">
        <ele>427</ele>
        <time>2017-02-25T09:00:43Z</time>
      </trkpt>
      <trkpt lat="45.61878" lon="4.64538">
        <ele>427</ele>
        <time>2017-02-25T09:00:45Z</time>
      </trkpt>
      <trkpt lat="45.61873" lon="4.64531">
        <ele>427</ele>
        <time>2017-02-25T09:00:48Z</time>
      </trkpt>
      <trkpt lat="45.61869" lon="4.64526">
        <ele>427</ele>
        <time>2017-02-25T09:00:50Z</time>
      </trkpt>
      <trkpt lat="45.61865" lon="4.64523">
        <ele>427</ele>
        <time>2017-02-25T09:00:52Z</time>
      </trkpt>
      <trkpt lat="45.6186" lon="4.64521">
        <ele>427</ele>
        <time>2017-02-25T09:00:54Z</time>
      </trkpt>
      <trkpt lat="45.61855" lon="4.64521">
        <ele>427</ele>
        <time>2017-02-25T09:00:56Z</time>
      </trkpt>
      <trkpt lat="45.6185" lon="4.64522">
        <ele>428</ele>
        <time>2017-02-25T09:00:58Z</time>
      </trkpt>
      <trkpt lat="45.61846" lon="4.64524">
        <ele>428</ele>
        <time>2017-02-25T09:01:00Z</time>
      </trkpt>
      <trkpt lat="45.61842" lon="4.64525">
        <ele>428</ele>
        <time>2017-02-25T09:01:02Z</time>
      </trkpt>
      <trkpt lat="45.61837" lon="4.64527">
        <ele>429</ele>
        <time>2017-02-25T09:01:05Z</time>
      </trkpt>
      <trkpt lat="45.61831" lon="4.6453">
        <ele>428</ele>
        <time>2017-02-25T09:01:08Z</time>
      </trkpt>
      <trkpt lat="45.61826" lon="4.64534">
        <ele>427</ele>
        <time>2017-02-25T09:01:12Z</time>
      </trkpt>
      <trkpt lat="45.61823" lon="4.64528">
        <ele>427</ele>
        <time>2017-02-25T09:01:15Z</time>
      </trkpt>
      <trkpt lat="45.61821" lon="4.64521">
        <ele>426</ele>
        <time>2017-02-25T09:01:18Z</time>
      </trkpt>
      <trkpt lat="45.6182" lon="4.64513">
        <ele>426</ele>
        <time>2017-02-25T09:01:21Z</time>
      </trkpt>
      <trkpt lat="45.61819" lon="4.64506">
        <ele>426</ele>
        <time>2017-02-25T09:01:24Z</time>
      </trkpt>
      <trkpt lat="45.61818" lon="4.64499">
        <ele>428</ele>
        <time>2017-02-25T09:01:27Z</time>
      </trkpt>
      <trkpt lat="45.61816" lon="4.64493">
        <ele>428</ele>
        <time>2017-02-25T09:01:30Z</time>
      </trkpt>
      <trkpt lat="45.61814" lon="4.64486">
        <ele>429</ele>
        <time>2017-02-25T09:01:33Z</time>
      </trkpt>
      <trkpt lat="45.61812" lon="4.64479">
        <ele>430</ele>
        <time>2017-02-25T09:01:37Z</time>
      </trkpt>
      <trkpt lat="45.61811" lon="4.64471">
        <ele>430</ele>
        <time>2017-02-25T09:01:41Z</time>
      </trkpt>
      <trkpt lat="45.61811" lon="4.64463">
        <ele>429</ele>
        <time>2017-02-25T09:01:45Z</time>
      </trkpt>
      <trkpt lat="45.61809" lon="4.64456">
        <ele>430</ele>
        <time>2017-02-25T09:01:49Z</time>
      </trkpt>
      <trkpt lat="45.61806" lon="4.6445">
        <ele>430</ele>
        <time>2017-02-25T09:01:52Z</time>
      </trkpt>
      <trkpt lat="45.61804" lon="4.64443">
        <ele>430</ele>
        <time>2017-02-25T09:01:55Z</time>
      </trkpt>
      <trkpt lat="45.61802" lon="4.64437">
        <ele>431</ele>
        <time>2017-02-25T09:01:58Z</time>
      </trkpt>
      <trkpt lat="45.61802" lon="4.6443">
        <ele>432</ele>
        <time>2017-02-25T09:02:01Z</time>
      </trkpt>
      <trkpt lat="45.61801" lon="4.64424">
        <ele>433</ele>
        <time>2017-02-25T09:02:12Z</time>
      </trkpt>
      <trkpt lat="45.61798" lon="4.64419">
        <ele>433</ele>
        <time>2017-02-25T09:02:18Z</time>
      </trkpt>
      <trkpt lat="45.61796" lon="4.64411">
        <ele>433</ele>
        <time>2017-02-25T09:02:27Z</time>
      </trkpt>
      <trkpt lat="45.61796" lon="4.64404">
        <ele>432</ele>
        <time>2017-02-25T09:02:31Z</time>
      </trkpt>
      <trkpt lat="45.61795" lon="4.64397">
        <ele>432</ele>
        <time>2017-02-25T09:02:34Z</time>
      </trkpt>
      <trkpt lat="45.61794" lon="4.6439">
        <ele>431</ele>
        <time>2017-02-25T09:02:37Z</time>
      </trkpt>
      <trkpt lat="45.61792" lon="4.64383">
        <ele>432</ele>
        <time>2017-02-25T09:02:40Z</time>
      </trkpt>
      <trkpt lat="45.61793" lon="4.64376">
        <ele>433</ele>
        <time>2017-02-25T09:02:44Z</time>
      </trkpt>
      <trkpt lat="45.61791" lon="4.64368">
        <ele>433</ele>
        <time>2017-02-25T09:02:48Z</time>
      </trkpt>
      <trkpt lat="45.61791" lon="4.64361">
        <ele>434</ele>
        <time>2017-02-25T09:02:51Z</time>
      </trkpt>
      <trkpt lat="45.61791" lon="4.64352">
        <ele>434</ele>
        <time>2017-02-25T09:02:55Z</time>
      </trkpt>
      <trkpt lat="45.61791" lon="4.64345">
        <ele>435</ele>
        <time>2017-02-25T09:02:58Z</time>
      </trkpt>
      <trkpt lat="45.61789" lon="4.64337">
        <ele>436</ele>
        <time>2017-02-25T09:03:18Z</time>
      </trkpt>
      <trkpt lat="45.61789" lon="4.6433">
        <ele>438</ele>
        <time>2017-02-25T09:03:24Z</time>
      </trkpt>
      <trkpt lat="45.61789" lon="4.64323">
        <ele>438</ele>
        <time>2017-02-25T09:03:28Z</time>
      </trkpt>
      <trkpt lat="45.61789" lon="4.64317">
        <ele>439</ele>
        <time>2017-02-25T09:03:41Z</time>
      </trkpt>
      <trkpt lat="45.61789" lon="4.6431">
        <ele>439</ele>
        <time>2017-02-25T09:03:44Z</time>
      </trkpt>
      <trkpt lat="45.61789" lon="4.64302">
        <ele>440</ele>
        <time>2017-02-25T09:03:47Z</time>
      </trkpt>
      <trkpt lat="45.6179" lon="4.64295">
        <ele>441</ele>
        <time>2017-02-25T09:03:50Z</time>
      </trkpt>
      <trkpt lat="45.61791" lon="4.64289">
        <ele>442</ele>
        <time>2017-02-25T09:03:53Z</time>
      </trkpt>
      <trkpt lat="45.61791" lon="4.64282">
        <ele>443</ele>
        <time>2017-02-25T09:03:56Z</time>
      </trkpt>
      <trkpt lat="45.61792" lon="4.64275">
        <ele>444</ele>
        <time>2017-02-25T09:04:00Z</time>
      </trkpt>
      <trkpt lat="45.61791" lon="4.64268">
        <ele>444</ele>
        <time>2017-02-25T09:04:04Z</time>
      </trkpt>
      <trkpt lat="45.61791" lon="4.64261">
        <ele>444</ele>
        <time>2017-02-25T09:04:07Z</time>
      </trkpt>
      <trkpt lat="45.61789" lon="4.64253">
        <ele>445</ele>
        <time>2017-02-25T09:04:11Z</time>
      </trkpt>
      <trkpt lat="45.61789" lon="4.64246">
        <ele>445</ele>
        <time>2017-02-25T09:04:15Z</time>
      </trkpt>
      <trkpt lat="45.61788" lon="4.64239">
        <ele>445</ele>
        <time>2017-02-25T09:04:18Z</time>
      </trkpt>
      <trkpt lat="45.61788" lon="4.64232">
        <ele>446</ele>
        <time>2017-02-25T09:04:22Z</time>
      </trkpt>
      <trkpt lat="45.61787" lon="4.64225">
        <ele>447</ele>
        <time>2017-02-25T09:04:26Z</time>
      </trkpt>
      <trkpt lat="45.61787" lon="4.64217">
        <ele>447</ele>
        <time>2017-02-25T09:04:30Z</time>
      </trkpt>
      <trkpt lat="45.61786" lon="4.64213">
        <ele>448</ele>
        <time>2017-02-25T09:04:54Z</time>
      </trkpt>
      <trkpt lat="45.61786" lon="4.64213">
        <ele>448</ele>
        <time>2017-02-25T09:04:56Z</time>
      </trkpt>
      <trkpt lat="45.61786" lon="4.64213">
        <ele>448</ele>
        <time>2017-02-25T09:05:24Z</time>
      </trkpt>
      <trkpt lat="45.61786" lon="4.64213">
        <ele>448</ele>
        <time>2017-02-25T09:05:26Z</time>
      </trkpt>
      <trkpt lat="45.61785" lon="4.64205">
        <ele>449</ele>
        <time>2017-02-25T09:05:48Z</time>
      </trkpt>
      <trkpt lat="45.61783" lon="4.64199">
        <ele>449</ele>
        <time>2017-02-25T09:05:51Z</time>
      </trkpt>
      <trkpt lat="45.6178" lon="4.64193">
        <ele>450</ele>
        <time>2017-02-25T09:05:54Z</time>
      </trkpt>
      <trkpt lat="45.61779" lon="4.64185">
        <ele>450</ele>
        <time>2017-02-25T09:05:57Z</time>
      </trkpt>
      <trkpt lat="45.61778" lon="4.64178">
        <ele>450</ele>
        <time>2017-02-25T09:06:00Z</time>
      </trkpt>
      <trkpt lat="45.61777" lon="4.64171">
        <ele>451</ele>
        <time>2017-02-25T09:06:03Z</time>
      </trkpt>
      <trkpt lat="45.61776" lon="4.64164">
        <ele>451</ele>
        <time>2017-02-25T09:06:06Z</time>
      </trkpt>
      <trkpt lat="45.61774" lon="4.64157">
        <ele>451</ele>
        <time>2017-02-25T09:06:09Z</time>
      </trkpt>
      <trkpt lat="45.61773" lon="4.64151">
        <ele>451</ele>
        <time>2017-02-25T09:06:12Z</time>
      </trkpt>
      <trkpt lat="45.61773" lon="4.64143">
        <ele>451</ele>
        <time>2017-02-25T09:06:15Z</time>
      </trkpt>
      <trkpt lat="45.61771" lon="4.64135">
        <ele>452</ele>
        <time>2017-02-25T09:06:18Z</time>
      </trkpt>
      <trkpt lat="45.6177" lon="4.64129">
        <ele>452</ele>
        <time>2017-02-25T09:06:21Z</time>
      </trkpt>
      <trkpt lat="45.61769" lon="4.64122">
        <ele>453</ele>
        <time>2017-02-25T09:06:24Z</time>
      </trkpt>
      <trkpt lat="45.61768" lon="4.64115">
        <ele>454</ele>
        <time>2017-02-25T09:06:27Z</time>
      </trkpt>
      <trkpt lat="45.61766" lon="4.64109">
        <ele>455</ele>
        <time>2017-02-25T09:06:30Z</time>
      </trkpt>
      <trkpt lat="45.61764" lon="4.64101">
        <ele>456</ele>
        <time>2017-02-25T09:06:33Z</time>
      </trkpt>
      <trkpt lat="45.61764" lon="4.64094">
        <ele>456</ele>
        <time>2017-02-25T09:06:36Z</time>
      </trkpt>
      <trkpt lat="45.61763" lon="4.64086">
        <ele>457</ele>
        <time>2017-02-25T09:06:39Z</time>
      </trkpt>
      <trkpt lat="45.61762" lon="4.64078">
        <ele>458</ele>
        <time>2017-02-25T09:06:42Z</time>
      </trkpt>
      <trkpt lat="45.61762" lon="4.64071">
        <ele>458</ele>
        <time>2017-02-25T09:06:45Z</time>
      </trkpt>
      <trkpt lat="45.6176" lon="4.64062">
        <ele>458</ele>
        <time>2017-02-25T09:06:48Z</time>
      </trkpt>
      <trkpt lat="45.61759" lon="4.64054">
        <ele>458</ele>
        <time>2017-02-25T09:06:51Z</time>
      </trkpt>
      <trkpt lat="45.61758" lon="4.64047">
        <ele>458</ele>
        <time>2017-02-25T09:06:54Z</time>
      </trkpt>
      <trkpt lat="45.61759" lon="4.6404">
        <ele>459</ele>
        <time>2017-02-25T09:06:57Z</time>
      </trkpt>
      <trkpt lat="45.61761" lon="4.64034">
        <ele>458</ele>
        <time>2017-02-25T09:07:00Z</time>
      </trkpt>
      <trkpt lat="45.61766" lon="4.64032">
        <ele>459</ele>
        <time>2017-02-25T09:07:04Z</time>
      </trkpt>
      <trkpt lat="45.61771" lon="4.64029">
        <ele>460</ele>
        <time>2017-02-25T09:07:08Z</time>
      </trkpt>
      <trkpt lat="45.61775" lon="4.64024">
        <ele>460</ele>
        <time>2017-02-25T09:07:12Z</time>
      </trkpt>
      <trkpt lat="45.61779" lon="4.6402">
        <ele>460</ele>
        <time>2017-02-25T09:07:16Z</time>
      </trkpt>
      <trkpt lat="45.61783" lon="4.64015">
        <ele>461</ele>
        <time>2017-02-25T09:07:20Z</time>
      </trkpt>
      <trkpt lat="45.61787" lon="4.6401">
        <ele>461</ele>
        <time>2017-02-25T09:07:24Z</time>
      </trkpt>
      <trkpt lat="45.61792" lon="4.64005">
        <ele>461</ele>
        <time>2017-02-25T09:07:28Z</time>
      </trkpt>
      <trkpt lat="45.61797" lon="4.64">
        <ele>462</ele>
        <time>2017-02-25T09:07:32Z</time>
      </trkpt>
      <trkpt lat="45.618" lon="4.63996">
        <ele>462</ele>
        <time>2017-02-25T09:07:36Z</time>
      </trkpt>
      <trkpt lat="45.61804" lon="4.63992">
        <ele>463</ele>
        <time>2017-02-25T09:07:40Z</time>
      </trkpt>
      <trkpt lat="45.61808" lon="4.63987">
        <ele>464</ele>
        <time>2017-02-25T09:07:44Z</time>
      </trkpt>
      <trkpt lat="45.61813" lon="4.63981">
        <ele>465</ele>
        <time>2017-02-25T09:07:48Z</time>
      </trkpt>
      <trkpt lat="45.61816" lon="4.63975">
        <ele>466</ele>
        <time>2017-02-25T09:07:52Z</time>
      </trkpt>
      <trkpt lat="45.6182" lon="4.6397">
        <ele>467</ele>
        <time>2017-02-25T09:07:56Z</time>
      </trkpt>
      <trkpt lat="45.61824" lon="4.63964">
        <ele>467</ele>
        <time>2017-02-25T09:08:00Z</time>
      </trkpt>
      <trkpt lat="45.61828" lon="4.63958">
        <ele>467</ele>
        <time>2017-02-25T09:08:04Z</time>
      </trkpt>
      <trkpt lat="45.61831" lon="4.63953">
        <ele>467</ele>
        <time>2017-02-25T09:08:07Z</time>
      </trkpt>
      <trkpt lat="45.61835" lon="4.63948">
        <ele>467</ele>
        <time>2017-02-25T09:08:11Z</time>
      </trkpt>
      <trkpt lat="45.61839" lon="4.63942">
        <ele>468</ele>
        <time>2017-02-25T09:08:15Z</time>
      </trkpt>
      <trkpt lat="45.61843" lon="4.63937">
        <ele>469</ele>
        <time>2017-02-25T09:08:19Z</time>
      </trkpt>
      <trkpt lat="45.61848" lon="4.63933">
        <ele>469</ele>
        <time>2017-02-25T09:08:23Z</time>
      </trkpt>
      <trkpt lat="45.61853" lon="4.63929">
        <ele>470</ele>
        <time>2017-02-25T09:08:27Z</time>
      </trkpt>
      <trkpt lat="45.61858" lon="4.63925">
        <ele>471</ele>
        <time>2017-02-25T09:08:31Z</time>
      </trkpt>
      <trkpt lat="45.61863" lon="4.63923">
        <ele>471</ele>
        <time>2017-02-25T09:08:35Z</time>
      </trkpt>
      <trkpt lat="45.61868" lon="4.63922">
        <ele>471</ele>
        <time>2017-02-25T09:08:39Z</time>
      </trkpt>
      <trkpt lat="45.6187" lon="4.63919">
        <ele>471</ele>
        <time>2017-02-25T09:08:54Z</time>
      </trkpt>
      <trkpt lat="45.6187" lon="4.63919">
        <ele>471</ele>
        <time>2017-02-25T09:08:56Z</time>
      </trkpt>
      <trkpt lat="45.6187" lon="4.63919">
        <ele>472</ele>
        <time>2017-02-25T09:09:24Z</time>
      </trkpt>
      <trkpt lat="45.6187" lon="4.63919">
        <ele>473</ele>
        <time>2017-02-25T09:09:26Z</time>
      </trkpt>
      <trkpt lat="45.61874" lon="4.63916">
        <ele>475</ele>
        <time>2017-02-25T09:09:46Z</time>
      </trkpt>
      <trkpt lat="45.6188" lon="4.63914">
        <ele>477</ele>
        <time>2017-02-25T09:09:50Z</time>
      </trkpt>
      <trkpt lat="45.61885" lon="4.63911">
        <ele>478</ele>
        <time>2017-02-25T09:09:54Z</time>
      </trkpt>
      <trkpt lat="45.6189" lon="4.63909">
        <ele>479</ele>
        <time>2017-02-25T09:09:58Z</time>
      </trkpt>
      <trkpt lat="45.61895" lon="4.63907">
        <ele>479</ele>
        <time>2017-02-25T09:10:02Z</time>
      </trkpt>
      <trkpt lat="45.619" lon="4.63905">
        <ele>479</ele>
        <time>2017-02-25T09:10:06Z</time>
      </trkpt>
      <trkpt lat="45.61905" lon="4.63903">
        <ele>480</ele>
        <time>2017-02-25T09:10:10Z</time>
      </trkpt>
      <trkpt lat="45.6191" lon="4.639">
        <ele>480</ele>
        <time>2017-02-25T09:10:14Z</time>
      </trkpt>
      <trkpt lat="45.61915" lon="4.63898">
        <ele>480</ele>
        <time>2017-02-25T09:10:17Z</time>
      </trkpt>
      <trkpt lat="45.6192" lon="4.63897">
        <ele>480</ele>
        <time>2017-02-25T09:10:21Z</time>
      </trkpt>
      <trkpt lat="45.61925" lon="4.63896">
        <ele>480</ele>
        <time>2017-02-25T09:10:25Z</time>
      </trkpt>
      <trkpt lat="45.6193" lon="4.63896">
        <ele>480</ele>
        <time>2017-02-25T09:10:29Z</time>
      </trkpt>
      <trkpt lat="45.61934" lon="4.63892">
        <ele>480</ele>
        <time>2017-02-25T09:10:32Z</time>
      </trkpt>
      <trkpt lat="45.61939" lon="4.6389">
        <ele>480</ele>
        <time>2017-02-25T09:10:35Z</time>
      </trkpt>
      <trkpt lat="45.61943" lon="4.6389">
        <ele>480</ele>
        <time>2017-02-25T09:10:38Z</time>
      </trkpt>
      <trkpt lat="45.61948" lon="4.63891">
        <ele>480</ele>
        <time>2017-02-25T09:10:41Z</time>
      </trkpt>
      <trkpt lat="45.61953" lon="4.63892">
        <ele>480</ele>
        <time>2017-02-25T09:10:45Z</time>
      </trkpt>
      <trkpt lat="45.61959" lon="4.63894">
        <ele>480</ele>
        <time>2017-02-25T09:10:49Z</time>
      </trkpt>
      <trkpt lat="45.61964" lon="4.63897">
        <ele>480</ele>
        <time>2017-02-25T09:10:53Z</time>
      </trkpt>
      <trkpt lat="45.61969" lon="4.63899">
        <ele>480</ele>
        <time>2017-02-25T09:10:57Z</time>
      </trkpt>
      <trkpt lat="45.61974" lon="4.63899">
        <ele>481</ele>
        <time>2017-02-25T09:11:01Z</time>
      </trkpt>
      <trkpt lat="45.61979" lon="4.63903">
        <ele>481</ele>
        <time>2017-02-25T09:11:05Z</time>
      </trkpt>
      <trkpt lat="45.61984" lon="4.63905">
        <ele>481</ele>
        <time>2017-02-25T09:11:09Z</time>
      </trkpt>
      <trkpt lat="45.61988" lon="4.63909">
        <ele>482</ele>
        <time>2017-02-25T09:11:13Z</time>
      </trkpt>
      <trkpt lat="45.61993" lon="4.63913">
        <ele>482</ele>
        <time>2017-02-25T09:11:17Z</time>
      </trkpt>
      <trkpt lat="45.61998" lon="4.63917">
        <ele>483</ele>
        <time>2017-02-25T09:11:21Z</time>
      </trkpt>
      <trkpt lat="45.62003" lon="4.63922">
        <ele>483</ele>
        <time>2017-02-25T09:11:25Z</time>
      </trkpt>
      <trkpt lat="45.62006" lon="4.63926">
        <ele>484</ele>
        <time>2017-02-25T09:11:28Z</time>
      </trkpt>
      <trkpt lat="45.6201" lon="4.6393">
        <ele>484</ele>
        <time>2017-02-25T09:11:31Z</time>
      </trkpt>
      <trkpt lat="45.62015" lon="4.63934">
        <ele>484</ele>
        <time>2017-02-25T09:11:35Z</time>
      </trkpt>
      <trkpt lat="45.6202" lon="4.63937">
        <ele>484</ele>
        <time>2017-02-25T09:11:38Z</time>
      </trkpt>
      <trkpt lat="45.62024" lon="4.63941">
        <ele>483</ele>
        <time>2017-02-25T09:11:41Z</time>
      </trkpt>
      <trkpt lat="45.62027" lon="4.63946">
        <ele>483</ele>
        <time>2017-02-25T09:11:44Z</time>
      </trkpt>
      <trkpt lat="45.6203" lon="4.63951">
        <ele>483</ele>
        <time>2017-02-25T09:11:47Z</time>
      </trkpt>
      <trkpt lat="45.62034" lon="4.63956">
        <ele>483</ele>
        <time>2017-02-25T09:11:50Z</time>
      </trkpt>
      <trkpt lat="45.62038" lon="4.6396">
        <ele>482</ele>
        <time>2017-02-25T09:11:53Z</time>
      </trkpt>
      <trkpt lat="45.62042" lon="4.63963">
        <ele>483</ele>
        <time>2017-02-25T09:11:56Z</time>
      </trkpt>
      <trkpt lat="45.62046" lon="4.63966">
        <ele>483</ele>
        <time>2017-02-25T09:11:59Z</time>
      </trkpt>
      <trkpt lat="45.62053" lon="4.63968">
        <ele>484</ele>
        <time>2017-02-25T09:12:03Z</time>
      </trkpt>
      <trkpt lat="45.62058" lon="4.63969">
        <ele>485</ele>
        <time>2017-02-25T09:12:06Z</time>
      </trkpt>
      <trkpt lat="45.62062" lon="4.63971">
        <ele>485</ele>
        <time>2017-02-25T09:12:09Z</time>
      </trkpt>
      <trkpt lat="45.62067" lon="4.63972">
        <ele>487</ele>
        <time>2017-02-25T09:12:12Z</time>
      </trkpt>
      <trkpt lat="45.62072" lon="4.63973">
        <ele>488</ele>
        <time>2017-02-25T09:12:15Z</time>
      </trkpt>
      <trkpt lat="45.62076" lon="4.63974">
        <ele>491</ele>
        <time>2017-02-25T09:12:18Z</time>
      </trkpt>
      <trkpt lat="45.62082" lon="4.63974">
        <ele>493</ele>
        <time>2017-02-25T09:12:22Z</time>
      </trkpt>
      <trkpt lat="45.62087" lon="4.63973">
        <ele>496</ele>
        <time>2017-02-25T09:12:26Z</time>
      </trkpt>
      <trkpt lat="45.6209" lon="4.63967">
        <ele>497</ele>
        <time>2017-02-25T09:12:31Z</time>
      </trkpt>
      <trkpt lat="45.6209" lon="4.6396">
        <ele>499</ele>
        <time>2017-02-25T09:12:34Z</time>
      </trkpt>
      <trkpt lat="45.6209" lon="4.63953">
        <ele>500</ele>
        <time>2017-02-25T09:12:37Z</time>
      </trkpt>
      <trkpt lat="45.62088" lon="4.63947">
        <ele>500</ele>
        <time>2017-02-25T09:12:40Z</time>
      </trkpt>
      <trkpt lat="45.62089" lon="4.63939">
        <ele>500</ele>
        <time>2017-02-25T09:12:44Z</time>
      </trkpt>
      <trkpt lat="45.62089" lon="4.63932">
        <ele>500</ele>
        <time>2017-02-25T09:12:47Z</time>
      </trkpt>
      <trkpt lat="45.62088" lon="4.63926">
        <ele>500</ele>
        <time>2017-02-25T09:12:50Z</time>
      </trkpt>
      <trkpt lat="45.62093" lon="4.63922">
        <ele>500</ele>
        <time>2017-02-25T09:12:54Z</time>
      </trkpt>
      <trkpt lat="45.62098" lon="4.63922">
        <ele>501</ele>
        <time>2017-02-25T09:12:58Z</time>
      </trkpt>
      <trkpt lat="45.62104" lon="4.63924">
        <ele>503</ele>
        <time>2017-02-25T09:13:02Z</time>
      </trkpt>
      <trkpt lat="45.62109" lon="4.63926">
        <ele>504</ele>
        <time>2017-02-25T09:13:06Z</time>
      </trkpt>
      <trkpt lat="45.62114" lon="4.63926">
        <ele>505</ele>
        <time>2017-02-25T09:13:09Z</time>
      </trkpt>
      <trkpt lat="45.6212" lon="4.63927">
        <ele>506</ele>
        <time>2017-02-25T09:13:13Z</time>
      </trkpt>
      <trkpt lat="45.62125" lon="4.63927">
        <ele>507</ele>
        <time>2017-02-25T09:13:18Z</time>
      </trkpt>
      <trkpt lat="45.6213" lon="4.63926">
        <ele>507</ele>
        <time>2017-02-25T09:13:22Z</time>
      </trkpt>
      <trkpt lat="45.62135" lon="4.63926">
        <ele>508</ele>
        <time>2017-02-25T09:13:25Z</time>
      </trkpt>
      <trkpt lat="45.62141" lon="4.63926">
        <ele>508</ele>
        <time>2017-02-25T09:13:28Z</time>
      </trkpt>
      <trkpt lat="45.62148" lon="4.63926">
        <ele>508</ele>
        <time>2017-02-25T09:13:31Z</time>
      </trkpt>
      <trkpt lat="45.62154" lon="4.63926">
        <ele>507</ele>
        <time>2017-02-25T09:13:34Z</time>
      </trkpt>
      <trkpt lat="45.6216" lon="4.63925">
        <ele>507</ele>
        <time>2017-02-25T09:13:37Z</time>
      </trkpt>
      <trkpt lat="45.62166" lon="4.63924">
        <ele>507</ele>
        <time>2017-02-25T09:13:40Z</time>
      </trkpt>
      <trkpt lat="45.62172" lon="4.63924">
        <ele>507</ele>
        <time>2017-02-25T09:13:43Z</time>
      </trkpt>
      <trkpt lat="45.62179" lon="4.63924">
        <ele>507</ele>
        <time>2017-02-25T09:13:46Z</time>
      </trkpt>
      <trkpt lat="45.62185" lon="4.63925">
        <ele>507</ele>
        <time>2017-02-25T09:13:49Z</time>
      </trkpt>
      <trkpt lat="45.62191" lon="4.63925">
        <ele>507</ele>
        <time>2017-02-25T09:13:52Z</time>
      </trkpt>
      <trkpt lat="45.62196" lon="4.63924">
        <ele>506</ele>
        <time>2017-02-25T09:13:54Z</time>
      </trkpt>
      <trkpt lat="45.62201" lon="4.63923">
        <ele>506</ele>
        <time>2017-02-25T09:13:56Z</time>
      </trkpt>
      <trkpt lat="45.62206" lon="4.63923">
        <ele>506</ele>
        <time>2017-02-25T09:13:58Z</time>
      </trkpt>
      <trkpt lat="45.6221" lon="4.63924">
        <ele>506</ele>
        <time>2017-02-25T09:14:00Z</time>
      </trkpt>
      <trkpt lat="45.62217" lon="4.63924">
        <ele>506</ele>
        <time>2017-02-25T09:14:03Z</time>
      </trkpt>
      <trkpt lat="45.62222" lon="4.63924">
        <ele>507</ele>
        <time>2017-02-25T09:14:05Z</time>
      </trkpt>
      <trkpt lat="45.62227" lon="4.63924">
        <ele>507</ele>
        <time>2017-02-25T09:14:07Z</time>
      </trkpt>
      <trkpt lat="45.62232" lon="4.63924">
        <ele>507</ele>
        <time>2017-02-25T09:14:09Z</time>
      </trkpt>
      <trkpt lat="45.62237" lon="4.63924">
        <ele>506</ele>
        <time>2017-02-25T09:14:11Z</time>
      </trkpt>
      <trkpt lat="45.62241" lon="4.63924">
        <ele>506</ele>
        <time>2017-02-25T09:14:13Z</time>
      </trkpt>
      <trkpt lat="45.62246" lon="4.63923">
        <ele>506</ele>
        <time>2017-02-25T09:14:15Z</time>
      </trkpt>
      <trkpt lat="45.62252" lon="4.63923">
        <ele>506</ele>
        <time>2017-02-25T09:14:17Z</time>
      </trkpt>
      <trkpt lat="45.62257" lon="4.63925">
        <ele>506</ele>
        <time>2017-02-25T09:14:19Z</time>
      </trkpt>
      <trkpt lat="45.62262" lon="4.63926">
        <ele>506</ele>
        <time>2017-02-25T09:14:21Z</time>
      </trkpt>
      <trkpt lat="45.62267" lon="4.63927">
        <ele>506</ele>
        <time>2017-02-25T09:14:23Z</time>
      </trkpt>
      <trkpt lat="45.62272" lon="4.63928">
        <ele>506</ele>
        <time>2017-02-25T09:14:25Z</time>
      </trkpt>
      <trkpt lat="45.62277" lon="4.63929">
        <ele>505</ele>
        <time>2017-02-25T09:14:27Z</time>
      </trkpt>
      <trkpt lat="45.62283" lon="4.6393">
        <ele>505</ele>
        <time>2017-02-25T09:14:29Z</time>
      </trkpt>
      <trkpt lat="45.62288" lon="4.63929">
        <ele>505</ele>
        <time>2017-02-25T09:14:31Z</time>
      </trkpt>
      <trkpt lat="45.62294" lon="4.63929">
        <ele>506</ele>
        <time>2017-02-25T09:14:33Z</time>
      </trkpt>
      <trkpt lat="45.62299" lon="4.63929">
        <ele>506</ele>
        <time>2017-02-25T09:14:35Z</time>
      </trkpt>
      <trkpt lat="45.62304" lon="4.63927">
        <ele>507</ele>
        <time>2017-02-25T09:14:37Z</time>
      </trkpt>
      <trkpt lat="45.62309" lon="4.63925">
        <ele>507</ele>
        <time>2017-02-25T09:14:39Z</time>
      </trkpt>
      <trkpt lat="45.62313" lon="4.63923">
        <ele>508</ele>
        <time>2017-02-25T09:14:41Z</time>
      </trkpt>
      <trkpt lat="45.62317" lon="4.63918">
        <ele>508</ele>
        <time>2017-02-25T09:14:43Z</time>
      </trkpt>
      <trkpt lat="45.62319" lon="4.63911">
        <ele>508</ele>
        <time>2017-02-25T09:14:45Z</time>
      </trkpt>
      <trkpt lat="45.6232" lon="4.63905">
        <ele>507</ele>
        <time>2017-02-25T09:14:47Z</time>
      </trkpt>
      <trkpt lat="45.62321" lon="4.63898">
        <ele>507</ele>
        <time>2017-02-25T09:14:49Z</time>
      </trkpt>
      <trkpt lat="45.62322" lon="4.63889">
        <ele>507</ele>
        <time>2017-02-25T09:14:52Z</time>
      </trkpt>
      <trkpt lat="45.62324" lon="4.63883">
        <ele>507</ele>
        <time>2017-02-25T09:14:54Z</time>
      </trkpt>
      <trkpt lat="45.62326" lon="4.63877">
        <ele>507</ele>
        <time>2017-02-25T09:14:56Z</time>
      </trkpt>
      <trkpt lat="45.6233" lon="4.63871">
        <ele>507</ele>
        <time>2017-02-25T09:14:58Z</time>
      </trkpt>
      <trkpt lat="45.62332" lon="4.63864">
        <ele>508</ele>
        <time>2017-02-25T09:15:00Z</time>
      </trkpt>
      <trkpt lat="45.62334" lon="4.63857">
        <ele>508</ele>
        <time>2017-02-25T09:15:02Z</time>
      </trkpt>
      <trkpt lat="45.62337" lon="4.6385">
        <ele>508</ele>
        <time>2017-02-25T09:15:04Z</time>
      </trkpt>
      <trkpt lat="45.6234" lon="4.63843">
        <ele>508</ele>
        <time>2017-02-25T09:15:06Z</time>
      </trkpt>
      <trkpt lat="45.62343" lon="4.63835">
        <ele>508</ele>
        <time>2017-02-25T09:15:08Z</time>
      </trkpt>
      <trkpt lat="45.62345" lon="4.63829">
        <ele>507</ele>
        <time>2017-02-25T09:15:10Z</time>
      </trkpt>
      <trkpt lat="45.62347" lon="4.63822">
        <ele>507</ele>
        <time>2017-02-25T09:15:12Z</time>
      </trkpt>
      <trkpt lat="45.62349" lon="4.63814">
        <ele>508</ele>
        <time>2017-02-25T09:15:14Z</time>
      </trkpt>
      <trkpt lat="45.62351" lon="4.63807">
        <ele>508</ele>
        <time>2017-02-25T09:15:16Z</time>
      </trkpt>
      <trkpt lat="45.62352" lon="4.63799">
        <ele>508</ele>
        <time>2017-02-25T09:15:18Z</time>
      </trkpt>
      <trkpt lat="45.62354" lon="4.63792">
        <ele>508</ele>
        <time>2017-02-25T09:15:20Z</time>
      </trkpt>
      <trkpt lat="45.62356" lon="4.63782">
        <ele>508</ele>
        <time>2017-02-25T09:15:22Z</time>
      </trkpt>
      <trkpt lat="45.62357" lon="4.63772">
        <ele>508</ele>
        <time>2017-02-25T09:15:24Z</time>
      </trkpt>
      <trkpt lat="45.62359" lon="4.63764">
        <ele>508</ele>
        <time>2017-02-25T09:15:26Z</time>
      </trkpt>
      <trkpt lat="45.6236" lon="4.63757">
        <ele>507</ele>
        <time>2017-02-25T09:15:27Z</time>
      </trkpt>
      <trkpt lat="45.62362" lon="4.63747">
        <ele>507</ele>
        <time>2017-02-25T09:15:29Z</time>
      </trkpt>
      <trkpt lat="45.62364" lon="4.63737">
        <ele>507</ele>
        <time>2017-02-25T09:15:31Z</time>
      </trkpt>
      <trkpt lat="45.62367" lon="4.63726">
        <ele>508</ele>
        <time>2017-02-25T09:15:33Z</time>
      </trkpt>
      <trkpt lat="45.6237" lon="4.63717">
        <ele>508</ele>
        <time>2017-02-25T09:15:35Z</time>
      </trkpt>
      <trkpt lat="45.62373" lon="4.63709">
        <ele>508</ele>
        <time>2017-02-25T09:15:37Z</time>
      </trkpt>
      <trkpt lat="45.62378" lon="4.63703">
        <ele>508</ele>
        <time>2017-02-25T09:15:39Z</time>
      </trkpt>
      <trkpt lat="45.62383" lon="4.63698">
        <ele>508</ele>
        <time>2017-02-25T09:15:41Z</time>
      </trkpt>
      <trkpt lat="45.62387" lon="4.63693">
        <ele>509</ele>
        <time>2017-02-25T09:15:43Z</time>
      </trkpt>
      <trkpt lat="45.62391" lon="4.63689">
        <ele>509</ele>
        <time>2017-02-25T09:15:45Z</time>
      </trkpt>
      <trkpt lat="45.62396" lon="4.63685">
        <ele>509</ele>
        <time>2017-02-25T09:15:47Z</time>
      </trkpt>
      <trkpt lat="45.624" lon="4.63681">
        <ele>510</ele>
        <time>2017-02-25T09:15:49Z</time>
      </trkpt>
      <trkpt lat="45.62405" lon="4.63675">
        <ele>510</ele>
        <time>2017-02-25T09:15:52Z</time>
      </trkpt>
      <trkpt lat="45.62409" lon="4.6367">
        <ele>510</ele>
        <time>2017-02-25T09:15:54Z</time>
      </trkpt>
      <trkpt lat="45.62412" lon="4.63663">
        <ele>510</ele>
        <time>2017-02-25T09:15:57Z</time>
      </trkpt>
      <trkpt lat="45.62415" lon="4.63656">
        <ele>511</ele>
        <time>2017-02-25T09:16:00Z</time>
      </trkpt>
      <trkpt lat="45.62418" lon="4.63649">
        <ele>511</ele>
        <time>2017-02-25T09:16:03Z</time>
      </trkpt>
      <trkpt lat="45.62421" lon="4.63642">
        <ele>513</ele>
        <time>2017-02-25T09:16:06Z</time>
      </trkpt>
      <trkpt lat="45.62423" lon="4.63641">
        <ele>514</ele>
        <time>2017-02-25T09:16:24Z</time>
      </trkpt>
      <trkpt lat="45.62423" lon="4.63641">
        <ele>515</ele>
        <time>2017-02-25T09:16:26Z</time>
      </trkpt>
      <trkpt lat="45.62423" lon="4.63641">
        <ele>516</ele>
        <time>2017-02-25T09:16:54Z</time>
      </trkpt>
      <trkpt lat="45.62423" lon="4.63641">
        <ele>517</ele>
        <time>2017-02-25T09:16:56Z</time>
      </trkpt>
      <trkpt lat="45.62423" lon="4.63641">
        <ele>517</ele>
        <time>2017-02-25T09:17:24Z</time>
      </trkpt>
      <trkpt lat="45.62423" lon="4.63641">
        <ele>517</ele>
        <time>2017-02-25T09:17:26Z</time>
      </trkpt>
      <trkpt lat="45.62423" lon="4.63641">
        <ele>517</ele>
        <time>2017-02-25T09:17:54Z</time>
      </trkpt>
      <trkpt lat="45.62423" lon="4.63641">
        <ele>517</ele>
        <time>2017-02-25T09:17:56Z</time>
      </trkpt>
      <trkpt lat="45.62425" lon="4.63634">
        <ele>517</ele>
        <time>2017-02-25T09:18:04Z</time>
      </trkpt>
      <trkpt lat="45.62426" lon="4.63628">
        <ele>517</ele>
        <time>2017-02-25T09:18:06Z</time>
      </trkpt>
      <trkpt lat="45.62428" lon="4.63621">
        <ele>517</ele>
        <time>2017-02-25T09:18:08Z</time>
      </trkpt>
      <trkpt lat="45.62429" lon="4.63614">
        <ele>517</ele>
        <time>2017-02-25T09:18:10Z</time>
      </trkpt>
      <trkpt lat="45.62433" lon="4.63602">
        <ele>517</ele>
        <time>2017-02-25T09:18:13Z</time>
      </trkpt>
      <trkpt lat="45.62434" lon="4.63593">
        <ele>517</ele>
        <time>2017-02-25T09:18:15Z</time>
      </trkpt>
      <trkpt lat="45.62435" lon="4.63584">
        <ele>517</ele>
        <time>2017-02-25T09:18:17Z</time>
      </trkpt>
      <trkpt lat="45.62436" lon="4.63574">
        <ele>517</ele>
        <time>2017-02-25T09:18:19Z</time>
      </trkpt>
      <trkpt lat="45.62437" lon="4.63564">
        <ele>518</ele>
        <time>2017-02-25T09:18:21Z</time>
      </trkpt>
      <trkpt lat="45.62438" lon="4.63555">
        <ele>519</ele>
        <time>2017-02-25T09:18:23Z</time>
      </trkpt>
      <trkpt lat="45.62439" lon="4.63546">
        <ele>519</ele>
        <time>2017-02-25T09:18:25Z</time>
      </trkpt>
      <trkpt lat="45.62441" lon="4.63538">
        <ele>519</ele>
        <time>2017-02-25T09:18:27Z</time>
      </trkpt>
      <trkpt lat="45.62442" lon="4.6353">
        <ele>518</ele>
        <time>2017-02-25T09:18:29Z</time>
      </trkpt>
      <trkpt lat="45.62444" lon="4.63522">
        <ele>518</ele>
        <time>2017-02-25T09:18:31Z</time>
      </trkpt>
      <trkpt lat="45.62446" lon="4.63515">
        <ele>517</ele>
        <time>2017-02-25T09:18:33Z</time>
      </trkpt>
      <trkpt lat="45.62449" lon="4.63508">
        <ele>518</ele>
        <time>2017-02-25T09:18:35Z</time>
      </trkpt>
      <trkpt lat="45.62451" lon="4.63501">
        <ele>518</ele>
        <time>2017-02-25T09:18:37Z</time>
      </trkpt>
      <trkpt lat="45.62453" lon="4.63494">
        <ele>518</ele>
        <time>2017-02-25T09:18:39Z</time>
      </trkpt>
      <trkpt lat="45.62455" lon="4.63486">
        <ele>518</ele>
        <time>2017-02-25T09:18:42Z</time>
      </trkpt>
      <trkpt lat="45.62459" lon="4.6348">
        <ele>518</ele>
        <time>2017-02-25T09:18:44Z</time>
      </trkpt>
      <trkpt lat="45.62462" lon="4.63474">
        <ele>518</ele>
        <time>2017-02-25T09:18:46Z</time>
      </trkpt>
      <trkpt lat="45.62466" lon="4.63468">
        <ele>518</ele>
        <time>2017-02-25T09:18:48Z</time>
      </trkpt>
      <trkpt lat="45.6247" lon="4.63461">
        <ele>517</ele>
        <time>2017-02-25T09:18:50Z</time>
      </trkpt>
      <trkpt lat="45.62475" lon="4.63456">
        <ele>518</ele>
        <time>2017-02-25T09:18:52Z</time>
      </trkpt>
      <trkpt lat="45.6248" lon="4.63451">
        <ele>518</ele>
        <time>2017-02-25T09:18:54Z</time>
      </trkpt>
      <trkpt lat="45.62485" lon="4.63447">
        <ele>518</ele>
        <time>2017-02-25T09:18:56Z</time>
      </trkpt>
      <trkpt lat="45.62491" lon="4.63445">
        <ele>519</ele>
        <time>2017-02-25T09:18:58Z</time>
      </trkpt>
      <trkpt lat="45.62495" lon="4.63443">
        <ele>520</ele>
        <time>2017-02-25T09:19:00Z</time>
      </trkpt>
      <trkpt lat="45.625" lon="4.63443">
        <ele>521</ele>
        <time>2017-02-25T09:19:02Z</time>
      </trkpt>
      <trkpt lat="45.62505" lon="4.63445">
        <ele>522</ele>
        <time>2017-02-25T09:19:04Z</time>
      </trkpt>
      <trkpt lat="45.62509" lon="4.63448">
        <ele>522</ele>
        <time>2017-02-25T09:19:06Z</time>
      </trkpt>
      <trkpt lat="45.62513" lon="4.6345">
        <ele>523</ele>
        <time>2017-02-25T09:19:08Z</time>
      </trkpt>
      <trkpt lat="45.62518" lon="4.63453">
        <ele>522</ele>
        <time>2017-02-25T09:19:10Z</time>
      </trkpt>
      <trkpt lat="45.62523" lon="4.63458">
        <ele>521</ele>
        <time>2017-02-25T09:19:12Z</time>
      </trkpt>
      <trkpt lat="45.62528" lon="4.63463">
        <ele>521</ele>
        <time>2017-02-25T09:19:14Z</time>
      </trkpt>
      <trkpt lat="45.62533" lon="4.63467">
        <ele>520</ele>
        <time>2017-02-25T09:19:16Z</time>
      </trkpt>
      <trkpt lat="45.6254" lon="4.6347">
        <ele>519</ele>
        <time>2017-02-25T09:19:18Z</time>
      </trkpt>
      <trkpt lat="45.62546" lon="4.63472">
        <ele>518</ele>
        <time>2017-02-25T09:19:20Z</time>
      </trkpt>
      <trkpt lat="45.62553" lon="4.63475">
        <ele>518</ele>
        <time>2017-02-25T09:19:22Z</time>
      </trkpt>
      <trkpt lat="45.62558" lon="4.63478">
        <ele>517</ele>
        <time>2017-02-25T09:19:24Z</time>
      </trkpt>
      <trkpt lat="45.62563" lon="4.63483">
        <ele>517</ele>
        <time>2017-02-25T09:19:26Z</time>
      </trkpt>
      <trkpt lat="45.62568" lon="4.63487">
        <ele>517</ele>
        <time>2017-02-25T09:19:28Z</time>
      </trkpt>
      <trkpt lat="45.62571" lon="4.63493">
        <ele>516</ele>
        <time>2017-02-25T09:19:30Z</time>
      </trkpt>
      <trkpt lat="45.62575" lon="4.63502">
        <ele>516</ele>
        <time>2017-02-25T09:19:32Z</time>
      </trkpt>
      <trkpt lat="45.62578" lon="4.63511">
        <ele>516</ele>
        <time>2017-02-25T09:19:34Z</time>
      </trkpt>
      <trkpt lat="45.62581" lon="4.63519">
        <ele>516</ele>
        <time>2017-02-25T09:19:36Z</time>
      </trkpt>
      <trkpt lat="45.62584" lon="4.63523">
        <ele>516</ele>
        <time>2017-02-25T09:19:37Z</time>
      </trkpt>
      <trkpt lat="45.62588" lon="4.63533">
        <ele>515</ele>
        <time>2017-02-25T09:19:39Z</time>
      </trkpt>
      <trkpt lat="45.6259" lon="4.6354">
        <ele>514</ele>
        <time>2017-02-25T09:19:41Z</time>
      </trkpt>
      <trkpt lat="45.62593" lon="4.63549">
        <ele>514</ele>
        <time>2017-02-25T09:19:42Z</time>
      </trkpt>
      <trkpt lat="45.62595" lon="4.63555">
        <ele>513</ele>
        <time>2017-02-25T09:19:43Z</time>
      </trkpt>
      <trkpt lat="45.62606" lon="4.63573">
        <ele>512</ele>
        <time>2017-02-25T09:19:45Z</time>
      </trkpt>
      <trkpt lat="45.6261" lon="4.63587">
        <ele>511</ele>
        <time>2017-02-25T09:19:47Z</time>
      </trkpt>
      <trkpt lat="45.62612" lon="4.63593">
        <ele>511</ele>
        <time>2017-02-25T09:19:48Z</time>
      </trkpt>
      <trkpt lat="45.62615" lon="4.63599">
        <ele>510</ele>
        <time>2017-02-25T09:19:49Z</time>
      </trkpt>
      <trkpt lat="45.6262" lon="4.63609">
        <ele>508</ele>
        <time>2017-02-25T09:19:51Z</time>
      </trkpt>
      <trkpt lat="45.6262" lon="4.63618">
        <ele>508</ele>
        <time>2017-02-25T09:19:52Z</time>
      </trkpt>
      <trkpt lat="45.62623" lon="4.63626">
        <ele>508</ele>
        <time>2017-02-25T09:19:53Z</time>
      </trkpt>
      <trkpt lat="45.62627" lon="4.63631">
        <ele>507</ele>
        <time>2017-02-25T09:19:54Z</time>
      </trkpt>
      <trkpt lat="45.6263" lon="4.63638">
        <ele>507</ele>
        <time>2017-02-25T09:19:55Z</time>
      </trkpt>
      <trkpt lat="45.62632" lon="4.63647">
        <ele>507</ele>
        <time>2017-02-25T09:19:56Z</time>
      </trkpt>
      <trkpt lat="45.62637" lon="4.63656">
        <ele>506</ele>
        <time>2017-02-25T09:19:57Z</time>
      </trkpt>
      <trkpt lat="45.6264" lon="4.63661">
        <ele>506</ele>
        <time>2017-02-25T09:19:58Z</time>
      </trkpt>
      <trkpt lat="45.62643" lon="4.63666">
        <ele>505</ele>
        <time>2017-02-25T09:19:59Z</time>
      </trkpt>
      <trkpt lat="45.62648" lon="4.63672">
        <ele>506</ele>
        <time>2017-02-25T09:20:00Z</time>
      </trkpt>
      <trkpt lat="45.62651" lon="4.63679">
        <ele>507</ele>
        <time>2017-02-25T09:20:01Z</time>
      </trkpt>
      <trkpt lat="45.62653" lon="4.63685">
        <ele>507</ele>
        <time>2017-02-25T09:20:02Z</time>
      </trkpt>
      <trkpt lat="45.62656" lon="4.6369">
        <ele>507</ele>
        <time>2017-02-25T09:20:03Z</time>
      </trkpt>
      <trkpt lat="45.62661" lon="4.63693">
        <ele>507</ele>
        <time>2017-02-25T09:20:04Z</time>
      </trkpt>
      <trkpt lat="45.62665" lon="4.63698">
        <ele>507</ele>
        <time>2017-02-25T09:20:05Z</time>
      </trkpt>
      <trkpt lat="45.62666" lon="4.63709">
        <ele>506</ele>
        <time>2017-02-25T09:20:07Z</time>
      </trkpt>
      <trkpt lat="45.62667" lon="4.6372">
        <ele>506</ele>
        <time>2017-02-25T09:20:09Z</time>
      </trkpt>
      <trkpt lat="45.62668" lon="4.63727">
        <ele>505</ele>
        <time>2017-02-25T09:20:10Z</time>
      </trkpt>
      <trkpt lat="45.6267" lon="4.63733">
        <ele>504</ele>
        <time>2017-02-25T09:20:11Z</time>
      </trkpt>
      <trkpt lat="45.62667" lon="4.63742">
        <ele>504</ele>
        <time>2017-02-25T09:20:13Z</time>
      </trkpt>
      <trkpt lat="45.62666" lon="4.63748">
        <ele>503</ele>
        <time>2017-02-25T09:20:14Z</time>
      </trkpt>
      <trkpt lat="45.62668" lon="4.63756">
        <ele>503</ele>
        <time>2017-02-25T09:20:16Z</time>
      </trkpt>
      <trkpt lat="45.62671" lon="4.63761">
        <ele>502</ele>
        <time>2017-02-25T09:20:18Z</time>
      </trkpt>
      <trkpt lat="45.62675" lon="4.63768">
        <ele>502</ele>
        <time>2017-02-25T09:20:20Z</time>
      </trkpt>
      <trkpt lat="45.62678" lon="4.63774">
        <ele>501</ele>
        <time>2017-02-25T09:20:22Z</time>
      </trkpt>
      <trkpt lat="45.62684" lon="4.63779">
        <ele>501</ele>
        <time>2017-02-25T09:20:24Z</time>
      </trkpt>
      <trkpt lat="45.62688" lon="4.63788">
        <ele>500</ele>
        <time>2017-02-25T09:20:26Z</time>
      </trkpt>
      <trkpt lat="45.62693" lon="4.63792">
        <ele>498</ele>
        <time>2017-02-25T09:20:28Z</time>
      </trkpt>
      <trkpt lat="45.62697" lon="4.63797">
        <ele>496</ele>
        <time>2017-02-25T09:20:30Z</time>
      </trkpt>
      <trkpt lat="45.627" lon="4.63804">
        <ele>493</ele>
        <time>2017-02-25T09:20:32Z</time>
      </trkpt>
      <trkpt lat="45.62704" lon="4.6381">
        <ele>491</ele>
        <time>2017-02-25T09:20:34Z</time>
      </trkpt>
      <trkpt lat="45.62709" lon="4.63814">
        <ele>490</ele>
        <time>2017-02-25T09:20:36Z</time>
      </trkpt>
      <trkpt lat="45.62721" lon="4.63817">
        <ele>490</ele>
        <time>2017-02-25T09:20:39Z</time>
      </trkpt>
      <trkpt lat="45.62727" lon="4.63815">
        <ele>490</ele>
        <time>2017-02-25T09:20:41Z</time>
      </trkpt>
      <trkpt lat="45.62729" lon="4.63823">
        <ele>491</ele>
        <time>2017-02-25T09:20:44Z</time>
      </trkpt>
      <trkpt lat="45.62733" lon="4.63827">
        <ele>491</ele>
        <time>2017-02-25T09:20:46Z</time>
      </trkpt>
      <trkpt lat="45.62738" lon="4.63831">
        <ele>493</ele>
        <time>2017-02-25T09:20:49Z</time>
      </trkpt>
      <trkpt lat="45.62745" lon="4.63836">
        <ele>494</ele>
        <time>2017-02-25T09:20:52Z</time>
      </trkpt>
      <trkpt lat="45.62748" lon="4.63842">
        <ele>495</ele>
        <time>2017-02-25T09:20:54Z</time>
      </trkpt>
      <trkpt lat="45.62752" lon="4.63845">
        <ele>497</ele>
        <time>2017-02-25T09:20:56Z</time>
      </trkpt>
      <trkpt lat="45.62756" lon="4.63848">
        <ele>498</ele>
        <time>2017-02-25T09:20:58Z</time>
      </trkpt>
      <trkpt lat="45.62761" lon="4.63852">
        <ele>499</ele>
        <time>2017-02-25T09:21:00Z</time>
      </trkpt>
      <trkpt lat="45.62765" lon="4.63856">
        <ele>500</ele>
        <time>2017-02-25T09:21:02Z</time>
      </trkpt>
      <trkpt lat="45.62771" lon="4.6386">
        <ele>500</ele>
        <time>2017-02-25T09:21:05Z</time>
      </trkpt>
      <trkpt lat="45.62774" lon="4.63865">
        <ele>501</ele>
        <time>2017-02-25T09:21:07Z</time>
      </trkpt>
      <trkpt lat="45.62779" lon="4.6387">
        <ele>502</ele>
        <time>2017-02-25T09:21:09Z</time>
      </trkpt>
      <trkpt lat="45.62785" lon="4.63876">
        <ele>501</ele>
        <time>2017-02-25T09:21:12Z</time>
      </trkpt>
      <trkpt lat="45.62791" lon="4.63883">
        <ele>500</ele>
        <time>2017-02-25T09:21:14Z</time>
      </trkpt>
      <trkpt lat="45.62795" lon="4.63887">
        <ele>499</ele>
        <time>2017-02-25T09:21:16Z</time>
      </trkpt>
      <trkpt lat="45.628" lon="4.63897">
        <ele>497</ele>
        <time>2017-02-25T09:21:17Z</time>
      </trkpt>
      <trkpt lat="45.62805" lon="4.63903">
        <ele>496</ele>
        <time>2017-02-25T09:21:18Z</time>
      </trkpt>
      <trkpt lat="45.62811" lon="4.6391">
        <ele>495</ele>
        <time>2017-02-25T09:21:20Z</time>
      </trkpt>
      <trkpt lat="45.62819" lon="4.63917">
        <ele>494</ele>
        <time>2017-02-25T09:21:21Z</time>
      </trkpt>
      <trkpt lat="45.62827" lon="4.63919">
        <ele>496</ele>
        <time>2017-02-25T09:21:22Z</time>
      </trkpt>
      <trkpt lat="45.62833" lon="4.63921">
        <ele>498</ele>
        <time>2017-02-25T09:21:24Z</time>
      </trkpt>
      <trkpt lat="45.62838" lon="4.63925">
        <ele>499</ele>
        <time>2017-02-25T09:21:26Z</time>
      </trkpt>
      <trkpt lat="45.62843" lon="4.63927">
        <ele>498</ele>
        <time>2017-02-25T09:21:29Z</time>
      </trkpt>
      <trkpt lat="45.62848" lon="4.63929">
        <ele>497</ele>
        <time>2017-02-25T09:21:31Z</time>
      </trkpt>
      <trkpt lat="45.62852" lon="4.63936">
        <ele>493</ele>
        <time>2017-02-25T09:21:34Z</time>
      </trkpt>
      <trkpt lat="45.62859" lon="4.63937">
        <ele>486</ele>
        <time>2017-02-25T09:21:37Z</time>
      </trkpt>
      <trkpt lat="45.62864" lon="4.63938">
        <ele>479</ele>
        <time>2017-02-25T09:21:39Z</time>
      </trkpt>
      <trkpt lat="45.62869" lon="4.6394">
        <ele>470</ele>
        <time>2017-02-25T09:21:42Z</time>
      </trkpt>
      <trkpt lat="45.62874" lon="4.63943">
        <ele>460</ele>
        <time>2017-02-25T09:21:45Z</time>
      </trkpt>
      <trkpt lat="45.62879" lon="4.63947">
        <ele>451</ele>
        <time>2017-02-25T09:21:48Z</time>
      </trkpt>
      <trkpt lat="45.62882" lon="4.63953">
        <ele>445</ele>
        <time>2017-02-25T09:21:51Z</time>
      </trkpt>
      <trkpt lat="45.62884" lon="4.63959">
        <ele>440</ele>
        <time>2017-02-25T09:21:53Z</time>
      </trkpt>
      <trkpt lat="45.62887" lon="4.63964">
        <ele>438</ele>
        <time>2017-02-25T09:21:55Z</time>
      </trkpt>
      <trkpt lat="45.6289" lon="4.63972">
        <ele>437</ele>
        <time>2017-02-25T09:21:58Z</time>
      </trkpt>
      <trkpt lat="45.62894" lon="4.63979">
        <ele>435</ele>
        <time>2017-02-25T09:22:00Z</time>
      </trkpt>
      <trkpt lat="45.62897" lon="4.63984">
        <ele>433</ele>
        <time>2017-02-25T09:22:01Z</time>
      </trkpt>
      <trkpt lat="45.62902" lon="4.63993">
        <ele>431</ele>
        <time>2017-02-25T09:22:03Z</time>
      </trkpt>
      <trkpt lat="45.62906" lon="4.64001">
        <ele>430</ele>
        <time>2017-02-25T09:22:05Z</time>
      </trkpt>
      <trkpt lat="45.6291" lon="4.6401">
        <ele>429</ele>
        <time>2017-02-25T09:22:07Z</time>
      </trkpt>
      <trkpt lat="45.62913" lon="4.64016">
        <ele>428</ele>
        <time>2017-02-25T09:22:09Z</time>
      </trkpt>
      <trkpt lat="45.62918" lon="4.64019">
        <ele>427</ele>
        <time>2017-02-25T09:22:12Z</time>
      </trkpt>
      <trkpt lat="45.62923" lon="4.64021">
        <ele>426</ele>
        <time>2017-02-25T09:22:14Z</time>
      </trkpt>
      <trkpt lat="45.62928" lon="4.64024">
        <ele>425</ele>
        <time>2017-02-25T09:22:16Z</time>
      </trkpt>
      <trkpt lat="45.62932" lon="4.64028">
        <ele>424</ele>
        <time>2017-02-25T09:22:18Z</time>
      </trkpt>
      <trkpt lat="45.62936" lon="4.6403">
        <ele>424</ele>
        <time>2017-02-25T09:22:39Z</time>
      </trkpt>
      <trkpt lat="45.62936" lon="4.6403">
        <ele>424</ele>
        <time>2017-02-25T09:22:41Z</time>
      </trkpt>
      <trkpt lat="45.62936" lon="4.64029">
        <ele>424</ele>
        <time>2017-02-25T09:23:09Z</time>
      </trkpt>
      <trkpt lat="45.62936" lon="4.64029">
        <ele>424</ele>
        <time>2017-02-25T09:23:11Z</time>
      </trkpt>
      <trkpt lat="45.62936" lon="4.64029">
        <ele>424</ele>
        <time>2017-02-25T09:23:39Z</time>
      </trkpt>
      <trkpt lat="45.62936" lon="4.64029">
        <ele>424</ele>
        <time>2017-02-25T09:23:41Z</time>
      </trkpt>
      <trkpt lat="45.62936" lon="4.64029">
        <ele>424</ele>
        <time>2017-02-25T09:24:09Z</time>
      </trkpt>
      <trkpt lat="45.62936" lon="4.64029">
        <ele>424</ele>
        <time>2017-02-25T09:24:11Z</time>
      </trkpt>
      <trkpt lat="45.62942" lon="4.64027">
        <ele>423</ele>
        <time>2017-02-25T09:25:16Z</time>
      </trkpt>
      <trkpt lat="45.62947" lon="4.64028">
        <ele>423</ele>
        <time>2017-02-25T09:25:21Z</time>
      </trkpt>
      <trkpt lat="45.62952" lon="4.64026">
        <ele>423</ele>
        <time>2017-02-25T09:25:23Z</time>
      </trkpt>
      <trkpt lat="45.62955" lon="4.6402">
        <ele>423</ele>
        <time>2017-02-25T09:25:25Z</time>
      </trkpt>
      <trkpt lat="45.62959" lon="4.64015">
        <ele>423</ele>
        <time>2017-02-25T09:25:27Z</time>
      </trkpt>
      <trkpt lat="45.62964" lon="4.64011">
        <ele>424</ele>
        <time>2017-02-25T09:25:30Z</time>
      </trkpt>
      <trkpt lat="45.6297" lon="4.6401">
        <ele>424</ele>
        <time>2017-02-25T09:25:33Z</time>
      </trkpt>
      <trkpt lat="45.62976" lon="4.64012">
        <ele>425</ele>
        <time>2017-02-25T09:25:36Z</time>
      </trkpt>
      <trkpt lat="45.62981" lon="4.64017">
        <ele>425</ele>
        <time>2017-02-25T09:25:39Z</time>
      </trkpt>
      <trkpt lat="45.62985" lon="4.64023">
        <ele>426</ele>
        <time>2017-02-25T09:25:42Z</time>
      </trkpt>
      <trkpt lat="45.62989" lon="4.64027">
        <ele>426</ele>
        <time>2017-02-25T09:25:45Z</time>
      </trkpt>
      <trkpt lat="45.62994" lon="4.64029">
        <ele>426</ele>
        <time>2017-02-25T09:25:49Z</time>
      </trkpt>
      <trkpt lat="45.62996" lon="4.64037">
        <ele>427</ele>
        <time>2017-02-25T09:25:52Z</time>
      </trkpt>
      <trkpt lat="45.62998" lon="4.64045">
        <ele>428</ele>
        <time>2017-02-25T09:25:55Z</time>
      </trkpt>
      <trkpt lat="45.62999" lon="4.64054">
        <ele>429</ele>
        <time>2017-02-25T09:25:58Z</time>
      </trkpt>
      <trkpt lat="45.63001" lon="4.64062">
        <ele>430</ele>
        <time>2017-02-25T09:26:01Z</time>
      </trkpt>
      <trkpt lat="45.63004" lon="4.64069">
        <ele>430</ele>
        <time>2017-02-25T09:26:04Z</time>
      </trkpt>
      <trkpt lat="45.63007" lon="4.64077">
        <ele>430</ele>
        <time>2017-02-25T09:26:07Z</time>
      </trkpt>
      <trkpt lat="45.63011" lon="4.64083">
        <ele>430</ele>
        <time>2017-02-25T09:26:10Z</time>
      </trkpt>
      <trkpt lat="45.63015" lon="4.64091">
        <ele>430</ele>
        <time>2017-02-25T09:26:13Z</time>
      </trkpt>
      <trkpt lat="45.63019" lon="4.64097">
        <ele>430</ele>
        <time>2017-02-25T09:26:15Z</time>
      </trkpt>
      <trkpt lat="45.63023" lon="4.64102">
        <ele>430</ele>
        <time>2017-02-25T09:26:17Z</time>
      </trkpt>
      <trkpt lat="45.63028" lon="4.64109">
        <ele>430</ele>
        <time>2017-02-25T09:26:20Z</time>
      </trkpt>
      <trkpt lat="45.63031" lon="4.64114">
        <ele>430</ele>
        <time>2017-02-25T09:26:22Z</time>
      </trkpt>
      <trkpt lat="45.63036" lon="4.64121">
        <ele>430</ele>
        <time>2017-02-25T09:26:25Z</time>
      </trkpt>
      <trkpt lat="45.6304" lon="4.64128">
        <ele>429</ele>
        <time>2017-02-25T09:26:28Z</time>
      </trkpt>
      <trkpt lat="45.63043" lon="4.64132">
        <ele>429</ele>
        <time>2017-02-25T09:26:30Z</time>
      </trkpt>
      <trkpt lat="45.63046" lon="4.64137">
        <ele>429</ele>
        <time>2017-02-25T09:26:32Z</time>
      </trkpt>
      <trkpt lat="45.63052" lon="4.64145">
        <ele>428</ele>
        <time>2017-02-25T09:26:35Z</time>
      </trkpt>
      <trkpt lat="45.63055" lon="4.64151">
        <ele>428</ele>
        <time>2017-02-25T09:26:37Z</time>
      </trkpt>
      <trkpt lat="45.63059" lon="4.64154">
        <ele>428</ele>
        <time>2017-02-25T09:26:39Z</time>
      </trkpt>
      <trkpt lat="45.63064" lon="4.64159">
        <ele>428</ele>
        <time>2017-02-25T09:26:41Z</time>
      </trkpt>
      <trkpt lat="45.63068" lon="4.64162">
        <ele>429</ele>
        <time>2017-02-25T09:26:43Z</time>
      </trkpt>
      <trkpt lat="45.63072" lon="4.64165">
        <ele>429</ele>
        <time>2017-02-25T09:26:45Z</time>
      </trkpt>
      <trkpt lat="45.63077" lon="4.64168">
        <ele>430</ele>
        <time>2017-02-25T09:26:47Z</time>
      </trkpt>
      <trkpt lat="45.63083" lon="4.6417">
        <ele>430</ele>
        <time>2017-02-25T09:26:49Z</time>
      </trkpt>
      <trkpt lat="45.63087" lon="4.64172">
        <ele>431</ele>
        <time>2017-02-25T09:26:51Z</time>
      </trkpt>
      <trkpt lat="45.63092" lon="4.64173">
        <ele>432</ele>
        <time>2017-02-25T09:26:53Z</time>
      </trkpt>
      <trkpt lat="45.63097" lon="4.64173">
        <ele>433</ele>
        <time>2017-02-25T09:26:55Z</time>
      </trkpt>
      <trkpt lat="45.63101" lon="4.64175">
        <ele>433</ele>
        <time>2017-02-25T09:26:57Z</time>
      </trkpt>
      <trkpt lat="45.63105" lon="4.64177">
        <ele>433</ele>
        <time>2017-02-25T09:26:59Z</time>
      </trkpt>
      <trkpt lat="45.63112" lon="4.6418">
        <ele>434</ele>
        <time>2017-02-25T09:27:02Z</time>
      </trkpt>
      <trkpt lat="45.63118" lon="4.64183">
        <ele>434</ele>
        <time>2017-02-25T09:27:05Z</time>
      </trkpt>
      <trkpt lat="45.63123" lon="4.64186">
        <ele>434</ele>
        <time>2017-02-25T09:27:08Z</time>
      </trkpt>
      <trkpt lat="45.63128" lon="4.64189">
        <ele>434</ele>
        <time>2017-02-25T09:27:11Z</time>
      </trkpt>
      <trkpt lat="45.63134" lon="4.64193">
        <ele>434</ele>
        <time>2017-02-25T09:27:14Z</time>
      </trkpt>
      <trkpt lat="45.63139" lon="4.64198">
        <ele>434</ele>
        <time>2017-02-25T09:27:17Z</time>
      </trkpt>
      <trkpt lat="45.63144" lon="4.64204">
        <ele>434</ele>
        <time>2017-02-25T09:27:20Z</time>
      </trkpt>
      <trkpt lat="45.6315" lon="4.64209">
        <ele>435</ele>
        <time>2017-02-25T09:27:23Z</time>
      </trkpt>
      <trkpt lat="45.63155" lon="4.64214">
        <ele>435</ele>
        <time>2017-02-25T09:27:26Z</time>
      </trkpt>
      <trkpt lat="45.6316" lon="4.64219">
        <ele>436</ele>
        <time>2017-02-25T09:27:29Z</time>
      </trkpt>
      <trkpt lat="45.63164" lon="4.64224">
        <ele>436</ele>
        <time>2017-02-25T09:27:31Z</time>
      </trkpt>
      <trkpt lat="45.63169" lon="4.6423">
        <ele>437</ele>
        <time>2017-02-25T09:27:34Z</time>
      </trkpt>
      <trkpt lat="45.63174" lon="4.64235">
        <ele>438</ele>
        <time>2017-02-25T09:27:37Z</time>
      </trkpt>
      <trkpt lat="45.63179" lon="4.6424">
        <ele>439</ele>
        <time>2017-02-25T09:27:40Z</time>
      </trkpt>
      <trkpt lat="45.63184" lon="4.64243">
        <ele>439</ele>
        <time>2017-02-25T09:27:43Z</time>
      </trkpt>
      <trkpt lat="45.63189" lon="4.64243">
        <ele>440</ele>
        <time>2017-02-25T09:27:46Z</time>
      </trkpt>
      <trkpt lat="45.63194" lon="4.64242">
        <ele>440</ele>
        <time>2017-02-25T09:27:49Z</time>
      </trkpt>
      <trkpt lat="45.63199" lon="4.64246">
        <ele>441</ele>
        <time>2017-02-25T09:27:53Z</time>
      </trkpt>
      <trkpt lat="45.63203" lon="4.64242">
        <ele>441</ele>
        <time>2017-02-25T09:27:56Z</time>
      </trkpt>
      <trkpt lat="45.63205" lon="4.64235">
        <ele>441</ele>
        <time>2017-02-25T09:27:59Z</time>
      </trkpt>
      <trkpt lat="45.63205" lon="4.64229">
        <ele>440</ele>
        <time>2017-02-25T09:28:02Z</time>
      </trkpt>
      <trkpt lat="45.63206" lon="4.64222">
        <ele>440</ele>
        <time>2017-02-25T09:28:05Z</time>
      </trkpt>
      <trkpt lat="45.63208" lon="4.64216">
        <ele>441</ele>
        <time>2017-02-25T09:28:08Z</time>
      </trkpt>
      <trkpt lat="45.63211" lon="4.6421">
        <ele>441</ele>
        <time>2017-02-25T09:28:11Z</time>
      </trkpt>
      <trkpt lat="45.63213" lon="4.64205">
        <ele>443</ele>
        <time>2017-02-25T09:28:14Z</time>
      </trkpt>
      <trkpt lat="45.63217" lon="4.64199">
        <ele>444</ele>
        <time>2017-02-25T09:28:18Z</time>
      </trkpt>
      <trkpt lat="45.63221" lon="4.64192">
        <ele>445</ele>
        <time>2017-02-25T09:28:22Z</time>
      </trkpt>
      <trkpt lat="45.63224" lon="4.64186">
        <ele>446</ele>
        <time>2017-02-25T09:28:26Z</time>
      </trkpt>
      <trkpt lat="45.63228" lon="4.6418">
        <ele>447</ele>
        <time>2017-02-25T09:28:30Z</time>
      </trkpt>
      <trkpt lat="45.63232" lon="4.64174">
        <ele>447</ele>
        <time>2017-02-25T09:28:34Z</time>
      </trkpt>
      <trkpt lat="45.63236" lon="4.64169">
        <ele>448</ele>
        <time>2017-02-25T09:28:38Z</time>
      </trkpt>
      <trkpt lat="45.6324" lon="4.64164">
        <ele>448</ele>
        <time>2017-02-25T09:28:42Z</time>
      </trkpt>
      <trkpt lat="45.63244" lon="4.64158">
        <ele>449</ele>
        <time>2017-02-25T09:28:46Z</time>
      </trkpt>
      <trkpt lat="45.63247" lon="4.64152">
        <ele>450</ele>
        <time>2017-02-25T09:28:50Z</time>
      </trkpt>
      <trkpt lat="45.63248" lon="4.64144">
        <ele>451</ele>
        <time>2017-02-25T09:28:54Z</time>
      </trkpt>
      <trkpt lat="45.63249" lon="4.64137">
        <ele>451</ele>
        <time>2017-02-25T09:28:58Z</time>
      </trkpt>
      <trkpt lat="45.63248" lon="4.64129">
        <ele>453</ele>
        <time>2017-02-25T09:29:02Z</time>
      </trkpt>
      <trkpt lat="45.63248" lon="4.64121">
        <ele>454</ele>
        <time>2017-02-25T09:29:06Z</time>
      </trkpt>
      <trkpt lat="45.63247" lon="4.64114">
        <ele>455</ele>
        <time>2017-02-25T09:29:10Z</time>
      </trkpt>
      <trkpt lat="45.63249" lon="4.64109">
        <ele>457</ele>
        <time>2017-02-25T09:29:15Z</time>
      </trkpt>
      <trkpt lat="45.63252" lon="4.64114">
        <ele>459</ele>
        <time>2017-02-25T09:29:18Z</time>
      </trkpt>
      <trkpt lat="45.63254" lon="4.64121">
        <ele>461</ele>
        <time>2017-02-25T09:29:21Z</time>
      </trkpt>
      <trkpt lat="45.63258" lon="4.64127">
        <ele>463</ele>
        <time>2017-02-25T09:29:25Z</time>
      </trkpt>
      <trkpt lat="45.63259" lon="4.64127">
        <ele>462</ele>
        <time>2017-02-25T09:29:54Z</time>
      </trkpt>
      <trkpt lat="45.63259" lon="4.64127">
        <ele>461</ele>
        <time>2017-02-25T09:29:56Z</time>
      </trkpt>
      <trkpt lat="45.6326" lon="4.64128">
        <ele>463</ele>
        <time>2017-02-25T09:30:24Z</time>
      </trkpt>
      <trkpt lat="45.63259" lon="4.64128">
        <ele>464</ele>
        <time>2017-02-25T09:30:26Z</time>
      </trkpt>
      <trkpt lat="45.63258" lon="4.64127">
        <ele>465</ele>
        <time>2017-02-25T09:30:54Z</time>
      </trkpt>
      <trkpt lat="45.63258" lon="4.64127">
        <ele>468</ele>
        <time>2017-02-25T09:30:56Z</time>
      </trkpt>
      <trkpt lat="45.63253" lon="4.64106">
        <ele>470</ele>
        <time>2017-02-25T09:32:06Z</time>
      </trkpt>
      <trkpt lat="45.63253" lon="4.64097">
        <ele>468</ele>
        <time>2017-02-25T09:32:10Z</time>
      </trkpt>
      <trkpt lat="45.63254" lon="4.64089">
        <ele>467</ele>
        <time>2017-02-25T09:32:12Z</time>
      </trkpt>
      <trkpt lat="45.63255" lon="4.6408">
        <ele>467</ele>
        <time>2017-02-25T09:32:14Z</time>
      </trkpt>
      <trkpt lat="45.63256" lon="4.64071">
        <ele>466</ele>
        <time>2017-02-25T09:32:16Z</time>
      </trkpt>
      <trkpt lat="45.63259" lon="4.64063">
        <ele>466</ele>
        <time>2017-02-25T09:32:18Z</time>
      </trkpt>
      <trkpt lat="45.63261" lon="4.64056">
        <ele>467</ele>
        <time>2017-02-25T09:32:20Z</time>
      </trkpt>
      <trkpt lat="45.63262" lon="4.6405">
        <ele>467</ele>
        <time>2017-02-25T09:32:22Z</time>
      </trkpt>
      <trkpt lat="45.63264" lon="4.64041">
        <ele>467</ele>
        <time>2017-02-25T09:32:25Z</time>
      </trkpt>
      <trkpt lat="45.63266" lon="4.64032">
        <ele>467</ele>
        <time>2017-02-25T09:32:28Z</time>
      </trkpt>
      <trkpt lat="45.63268" lon="4.64026">
        <ele>468</ele>
        <time>2017-02-25T09:32:30Z</time>
      </trkpt>
      <trkpt lat="45.6327" lon="4.64017">
        <ele>468</ele>
        <time>2017-02-25T09:32:33Z</time>
      </trkpt>
      <trkpt lat="45.63272" lon="4.64011">
        <ele>469</ele>
        <time>2017-02-25T09:32:35Z</time>
      </trkpt>
      <trkpt lat="45.63275" lon="4.64003">
        <ele>469</ele>
        <time>2017-02-25T09:32:38Z</time>
      </trkpt>
      <trkpt lat="45.63278" lon="4.63995">
        <ele>470</ele>
        <time>2017-02-25T09:32:41Z</time>
      </trkpt>
      <trkpt lat="45.63281" lon="4.63986">
        <ele>470</ele>
        <time>2017-02-25T09:32:44Z</time>
      </trkpt>
      <trkpt lat="45.63284" lon="4.63978">
        <ele>470</ele>
        <time>2017-02-25T09:32:47Z</time>
      </trkpt>
      <trkpt lat="45.63287" lon="4.6397">
        <ele>470</ele>
        <time>2017-02-25T09:32:50Z</time>
      </trkpt>
      <trkpt lat="45.63291" lon="4.63964">
        <ele>471</ele>
        <time>2017-02-25T09:32:53Z</time>
      </trkpt>
      <trkpt lat="45.63295" lon="4.63959">
        <ele>471</ele>
        <time>2017-02-25T09:32:56Z</time>
      </trkpt>
      <trkpt lat="45.63298" lon="4.63954">
        <ele>472</ele>
        <time>2017-02-25T09:33:15Z</time>
      </trkpt>
      <trkpt lat="45.633" lon="4.63947">
        <ele>473</ele>
        <time>2017-02-25T09:33:18Z</time>
      </trkpt>
      <trkpt lat="45.63303" lon="4.6394">
        <ele>474</ele>
        <time>2017-02-25T09:33:21Z</time>
      </trkpt>
      <trkpt lat="45.63307" lon="4.63932">
        <ele>475</ele>
        <time>2017-02-25T09:33:24Z</time>
      </trkpt>
      <trkpt lat="45.63311" lon="4.63925">
        <ele>476</ele>
        <time>2017-02-25T09:33:27Z</time>
      </trkpt>
      <trkpt lat="45.63314" lon="4.6392">
        <ele>476</ele>
        <time>2017-02-25T09:33:29Z</time>
      </trkpt>
      <trkpt lat="45.63318" lon="4.63915">
        <ele>476</ele>
        <time>2017-02-25T09:33:31Z</time>
      </trkpt>
      <trkpt lat="45.63323" lon="4.6391">
        <ele>476</ele>
        <time>2017-02-25T09:33:34Z</time>
      </trkpt>
      <trkpt lat="45.63328" lon="4.63906">
        <ele>476</ele>
        <time>2017-02-25T09:33:37Z</time>
      </trkpt>
      <trkpt lat="45.63332" lon="4.63912">
        <ele>477</ele>
        <time>2017-02-25T09:33:40Z</time>
      </trkpt>
      <trkpt lat="45.63334" lon="4.63919">
        <ele>477</ele>
        <time>2017-02-25T09:33:42Z</time>
      </trkpt>
      <trkpt lat="45.63336" lon="4.63926">
        <ele>477</ele>
        <time>2017-02-25T09:33:45Z</time>
      </trkpt>
      <trkpt lat="45.63338" lon="4.63932">
        <ele>476</ele>
        <time>2017-02-25T09:33:48Z</time>
      </trkpt>
      <trkpt lat="45.6334" lon="4.63938">
        <ele>476</ele>
        <time>2017-02-25T09:33:51Z</time>
      </trkpt>
      <trkpt lat="45.63343" lon="4.63944">
        <ele>476</ele>
        <time>2017-02-25T09:33:54Z</time>
      </trkpt>
      <trkpt lat="45.63347" lon="4.63951">
        <ele>475</ele>
        <time>2017-02-25T09:33:58Z</time>
      </trkpt>
      <trkpt lat="45.6335" lon="4.63957">
        <ele>474</ele>
        <time>2017-02-25T09:34:03Z</time>
      </trkpt>
      <trkpt lat="45.63353" lon="4.63965">
        <ele>474</ele>
        <time>2017-02-25T09:34:05Z</time>
      </trkpt>
      <trkpt lat="45.63358" lon="4.63972">
        <ele>474</ele>
        <time>2017-02-25T09:34:07Z</time>
      </trkpt>
      <trkpt lat="45.63364" lon="4.63975">
        <ele>473</ele>
        <time>2017-02-25T09:34:09Z</time>
      </trkpt>
      <trkpt lat="45.63371" lon="4.63975">
        <ele>473</ele>
        <time>2017-02-25T09:34:11Z</time>
      </trkpt>
      <trkpt lat="45.63377" lon="4.63972">
        <ele>474</ele>
        <time>2017-02-25T09:34:13Z</time>
      </trkpt>
      <trkpt lat="45.63383" lon="4.63969">
        <ele>474</ele>
        <time>2017-02-25T09:34:15Z</time>
      </trkpt>
      <trkpt lat="45.63389" lon="4.63965">
        <ele>475</ele>
        <time>2017-02-25T09:34:17Z</time>
      </trkpt>
      <trkpt lat="45.63394" lon="4.63962">
        <ele>475</ele>
        <time>2017-02-25T09:34:19Z</time>
      </trkpt>
      <trkpt lat="45.63399" lon="4.63958">
        <ele>476</ele>
        <time>2017-02-25T09:34:21Z</time>
      </trkpt>
      <trkpt lat="45.63404" lon="4.63954">
        <ele>477</ele>
        <time>2017-02-25T09:34:23Z</time>
      </trkpt>
      <trkpt lat="45.63409" lon="4.63952">
        <ele>478</ele>
        <time>2017-02-25T09:34:25Z</time>
      </trkpt>
      <trkpt lat="45.63415" lon="4.6395">
        <ele>479</ele>
        <time>2017-02-25T09:34:27Z</time>
      </trkpt>
      <trkpt lat="45.6342" lon="4.63949">
        <ele>480</ele>
        <time>2017-02-25T09:34:29Z</time>
      </trkpt>
      <trkpt lat="45.63425" lon="4.63949">
        <ele>480</ele>
        <time>2017-02-25T09:34:31Z</time>
      </trkpt>
      <trkpt lat="45.63431" lon="4.63949">
        <ele>481</ele>
        <time>2017-02-25T09:34:33Z</time>
      </trkpt>
      <trkpt lat="45.63436" lon="4.63951">
        <ele>481</ele>
        <time>2017-02-25T09:34:35Z</time>
      </trkpt>
      <trkpt lat="45.6344" lon="4.63953">
        <ele>481</ele>
        <time>2017-02-25T09:34:37Z</time>
      </trkpt>
      <trkpt lat="45.63446" lon="4.63956">
        <ele>480</ele>
        <time>2017-02-25T09:34:39Z</time>
      </trkpt>
      <trkpt lat="45.6345" lon="4.6396">
        <ele>480</ele>
        <time>2017-02-25T09:34:41Z</time>
      </trkpt>
      <trkpt lat="45.63456" lon="4.63963">
        <ele>480</ele>
        <time>2017-02-25T09:34:43Z</time>
      </trkpt>
      <trkpt lat="45.63461" lon="4.63965">
        <ele>480</ele>
        <time>2017-02-25T09:34:45Z</time>
      </trkpt>
      <trkpt lat="45.63466" lon="4.63968">
        <ele>480</ele>
        <time>2017-02-25T09:34:47Z</time>
      </trkpt>
      <trkpt lat="45.63471" lon="4.63972">
        <ele>480</ele>
        <time>2017-02-25T09:34:49Z</time>
      </trkpt>
      <trkpt lat="45.63476" lon="4.63974">
        <ele>480</ele>
        <time>2017-02-25T09:34:51Z</time>
      </trkpt>
      <trkpt lat="45.63482" lon="4.63978">
        <ele>480</ele>
        <time>2017-02-25T09:34:53Z</time>
      </trkpt>
      <trkpt lat="45.63487" lon="4.63981">
        <ele>480</ele>
        <time>2017-02-25T09:34:55Z</time>
      </trkpt>
      <trkpt lat="45.63491" lon="4.63984">
        <ele>480</ele>
        <time>2017-02-25T09:34:57Z</time>
      </trkpt>
      <trkpt lat="45.63496" lon="4.63987">
        <ele>480</ele>
        <time>2017-02-25T09:34:59Z</time>
      </trkpt>
      <trkpt lat="45.63502" lon="4.63989">
        <ele>480</ele>
        <time>2017-02-25T09:35:01Z</time>
      </trkpt>
      <trkpt lat="45.63506" lon="4.63992">
        <ele>480</ele>
        <time>2017-02-25T09:35:03Z</time>
      </trkpt>
      <trkpt lat="45.63511" lon="4.63996">
        <ele>479</ele>
        <time>2017-02-25T09:35:05Z</time>
      </trkpt>
      <trkpt lat="45.63516" lon="4.63999">
        <ele>480</ele>
        <time>2017-02-25T09:35:07Z</time>
      </trkpt>
      <trkpt lat="45.6352" lon="4.64003">
        <ele>480</ele>
        <time>2017-02-25T09:35:09Z</time>
      </trkpt>
      <trkpt lat="45.63525" lon="4.64007">
        <ele>480</ele>
        <time>2017-02-25T09:35:11Z</time>
      </trkpt>
      <trkpt lat="45.63531" lon="4.64012">
        <ele>480</ele>
        <time>2017-02-25T09:35:13Z</time>
      </trkpt>
      <trkpt lat="45.63536" lon="4.64017">
        <ele>480</ele>
        <time>2017-02-25T09:35:15Z</time>
      </trkpt>
      <trkpt lat="45.63541" lon="4.64022">
        <ele>480</ele>
        <time>2017-02-25T09:35:17Z</time>
      </trkpt>
      <trkpt lat="45.63547" lon="4.64028">
        <ele>480</ele>
        <time>2017-02-25T09:35:19Z</time>
      </trkpt>
      <trkpt lat="45.63552" lon="4.64032">
        <ele>480</ele>
        <time>2017-02-25T09:35:21Z</time>
      </trkpt>
      <trkpt lat="45.63558" lon="4.64039">
        <ele>480</ele>
        <time>2017-02-25T09:35:23Z</time>
      </trkpt>
      <trkpt lat="45.63564" lon="4.64044">
        <ele>480</ele>
        <time>2017-02-25T09:35:25Z</time>
      </trkpt>
      <trkpt lat="45.6357" lon="4.64049">
        <ele>479</ele>
        <time>2017-02-25T09:35:27Z</time>
      </trkpt>
      <trkpt lat="45.63574" lon="4.64052">
        <ele>479</ele>
        <time>2017-02-25T09:35:28Z</time>
      </trkpt>
      <trkpt lat="45.63578" lon="4.64054">
        <ele>479</ele>
        <time>2017-02-25T09:35:29Z</time>
      </trkpt>
      <trkpt lat="45.63583" lon="4.64057">
        <ele>479</ele>
        <time>2017-02-25T09:35:30Z</time>
      </trkpt>
      <trkpt lat="45.63591" lon="4.6406">
        <ele>478</ele>
        <time>2017-02-25T09:35:32Z</time>
      </trkpt>
      <trkpt lat="45.63602" lon="4.64066">
        <ele>478</ele>
        <time>2017-02-25T09:35:33Z</time>
      </trkpt>
      <trkpt lat="45.63606" lon="4.64068">
        <ele>477</ele>
        <time>2017-02-25T09:35:34Z</time>
      </trkpt>
      <trkpt lat="45.63612" lon="4.64068">
        <ele>477</ele>
        <time>2017-02-25T09:35:35Z</time>
      </trkpt>
      <trkpt lat="45.63617" lon="4.64071">
        <ele>477</ele>
        <time>2017-02-25T09:35:36Z</time>
      </trkpt>
      <trkpt lat="45.63621" lon="4.64074">
        <ele>476</ele>
        <time>2017-02-25T09:35:37Z</time>
      </trkpt>
      <trkpt lat="45.63627" lon="4.64075">
        <ele>476</ele>
        <time>2017-02-25T09:35:38Z</time>
      </trkpt>
      <trkpt lat="45.63632" lon="4.64077">
        <ele>476</ele>
        <time>2017-02-25T09:35:39Z</time>
      </trkpt>
      <trkpt lat="45.63637" lon="4.64078">
        <ele>475</ele>
        <time>2017-02-25T09:35:40Z</time>
      </trkpt>
      <trkpt lat="45.63643" lon="4.6408">
        <ele>475</ele>
        <time>2017-02-25T09:35:41Z</time>
      </trkpt>
      <trkpt lat="45.63649" lon="4.64082">
        <ele>475</ele>
        <time>2017-02-25T09:35:42Z</time>
      </trkpt>
      <trkpt lat="45.63655" lon="4.64083">
        <ele>474</ele>
        <time>2017-02-25T09:35:43Z</time>
      </trkpt>
      <trkpt lat="45.63661" lon="4.64086">
        <ele>474</ele>
        <time>2017-02-25T09:35:44Z</time>
      </trkpt>
      <trkpt lat="45.63667" lon="4.64088">
        <ele>473</ele>
        <time>2017-02-25T09:35:45Z</time>
      </trkpt>
      <trkpt lat="45.63673" lon="4.64091">
        <ele>472</ele>
        <time>2017-02-25T09:35:46Z</time>
      </trkpt>
      <trkpt lat="45.6368" lon="4.64093">
        <ele>472</ele>
        <time>2017-02-25T09:35:47Z</time>
      </trkpt>
      <trkpt lat="45.63686" lon="4.64096">
        <ele>471</ele>
        <time>2017-02-25T09:35:48Z</time>
      </trkpt>
      <trkpt lat="45.63693" lon="4.641">
        <ele>471</ele>
        <time>2017-02-25T09:35:49Z</time>
      </trkpt>
      <trkpt lat="45.637" lon="4.64103">
        <ele>470</ele>
        <time>2017-02-25T09:35:50Z</time>
      </trkpt>
      <trkpt lat="45.63706" lon="4.64109">
        <ele>470</ele>
        <time>2017-02-25T09:35:51Z</time>
      </trkpt>
      <trkpt lat="45.6371" lon="4.64114">
        <ele>470</ele>
        <time>2017-02-25T09:35:52Z</time>
      </trkpt>
      <trkpt lat="45.63715" lon="4.6412">
        <ele>471</ele>
        <time>2017-02-25T09:35:53Z</time>
      </trkpt>
      <trkpt lat="45.63719" lon="4.64126">
        <ele>471</ele>
        <time>2017-02-25T09:35:54Z</time>
      </trkpt>
      <trkpt lat="45.63722" lon="4.64133">
        <ele>472</ele>
        <time>2017-02-25T09:35:55Z</time>
      </trkpt>
      <trkpt lat="45.63725" lon="4.64139">
        <ele>472</ele>
        <time>2017-02-25T09:35:56Z</time>
      </trkpt>
      <trkpt lat="45.63728" lon="4.64147">
        <ele>473</ele>
        <time>2017-02-25T09:35:57Z</time>
      </trkpt>
      <trkpt lat="45.63731" lon="4.6416">
        <ele>474</ele>
        <time>2017-02-25T09:35:59Z</time>
      </trkpt>
      <trkpt lat="45.63732" lon="4.64167">
        <ele>475</ele>
        <time>2017-02-25T09:36:00Z</time>
      </trkpt>
      <trkpt lat="45.63734" lon="4.64173">
        <ele>476</ele>
        <time>2017-02-25T09:36:01Z</time>
      </trkpt>
      <trkpt lat="45.63738" lon="4.64181">
        <ele>476</ele>
        <time>2017-02-25T09:36:02Z</time>
      </trkpt>
      <trkpt lat="45.6374" lon="4.64187">
        <ele>477</ele>
        <time>2017-02-25T09:36:03Z</time>
      </trkpt>
      <trkpt lat="45.63743" lon="4.64193">
        <ele>477</ele>
        <time>2017-02-25T09:36:04Z</time>
      </trkpt>
      <trkpt lat="45.63748" lon="4.64202">
        <ele>478</ele>
        <time>2017-02-25T09:36:06Z</time>
      </trkpt>
      <trkpt lat="45.63751" lon="4.64211">
        <ele>478</ele>
        <time>2017-02-25T09:36:08Z</time>
      </trkpt>
      <trkpt lat="45.63756" lon="4.64213">
        <ele>478</ele>
        <time>2017-02-25T09:36:11Z</time>
      </trkpt>
      <trkpt lat="45.63761" lon="4.64214">
        <ele>478</ele>
        <time>2017-02-25T09:36:13Z</time>
      </trkpt>
      <trkpt lat="45.63767" lon="4.64207">
        <ele>479</ele>
        <time>2017-02-25T09:36:16Z</time>
      </trkpt>
      <trkpt lat="45.63772" lon="4.64202">
        <ele>479</ele>
        <time>2017-02-25T09:36:19Z</time>
      </trkpt>
      <trkpt lat="45.63775" lon="4.64197">
        <ele>479</ele>
        <time>2017-02-25T09:36:21Z</time>
      </trkpt>
      <trkpt lat="45.6378" lon="4.64196">
        <ele>479</ele>
        <time>2017-02-25T09:36:24Z</time>
      </trkpt>
      <trkpt lat="45.63785" lon="4.6419">
        <ele>480</ele>
        <time>2017-02-25T09:36:27Z</time>
      </trkpt>
      <trkpt lat="45.63789" lon="4.64185">
        <ele>480</ele>
        <time>2017-02-25T09:36:30Z</time>
      </trkpt>
      <trkpt lat="45.63793" lon="4.64179">
        <ele>480</ele>
        <time>2017-02-25T09:36:33Z</time>
      </trkpt>
      <trkpt lat="45.63797" lon="4.64174">
        <ele>480</ele>
        <time>2017-02-25T09:36:36Z</time>
      </trkpt>
      <trkpt lat="45.63802" lon="4.64169">
        <ele>479</ele>
        <time>2017-02-25T09:36:39Z</time>
      </trkpt>
      <trkpt lat="45.63805" lon="4.64163">
        <ele>479</ele>
        <time>2017-02-25T09:36:42Z</time>
      </trkpt>
      <trkpt lat="45.63808" lon="4.64158">
        <ele>479</ele>
        <time>2017-02-25T09:36:45Z</time>
      </trkpt>
      <trkpt lat="45.63812" lon="4.64152">
        <ele>480</ele>
        <time>2017-02-25T09:36:49Z</time>
      </trkpt>
      <trkpt lat="45.63813" lon="4.64144">
        <ele>480</ele>
        <time>2017-02-25T09:36:53Z</time>
      </trkpt>
      <trkpt lat="45.63817" lon="4.64139">
        <ele>480</ele>
        <time>2017-02-25T09:36:58Z</time>
      </trkpt>
      <trkpt lat="45.63819" lon="4.64133">
        <ele>481</ele>
        <time>2017-02-25T09:37:02Z</time>
      </trkpt>
      <trkpt lat="45.63821" lon="4.64128">
        <ele>482</ele>
        <time>2017-02-25T09:37:06Z</time>
      </trkpt>
      <trkpt lat="45.63824" lon="4.64121">
        <ele>483</ele>
        <time>2017-02-25T09:37:10Z</time>
      </trkpt>
      <trkpt lat="45.63826" lon="4.64115">
        <ele>484</ele>
        <time>2017-02-25T09:37:14Z</time>
      </trkpt>
      <trkpt lat="45.63828" lon="4.64108">
        <ele>485</ele>
        <time>2017-02-25T09:37:18Z</time>
      </trkpt>
      <trkpt lat="45.6383" lon="4.64102">
        <ele>486</ele>
        <time>2017-02-25T09:37:22Z</time>
      </trkpt>
      <trkpt lat="45.63833" lon="4.64095">
        <ele>488</ele>
        <time>2017-02-25T09:37:26Z</time>
      </trkpt>
      <trkpt lat="45.63834" lon="4.64088">
        <ele>489</ele>
        <time>2017-02-25T09:37:30Z</time>
      </trkpt>
      <trkpt lat="45.63836" lon="4.64081">
        <ele>489</ele>
        <time>2017-02-25T09:37:35Z</time>
      </trkpt>
      <trkpt lat="45.63836" lon="4.64078">
        <ele>485</ele>
        <time>2017-02-25T09:38:57Z</time>
      </trkpt>
      <trkpt lat="45.63839" lon="4.64071">
        <ele>486</ele>
        <time>2017-02-25T09:39:03Z</time>
      </trkpt>
      <trkpt lat="45.63841" lon="4.64063">
        <ele>486</ele>
        <time>2017-02-25T09:39:06Z</time>
      </trkpt>
      <trkpt lat="45.63842" lon="4.64055">
        <ele>487</ele>
        <time>2017-02-25T09:39:09Z</time>
      </trkpt>
      <trkpt lat="45.63843" lon="4.64046">
        <ele>487</ele>
        <time>2017-02-25T09:39:12Z</time>
      </trkpt>
      <trkpt lat="45.63844" lon="4.64039">
        <ele>488</ele>
        <time>2017-02-25T09:39:15Z</time>
      </trkpt>
      <trkpt lat="45.63844" lon="4.64031">
        <ele>488</ele>
        <time>2017-02-25T09:39:18Z</time>
      </trkpt>
      <trkpt lat="45.63845" lon="4.64024">
        <ele>488</ele>
        <time>2017-02-25T09:39:21Z</time>
      </trkpt>
      <trkpt lat="45.63846" lon="4.64017">
        <ele>489</ele>
        <time>2017-02-25T09:39:24Z</time>
      </trkpt>
      <trkpt lat="45.63849" lon="4.64011">
        <ele>489</ele>
        <time>2017-02-25T09:39:27Z</time>
      </trkpt>
      <trkpt lat="45.63852" lon="4.64003">
        <ele>490</ele>
        <time>2017-02-25T09:39:30Z</time>
      </trkpt>
      <trkpt lat="45.63855" lon="4.63995">
        <ele>492</ele>
        <time>2017-02-25T09:39:33Z</time>
      </trkpt>
      <trkpt lat="45.63859" lon="4.63988">
        <ele>493</ele>
        <time>2017-02-25T09:39:36Z</time>
      </trkpt>
      <trkpt lat="45.63863" lon="4.63981">
        <ele>494</ele>
        <time>2017-02-25T09:39:39Z</time>
      </trkpt>
      <trkpt lat="45.63866" lon="4.63973">
        <ele>495</ele>
        <time>2017-02-25T09:39:42Z</time>
      </trkpt>
      <trkpt lat="45.63868" lon="4.63966">
        <ele>496</ele>
        <time>2017-02-25T09:39:45Z</time>
      </trkpt>
      <trkpt lat="45.6387" lon="4.63958">
        <ele>496</ele>
        <time>2017-02-25T09:39:48Z</time>
      </trkpt>
      <trkpt lat="45.63872" lon="4.6395">
        <ele>496</ele>
        <time>2017-02-25T09:39:51Z</time>
      </trkpt>
      <trkpt lat="45.63873" lon="4.63942">
        <ele>496</ele>
        <time>2017-02-25T09:39:54Z</time>
      </trkpt>
      <trkpt lat="45.63874" lon="4.63935">
        <ele>497</ele>
        <time>2017-02-25T09:39:56Z</time>
      </trkpt>
      <trkpt lat="45.63875" lon="4.63928">
        <ele>498</ele>
        <time>2017-02-25T09:39:58Z</time>
      </trkpt>
      <trkpt lat="45.63878" lon="4.6392">
        <ele>498</ele>
        <time>2017-02-25T09:40:01Z</time>
      </trkpt>
      <trkpt lat="45.6388" lon="4.63912">
        <ele>499</ele>
        <time>2017-02-25T09:40:04Z</time>
      </trkpt>
      <trkpt lat="45.63882" lon="4.63904">
        <ele>499</ele>
        <time>2017-02-25T09:40:07Z</time>
      </trkpt>
      <trkpt lat="45.63884" lon="4.63896">
        <ele>499</ele>
        <time>2017-02-25T09:40:10Z</time>
      </trkpt>
      <trkpt lat="45.63886" lon="4.63888">
        <ele>498</ele>
        <time>2017-02-25T09:40:13Z</time>
      </trkpt>
      <trkpt lat="45.63888" lon="4.6388">
        <ele>498</ele>
        <time>2017-02-25T09:40:16Z</time>
      </trkpt>
      <trkpt lat="45.6389" lon="4.63871">
        <ele>498</ele>
        <time>2017-02-25T09:40:19Z</time>
      </trkpt>
      <trkpt lat="45.6389" lon="4.63862">
        <ele>498</ele>
        <time>2017-02-25T09:40:22Z</time>
      </trkpt>
      <trkpt lat="45.63891" lon="4.63856">
        <ele>498</ele>
        <time>2017-02-25T09:40:24Z</time>
      </trkpt>
      <trkpt lat="45.63892" lon="4.63846">
        <ele>498</ele>
        <time>2017-02-25T09:40:27Z</time>
      </trkpt>
      <trkpt lat="45.63893" lon="4.63838">
        <ele>499</ele>
        <time>2017-02-25T09:40:30Z</time>
      </trkpt>
      <trkpt lat="45.63894" lon="4.6383">
        <ele>499</ele>
        <time>2017-02-25T09:40:33Z</time>
      </trkpt>
      <trkpt lat="45.63896" lon="4.63822">
        <ele>500</ele>
        <time>2017-02-25T09:40:36Z</time>
      </trkpt>
      <trkpt lat="45.63897" lon="4.63815">
        <ele>500</ele>
        <time>2017-02-25T09:40:39Z</time>
      </trkpt>
      <trkpt lat="45.639" lon="4.63807">
        <ele>500</ele>
        <time>2017-02-25T09:40:42Z</time>
      </trkpt>
      <trkpt lat="45.63901" lon="4.63801">
        <ele>501</ele>
        <time>2017-02-25T09:40:44Z</time>
      </trkpt>
      <trkpt lat="45.63904" lon="4.63795">
        <ele>501</ele>
        <time>2017-02-25T09:40:46Z</time>
      </trkpt>
      <trkpt lat="45.63907" lon="4.6379">
        <ele>501</ele>
        <time>2017-02-25T09:40:48Z</time>
      </trkpt>
      <trkpt lat="45.63911" lon="4.63783">
        <ele>501</ele>
        <time>2017-02-25T09:40:51Z</time>
      </trkpt>
      <trkpt lat="45.63916" lon="4.63781">
        <ele>501</ele>
        <time>2017-02-25T09:40:53Z</time>
      </trkpt>
      <trkpt lat="45.6392" lon="4.63777">
        <ele>501</ele>
        <time>2017-02-25T09:40:55Z</time>
      </trkpt>
      <trkpt lat="45.63926" lon="4.63772">
        <ele>501</ele>
        <time>2017-02-25T09:40:58Z</time>
      </trkpt>
      <trkpt lat="45.63931" lon="4.6377">
        <ele>501</ele>
        <time>2017-02-25T09:41:01Z</time>
      </trkpt>
      <trkpt lat="45.63937" lon="4.63768">
        <ele>501</ele>
        <time>2017-02-25T09:41:04Z</time>
      </trkpt>
      <trkpt lat="45.63942" lon="4.63766">
        <ele>502</ele>
        <time>2017-02-25T09:41:07Z</time>
      </trkpt>
      <trkpt lat="45.63948" lon="4.63764">
        <ele>503</ele>
        <time>2017-02-25T09:41:10Z</time>
      </trkpt>
      <trkpt lat="45.63955" lon="4.63763">
        <ele>504</ele>
        <time>2017-02-25T09:41:13Z</time>
      </trkpt>
      <trkpt lat="45.63961" lon="4.63761">
        <ele>504</ele>
        <time>2017-02-25T09:41:16Z</time>
      </trkpt>
      <trkpt lat="45.63966" lon="4.63761">
        <ele>505</ele>
        <time>2017-02-25T09:41:18Z</time>
      </trkpt>
      <trkpt lat="45.63972" lon="4.63758">
        <ele>506</ele>
        <time>2017-02-25T09:41:21Z</time>
      </trkpt>
      <trkpt lat="45.63977" lon="4.63756">
        <ele>506</ele>
        <time>2017-02-25T09:41:24Z</time>
      </trkpt>
      <trkpt lat="45.63983" lon="4.63752">
        <ele>506</ele>
        <time>2017-02-25T09:41:27Z</time>
      </trkpt>
      <trkpt lat="45.63987" lon="4.63747">
        <ele>506</ele>
        <time>2017-02-25T09:41:30Z</time>
      </trkpt>
      <trkpt lat="45.63992" lon="4.6374">
        <ele>506</ele>
        <time>2017-02-25T09:41:33Z</time>
      </trkpt>
      <trkpt lat="45.63997" lon="4.63734">
        <ele>505</ele>
        <time>2017-02-25T09:41:36Z</time>
      </trkpt>
      <trkpt lat="45.64002" lon="4.63728">
        <ele>506</ele>
        <time>2017-02-25T09:41:39Z</time>
      </trkpt>
      <trkpt lat="45.64005" lon="4.63722">
        <ele>507</ele>
        <time>2017-02-25T09:41:42Z</time>
      </trkpt>
      <trkpt lat="45.64009" lon="4.63716">
        <ele>508</ele>
        <time>2017-02-25T09:41:45Z</time>
      </trkpt>
      <trkpt lat="45.64013" lon="4.63711">
        <ele>510</ele>
        <time>2017-02-25T09:41:48Z</time>
      </trkpt>
      <trkpt lat="45.64017" lon="4.63704">
        <ele>511</ele>
        <time>2017-02-25T09:41:51Z</time>
      </trkpt>
      <trkpt lat="45.64021" lon="4.63697">
        <ele>512</ele>
        <time>2017-02-25T09:41:54Z</time>
      </trkpt>
      <trkpt lat="45.64024" lon="4.6369">
        <ele>512</ele>
        <time>2017-02-25T09:41:57Z</time>
      </trkpt>
      <trkpt lat="45.64028" lon="4.63684">
        <ele>513</ele>
        <time>2017-02-25T09:42:00Z</time>
      </trkpt>
      <trkpt lat="45.64032" lon="4.63679">
        <ele>514</ele>
        <time>2017-02-25T09:42:03Z</time>
      </trkpt>
      <trkpt lat="45.64037" lon="4.63672">
        <ele>513</ele>
        <time>2017-02-25T09:42:06Z</time>
      </trkpt>
      <trkpt lat="45.64042" lon="4.63666">
        <ele>513</ele>
        <time>2017-02-25T09:42:08Z</time>
      </trkpt>
      <trkpt lat="45.64046" lon="4.63658">
        <ele>512</ele>
        <time>2017-02-25T09:42:10Z</time>
      </trkpt>
      <trkpt lat="45.6405" lon="4.63651">
        <ele>511</ele>
        <time>2017-02-25T09:42:12Z</time>
      </trkpt>
      <trkpt lat="45.64054" lon="4.63646">
        <ele>509</ele>
        <time>2017-02-25T09:42:14Z</time>
      </trkpt>
      <trkpt lat="45.64057" lon="4.6364">
        <ele>509</ele>
        <time>2017-02-25T09:42:16Z</time>
      </trkpt>
      <trkpt lat="45.64061" lon="4.63634">
        <ele>509</ele>
        <time>2017-02-25T09:42:18Z</time>
      </trkpt>
      <trkpt lat="45.64064" lon="4.63627">
        <ele>509</ele>
        <time>2017-02-25T09:42:20Z</time>
      </trkpt>
      <trkpt lat="45.64068" lon="4.63621">
        <ele>508</ele>
        <time>2017-02-25T09:42:22Z</time>
      </trkpt>
      <trkpt lat="45.64071" lon="4.63615">
        <ele>508</ele>
        <time>2017-02-25T09:42:25Z</time>
      </trkpt>
      <trkpt lat="45.64074" lon="4.63609">
        <ele>508</ele>
        <time>2017-02-25T09:42:29Z</time>
      </trkpt>
      <trkpt lat="45.64079" lon="4.63601">
        <ele>507</ele>
        <time>2017-02-25T09:42:32Z</time>
      </trkpt>
      <trkpt lat="45.64082" lon="4.63597">
        <ele>506</ele>
        <time>2017-02-25T09:42:34Z</time>
      </trkpt>
      <trkpt lat="45.64086" lon="4.63592">
        <ele>505</ele>
        <time>2017-02-25T09:42:36Z</time>
      </trkpt>
      <trkpt lat="45.64092" lon="4.63591">
        <ele>505</ele>
        <time>2017-02-25T09:42:39Z</time>
      </trkpt>
      <trkpt lat="45.64097" lon="4.63594">
        <ele>505</ele>
        <time>2017-02-25T09:42:42Z</time>
      </trkpt>
      <trkpt lat="45.641" lon="4.63599">
        <ele>505</ele>
        <time>2017-02-25T09:42:45Z</time>
      </trkpt>
      <trkpt lat="45.64103" lon="4.63607">
        <ele>506</ele>
        <time>2017-02-25T09:42:48Z</time>
      </trkpt>
      <trkpt lat="45.64106" lon="4.63614">
        <ele>506</ele>
        <time>2017-02-25T09:42:51Z</time>
      </trkpt>
      <trkpt lat="45.64107" lon="4.63622">
        <ele>507</ele>
        <time>2017-02-25T09:42:54Z</time>
      </trkpt>
      <trkpt lat="45.64108" lon="4.63628">
        <ele>508</ele>
        <time>2017-02-25T09:42:57Z</time>
      </trkpt>
      <trkpt lat="45.64107" lon="4.63635">
        <ele>509</ele>
        <time>2017-02-25T09:43:00Z</time>
      </trkpt>
      <trkpt lat="45.64106" lon="4.63642">
        <ele>509</ele>
        <time>2017-02-25T09:43:04Z</time>
      </trkpt>
      <trkpt lat="45.64107" lon="4.63649">
        <ele>510</ele>
        <time>2017-02-25T09:43:08Z</time>
      </trkpt>
      <trkpt lat="45.64108" lon="4.63656">
        <ele>510</ele>
        <time>2017-02-25T09:43:11Z</time>
      </trkpt>
      <trkpt lat="45.64108" lon="4.63664">
        <ele>511</ele>
        <time>2017-02-25T09:43:15Z</time>
      </trkpt>
      <trkpt lat="45.64109" lon="4.63671">
        <ele>512</ele>
        <time>2017-02-25T09:43:18Z</time>
      </trkpt>
      <trkpt lat="45.64109" lon="4.63678">
        <ele>513</ele>
        <time>2017-02-25T09:43:21Z</time>
      </trkpt>
      <trkpt lat="45.6411" lon="4.63685">
        <ele>514</ele>
        <time>2017-02-25T09:43:24Z</time>
      </trkpt>
      <trkpt lat="45.64111" lon="4.63692">
        <ele>515</ele>
        <time>2017-02-25T09:43:28Z</time>
      </trkpt>
      <trkpt lat="45.64114" lon="4.63698">
        <ele>515</ele>
        <time>2017-02-25T09:43:32Z</time>
      </trkpt>
      <trkpt lat="45.6412" lon="4.63699">
        <ele>515</ele>
        <time>2017-02-25T09:43:35Z</time>
      </trkpt>
      <trkpt lat="45.64125" lon="4.63699">
        <ele>515</ele>
        <time>2017-02-25T09:43:38Z</time>
      </trkpt>
      <trkpt lat="45.64131" lon="4.63701">
        <ele>514</ele>
        <time>2017-02-25T09:43:41Z</time>
      </trkpt>
      <trkpt lat="45.64135" lon="4.63705">
        <ele>513</ele>
        <time>2017-02-25T09:43:43Z</time>
      </trkpt>
      <trkpt lat="45.64138" lon="4.63711">
        <ele>513</ele>
        <time>2017-02-25T09:43:46Z</time>
      </trkpt>
      <trkpt lat="45.64136" lon="4.63718">
        <ele>512</ele>
        <time>2017-02-25T09:43:49Z</time>
      </trkpt>
      <trkpt lat="45.64133" lon="4.63725">
        <ele>512</ele>
        <time>2017-02-25T09:43:52Z</time>
      </trkpt>
      <trkpt lat="45.64131" lon="4.63732">
        <ele>514</ele>
        <time>2017-02-25T09:43:55Z</time>
      </trkpt>
      <trkpt lat="45.64129" lon="4.6374">
        <ele>516</ele>
        <time>2017-02-25T09:43:59Z</time>
      </trkpt>
      <trkpt lat="45.64128" lon="4.63746">
        <ele>517</ele>
        <time>2017-02-25T09:44:02Z</time>
      </trkpt>
      <trkpt lat="45.64125" lon="4.63753">
        <ele>517</ele>
        <time>2017-02-25T09:44:05Z</time>
      </trkpt>
      <trkpt lat="45.64124" lon="4.63761">
        <ele>518</ele>
        <time>2017-02-25T09:44:08Z</time>
      </trkpt>
      <trkpt lat="45.64123" lon="4.63768">
        <ele>517</ele>
        <time>2017-02-25T09:44:11Z</time>
      </trkpt>
      <trkpt lat="45.64121" lon="4.63775">
        <ele>517</ele>
        <time>2017-02-25T09:44:14Z</time>
      </trkpt>
      <trkpt lat="45.6412" lon="4.63782">
        <ele>517</ele>
        <time>2017-02-25T09:44:17Z</time>
      </trkpt>
      <trkpt lat="45.64119" lon="4.6379">
        <ele>516</ele>
        <time>2017-02-25T09:44:20Z</time>
      </trkpt>
      <trkpt lat="45.64117" lon="4.63797">
        <ele>516</ele>
        <time>2017-02-25T09:44:23Z</time>
      </trkpt>
      <trkpt lat="45.64116" lon="4.63804">
        <ele>515</ele>
        <time>2017-02-25T09:44:26Z</time>
      </trkpt>
      <trkpt lat="45.64114" lon="4.63812">
        <ele>515</ele>
        <time>2017-02-25T09:44:30Z</time>
      </trkpt>
      <trkpt lat="45.64114" lon="4.63819">
        <ele>514</ele>
        <time>2017-02-25T09:44:33Z</time>
      </trkpt>
      <trkpt lat="45.64114" lon="4.63826">
        <ele>513</ele>
        <time>2017-02-25T09:44:36Z</time>
      </trkpt>
      <trkpt lat="45.64115" lon="4.63833">
        <ele>513</ele>
        <time>2017-02-25T09:44:39Z</time>
      </trkpt>
      <trkpt lat="45.64117" lon="4.63841">
        <ele>513</ele>
        <time>2017-02-25T09:44:43Z</time>
      </trkpt>
      <trkpt lat="45.64118" lon="4.63849">
        <ele>514</ele>
        <time>2017-02-25T09:44:46Z</time>
      </trkpt>
      <trkpt lat="45.64119" lon="4.63857">
        <ele>516</ele>
        <time>2017-02-25T09:44:50Z</time>
      </trkpt>
      <trkpt lat="45.64121" lon="4.63863">
        <ele>518</ele>
        <time>2017-02-25T09:44:53Z</time>
      </trkpt>
      <trkpt lat="45.64121" lon="4.63871">
        <ele>521</ele>
        <time>2017-02-25T09:44:56Z</time>
      </trkpt>
      <trkpt lat="45.64123" lon="4.63877">
        <ele>522</ele>
        <time>2017-02-25T09:44:59Z</time>
      </trkpt>
      <trkpt lat="45.64125" lon="4.63883">
        <ele>524</ele>
        <time>2017-02-25T09:45:02Z</time>
      </trkpt>
      <trkpt lat="45.64125" lon="4.63891">
        <ele>524</ele>
        <time>2017-02-25T09:45:06Z</time>
      </trkpt>
      <trkpt lat="45.64126" lon="4.63899">
        <ele>525</ele>
        <time>2017-02-25T09:45:09Z</time>
      </trkpt>
      <trkpt lat="45.64127" lon="4.63907">
        <ele>526</ele>
        <time>2017-02-25T09:45:13Z</time>
      </trkpt>
      <trkpt lat="45.64126" lon="4.63913">
        <ele>526</ele>
        <time>2017-02-25T09:45:17Z</time>
      </trkpt>
      <trkpt lat="45.64126" lon="4.6392">
        <ele>527</ele>
        <time>2017-02-25T09:45:21Z</time>
      </trkpt>
      <trkpt lat="45.6413" lon="4.63921">
        <ele>527</ele>
        <time>2017-02-25T09:45:35Z</time>
      </trkpt>
      <trkpt lat="45.64133" lon="4.63919">
        <ele>528</ele>
        <time>2017-02-25T09:45:54Z</time>
      </trkpt>
      <trkpt lat="45.64133" lon="4.63919">
        <ele>528</ele>
        <time>2017-02-25T09:45:56Z</time>
      </trkpt>
      <trkpt lat="45.64133" lon="4.63919">
        <ele>529</ele>
        <time>2017-02-25T09:46:24Z</time>
      </trkpt>
      <trkpt lat="45.64133" lon="4.63919">
        <ele>530</ele>
        <time>2017-02-25T09:46:27Z</time>
      </trkpt>
      <trkpt lat="45.64133" lon="4.63919">
        <ele>530</ele>
        <time>2017-02-25T09:46:54Z</time>
      </trkpt>
      <trkpt lat="45.64133" lon="4.63919">
        <ele>530</ele>
        <time>2017-02-25T09:46:57Z</time>
      </trkpt>
      <trkpt lat="45.64134" lon="4.63913">
        <ele>531</ele>
        <time>2017-02-25T09:47:15Z</time>
      </trkpt>
      <trkpt lat="45.64135" lon="4.63906">
        <ele>530</ele>
        <time>2017-02-25T09:47:18Z</time>
      </trkpt>
      <trkpt lat="45.64137" lon="4.63898">
        <ele>530</ele>
        <time>2017-02-25T09:47:21Z</time>
      </trkpt>
      <trkpt lat="45.6414" lon="4.63891">
        <ele>530</ele>
        <time>2017-02-25T09:47:25Z</time>
      </trkpt>
      <trkpt lat="45.64143" lon="4.63886">
        <ele>530</ele>
        <time>2017-02-25T09:47:29Z</time>
      </trkpt>
      <trkpt lat="45.64146" lon="4.6388">
        <ele>530</ele>
        <time>2017-02-25T09:47:34Z</time>
      </trkpt>
      <trkpt lat="45.64149" lon="4.63872">
        <ele>530</ele>
        <time>2017-02-25T09:47:38Z</time>
      </trkpt>
      <trkpt lat="45.64152" lon="4.63867">
        <ele>530</ele>
        <time>2017-02-25T09:47:41Z</time>
      </trkpt>
      <trkpt lat="45.64155" lon="4.63861">
        <ele>530</ele>
        <time>2017-02-25T09:47:44Z</time>
      </trkpt>
      <trkpt lat="45.64158" lon="4.63856">
        <ele>530</ele>
        <time>2017-02-25T09:47:47Z</time>
      </trkpt>
      <trkpt lat="45.64161" lon="4.6385">
        <ele>530</ele>
        <time>2017-02-25T09:47:50Z</time>
      </trkpt>
      <trkpt lat="45.64165" lon="4.63844">
        <ele>531</ele>
        <time>2017-02-25T09:47:54Z</time>
      </trkpt>
      <trkpt lat="45.64169" lon="4.63838">
        <ele>531</ele>
        <time>2017-02-25T09:47:58Z</time>
      </trkpt>
      <trkpt lat="45.64172" lon="4.63833">
        <ele>532</ele>
        <time>2017-02-25T09:48:02Z</time>
      </trkpt>
      <trkpt lat="45.64177" lon="4.63836">
        <ele>532</ele>
        <time>2017-02-25T09:48:13Z</time>
      </trkpt>
      <trkpt lat="45.6418" lon="4.63842">
        <ele>532</ele>
        <time>2017-02-25T09:48:20Z</time>
      </trkpt>
      <trkpt lat="45.64182" lon="4.63847">
        <ele>532</ele>
        <time>2017-02-25T09:48:39Z</time>
      </trkpt>
      <trkpt lat="45.64182" lon="4.6385">
        <ele>532</ele>
        <time>2017-02-25T09:48:42Z</time>
      </trkpt>
      <trkpt lat="45.64182" lon="4.63858">
        <ele>532</ele>
        <time>2017-02-25T09:48:45Z</time>
      </trkpt>
      <trkpt lat="45.64183" lon="4.63865">
        <ele>533</ele>
        <time>2017-02-25T09:48:48Z</time>
      </trkpt>
      <trkpt lat="45.64183" lon="4.63874">
        <ele>532</ele>
        <time>2017-02-25T09:48:52Z</time>
      </trkpt>
      <trkpt lat="45.64184" lon="4.63881">
        <ele>532</ele>
        <time>2017-02-25T09:48:55Z</time>
      </trkpt>
      <trkpt lat="45.64185" lon="4.63889">
        <ele>532</ele>
        <time>2017-02-25T09:48:58Z</time>
      </trkpt>
      <trkpt lat="45.64185" lon="4.63896">
        <ele>531</ele>
        <time>2017-02-25T09:49:01Z</time>
      </trkpt>
      <trkpt lat="45.64184" lon="4.63904">
        <ele>531</ele>
        <time>2017-02-25T09:49:04Z</time>
      </trkpt>
      <trkpt lat="45.64185" lon="4.63911">
        <ele>532</ele>
        <time>2017-02-25T09:49:07Z</time>
      </trkpt>
      <trkpt lat="45.64188" lon="4.63917">
        <ele>532</ele>
        <time>2017-02-25T09:49:10Z</time>
      </trkpt>
      <trkpt lat="45.6419" lon="4.63924">
        <ele>534</ele>
        <time>2017-02-25T09:49:13Z</time>
      </trkpt>
      <trkpt lat="45.64193" lon="4.63929">
        <ele>536</ele>
        <time>2017-02-25T09:49:16Z</time>
      </trkpt>
      <trkpt lat="45.64197" lon="4.63934">
        <ele>537</ele>
        <time>2017-02-25T09:49:19Z</time>
      </trkpt>
      <trkpt lat="45.642" lon="4.6394">
        <ele>538</ele>
        <time>2017-02-25T09:49:22Z</time>
      </trkpt>
      <trkpt lat="45.64206" lon="4.63944">
        <ele>540</ele>
        <time>2017-02-25T09:49:26Z</time>
      </trkpt>
      <trkpt lat="45.6421" lon="4.63948">
        <ele>542</ele>
        <time>2017-02-25T09:49:30Z</time>
      </trkpt>
      <trkpt lat="45.64214" lon="4.63952">
        <ele>542</ele>
        <time>2017-02-25T09:49:34Z</time>
      </trkpt>
      <trkpt lat="45.64218" lon="4.63955">
        <ele>544</ele>
        <time>2017-02-25T09:49:38Z</time>
      </trkpt>
      <trkpt lat="45.64223" lon="4.63959">
        <ele>544</ele>
        <time>2017-02-25T09:49:42Z</time>
      </trkpt>
      <trkpt lat="45.64228" lon="4.63961">
        <ele>544</ele>
        <time>2017-02-25T09:49:46Z</time>
      </trkpt>
      <trkpt lat="45.64229" lon="4.63962">
        <ele>544</ele>
        <time>2017-02-25T09:50:09Z</time>
      </trkpt>
      <trkpt lat="45.64229" lon="4.63962">
        <ele>544</ele>
        <time>2017-02-25T09:50:12Z</time>
      </trkpt>
      <trkpt lat="45.64229" lon="4.63962">
        <ele>544</ele>
        <time>2017-02-25T09:50:39Z</time>
      </trkpt>
      <trkpt lat="45.64228" lon="4.63962">
        <ele>544</ele>
        <time>2017-02-25T09:50:42Z</time>
      </trkpt>
      <trkpt lat="45.64228" lon="4.63963">
        <ele>544</ele>
        <time>2017-02-25T09:51:09Z</time>
      </trkpt>
      <trkpt lat="45.64228" lon="4.63963">
        <ele>544</ele>
        <time>2017-02-25T09:51:12Z</time>
      </trkpt>
      <trkpt lat="45.64234" lon="4.63964">
        <ele>544</ele>
        <time>2017-02-25T09:51:21Z</time>
      </trkpt>
      <trkpt lat="45.64239" lon="4.63966">
        <ele>544</ele>
        <time>2017-02-25T09:51:25Z</time>
      </trkpt>
      <trkpt lat="45.64245" lon="4.63968">
        <ele>545</ele>
        <time>2017-02-25T09:51:29Z</time>
      </trkpt>
      <trkpt lat="45.64249" lon="4.6397">
        <ele>546</ele>
        <time>2017-02-25T09:51:31Z</time>
      </trkpt>
      <trkpt lat="45.64254" lon="4.63972">
        <ele>546</ele>
        <time>2017-02-25T09:51:34Z</time>
      </trkpt>
      <trkpt lat="45.64259" lon="4.63974">
        <ele>547</ele>
        <time>2017-02-25T09:51:37Z</time>
      </trkpt>
      <trkpt lat="45.64264" lon="4.63974">
        <ele>547</ele>
        <time>2017-02-25T09:51:40Z</time>
      </trkpt>
      <trkpt lat="45.64269" lon="4.63975">
        <ele>548</ele>
        <time>2017-02-25T09:51:43Z</time>
      </trkpt>
      <trkpt lat="45.64274" lon="4.63976">
        <ele>547</ele>
        <time>2017-02-25T09:51:46Z</time>
      </trkpt>
      <trkpt lat="45.64279" lon="4.63977">
        <ele>547</ele>
        <time>2017-02-25T09:51:49Z</time>
      </trkpt>
      <trkpt lat="45.64284" lon="4.63978">
        <ele>547</ele>
        <time>2017-02-25T09:51:52Z</time>
      </trkpt>
      <trkpt lat="45.6429" lon="4.6398">
        <ele>547</ele>
        <time>2017-02-25T09:51:55Z</time>
      </trkpt>
      <trkpt lat="45.64296" lon="4.63981">
        <ele>547</ele>
        <time>2017-02-25T09:51:58Z</time>
      </trkpt>
      <trkpt lat="45.64301" lon="4.63982">
        <ele>548</ele>
        <time>2017-02-25T09:52:01Z</time>
      </trkpt>
      <trkpt lat="45.64307" lon="4.63982">
        <ele>548</ele>
        <time>2017-02-25T09:52:04Z</time>
      </trkpt>
      <trkpt lat="45.64312" lon="4.63983">
        <ele>548</ele>
        <time>2017-02-25T09:52:07Z</time>
      </trkpt>
      <trkpt lat="45.64317" lon="4.63982">
        <ele>548</ele>
        <time>2017-02-25T09:52:09Z</time>
      </trkpt>
      <trkpt lat="45.64324" lon="4.63983">
        <ele>549</ele>
        <time>2017-02-25T09:52:12Z</time>
      </trkpt>
      <trkpt lat="45.64328" lon="4.63984">
        <ele>549</ele>
        <time>2017-02-25T09:52:14Z</time>
      </trkpt>
      <trkpt lat="45.64333" lon="4.63985">
        <ele>549</ele>
        <time>2017-02-25T09:52:16Z</time>
      </trkpt>
      <trkpt lat="45.64338" lon="4.63986">
        <ele>549</ele>
        <time>2017-02-25T09:52:18Z</time>
      </trkpt>
      <trkpt lat="45.64343" lon="4.63986">
        <ele>549</ele>
        <time>2017-02-25T09:52:20Z</time>
      </trkpt>
      <trkpt lat="45.64348" lon="4.63987">
        <ele>548</ele>
        <time>2017-02-25T09:52:22Z</time>
      </trkpt>
      <trkpt lat="45.64353" lon="4.63988">
        <ele>548</ele>
        <time>2017-02-25T09:52:24Z</time>
      </trkpt>
      <trkpt lat="45.64359" lon="4.63989">
        <ele>548</ele>
        <time>2017-02-25T09:52:26Z</time>
      </trkpt>
      <trkpt lat="45.64364" lon="4.6399">
        <ele>547</ele>
        <time>2017-02-25T09:52:28Z</time>
      </trkpt>
      <trkpt lat="45.64369" lon="4.6399">
        <ele>547</ele>
        <time>2017-02-25T09:52:30Z</time>
      </trkpt>
      <trkpt lat="45.64375" lon="4.6399">
        <ele>547</ele>
        <time>2017-02-25T09:52:32Z</time>
      </trkpt>
      <trkpt lat="45.6438" lon="4.63991">
        <ele>547</ele>
        <time>2017-02-25T09:52:34Z</time>
      </trkpt>
      <trkpt lat="45.64386" lon="4.63991">
        <ele>547</ele>
        <time>2017-02-25T09:52:36Z</time>
      </trkpt>
      <trkpt lat="45.64391" lon="4.63992">
        <ele>547</ele>
        <time>2017-02-25T09:52:38Z</time>
      </trkpt>
      <trkpt lat="45.64398" lon="4.63992">
        <ele>548</ele>
        <time>2017-02-25T09:52:40Z</time>
      </trkpt>
      <trkpt lat="45.64406" lon="4.63992">
        <ele>547</ele>
        <time>2017-02-25T09:52:42Z</time>
      </trkpt>
      <trkpt lat="45.64413" lon="4.63993">
        <ele>547</ele>
        <time>2017-02-25T09:52:44Z</time>
      </trkpt>
      <trkpt lat="45.64421" lon="4.63994">
        <ele>547</ele>
        <time>2017-02-25T09:52:46Z</time>
      </trkpt>
      <trkpt lat="45.64428" lon="4.63996">
        <ele>546</ele>
        <time>2017-02-25T09:52:48Z</time>
      </trkpt>
      <trkpt lat="45.64435" lon="4.63998">
        <ele>546</ele>
        <time>2017-02-25T09:52:50Z</time>
      </trkpt>
      <trkpt lat="45.64442" lon="4.64">
        <ele>546</ele>
        <time>2017-02-25T09:52:52Z</time>
      </trkpt>
      <trkpt lat="45.6445" lon="4.64002">
        <ele>547</ele>
        <time>2017-02-25T09:52:54Z</time>
      </trkpt>
      <trkpt lat="45.64457" lon="4.64004">
        <ele>548</ele>
        <time>2017-02-25T09:52:56Z</time>
      </trkpt>
      <trkpt lat="45.64464" lon="4.64007">
        <ele>548</ele>
        <time>2017-02-25T09:52:58Z</time>
      </trkpt>
      <trkpt lat="45.6447" lon="4.6401">
        <ele>549</ele>
        <time>2017-02-25T09:53:00Z</time>
      </trkpt>
      <trkpt lat="45.64477" lon="4.64013">
        <ele>549</ele>
        <time>2017-02-25T09:53:02Z</time>
      </trkpt>
      <trkpt lat="45.64483" lon="4.64017">
        <ele>550</ele>
        <time>2017-02-25T09:53:04Z</time>
      </trkpt>
      <trkpt lat="45.64488" lon="4.64023">
        <ele>550</ele>
        <time>2017-02-25T09:53:06Z</time>
      </trkpt>
      <trkpt lat="45.64491" lon="4.6403">
        <ele>549</ele>
        <time>2017-02-25T09:53:08Z</time>
      </trkpt>
      <trkpt lat="45.64494" lon="4.64039">
        <ele>549</ele>
        <time>2017-02-25T09:53:10Z</time>
      </trkpt>
      <trkpt lat="45.64497" lon="4.64048">
        <ele>549</ele>
        <time>2017-02-25T09:53:12Z</time>
      </trkpt>
      <trkpt lat="45.64497" lon="4.64064">
        <ele>549</ele>
        <time>2017-02-25T09:53:14Z</time>
      </trkpt>
      <trkpt lat="45.64498" lon="4.64075">
        <ele>548</ele>
        <time>2017-02-25T09:53:16Z</time>
      </trkpt>
      <trkpt lat="45.64498" lon="4.64088">
        <ele>549</ele>
        <time>2017-02-25T09:53:18Z</time>
      </trkpt>
      <trkpt lat="45.64497" lon="4.64099">
        <ele>549</ele>
        <time>2017-02-25T09:53:20Z</time>
      </trkpt>
      <trkpt lat="45.64497" lon="4.64111">
        <ele>549</ele>
        <time>2017-02-25T09:53:22Z</time>
      </trkpt>
      <trkpt lat="45.64496" lon="4.64122">
        <ele>549</ele>
        <time>2017-02-25T09:53:24Z</time>
      </trkpt>
      <trkpt lat="45.64495" lon="4.64134">
        <ele>550</ele>
        <time>2017-02-25T09:53:26Z</time>
      </trkpt>
      <trkpt lat="45.64493" lon="4.64145">
        <ele>550</ele>
        <time>2017-02-25T09:53:28Z</time>
      </trkpt>
      <trkpt lat="45.64492" lon="4.64156">
        <ele>550</ele>
        <time>2017-02-25T09:53:30Z</time>
      </trkpt>
      <trkpt lat="45.64491" lon="4.64167">
        <ele>550</ele>
        <time>2017-02-25T09:53:32Z</time>
      </trkpt>
      <trkpt lat="45.6449" lon="4.64178">
        <ele>550</ele>
        <time>2017-02-25T09:53:34Z</time>
      </trkpt>
      <trkpt lat="45.64489" lon="4.64188">
        <ele>550</ele>
        <time>2017-02-25T09:53:36Z</time>
      </trkpt>
      <trkpt lat="45.64488" lon="4.64199">
        <ele>550</ele>
        <time>2017-02-25T09:53:38Z</time>
      </trkpt>
      <trkpt lat="45.64487" lon="4.6421">
        <ele>550</ele>
        <time>2017-02-25T09:53:40Z</time>
      </trkpt>
      <trkpt lat="45.64487" lon="4.6422">
        <ele>550</ele>
        <time>2017-02-25T09:53:42Z</time>
      </trkpt>
      <trkpt lat="45.64487" lon="4.6423">
        <ele>550</ele>
        <time>2017-02-25T09:53:44Z</time>
      </trkpt>
      <trkpt lat="45.64487" lon="4.6424">
        <ele>549</ele>
        <time>2017-02-25T09:53:46Z</time>
      </trkpt>
      <trkpt lat="45.64488" lon="4.64247">
        <ele>549</ele>
        <time>2017-02-25T09:53:48Z</time>
      </trkpt>
      <trkpt lat="45.64491" lon="4.64251">
        <ele>549</ele>
        <time>2017-02-25T09:53:50Z</time>
      </trkpt>
      <trkpt lat="45.64496" lon="4.64251">
        <ele>548</ele>
        <time>2017-02-25T09:53:52Z</time>
      </trkpt>
      <trkpt lat="45.64501" lon="4.64249">
        <ele>548</ele>
        <time>2017-02-25T09:53:54Z</time>
      </trkpt>
      <trkpt lat="45.64507" lon="4.64249">
        <ele>548</ele>
        <time>2017-02-25T09:53:56Z</time>
      </trkpt>
      <trkpt lat="45.64512" lon="4.64247">
        <ele>548</ele>
        <time>2017-02-25T09:53:58Z</time>
      </trkpt>
      <trkpt lat="45.64518" lon="4.64245">
        <ele>548</ele>
        <time>2017-02-25T09:54:00Z</time>
      </trkpt>
      <trkpt lat="45.64524" lon="4.64243">
        <ele>549</ele>
        <time>2017-02-25T09:54:02Z</time>
      </trkpt>
      <trkpt lat="45.6453" lon="4.64241">
        <ele>549</ele>
        <time>2017-02-25T09:54:04Z</time>
      </trkpt>
      <trkpt lat="45.64536" lon="4.64239">
        <ele>549</ele>
        <time>2017-02-25T09:54:06Z</time>
      </trkpt>
      <trkpt lat="45.64542" lon="4.64237">
        <ele>549</ele>
        <time>2017-02-25T09:54:08Z</time>
      </trkpt>
      <trkpt lat="45.64547" lon="4.64234">
        <ele>550</ele>
        <time>2017-02-25T09:54:10Z</time>
      </trkpt>
      <trkpt lat="45.64551" lon="4.64231">
        <ele>550</ele>
        <time>2017-02-25T09:54:12Z</time>
      </trkpt>
      <trkpt lat="45.64555" lon="4.64228">
        <ele>549</ele>
        <time>2017-02-25T09:54:14Z</time>
      </trkpt>
      <trkpt lat="45.6456" lon="4.64223">
        <ele>549</ele>
        <time>2017-02-25T09:54:17Z</time>
      </trkpt>
      <trkpt lat="45.64565" lon="4.64218">
        <ele>548</ele>
        <time>2017-02-25T09:54:20Z</time>
      </trkpt>
      <trkpt lat="45.64569" lon="4.64213">
        <ele>547</ele>
        <time>2017-02-25T09:54:23Z</time>
      </trkpt>
      <trkpt lat="45.64574" lon="4.64206">
        <ele>546</ele>
        <time>2017-02-25T09:54:26Z</time>
      </trkpt>
      <trkpt lat="45.64578" lon="4.642">
        <ele>545</ele>
        <time>2017-02-25T09:54:29Z</time>
      </trkpt>
      <trkpt lat="45.64581" lon="4.64193">
        <ele>545</ele>
        <time>2017-02-25T09:54:31Z</time>
      </trkpt>
      <trkpt lat="45.64584" lon="4.64186">
        <ele>544</ele>
        <time>2017-02-25T09:54:33Z</time>
      </trkpt>
      <trkpt lat="45.64587" lon="4.64179">
        <ele>543</ele>
        <time>2017-02-25T09:54:35Z</time>
      </trkpt>
      <trkpt lat="45.64591" lon="4.64171">
        <ele>542</ele>
        <time>2017-02-25T09:54:37Z</time>
      </trkpt>
      <trkpt lat="45.64595" lon="4.64162">
        <ele>542</ele>
        <time>2017-02-25T09:54:39Z</time>
      </trkpt>
      <trkpt lat="45.64599" lon="4.64153">
        <ele>541</ele>
        <time>2017-02-25T09:54:41Z</time>
      </trkpt>
      <trkpt lat="45.64604" lon="4.6414">
        <ele>540</ele>
        <time>2017-02-25T09:54:43Z</time>
      </trkpt>
      <trkpt lat="45.64606" lon="4.64134">
        <ele>538</ele>
        <time>2017-02-25T09:54:44Z</time>
      </trkpt>
      <trkpt lat="45.64609" lon="4.64128">
        <ele>538</ele>
        <time>2017-02-25T09:54:45Z</time>
      </trkpt>
      <trkpt lat="45.64612" lon="4.64123">
        <ele>537</ele>
        <time>2017-02-25T09:54:46Z</time>
      </trkpt>
      <trkpt lat="45.6462" lon="4.64117">
        <ele>536</ele>
        <time>2017-02-25T09:54:48Z</time>
      </trkpt>
      <trkpt lat="45.64624" lon="4.64116">
        <ele>536</ele>
        <time>2017-02-25T09:54:49Z</time>
      </trkpt>
      <trkpt lat="45.64632" lon="4.64118">
        <ele>536</ele>
        <time>2017-02-25T09:54:51Z</time>
      </trkpt>
      <trkpt lat="45.64639" lon="4.64123">
        <ele>537</ele>
        <time>2017-02-25T09:54:53Z</time>
      </trkpt>
      <trkpt lat="45.64645" lon="4.6413">
        <ele>536</ele>
        <time>2017-02-25T09:54:55Z</time>
      </trkpt>
      <trkpt lat="45.6465" lon="4.64137">
        <ele>536</ele>
        <time>2017-02-25T09:54:57Z</time>
      </trkpt>
      <trkpt lat="45.64657" lon="4.64143">
        <ele>536</ele>
        <time>2017-02-25T09:54:59Z</time>
      </trkpt>
      <trkpt lat="45.6466" lon="4.64148">
        <ele>535</ele>
        <time>2017-02-25T09:55:02Z</time>
      </trkpt>
      <trkpt lat="45.64666" lon="4.64153">
        <ele>535</ele>
        <time>2017-02-25T09:55:05Z</time>
      </trkpt>
      <trkpt lat="45.64672" lon="4.64157">
        <ele>535</ele>
        <time>2017-02-25T09:55:08Z</time>
      </trkpt>
      <trkpt lat="45.64679" lon="4.64157">
        <ele>536</ele>
        <time>2017-02-25T09:55:11Z</time>
      </trkpt>
      <trkpt lat="45.64684" lon="4.64157">
        <ele>536</ele>
        <time>2017-02-25T09:55:13Z</time>
      </trkpt>
      <trkpt lat="45.64689" lon="4.64158">
        <ele>536</ele>
        <time>2017-02-25T09:55:15Z</time>
      </trkpt>
      <trkpt lat="45.64694" lon="4.64156">
        <ele>536</ele>
        <time>2017-02-25T09:55:17Z</time>
      </trkpt>
      <trkpt lat="45.64698" lon="4.64154">
        <ele>536</ele>
        <time>2017-02-25T09:55:19Z</time>
      </trkpt>
      <trkpt lat="45.64703" lon="4.64152">
        <ele>536</ele>
        <time>2017-02-25T09:55:21Z</time>
      </trkpt>
      <trkpt lat="45.64707" lon="4.6415">
        <ele>536</ele>
        <time>2017-02-25T09:55:23Z</time>
      </trkpt>
      <trkpt lat="45.64711" lon="4.64148">
        <ele>537</ele>
        <time>2017-02-25T09:55:25Z</time>
      </trkpt>
      <trkpt lat="45.64716" lon="4.64145">
        <ele>537</ele>
        <time>2017-02-25T09:55:27Z</time>
      </trkpt>
      <trkpt lat="45.64722" lon="4.64142">
        <ele>537</ele>
        <time>2017-02-25T09:55:30Z</time>
      </trkpt>
      <trkpt lat="45.64727" lon="4.64138">
        <ele>536</ele>
        <time>2017-02-25T09:55:33Z</time>
      </trkpt>
      <trkpt lat="45.64733" lon="4.64136">
        <ele>536</ele>
        <time>2017-02-25T09:55:36Z</time>
      </trkpt>
      <trkpt lat="45.64739" lon="4.64134">
        <ele>536</ele>
        <time>2017-02-25T09:55:39Z</time>
      </trkpt>
      <trkpt lat="45.64745" lon="4.64133">
        <ele>536</ele>
        <time>2017-02-25T09:55:42Z</time>
      </trkpt>
      <trkpt lat="45.64751" lon="4.64129">
        <ele>536</ele>
        <time>2017-02-25T09:55:45Z</time>
      </trkpt>
      <trkpt lat="45.64757" lon="4.64126">
        <ele>536</ele>
        <time>2017-02-25T09:55:48Z</time>
      </trkpt>
      <trkpt lat="45.64763" lon="4.64124">
        <ele>537</ele>
        <time>2017-02-25T09:55:51Z</time>
      </trkpt>
      <trkpt lat="45.64768" lon="4.64121">
        <ele>537</ele>
        <time>2017-02-25T09:55:54Z</time>
      </trkpt>
      <trkpt lat="45.64774" lon="4.64119">
        <ele>537</ele>
        <time>2017-02-25T09:55:57Z</time>
      </trkpt>
      <trkpt lat="45.6478" lon="4.6412">
        <ele>538</ele>
        <time>2017-02-25T09:56:00Z</time>
      </trkpt>
      <trkpt lat="45.64786" lon="4.64121">
        <ele>538</ele>
        <time>2017-02-25T09:56:03Z</time>
      </trkpt>
      <trkpt lat="45.64837" lon="4.64175">
        <ele>537</ele>
        <time>2017-02-25T09:56:28Z</time>
      </trkpt>
      <trkpt lat="45.64841" lon="4.6417">
        <ele>535</ele>
        <time>2017-02-25T09:56:30Z</time>
      </trkpt>
      <trkpt lat="45.64845" lon="4.64167">
        <ele>535</ele>
        <time>2017-02-25T09:56:32Z</time>
      </trkpt>
      <trkpt lat="45.64851" lon="4.64164">
        <ele>534</ele>
        <time>2017-02-25T09:56:35Z</time>
      </trkpt>
      <trkpt lat="45.64855" lon="4.64167">
        <ele>533</ele>
        <time>2017-02-25T09:56:38Z</time>
      </trkpt>
      <trkpt lat="45.64859" lon="4.64171">
        <ele>534</ele>
        <time>2017-02-25T09:56:41Z</time>
      </trkpt>
      <trkpt lat="45.64861" lon="4.64178">
        <ele>537</ele>
        <time>2017-02-25T09:56:44Z</time>
      </trkpt>
      <trkpt lat="45.64864" lon="4.64185">
        <ele>538</ele>
        <time>2017-02-25T09:56:47Z</time>
      </trkpt>
      <trkpt lat="45.64867" lon="4.64192">
        <ele>540</ele>
        <time>2017-02-25T09:56:50Z</time>
      </trkpt>
      <trkpt lat="45.64871" lon="4.64199">
        <ele>541</ele>
        <time>2017-02-25T09:56:53Z</time>
      </trkpt>
      <trkpt lat="45.64875" lon="4.64206">
        <ele>543</ele>
        <time>2017-02-25T09:56:56Z</time>
      </trkpt>
      <trkpt lat="45.64877" lon="4.64214">
        <ele>544</ele>
        <time>2017-02-25T09:56:59Z</time>
      </trkpt>
      <trkpt lat="45.64878" lon="4.64222">
        <ele>545</ele>
        <time>2017-02-25T09:57:02Z</time>
      </trkpt>
      <trkpt lat="45.64881" lon="4.64229">
        <ele>546</ele>
        <time>2017-02-25T09:57:05Z</time>
      </trkpt>
      <trkpt lat="45.64883" lon="4.64236">
        <ele>546</ele>
        <time>2017-02-25T09:57:08Z</time>
      </trkpt>
      <trkpt lat="45.64886" lon="4.64242">
        <ele>546</ele>
        <time>2017-02-25T09:57:11Z</time>
      </trkpt>
      <trkpt lat="45.64891" lon="4.64246">
        <ele>546</ele>
        <time>2017-02-25T09:57:14Z</time>
      </trkpt>
      <trkpt lat="45.64896" lon="4.64248">
        <ele>545</ele>
        <time>2017-02-25T09:57:17Z</time>
      </trkpt>
      <trkpt lat="45.64903" lon="4.64249">
        <ele>546</ele>
        <time>2017-02-25T09:57:20Z</time>
      </trkpt>
      <trkpt lat="45.64909" lon="4.64249">
        <ele>546</ele>
        <time>2017-02-25T09:57:23Z</time>
      </trkpt>
      <trkpt lat="45.64916" lon="4.64247">
        <ele>547</ele>
        <time>2017-02-25T09:57:26Z</time>
      </trkpt>
      <trkpt lat="45.64922" lon="4.64245">
        <ele>548</ele>
        <time>2017-02-25T09:57:29Z</time>
      </trkpt>
      <trkpt lat="45.64927" lon="4.64244">
        <ele>549</ele>
        <time>2017-02-25T09:57:32Z</time>
      </trkpt>
      <trkpt lat="45.64933" lon="4.64242">
        <ele>550</ele>
        <time>2017-02-25T09:57:35Z</time>
      </trkpt>
      <trkpt lat="45.64938" lon="4.64241">
        <ele>550</ele>
        <time>2017-02-25T09:57:38Z</time>
      </trkpt>
      <trkpt lat="45.64941" lon="4.64244">
        <ele>551</ele>
        <time>2017-02-25T09:57:51Z</time>
      </trkpt>
      <trkpt lat="45.64941" lon="4.64244">
        <ele>551</ele>
        <time>2017-02-25T09:58:09Z</time>
      </trkpt>
      <trkpt lat="45.64941" lon="4.64244">
        <ele>552</ele>
        <time>2017-02-25T09:58:12Z</time>
      </trkpt>
      <trkpt lat="45.64941" lon="4.64244">
        <ele>552</ele>
        <time>2017-02-25T09:58:39Z</time>
      </trkpt>
      <trkpt lat="45.64941" lon="4.64244">
        <ele>553</ele>
        <time>2017-02-25T09:58:42Z</time>
      </trkpt>
      <trkpt lat="45.64941" lon="4.64244">
        <ele>553</ele>
        <time>2017-02-25T09:59:09Z</time>
      </trkpt>
      <trkpt lat="45.64941" lon="4.64244">
        <ele>553</ele>
        <time>2017-02-25T09:59:12Z</time>
      </trkpt>
      <trkpt lat="45.64943" lon="4.64247">
        <ele>553</ele>
        <time>2017-02-25T10:00:09Z</time>
      </trkpt>
      <trkpt lat="45.64947" lon="4.64253">
        <ele>552</ele>
        <time>2017-02-25T10:00:12Z</time>
      </trkpt>
      <trkpt lat="45.64952" lon="4.64262">
        <ele>552</ele>
        <time>2017-02-25T10:00:13Z</time>
      </trkpt>
      <trkpt lat="45.64955" lon="4.64267">
        <ele>551</ele>
        <time>2017-02-25T10:00:14Z</time>
      </trkpt>
      <trkpt lat="45.6496" lon="4.64275">
        <ele>551</ele>
        <time>2017-02-25T10:00:15Z</time>
      </trkpt>
      <trkpt lat="45.64963" lon="4.64281">
        <ele>550</ele>
        <time>2017-02-25T10:00:16Z</time>
      </trkpt>
      <trkpt lat="45.64967" lon="4.64289">
        <ele>550</ele>
        <time>2017-02-25T10:00:17Z</time>
      </trkpt>
      <trkpt lat="45.64971" lon="4.64296">
        <ele>549</ele>
        <time>2017-02-25T10:00:18Z</time>
      </trkpt>
      <trkpt lat="45.64974" lon="4.64304">
        <ele>549</ele>
        <time>2017-02-25T10:00:19Z</time>
      </trkpt>
      <trkpt lat="45.64978" lon="4.64312">
        <ele>550</ele>
        <time>2017-02-25T10:00:20Z</time>
      </trkpt>
      <trkpt lat="45.64983" lon="4.6432">
        <ele>549</ele>
        <time>2017-02-25T10:00:21Z</time>
      </trkpt>
      <trkpt lat="45.64988" lon="4.64331">
        <ele>549</ele>
        <time>2017-02-25T10:00:22Z</time>
      </trkpt>
      <trkpt lat="45.64992" lon="4.64341">
        <ele>549</ele>
        <time>2017-02-25T10:00:23Z</time>
      </trkpt>
      <trkpt lat="45.64997" lon="4.6435">
        <ele>549</ele>
        <time>2017-02-25T10:00:24Z</time>
      </trkpt>
      <trkpt lat="45.65004" lon="4.64361">
        <ele>548</ele>
        <time>2017-02-25T10:00:25Z</time>
      </trkpt>
      <trkpt lat="45.65009" lon="4.6437">
        <ele>548</ele>
        <time>2017-02-25T10:00:26Z</time>
      </trkpt>
      <trkpt lat="45.65014" lon="4.6438">
        <ele>547</ele>
        <time>2017-02-25T10:00:27Z</time>
      </trkpt>
      <trkpt lat="45.6502" lon="4.64389">
        <ele>547</ele>
        <time>2017-02-25T10:00:28Z</time>
      </trkpt>
      <trkpt lat="45.65027" lon="4.64398">
        <ele>546</ele>
        <time>2017-02-25T10:00:29Z</time>
      </trkpt>
      <trkpt lat="45.65033" lon="4.64407">
        <ele>546</ele>
        <time>2017-02-25T10:00:30Z</time>
      </trkpt>
      <trkpt lat="45.65038" lon="4.64415">
        <ele>546</ele>
        <time>2017-02-25T10:00:31Z</time>
      </trkpt>
      <trkpt lat="45.65043" lon="4.64422">
        <ele>546</ele>
        <time>2017-02-25T10:00:32Z</time>
      </trkpt>
      <trkpt lat="45.65047" lon="4.64429">
        <ele>547</ele>
        <time>2017-02-25T10:00:33Z</time>
      </trkpt>
      <trkpt lat="45.65051" lon="4.64436">
        <ele>547</ele>
        <time>2017-02-25T10:00:34Z</time>
      </trkpt>
      <trkpt lat="45.65054" lon="4.64443">
        <ele>547</ele>
        <time>2017-02-25T10:00:35Z</time>
      </trkpt>
      <trkpt lat="45.65057" lon="4.64455">
        <ele>547</ele>
        <time>2017-02-25T10:00:37Z</time>
      </trkpt>
      <trkpt lat="45.6506" lon="4.64462">
        <ele>547</ele>
        <time>2017-02-25T10:00:38Z</time>
      </trkpt>
      <trkpt lat="45.65063" lon="4.64468">
        <ele>547</ele>
        <time>2017-02-25T10:00:39Z</time>
      </trkpt>
      <trkpt lat="45.65068" lon="4.64476">
        <ele>547</ele>
        <time>2017-02-25T10:00:41Z</time>
      </trkpt>
      <trkpt lat="45.65071" lon="4.64482">
        <ele>546</ele>
        <time>2017-02-25T10:00:42Z</time>
      </trkpt>
      <trkpt lat="45.65073" lon="4.64487">
        <ele>546</ele>
        <time>2017-02-25T10:00:43Z</time>
      </trkpt>
      <trkpt lat="45.65076" lon="4.64493">
        <ele>545</ele>
        <time>2017-02-25T10:00:44Z</time>
      </trkpt>
      <trkpt lat="45.65079" lon="4.64499">
        <ele>545</ele>
        <time>2017-02-25T10:00:45Z</time>
      </trkpt>
      <trkpt lat="45.65082" lon="4.64506">
        <ele>545</ele>
        <time>2017-02-25T10:00:46Z</time>
      </trkpt>
      <trkpt lat="45.65085" lon="4.64512">
        <ele>545</ele>
        <time>2017-02-25T10:00:47Z</time>
      </trkpt>
      <trkpt lat="45.65087" lon="4.64519">
        <ele>544</ele>
        <time>2017-02-25T10:00:48Z</time>
      </trkpt>
      <trkpt lat="45.6509" lon="4.64526">
        <ele>543</ele>
        <time>2017-02-25T10:00:49Z</time>
      </trkpt>
      <trkpt lat="45.65093" lon="4.64532">
        <ele>542</ele>
        <time>2017-02-25T10:00:50Z</time>
      </trkpt>
      <trkpt lat="45.65096" lon="4.64538">
        <ele>541</ele>
        <time>2017-02-25T10:00:51Z</time>
      </trkpt>
      <trkpt lat="45.65099" lon="4.64544">
        <ele>541</ele>
        <time>2017-02-25T10:00:52Z</time>
      </trkpt>
      <trkpt lat="45.65102" lon="4.6455">
        <ele>540</ele>
        <time>2017-02-25T10:00:53Z</time>
      </trkpt>
      <trkpt lat="45.65105" lon="4.64556">
        <ele>540</ele>
        <time>2017-02-25T10:00:54Z</time>
      </trkpt>
      <trkpt lat="45.65109" lon="4.64561">
        <ele>540</ele>
        <time>2017-02-25T10:00:55Z</time>
      </trkpt>
      <trkpt lat="45.65111" lon="4.64567">
        <ele>541</ele>
        <time>2017-02-25T10:00:56Z</time>
      </trkpt>
      <trkpt lat="45.65117" lon="4.64577">
        <ele>541</ele>
        <time>2017-02-25T10:00:58Z</time>
      </trkpt>
      <trkpt lat="45.6512" lon="4.64583">
        <ele>541</ele>
        <time>2017-02-25T10:00:59Z</time>
      </trkpt>
      <trkpt lat="45.65124" lon="4.64594">
        <ele>540</ele>
        <time>2017-02-25T10:01:01Z</time>
      </trkpt>
      <trkpt lat="45.65126" lon="4.646">
        <ele>540</ele>
        <time>2017-02-25T10:01:02Z</time>
      </trkpt>
      <trkpt lat="45.65129" lon="4.64605">
        <ele>540</ele>
        <time>2017-02-25T10:01:03Z</time>
      </trkpt>
      <trkpt lat="45.65132" lon="4.6461">
        <ele>539</ele>
        <time>2017-02-25T10:01:04Z</time>
      </trkpt>
      <trkpt lat="45.65163" lon="4.64725">
        <ele>540</ele>
        <time>2017-02-25T10:01:27Z</time>
      </trkpt>
      <trkpt lat="45.65169" lon="4.64741">
        <ele>540</ele>
        <time>2017-02-25T10:01:29Z</time>
      </trkpt>
      <trkpt lat="45.65247" lon="4.64852">
        <ele>543</ele>
        <time>2017-02-25T10:01:57Z</time>
      </trkpt>
      <trkpt lat="45.65253" lon="4.64858">
        <ele>545</ele>
        <time>2017-02-25T10:01:58Z</time>
      </trkpt>
      <trkpt lat="45.6526" lon="4.64862">
        <ele>547</ele>
        <time>2017-02-25T10:02:00Z</time>
      </trkpt>
      <trkpt lat="45.65264" lon="4.64866">
        <ele>548</ele>
        <time>2017-02-25T10:02:02Z</time>
      </trkpt>
      <trkpt lat="45.6527" lon="4.64871">
        <ele>549</ele>
        <time>2017-02-25T10:02:04Z</time>
      </trkpt>
      <trkpt lat="45.65275" lon="4.64878">
        <ele>548</ele>
        <time>2017-02-25T10:02:06Z</time>
      </trkpt>
      <trkpt lat="45.65279" lon="4.64884">
        <ele>548</ele>
        <time>2017-02-25T10:02:08Z</time>
      </trkpt>
      <trkpt lat="45.65284" lon="4.6489">
        <ele>549</ele>
        <time>2017-02-25T10:02:10Z</time>
      </trkpt>
      <trkpt lat="45.65289" lon="4.64896">
        <ele>549</ele>
        <time>2017-02-25T10:02:12Z</time>
      </trkpt>
      <trkpt lat="45.65294" lon="4.64901">
        <ele>549</ele>
        <time>2017-02-25T10:02:14Z</time>
      </trkpt>
      <trkpt lat="45.65299" lon="4.64906">
        <ele>549</ele>
        <time>2017-02-25T10:02:16Z</time>
      </trkpt>
      <trkpt lat="45.65303" lon="4.64912">
        <ele>549</ele>
        <time>2017-02-25T10:02:18Z</time>
      </trkpt>
      <trkpt lat="45.65308" lon="4.64917">
        <ele>549</ele>
        <time>2017-02-25T10:02:20Z</time>
      </trkpt>
      <trkpt lat="45.65313" lon="4.64923">
        <ele>549</ele>
        <time>2017-02-25T10:02:22Z</time>
      </trkpt>
      <trkpt lat="45.65318" lon="4.64929">
        <ele>549</ele>
        <time>2017-02-25T10:02:24Z</time>
      </trkpt>
      <trkpt lat="45.65323" lon="4.64934">
        <ele>549</ele>
        <time>2017-02-25T10:02:26Z</time>
      </trkpt>
      <trkpt lat="45.65328" lon="4.64939">
        <ele>549</ele>
        <time>2017-02-25T10:02:28Z</time>
      </trkpt>
      <trkpt lat="45.65333" lon="4.64944">
        <ele>549</ele>
        <time>2017-02-25T10:02:30Z</time>
      </trkpt>
      <trkpt lat="45.65337" lon="4.6495">
        <ele>549</ele>
        <time>2017-02-25T10:02:32Z</time>
      </trkpt>
      <trkpt lat="45.65342" lon="4.64956">
        <ele>549</ele>
        <time>2017-02-25T10:02:34Z</time>
      </trkpt>
      <trkpt lat="45.65347" lon="4.64961">
        <ele>549</ele>
        <time>2017-02-25T10:02:36Z</time>
      </trkpt>
      <trkpt lat="45.65353" lon="4.64966">
        <ele>550</ele>
        <time>2017-02-25T10:02:38Z</time>
      </trkpt>
      <trkpt lat="45.65358" lon="4.6497">
        <ele>550</ele>
        <time>2017-02-25T10:02:40Z</time>
      </trkpt>
      <trkpt lat="45.65363" lon="4.64976">
        <ele>550</ele>
        <time>2017-02-25T10:02:42Z</time>
      </trkpt>
      <trkpt lat="45.65368" lon="4.64981">
        <ele>550</ele>
        <time>2017-02-25T10:02:44Z</time>
      </trkpt>
      <trkpt lat="45.65373" lon="4.64986">
        <ele>550</ele>
        <time>2017-02-25T10:02:46Z</time>
      </trkpt>
      <trkpt lat="45.65378" lon="4.64991">
        <ele>550</ele>
        <time>2017-02-25T10:02:48Z</time>
      </trkpt>
      <trkpt lat="45.65383" lon="4.64997">
        <ele>550</ele>
        <time>2017-02-25T10:02:50Z</time>
      </trkpt>
      <trkpt lat="45.65387" lon="4.65002">
        <ele>550</ele>
        <time>2017-02-25T10:02:52Z</time>
      </trkpt>
      <trkpt lat="45.65393" lon="4.65009">
        <ele>550</ele>
        <time>2017-02-25T10:02:54Z</time>
      </trkpt>
      <trkpt lat="45.65398" lon="4.65016">
        <ele>549</ele>
        <time>2017-02-25T10:02:56Z</time>
      </trkpt>
      <trkpt lat="45.65407" lon="4.65028">
        <ele>549</ele>
        <time>2017-02-25T10:02:58Z</time>
      </trkpt>
      <trkpt lat="45.65411" lon="4.65033">
        <ele>548</ele>
        <time>2017-02-25T10:02:59Z</time>
      </trkpt>
      <trkpt lat="45.65414" lon="4.65038">
        <ele>547</ele>
        <time>2017-02-25T10:03:00Z</time>
      </trkpt>
      <trkpt lat="45.65417" lon="4.65043">
        <ele>546</ele>
        <time>2017-02-25T10:03:01Z</time>
      </trkpt>
      <trkpt lat="45.65421" lon="4.65049">
        <ele>546</ele>
        <time>2017-02-25T10:03:02Z</time>
      </trkpt>
      <trkpt lat="45.65425" lon="4.65054">
        <ele>546</ele>
        <time>2017-02-25T10:03:03Z</time>
      </trkpt>
      <trkpt lat="45.65429" lon="4.6506">
        <ele>545</ele>
        <time>2017-02-25T10:03:04Z</time>
      </trkpt>
      <trkpt lat="45.65434" lon="4.65065">
        <ele>545</ele>
        <time>2017-02-25T10:03:05Z</time>
      </trkpt>
      <trkpt lat="45.65438" lon="4.6507">
        <ele>545</ele>
        <time>2017-02-25T10:03:06Z</time>
      </trkpt>
      <trkpt lat="45.65442" lon="4.65076">
        <ele>544</ele>
        <time>2017-02-25T10:03:07Z</time>
      </trkpt>
      <trkpt lat="45.65445" lon="4.65083">
        <ele>543</ele>
        <time>2017-02-25T10:03:08Z</time>
      </trkpt>
      <trkpt lat="45.6545" lon="4.6509">
        <ele>543</ele>
        <time>2017-02-25T10:03:09Z</time>
      </trkpt>
      <trkpt lat="45.65455" lon="4.65097">
        <ele>542</ele>
        <time>2017-02-25T10:03:10Z</time>
      </trkpt>
      <trkpt lat="45.65459" lon="4.65102">
        <ele>542</ele>
        <time>2017-02-25T10:03:11Z</time>
      </trkpt>
      <trkpt lat="45.65464" lon="4.65109">
        <ele>541</ele>
        <time>2017-02-25T10:03:12Z</time>
      </trkpt>
      <trkpt lat="45.65471" lon="4.65117">
        <ele>542</ele>
        <time>2017-02-25T10:03:13Z</time>
      </trkpt>
      <trkpt lat="45.65475" lon="4.65124">
        <ele>542</ele>
        <time>2017-02-25T10:03:14Z</time>
      </trkpt>
      <trkpt lat="45.65479" lon="4.65129">
        <ele>543</ele>
        <time>2017-02-25T10:03:15Z</time>
      </trkpt>
      <trkpt lat="45.65484" lon="4.65135">
        <ele>543</ele>
        <time>2017-02-25T10:03:16Z</time>
      </trkpt>
      <trkpt lat="45.65489" lon="4.65141">
        <ele>544</ele>
        <time>2017-02-25T10:03:17Z</time>
      </trkpt>
      <trkpt lat="45.65495" lon="4.65147">
        <ele>544</ele>
        <time>2017-02-25T10:03:18Z</time>
      </trkpt>
      <trkpt lat="45.65501" lon="4.65154">
        <ele>543</ele>
        <time>2017-02-25T10:03:19Z</time>
      </trkpt>
      <trkpt lat="45.65507" lon="4.65161">
        <ele>542</ele>
        <time>2017-02-25T10:03:20Z</time>
      </trkpt>
      <trkpt lat="45.65514" lon="4.65168">
        <ele>542</ele>
        <time>2017-02-25T10:03:21Z</time>
      </trkpt>
      <trkpt lat="45.6552" lon="4.65174">
        <ele>541</ele>
        <time>2017-02-25T10:03:22Z</time>
      </trkpt>
      <trkpt lat="45.65527" lon="4.6518">
        <ele>541</ele>
        <time>2017-02-25T10:03:23Z</time>
      </trkpt>
      <trkpt lat="45.65533" lon="4.65186">
        <ele>541</ele>
        <time>2017-02-25T10:03:24Z</time>
      </trkpt>
      <trkpt lat="45.65538" lon="4.65192">
        <ele>541</ele>
        <time>2017-02-25T10:03:25Z</time>
      </trkpt>
      <trkpt lat="45.65544" lon="4.65198">
        <ele>541</ele>
        <time>2017-02-25T10:03:26Z</time>
      </trkpt>
      <trkpt lat="45.65547" lon="4.65204">
        <ele>540</ele>
        <time>2017-02-25T10:03:27Z</time>
      </trkpt>
      <trkpt lat="45.6555" lon="4.65209">
        <ele>539</ele>
        <time>2017-02-25T10:03:28Z</time>
      </trkpt>
      <trkpt lat="45.65555" lon="4.65216">
        <ele>537</ele>
        <time>2017-02-25T10:03:30Z</time>
      </trkpt>
      <trkpt lat="45.65555" lon="4.65226">
        <ele>534</ele>
        <time>2017-02-25T10:03:32Z</time>
      </trkpt>
      <trkpt lat="45.65552" lon="4.65235">
        <ele>532</ele>
        <time>2017-02-25T10:03:34Z</time>
      </trkpt>
      <trkpt lat="45.65548" lon="4.65243">
        <ele>531</ele>
        <time>2017-02-25T10:03:36Z</time>
      </trkpt>
      <trkpt lat="45.65546" lon="4.65249">
        <ele>530</ele>
        <time>2017-02-25T10:03:38Z</time>
      </trkpt>
      <trkpt lat="45.65542" lon="4.65255">
        <ele>531</ele>
        <time>2017-02-25T10:03:40Z</time>
      </trkpt>
      <trkpt lat="45.65538" lon="4.6526">
        <ele>532</ele>
        <time>2017-02-25T10:03:42Z</time>
      </trkpt>
      <trkpt lat="45.65534" lon="4.65265">
        <ele>534</ele>
        <time>2017-02-25T10:03:44Z</time>
      </trkpt>
      <trkpt lat="45.65531" lon="4.6527">
        <ele>535</ele>
        <time>2017-02-25T10:03:46Z</time>
      </trkpt>
      <trkpt lat="45.65527" lon="4.65274">
        <ele>536</ele>
        <time>2017-02-25T10:03:48Z</time>
      </trkpt>
      <trkpt lat="45.65523" lon="4.65278">
        <ele>536</ele>
        <time>2017-02-25T10:03:50Z</time>
      </trkpt>
      <trkpt lat="45.65519" lon="4.65283">
        <ele>536</ele>
        <time>2017-02-25T10:03:52Z</time>
      </trkpt>
      <trkpt lat="45.65513" lon="4.65288">
        <ele>536</ele>
        <time>2017-02-25T10:03:55Z</time>
      </trkpt>
      <trkpt lat="45.65507" lon="4.65293">
        <ele>537</ele>
        <time>2017-02-25T10:03:58Z</time>
      </trkpt>
      <trkpt lat="45.65503" lon="4.65297">
        <ele>537</ele>
        <time>2017-02-25T10:04:00Z</time>
      </trkpt>
      <trkpt lat="45.65498" lon="4.653">
        <ele>538</ele>
        <time>2017-02-25T10:04:02Z</time>
      </trkpt>
      <trkpt lat="45.65495" lon="4.65304">
        <ele>538</ele>
        <time>2017-02-25T10:04:04Z</time>
      </trkpt>
      <trkpt lat="45.65491" lon="4.65309">
        <ele>539</ele>
        <time>2017-02-25T10:04:06Z</time>
      </trkpt>
      <trkpt lat="45.65487" lon="4.65314">
        <ele>540</ele>
        <time>2017-02-25T10:04:08Z</time>
      </trkpt>
      <trkpt lat="45.65484" lon="4.65319">
        <ele>540</ele>
        <time>2017-02-25T10:04:10Z</time>
      </trkpt>
      <trkpt lat="45.6548" lon="4.65323">
        <ele>540</ele>
        <time>2017-02-25T10:04:12Z</time>
      </trkpt>
      <trkpt lat="45.65476" lon="4.65329">
        <ele>540</ele>
        <time>2017-02-25T10:04:14Z</time>
      </trkpt>
      <trkpt lat="45.65473" lon="4.65335">
        <ele>540</ele>
        <time>2017-02-25T10:04:16Z</time>
      </trkpt>
      <trkpt lat="45.6547" lon="4.65341">
        <ele>540</ele>
        <time>2017-02-25T10:04:18Z</time>
      </trkpt>
      <trkpt lat="45.65468" lon="4.65348">
        <ele>540</ele>
        <time>2017-02-25T10:04:20Z</time>
      </trkpt>
      <trkpt lat="45.65466" lon="4.65356">
        <ele>541</ele>
        <time>2017-02-25T10:04:22Z</time>
      </trkpt>
      <trkpt lat="45.65464" lon="4.65363">
        <ele>541</ele>
        <time>2017-02-25T10:04:24Z</time>
      </trkpt>
      <trkpt lat="45.65462" lon="4.6537">
        <ele>541</ele>
        <time>2017-02-25T10:04:26Z</time>
      </trkpt>
      <trkpt lat="45.65459" lon="4.65376">
        <ele>541</ele>
        <time>2017-02-25T10:04:28Z</time>
      </trkpt>
      <trkpt lat="45.65455" lon="4.65383">
        <ele>541</ele>
        <time>2017-02-25T10:04:30Z</time>
      </trkpt>
      <trkpt lat="45.6545" lon="4.65389">
        <ele>540</ele>
        <time>2017-02-25T10:04:32Z</time>
      </trkpt>
      <trkpt lat="45.65442" lon="4.65391">
        <ele>538</ele>
        <time>2017-02-25T10:04:34Z</time>
      </trkpt>
      <trkpt lat="45.65435" lon="4.6539">
        <ele>537</ele>
        <time>2017-02-25T10:04:36Z</time>
      </trkpt>
      <trkpt lat="45.65429" lon="4.65387">
        <ele>537</ele>
        <time>2017-02-25T10:04:38Z</time>
      </trkpt>
      <trkpt lat="45.65422" lon="4.65387">
        <ele>536</ele>
        <time>2017-02-25T10:04:40Z</time>
      </trkpt>
      <trkpt lat="45.65416" lon="4.65384">
        <ele>536</ele>
        <time>2017-02-25T10:04:42Z</time>
      </trkpt>
      <trkpt lat="45.65408" lon="4.65374">
        <ele>536</ele>
        <time>2017-02-25T10:04:44Z</time>
      </trkpt>
      <trkpt lat="45.65404" lon="4.65371">
        <ele>535</ele>
        <time>2017-02-25T10:04:45Z</time>
      </trkpt>
      <trkpt lat="45.654" lon="4.65367">
        <ele>535</ele>
        <time>2017-02-25T10:04:46Z</time>
      </trkpt>
      <trkpt lat="45.65393" lon="4.6536">
        <ele>535</ele>
        <time>2017-02-25T10:04:48Z</time>
      </trkpt>
      <trkpt lat="45.65386" lon="4.65364">
        <ele>535</ele>
        <time>2017-02-25T10:04:49Z</time>
      </trkpt>
      <trkpt lat="45.65381" lon="4.65361">
        <ele>536</ele>
        <time>2017-02-25T10:04:50Z</time>
      </trkpt>
      <trkpt lat="45.65374" lon="4.65357">
        <ele>536</ele>
        <time>2017-02-25T10:04:52Z</time>
      </trkpt>
      <trkpt lat="45.65368" lon="4.65358">
        <ele>535</ele>
        <time>2017-02-25T10:04:55Z</time>
      </trkpt>
      <trkpt lat="45.65365" lon="4.65363">
        <ele>534</ele>
        <time>2017-02-25T10:04:57Z</time>
      </trkpt>
      <trkpt lat="45.65361" lon="4.65371">
        <ele>532</ele>
        <time>2017-02-25T10:04:59Z</time>
      </trkpt>
      <trkpt lat="45.6536" lon="4.65381">
        <ele>529</ele>
        <time>2017-02-25T10:05:01Z</time>
      </trkpt>
      <trkpt lat="45.65362" lon="4.6539">
        <ele>527</ele>
        <time>2017-02-25T10:05:03Z</time>
      </trkpt>
      <trkpt lat="45.6536" lon="4.65398">
        <ele>526</ele>
        <time>2017-02-25T10:05:05Z</time>
      </trkpt>
      <trkpt lat="45.65358" lon="4.65408">
        <ele>525</ele>
        <time>2017-02-25T10:05:07Z</time>
      </trkpt>
      <trkpt lat="45.65355" lon="4.65417">
        <ele>524</ele>
        <time>2017-02-25T10:05:09Z</time>
      </trkpt>
      <trkpt lat="45.65352" lon="4.65427">
        <ele>524</ele>
        <time>2017-02-25T10:05:11Z</time>
      </trkpt>
      <trkpt lat="45.65348" lon="4.65438">
        <ele>523</ele>
        <time>2017-02-25T10:05:13Z</time>
      </trkpt>
      <trkpt lat="45.65347" lon="4.65444">
        <ele>522</ele>
        <time>2017-02-25T10:05:14Z</time>
      </trkpt>
      <trkpt lat="45.65345" lon="4.65451">
        <ele>522</ele>
        <time>2017-02-25T10:05:15Z</time>
      </trkpt>
      <trkpt lat="45.65344" lon="4.65457">
        <ele>521</ele>
        <time>2017-02-25T10:05:16Z</time>
      </trkpt>
      <trkpt lat="45.65343" lon="4.65464">
        <ele>521</ele>
        <time>2017-02-25T10:05:17Z</time>
      </trkpt>
      <trkpt lat="45.65342" lon="4.65471">
        <ele>521</ele>
        <time>2017-02-25T10:05:18Z</time>
      </trkpt>
      <trkpt lat="45.6534" lon="4.65477">
        <ele>521</ele>
        <time>2017-02-25T10:05:19Z</time>
      </trkpt>
      <trkpt lat="45.65337" lon="4.65487">
        <ele>521</ele>
        <time>2017-02-25T10:05:20Z</time>
      </trkpt>
      <trkpt lat="45.65331" lon="4.65497">
        <ele>521</ele>
        <time>2017-02-25T10:05:22Z</time>
      </trkpt>
      <trkpt lat="45.65328" lon="4.65502">
        <ele>521</ele>
        <time>2017-02-25T10:05:23Z</time>
      </trkpt>
      <trkpt lat="45.65324" lon="4.65508">
        <ele>521</ele>
        <time>2017-02-25T10:05:25Z</time>
      </trkpt>
      <trkpt lat="45.6532" lon="4.65512">
        <ele>521</ele>
        <time>2017-02-25T10:05:26Z</time>
      </trkpt>
      <trkpt lat="45.65316" lon="4.65515">
        <ele>521</ele>
        <time>2017-02-25T10:05:28Z</time>
      </trkpt>
      <trkpt lat="45.6531" lon="4.65522">
        <ele>521</ele>
        <time>2017-02-25T10:05:30Z</time>
      </trkpt>
      <trkpt lat="45.65304" lon="4.65526">
        <ele>521</ele>
        <time>2017-02-25T10:05:32Z</time>
      </trkpt>
      <trkpt lat="45.65298" lon="4.65531">
        <ele>520</ele>
        <time>2017-02-25T10:05:34Z</time>
      </trkpt>
      <trkpt lat="45.65292" lon="4.65534">
        <ele>518</ele>
        <time>2017-02-25T10:05:36Z</time>
      </trkpt>
      <trkpt lat="45.65286" lon="4.65537">
        <ele>517</ele>
        <time>2017-02-25T10:05:38Z</time>
      </trkpt>
      <trkpt lat="45.65279" lon="4.65538">
        <ele>516</ele>
        <time>2017-02-25T10:05:40Z</time>
      </trkpt>
      <trkpt lat="45.65272" lon="4.65538">
        <ele>515</ele>
        <time>2017-02-25T10:05:42Z</time>
      </trkpt>
      <trkpt lat="45.65267" lon="4.65538">
        <ele>513</ele>
        <time>2017-02-25T10:05:43Z</time>
      </trkpt>
      <trkpt lat="45.65258" lon="4.65537">
        <ele>513</ele>
        <time>2017-02-25T10:05:44Z</time>
      </trkpt>
      <trkpt lat="45.65251" lon="4.65539">
        <ele>512</ele>
        <time>2017-02-25T10:05:45Z</time>
      </trkpt>
      <trkpt lat="45.65244" lon="4.6554">
        <ele>511</ele>
        <time>2017-02-25T10:05:46Z</time>
      </trkpt>
      <trkpt lat="45.65236" lon="4.65541">
        <ele>511</ele>
        <time>2017-02-25T10:05:47Z</time>
      </trkpt>
      <trkpt lat="45.6523" lon="4.65541">
        <ele>511</ele>
        <time>2017-02-25T10:05:48Z</time>
      </trkpt>
      <trkpt lat="45.65223" lon="4.65544">
        <ele>511</ele>
        <time>2017-02-25T10:05:49Z</time>
      </trkpt>
      <trkpt lat="45.65218" lon="4.65544">
        <ele>511</ele>
        <time>2017-02-25T10:05:50Z</time>
      </trkpt>
      <trkpt lat="45.65212" lon="4.65542">
        <ele>512</ele>
        <time>2017-02-25T10:05:52Z</time>
      </trkpt>
      <trkpt lat="45.65207" lon="4.65539">
        <ele>512</ele>
        <time>2017-02-25T10:05:54Z</time>
      </trkpt>
      <trkpt lat="45.65202" lon="4.65538">
        <ele>513</ele>
        <time>2017-02-25T10:05:55Z</time>
      </trkpt>
      <trkpt lat="45.65196" lon="4.65539">
        <ele>513</ele>
        <time>2017-02-25T10:05:56Z</time>
      </trkpt>
      <trkpt lat="45.6519" lon="4.65537">
        <ele>514</ele>
        <time>2017-02-25T10:05:58Z</time>
      </trkpt>
      <trkpt lat="45.65185" lon="4.65539">
        <ele>514</ele>
        <time>2017-02-25T10:05:59Z</time>
      </trkpt>
      <trkpt lat="45.65179" lon="4.65538">
        <ele>514</ele>
        <time>2017-02-25T10:06:01Z</time>
      </trkpt>
      <trkpt lat="45.65173" lon="4.65538">
        <ele>514</ele>
        <time>2017-02-25T10:06:03Z</time>
      </trkpt>
      <trkpt lat="45.65168" lon="4.65538">
        <ele>514</ele>
        <time>2017-02-25T10:06:05Z</time>
      </trkpt>
      <trkpt lat="45.65163" lon="4.65544">
        <ele>515</ele>
        <time>2017-02-25T10:06:08Z</time>
      </trkpt>
      <trkpt lat="45.65161" lon="4.65552">
        <ele>515</ele>
        <time>2017-02-25T10:06:11Z</time>
      </trkpt>
      <trkpt lat="45.65159" lon="4.6556">
        <ele>516</ele>
        <time>2017-02-25T10:06:14Z</time>
      </trkpt>
      <trkpt lat="45.65159" lon="4.65569">
        <ele>518</ele>
        <time>2017-02-25T10:06:17Z</time>
      </trkpt>
      <trkpt lat="45.65161" lon="4.65578">
        <ele>519</ele>
        <time>2017-02-25T10:06:20Z</time>
      </trkpt>
      <trkpt lat="45.65163" lon="4.65583">
        <ele>520</ele>
        <time>2017-02-25T10:06:22Z</time>
      </trkpt>
      <trkpt lat="45.65167" lon="4.65591">
        <ele>521</ele>
        <time>2017-02-25T10:06:25Z</time>
      </trkpt>
      <trkpt lat="45.6517" lon="4.65598">
        <ele>521</ele>
        <time>2017-02-25T10:06:28Z</time>
      </trkpt>
      <trkpt lat="45.65164" lon="4.65677">
        <ele>523</ele>
        <time>2017-02-25T10:06:58Z</time>
      </trkpt>
      <trkpt lat="45.65162" lon="4.65681">
        <ele>525</ele>
        <time>2017-02-25T10:07:00Z</time>
      </trkpt>
      <trkpt lat="45.65159" lon="4.65686">
        <ele>524</ele>
        <time>2017-02-25T10:07:03Z</time>
      </trkpt>
      <trkpt lat="45.65155" lon="4.65691">
        <ele>524</ele>
        <time>2017-02-25T10:07:06Z</time>
      </trkpt>
      <trkpt lat="45.65152" lon="4.65695">
        <ele>524</ele>
        <time>2017-02-25T10:07:09Z</time>
      </trkpt>
      <trkpt lat="45.65148" lon="4.65702">
        <ele>524</ele>
        <time>2017-02-25T10:07:13Z</time>
      </trkpt>
      <trkpt lat="45.65146" lon="4.65708">
        <ele>523</ele>
        <time>2017-02-25T10:07:16Z</time>
      </trkpt>
      <trkpt lat="45.65144" lon="4.65714">
        <ele>523</ele>
        <time>2017-02-25T10:07:19Z</time>
      </trkpt>
      <trkpt lat="45.65144" lon="4.65721">
        <ele>524</ele>
        <time>2017-02-25T10:07:22Z</time>
      </trkpt>
      <trkpt lat="45.65144" lon="4.65728">
        <ele>524</ele>
        <time>2017-02-25T10:07:25Z</time>
      </trkpt>
      <trkpt lat="45.65144" lon="4.65735">
        <ele>523</ele>
        <time>2017-02-25T10:07:28Z</time>
      </trkpt>
      <trkpt lat="45.65146" lon="4.65742">
        <ele>523</ele>
        <time>2017-02-25T10:07:31Z</time>
      </trkpt>
      <trkpt lat="45.65149" lon="4.65748">
        <ele>524</ele>
        <time>2017-02-25T10:07:34Z</time>
      </trkpt>
      <trkpt lat="45.65152" lon="4.65754">
        <ele>525</ele>
        <time>2017-02-25T10:07:37Z</time>
      </trkpt>
      <trkpt lat="45.65154" lon="4.6576">
        <ele>526</ele>
        <time>2017-02-25T10:07:40Z</time>
      </trkpt>
      <trkpt lat="45.65157" lon="4.65767">
        <ele>527</ele>
        <time>2017-02-25T10:07:44Z</time>
      </trkpt>
      <trkpt lat="45.65159" lon="4.65774">
        <ele>528</ele>
        <time>2017-02-25T10:07:47Z</time>
      </trkpt>
      <trkpt lat="45.6516" lon="4.65781">
        <ele>528</ele>
        <time>2017-02-25T10:07:50Z</time>
      </trkpt>
      <trkpt lat="45.65161" lon="4.65787">
        <ele>528</ele>
        <time>2017-02-25T10:07:53Z</time>
      </trkpt>
      <trkpt lat="45.65159" lon="4.65794">
        <ele>527</ele>
        <time>2017-02-25T10:07:56Z</time>
      </trkpt>
      <trkpt lat="45.65157" lon="4.65802">
        <ele>527</ele>
        <time>2017-02-25T10:08:00Z</time>
      </trkpt>
      <trkpt lat="45.65155" lon="4.6581">
        <ele>528</ele>
        <time>2017-02-25T10:08:03Z</time>
      </trkpt>
      <trkpt lat="45.65152" lon="4.65816">
        <ele>527</ele>
        <time>2017-02-25T10:08:06Z</time>
      </trkpt>
      <trkpt lat="45.65149" lon="4.6582">
        <ele>527</ele>
        <time>2017-02-25T10:08:09Z</time>
      </trkpt>
      <trkpt lat="45.65149" lon="4.65821">
        <ele>527</ele>
        <time>2017-02-25T10:08:24Z</time>
      </trkpt>
      <trkpt lat="45.65149" lon="4.65821">
        <ele>527</ele>
        <time>2017-02-25T10:08:27Z</time>
      </trkpt>
      <trkpt lat="45.65147" lon="4.65824">
        <ele>526</ele>
        <time>2017-02-25T10:08:54Z</time>
      </trkpt>
      <trkpt lat="45.65145" lon="4.65826">
        <ele>526</ele>
        <time>2017-02-25T10:08:57Z</time>
      </trkpt>
      <trkpt lat="45.65141" lon="4.65831">
        <ele>525</ele>
        <time>2017-02-25T10:08:59Z</time>
      </trkpt>
      <trkpt lat="45.65136" lon="4.65836">
        <ele>525</ele>
        <time>2017-02-25T10:09:02Z</time>
      </trkpt>
      <trkpt lat="45.65131" lon="4.65842">
        <ele>525</ele>
        <time>2017-02-25T10:09:05Z</time>
      </trkpt>
      <trkpt lat="45.65128" lon="4.65846">
        <ele>525</ele>
        <time>2017-02-25T10:09:07Z</time>
      </trkpt>
      <trkpt lat="45.65124" lon="4.65851">
        <ele>525</ele>
        <time>2017-02-25T10:09:09Z</time>
      </trkpt>
      <trkpt lat="45.6512" lon="4.65855">
        <ele>525</ele>
        <time>2017-02-25T10:09:11Z</time>
      </trkpt>
      <trkpt lat="45.65115" lon="4.65862">
        <ele>525</ele>
        <time>2017-02-25T10:09:14Z</time>
      </trkpt>
      <trkpt lat="45.65112" lon="4.65868">
        <ele>525</ele>
        <time>2017-02-25T10:09:16Z</time>
      </trkpt>
      <trkpt lat="45.65109" lon="4.65874">
        <ele>525</ele>
        <time>2017-02-25T10:09:18Z</time>
      </trkpt>
      <trkpt lat="45.65105" lon="4.65879">
        <ele>525</ele>
        <time>2017-02-25T10:09:20Z</time>
      </trkpt>
      <trkpt lat="45.65101" lon="4.65884">
        <ele>525</ele>
        <time>2017-02-25T10:09:22Z</time>
      </trkpt>
      <trkpt lat="45.65097" lon="4.65889">
        <ele>526</ele>
        <time>2017-02-25T10:09:24Z</time>
      </trkpt>
      <trkpt lat="45.65093" lon="4.65894">
        <ele>526</ele>
        <time>2017-02-25T10:09:26Z</time>
      </trkpt>
      <trkpt lat="45.65089" lon="4.65898">
        <ele>526</ele>
        <time>2017-02-25T10:09:28Z</time>
      </trkpt>
      <trkpt lat="45.65085" lon="4.65903">
        <ele>526</ele>
        <time>2017-02-25T10:09:30Z</time>
      </trkpt>
      <trkpt lat="45.65082" lon="4.65908">
        <ele>526</ele>
        <time>2017-02-25T10:09:32Z</time>
      </trkpt>
      <trkpt lat="45.65078" lon="4.65913">
        <ele>526</ele>
        <time>2017-02-25T10:09:34Z</time>
      </trkpt>
      <trkpt lat="45.65075" lon="4.65917">
        <ele>525</ele>
        <time>2017-02-25T10:09:36Z</time>
      </trkpt>
      <trkpt lat="45.65072" lon="4.65922">
        <ele>525</ele>
        <time>2017-02-25T10:09:38Z</time>
      </trkpt>
      <trkpt lat="45.65067" lon="4.65929">
        <ele>525</ele>
        <time>2017-02-25T10:09:41Z</time>
      </trkpt>
      <trkpt lat="45.65064" lon="4.65934">
        <ele>525</ele>
        <time>2017-02-25T10:09:43Z</time>
      </trkpt>
      <trkpt lat="45.65061" lon="4.65938">
        <ele>525</ele>
        <time>2017-02-25T10:09:45Z</time>
      </trkpt>
      <trkpt lat="45.65057" lon="4.65943">
        <ele>525</ele>
        <time>2017-02-25T10:09:47Z</time>
      </trkpt>
      <trkpt lat="45.65054" lon="4.65948">
        <ele>524</ele>
        <time>2017-02-25T10:09:49Z</time>
      </trkpt>
      <trkpt lat="45.6505" lon="4.65952">
        <ele>524</ele>
        <time>2017-02-25T10:09:51Z</time>
      </trkpt>
      <trkpt lat="45.65046" lon="4.65957">
        <ele>523</ele>
        <time>2017-02-25T10:09:53Z</time>
      </trkpt>
      <trkpt lat="45.65042" lon="4.65961">
        <ele>523</ele>
        <time>2017-02-25T10:09:55Z</time>
      </trkpt>
      <trkpt lat="45.65038" lon="4.65966">
        <ele>523</ele>
        <time>2017-02-25T10:09:57Z</time>
      </trkpt>
      <trkpt lat="45.65035" lon="4.65971">
        <ele>523</ele>
        <time>2017-02-25T10:09:59Z</time>
      </trkpt>
      <trkpt lat="45.65032" lon="4.65975">
        <ele>524</ele>
        <time>2017-02-25T10:10:01Z</time>
      </trkpt>
      <trkpt lat="45.65027" lon="4.65982">
        <ele>524</ele>
        <time>2017-02-25T10:10:04Z</time>
      </trkpt>
      <trkpt lat="45.65024" lon="4.65987">
        <ele>526</ele>
        <time>2017-02-25T10:10:06Z</time>
      </trkpt>
      <trkpt lat="45.65019" lon="4.65993">
        <ele>529</ele>
        <time>2017-02-25T10:10:09Z</time>
      </trkpt>
      <trkpt lat="45.65015" lon="4.65996">
        <ele>531</ele>
        <time>2017-02-25T10:10:11Z</time>
      </trkpt>
      <trkpt lat="45.65011" lon="4.66004">
        <ele>533</ele>
        <time>2017-02-25T10:10:14Z</time>
      </trkpt>
      <trkpt lat="45.65007" lon="4.66012">
        <ele>536</ele>
        <time>2017-02-25T10:10:17Z</time>
      </trkpt>
      <trkpt lat="45.65004" lon="4.66017">
        <ele>537</ele>
        <time>2017-02-25T10:10:19Z</time>
      </trkpt>
      <trkpt lat="45.65001" lon="4.66025">
        <ele>537</ele>
        <time>2017-02-25T10:10:22Z</time>
      </trkpt>
      <trkpt lat="45.64999" lon="4.66032">
        <ele>536</ele>
        <time>2017-02-25T10:10:25Z</time>
      </trkpt>
      <trkpt lat="45.64998" lon="4.66039">
        <ele>534</ele>
        <time>2017-02-25T10:10:28Z</time>
      </trkpt>
      <trkpt lat="45.64994" lon="4.66046">
        <ele>533</ele>
        <time>2017-02-25T10:10:31Z</time>
      </trkpt>
      <trkpt lat="45.64989" lon="4.66052">
        <ele>531</ele>
        <time>2017-02-25T10:10:34Z</time>
      </trkpt>
      <trkpt lat="45.64984" lon="4.66059">
        <ele>530</ele>
        <time>2017-02-25T10:10:37Z</time>
      </trkpt>
      <trkpt lat="45.6498" lon="4.66063">
        <ele>529</ele>
        <time>2017-02-25T10:10:39Z</time>
      </trkpt>
      <trkpt lat="45.64977" lon="4.66068">
        <ele>529</ele>
        <time>2017-02-25T10:10:41Z</time>
      </trkpt>
      <trkpt lat="45.64973" lon="4.66073">
        <ele>529</ele>
        <time>2017-02-25T10:10:43Z</time>
      </trkpt>
      <trkpt lat="45.64969" lon="4.66079">
        <ele>530</ele>
        <time>2017-02-25T10:10:45Z</time>
      </trkpt>
      <trkpt lat="45.64965" lon="4.66084">
        <ele>530</ele>
        <time>2017-02-25T10:10:47Z</time>
      </trkpt>
      <trkpt lat="45.6496" lon="4.6609">
        <ele>529</ele>
        <time>2017-02-25T10:10:49Z</time>
      </trkpt>
      <trkpt lat="45.64956" lon="4.66095">
        <ele>529</ele>
        <time>2017-02-25T10:10:51Z</time>
      </trkpt>
      <trkpt lat="45.64952" lon="4.661">
        <ele>529</ele>
        <time>2017-02-25T10:10:53Z</time>
      </trkpt>
      <trkpt lat="45.64947" lon="4.66106">
        <ele>529</ele>
        <time>2017-02-25T10:10:55Z</time>
      </trkpt>
      <trkpt lat="45.64942" lon="4.66113">
        <ele>529</ele>
        <time>2017-02-25T10:10:57Z</time>
      </trkpt>
      <trkpt lat="45.64936" lon="4.6612">
        <ele>529</ele>
        <time>2017-02-25T10:10:59Z</time>
      </trkpt>
      <trkpt lat="45.64932" lon="4.66126">
        <ele>530</ele>
        <time>2017-02-25T10:11:01Z</time>
      </trkpt>
      <trkpt lat="45.64927" lon="4.66133">
        <ele>530</ele>
        <time>2017-02-25T10:11:03Z</time>
      </trkpt>
      <trkpt lat="45.64922" lon="4.66138">
        <ele>530</ele>
        <time>2017-02-25T10:11:05Z</time>
      </trkpt>
      <trkpt lat="45.64919" lon="4.66143">
        <ele>530</ele>
        <time>2017-02-25T10:11:07Z</time>
      </trkpt>
      <trkpt lat="45.64915" lon="4.66148">
        <ele>530</ele>
        <time>2017-02-25T10:11:09Z</time>
      </trkpt>
      <trkpt lat="45.64912" lon="4.66153">
        <ele>530</ele>
        <time>2017-02-25T10:11:11Z</time>
      </trkpt>
      <trkpt lat="45.64909" lon="4.66158">
        <ele>530</ele>
        <time>2017-02-25T10:11:13Z</time>
      </trkpt>
      <trkpt lat="45.64907" lon="4.66164">
        <ele>530</ele>
        <time>2017-02-25T10:11:15Z</time>
      </trkpt>
      <trkpt lat="45.64904" lon="4.6617">
        <ele>530</ele>
        <time>2017-02-25T10:11:17Z</time>
      </trkpt>
      <trkpt lat="45.64902" lon="4.66176">
        <ele>530</ele>
        <time>2017-02-25T10:11:19Z</time>
      </trkpt>
      <trkpt lat="45.64901" lon="4.66184">
        <ele>530</ele>
        <time>2017-02-25T10:11:21Z</time>
      </trkpt>
      <trkpt lat="45.64902" lon="4.66192">
        <ele>529</ele>
        <time>2017-02-25T10:11:23Z</time>
      </trkpt>
      <trkpt lat="45.64906" lon="4.66199">
        <ele>529</ele>
        <time>2017-02-25T10:11:25Z</time>
      </trkpt>
      <trkpt lat="45.6491" lon="4.66203">
        <ele>529</ele>
        <time>2017-02-25T10:11:27Z</time>
      </trkpt>
      <trkpt lat="45.64914" lon="4.66207">
        <ele>529</ele>
        <time>2017-02-25T10:11:29Z</time>
      </trkpt>
      <trkpt lat="45.64972" lon="4.6624">
        <ele>529</ele>
        <time>2017-02-25T10:11:47Z</time>
      </trkpt>
      <trkpt lat="45.64977" lon="4.66245">
        <ele>529</ele>
        <time>2017-02-25T10:11:50Z</time>
      </trkpt>
      <trkpt lat="45.64982" lon="4.66248">
        <ele>530</ele>
        <time>2017-02-25T10:11:52Z</time>
      </trkpt>
      <trkpt lat="45.64988" lon="4.66253">
        <ele>530</ele>
        <time>2017-02-25T10:11:54Z</time>
      </trkpt>
      <trkpt lat="45.64994" lon="4.66254">
        <ele>530</ele>
        <time>2017-02-25T10:11:55Z</time>
      </trkpt>
      <trkpt lat="45.65001" lon="4.66258">
        <ele>530</ele>
        <time>2017-02-25T10:11:57Z</time>
      </trkpt>
      <trkpt lat="45.65007" lon="4.66263">
        <ele>530</ele>
        <time>2017-02-25T10:11:59Z</time>
      </trkpt>
      <trkpt lat="45.65011" lon="4.66265">
        <ele>529</ele>
        <time>2017-02-25T10:12:00Z</time>
      </trkpt>
      <trkpt lat="45.6502" lon="4.6627">
        <ele>529</ele>
        <time>2017-02-25T10:12:02Z</time>
      </trkpt>
      <trkpt lat="45.65025" lon="4.66271">
        <ele>528</ele>
        <time>2017-02-25T10:12:03Z</time>
      </trkpt>
      <trkpt lat="45.6503" lon="4.66273">
        <ele>528</ele>
        <time>2017-02-25T10:12:04Z</time>
      </trkpt>
      <trkpt lat="45.65032" lon="4.6626">
        <ele>527</ele>
        <time>2017-02-25T10:12:05Z</time>
      </trkpt>
      <trkpt lat="45.65036" lon="4.66256">
        <ele>527</ele>
        <time>2017-02-25T10:12:06Z</time>
      </trkpt>
      <trkpt lat="45.65042" lon="4.66252">
        <ele>527</ele>
        <time>2017-02-25T10:12:07Z</time>
      </trkpt>
      <trkpt lat="45.65048" lon="4.66251">
        <ele>527</ele>
        <time>2017-02-25T10:12:08Z</time>
      </trkpt>
      <trkpt lat="45.65051" lon="4.66246">
        <ele>528</ele>
        <time>2017-02-25T10:12:09Z</time>
      </trkpt>
      <trkpt lat="45.65057" lon="4.66238">
        <ele>528</ele>
        <time>2017-02-25T10:12:11Z</time>
      </trkpt>
      <trkpt lat="45.6506" lon="4.66234">
        <ele>528</ele>
        <time>2017-02-25T10:12:12Z</time>
      </trkpt>
      <trkpt lat="45.65067" lon="4.66227">
        <ele>527</ele>
        <time>2017-02-25T10:12:14Z</time>
      </trkpt>
      <trkpt lat="45.65073" lon="4.66223">
        <ele>526</ele>
        <time>2017-02-25T10:12:15Z</time>
      </trkpt>
      <trkpt lat="45.65077" lon="4.66219">
        <ele>525</ele>
        <time>2017-02-25T10:12:16Z</time>
      </trkpt>
      <trkpt lat="45.65082" lon="4.66214">
        <ele>525</ele>
        <time>2017-02-25T10:12:17Z</time>
      </trkpt>
      <trkpt lat="45.65087" lon="4.6621">
        <ele>524</ele>
        <time>2017-02-25T10:12:18Z</time>
      </trkpt>
      <trkpt lat="45.65092" lon="4.66205">
        <ele>524</ele>
        <time>2017-02-25T10:12:19Z</time>
      </trkpt>
      <trkpt lat="45.65099" lon="4.66199">
        <ele>523</ele>
        <time>2017-02-25T10:12:21Z</time>
      </trkpt>
      <trkpt lat="45.65103" lon="4.66195">
        <ele>522</ele>
        <time>2017-02-25T10:12:22Z</time>
      </trkpt>
      <trkpt lat="45.65107" lon="4.66193">
        <ele>521</ele>
        <time>2017-02-25T10:12:23Z</time>
      </trkpt>
      <trkpt lat="45.65113" lon="4.66192">
        <ele>519</ele>
        <time>2017-02-25T10:12:24Z</time>
      </trkpt>
      <trkpt lat="45.6512" lon="4.66189">
        <ele>519</ele>
        <time>2017-02-25T10:12:27Z</time>
      </trkpt>
      <trkpt lat="45.65125" lon="4.66182">
        <ele>519</ele>
        <time>2017-02-25T10:12:29Z</time>
      </trkpt>
      <trkpt lat="45.65132" lon="4.6618">
        <ele>519</ele>
        <time>2017-02-25T10:12:31Z</time>
      </trkpt>
      <trkpt lat="45.65139" lon="4.66178">
        <ele>519</ele>
        <time>2017-02-25T10:12:33Z</time>
      </trkpt>
      <trkpt lat="45.65144" lon="4.66181">
        <ele>519</ele>
        <time>2017-02-25T10:12:34Z</time>
      </trkpt>
      <trkpt lat="45.65149" lon="4.6618">
        <ele>519</ele>
        <time>2017-02-25T10:12:35Z</time>
      </trkpt>
      <trkpt lat="45.65154" lon="4.66179">
        <ele>519</ele>
        <time>2017-02-25T10:12:36Z</time>
      </trkpt>
      <trkpt lat="45.65159" lon="4.66178">
        <ele>519</ele>
        <time>2017-02-25T10:12:37Z</time>
      </trkpt>
      <trkpt lat="45.65163" lon="4.66177">
        <ele>519</ele>
        <time>2017-02-25T10:12:38Z</time>
      </trkpt>
      <trkpt lat="45.65169" lon="4.66175">
        <ele>519</ele>
        <time>2017-02-25T10:12:39Z</time>
      </trkpt>
      <trkpt lat="45.65178" lon="4.66176">
        <ele>518</ele>
        <time>2017-02-25T10:12:41Z</time>
      </trkpt>
      <trkpt lat="45.65184" lon="4.66177">
        <ele>518</ele>
        <time>2017-02-25T10:12:42Z</time>
      </trkpt>
      <trkpt lat="45.65191" lon="4.66179">
        <ele>517</ele>
        <time>2017-02-25T10:12:43Z</time>
      </trkpt>
      <trkpt lat="45.65199" lon="4.6618">
        <ele>516</ele>
        <time>2017-02-25T10:12:44Z</time>
      </trkpt>
      <trkpt lat="45.65204" lon="4.66182">
        <ele>516</ele>
        <time>2017-02-25T10:12:45Z</time>
      </trkpt>
      <trkpt lat="45.65209" lon="4.66184">
        <ele>515</ele>
        <time>2017-02-25T10:12:46Z</time>
      </trkpt>
      <trkpt lat="45.65215" lon="4.66186">
        <ele>515</ele>
        <time>2017-02-25T10:12:47Z</time>
      </trkpt>
      <trkpt lat="45.65221" lon="4.66185">
        <ele>515</ele>
        <time>2017-02-25T10:12:48Z</time>
      </trkpt>
      <trkpt lat="45.65228" lon="4.66183">
        <ele>516</ele>
        <time>2017-02-25T10:12:49Z</time>
      </trkpt>
      <trkpt lat="45.65235" lon="4.6618">
        <ele>516</ele>
        <time>2017-02-25T10:12:51Z</time>
      </trkpt>
      <trkpt lat="45.6524" lon="4.6618">
        <ele>516</ele>
        <time>2017-02-25T10:12:52Z</time>
      </trkpt>
      <trkpt lat="45.65249" lon="4.66178">
        <ele>516</ele>
        <time>2017-02-25T10:12:53Z</time>
      </trkpt>
      <trkpt lat="45.65254" lon="4.66176">
        <ele>515</ele>
        <time>2017-02-25T10:12:54Z</time>
      </trkpt>
      <trkpt lat="45.65262" lon="4.66174">
        <ele>514</ele>
        <time>2017-02-25T10:12:56Z</time>
      </trkpt>
      <trkpt lat="45.65267" lon="4.66173">
        <ele>514</ele>
        <time>2017-02-25T10:12:57Z</time>
      </trkpt>
      <trkpt lat="45.65271" lon="4.66168">
        <ele>514</ele>
        <time>2017-02-25T10:12:58Z</time>
      </trkpt>
      <trkpt lat="45.65276" lon="4.66164">
        <ele>514</ele>
        <time>2017-02-25T10:12:59Z</time>
      </trkpt>
      <trkpt lat="45.65281" lon="4.66162">
        <ele>514</ele>
        <time>2017-02-25T10:13:00Z</time>
      </trkpt>
      <trkpt lat="45.65286" lon="4.66161">
        <ele>514</ele>
        <time>2017-02-25T10:13:01Z</time>
      </trkpt>
      <trkpt lat="45.65291" lon="4.66159">
        <ele>514</ele>
        <time>2017-02-25T10:13:02Z</time>
      </trkpt>
      <trkpt lat="45.65297" lon="4.66154">
        <ele>514</ele>
        <time>2017-02-25T10:13:04Z</time>
      </trkpt>
      <trkpt lat="45.65305" lon="4.66152">
        <ele>513</ele>
        <time>2017-02-25T10:13:06Z</time>
      </trkpt>
      <trkpt lat="45.6531" lon="4.66151">
        <ele>513</ele>
        <time>2017-02-25T10:13:07Z</time>
      </trkpt>
      <trkpt lat="45.65318" lon="4.66146">
        <ele>512</ele>
        <time>2017-02-25T10:13:09Z</time>
      </trkpt>
      <trkpt lat="45.65324" lon="4.66145">
        <ele>512</ele>
        <time>2017-02-25T10:13:11Z</time>
      </trkpt>
      <trkpt lat="45.6533" lon="4.66145">
        <ele>511</ele>
        <time>2017-02-25T10:13:13Z</time>
      </trkpt>
      <trkpt lat="45.65338" lon="4.66148">
        <ele>510</ele>
        <time>2017-02-25T10:13:15Z</time>
      </trkpt>
      <trkpt lat="45.65345" lon="4.66153">
        <ele>508</ele>
        <time>2017-02-25T10:13:17Z</time>
      </trkpt>
      <trkpt lat="45.6535" lon="4.66155">
        <ele>507</ele>
        <time>2017-02-25T10:13:18Z</time>
      </trkpt>
      <trkpt lat="45.65355" lon="4.66164">
        <ele>505</ele>
        <time>2017-02-25T10:13:20Z</time>
      </trkpt>
      <trkpt lat="45.65361" lon="4.66169">
        <ele>502</ele>
        <time>2017-02-25T10:13:22Z</time>
      </trkpt>
      <trkpt lat="45.65368" lon="4.6618">
        <ele>499</ele>
        <time>2017-02-25T10:13:24Z</time>
      </trkpt>
      <trkpt lat="45.65374" lon="4.66186">
        <ele>497</ele>
        <time>2017-02-25T10:13:25Z</time>
      </trkpt>
      <trkpt lat="45.65379" lon="4.66191">
        <ele>495</ele>
        <time>2017-02-25T10:13:26Z</time>
      </trkpt>
      <trkpt lat="45.65384" lon="4.66193">
        <ele>493</ele>
        <time>2017-02-25T10:13:27Z</time>
      </trkpt>
      <trkpt lat="45.65391" lon="4.66197">
        <ele>492</ele>
        <time>2017-02-25T10:13:28Z</time>
      </trkpt>
      <trkpt lat="45.65397" lon="4.66202">
        <ele>493</ele>
        <time>2017-02-25T10:13:29Z</time>
      </trkpt>
      <trkpt lat="45.65402" lon="4.66205">
        <ele>494</ele>
        <time>2017-02-25T10:13:30Z</time>
      </trkpt>
      <trkpt lat="45.65403" lon="4.66214">
        <ele>493</ele>
        <time>2017-02-25T10:13:31Z</time>
      </trkpt>
      <trkpt lat="45.65405" lon="4.6622">
        <ele>494</ele>
        <time>2017-02-25T10:13:32Z</time>
      </trkpt>
      <trkpt lat="45.65403" lon="4.66228">
        <ele>494</ele>
        <time>2017-02-25T10:13:33Z</time>
      </trkpt>
      <trkpt lat="45.65405" lon="4.66236">
        <ele>492</ele>
        <time>2017-02-25T10:13:34Z</time>
      </trkpt>
      <trkpt lat="45.65406" lon="4.66249">
        <ele>490</ele>
        <time>2017-02-25T10:13:36Z</time>
      </trkpt>
      <trkpt lat="45.65408" lon="4.66261">
        <ele>489</ele>
        <time>2017-02-25T10:13:38Z</time>
      </trkpt>
      <trkpt lat="45.65413" lon="4.6627">
        <ele>487</ele>
        <time>2017-02-25T10:13:40Z</time>
      </trkpt>
      <trkpt lat="45.65416" lon="4.66278">
        <ele>486</ele>
        <time>2017-02-25T10:13:41Z</time>
      </trkpt>
      <trkpt lat="45.65419" lon="4.66284">
        <ele>484</ele>
        <time>2017-02-25T10:13:42Z</time>
      </trkpt>
      <trkpt lat="45.65421" lon="4.6629">
        <ele>484</ele>
        <time>2017-02-25T10:13:43Z</time>
      </trkpt>
      <trkpt lat="45.65425" lon="4.66295">
        <ele>483</ele>
        <time>2017-02-25T10:13:44Z</time>
      </trkpt>
      <trkpt lat="45.65431" lon="4.66302">
        <ele>482</ele>
        <time>2017-02-25T10:13:45Z</time>
      </trkpt>
      <trkpt lat="45.65434" lon="4.66309">
        <ele>482</ele>
        <time>2017-02-25T10:13:46Z</time>
      </trkpt>
      <trkpt lat="45.65437" lon="4.66316">
        <ele>482</ele>
        <time>2017-02-25T10:13:47Z</time>
      </trkpt>
      <trkpt lat="45.65441" lon="4.66322">
        <ele>480</ele>
        <time>2017-02-25T10:13:48Z</time>
      </trkpt>
      <trkpt lat="45.65446" lon="4.6633">
        <ele>479</ele>
        <time>2017-02-25T10:13:49Z</time>
      </trkpt>
      <trkpt lat="45.6545" lon="4.66338">
        <ele>478</ele>
        <time>2017-02-25T10:13:50Z</time>
      </trkpt>
      <trkpt lat="45.65454" lon="4.66347">
        <ele>476</ele>
        <time>2017-02-25T10:13:51Z</time>
      </trkpt>
      <trkpt lat="45.65458" lon="4.66357">
        <ele>475</ele>
        <time>2017-02-25T10:13:52Z</time>
      </trkpt>
      <trkpt lat="45.65467" lon="4.66363">
        <ele>475</ele>
        <time>2017-02-25T10:13:53Z</time>
      </trkpt>
      <trkpt lat="45.65472" lon="4.6637">
        <ele>474</ele>
        <time>2017-02-25T10:13:54Z</time>
      </trkpt>
      <trkpt lat="45.65474" lon="4.66379">
        <ele>474</ele>
        <time>2017-02-25T10:13:55Z</time>
      </trkpt>
      <trkpt lat="45.65478" lon="4.66388">
        <ele>473</ele>
        <time>2017-02-25T10:13:56Z</time>
      </trkpt>
      <trkpt lat="45.65483" lon="4.66396">
        <ele>472</ele>
        <time>2017-02-25T10:13:57Z</time>
      </trkpt>
      <trkpt lat="45.65488" lon="4.66403">
        <ele>471</ele>
        <time>2017-02-25T10:13:58Z</time>
      </trkpt>
      <trkpt lat="45.65495" lon="4.6641">
        <ele>470</ele>
        <time>2017-02-25T10:14:00Z</time>
      </trkpt>
      <trkpt lat="45.65496" lon="4.6642">
        <ele>471</ele>
        <time>2017-02-25T10:14:02Z</time>
      </trkpt>
      <trkpt lat="45.65488" lon="4.66423">
        <ele>472</ele>
        <time>2017-02-25T10:14:04Z</time>
      </trkpt>
      <trkpt lat="45.65484" lon="4.66424">
        <ele>473</ele>
        <time>2017-02-25T10:14:05Z</time>
      </trkpt>
      <trkpt lat="45.65479" lon="4.66424">
        <ele>472</ele>
        <time>2017-02-25T10:14:07Z</time>
      </trkpt>
      <trkpt lat="45.65472" lon="4.66425">
        <ele>473</ele>
        <time>2017-02-25T10:14:09Z</time>
      </trkpt>
      <trkpt lat="45.65466" lon="4.66423">
        <ele>471</ele>
        <time>2017-02-25T10:14:11Z</time>
      </trkpt>
      <trkpt lat="45.65458" lon="4.66422">
        <ele>469</ele>
        <time>2017-02-25T10:14:13Z</time>
      </trkpt>
      <trkpt lat="45.65451" lon="4.66418">
        <ele>468</ele>
        <time>2017-02-25T10:14:15Z</time>
      </trkpt>
      <trkpt lat="45.65443" lon="4.66418">
        <ele>467</ele>
        <time>2017-02-25T10:14:17Z</time>
      </trkpt>
      <trkpt lat="45.65434" lon="4.66426">
        <ele>466</ele>
        <time>2017-02-25T10:14:18Z</time>
      </trkpt>
      <trkpt lat="45.6543" lon="4.66429">
        <ele>466</ele>
        <time>2017-02-25T10:14:19Z</time>
      </trkpt>
      <trkpt lat="45.65424" lon="4.66433">
        <ele>466</ele>
        <time>2017-02-25T10:14:21Z</time>
      </trkpt>
      <trkpt lat="45.65421" lon="4.66439">
        <ele>466</ele>
        <time>2017-02-25T10:14:23Z</time>
      </trkpt>
      <trkpt lat="45.65418" lon="4.66444">
        <ele>466</ele>
        <time>2017-02-25T10:14:25Z</time>
      </trkpt>
      <trkpt lat="45.65413" lon="4.66449">
        <ele>465</ele>
        <time>2017-02-25T10:14:27Z</time>
      </trkpt>
      <trkpt lat="45.6541" lon="4.66455">
        <ele>465</ele>
        <time>2017-02-25T10:14:30Z</time>
      </trkpt>
      <trkpt lat="45.65407" lon="4.66462">
        <ele>465</ele>
        <time>2017-02-25T10:14:36Z</time>
      </trkpt>
      <trkpt lat="45.65403" lon="4.66468">
        <ele>465</ele>
        <time>2017-02-25T10:14:40Z</time>
      </trkpt>
      <trkpt lat="45.65399" lon="4.66476">
        <ele>465</ele>
        <time>2017-02-25T10:14:43Z</time>
      </trkpt>
      <trkpt lat="45.65396" lon="4.66481">
        <ele>465</ele>
        <time>2017-02-25T10:14:45Z</time>
      </trkpt>
      <trkpt lat="45.65393" lon="4.66486">
        <ele>466</ele>
        <time>2017-02-25T10:14:47Z</time>
      </trkpt>
      <trkpt lat="45.65392" lon="4.66492">
        <ele>466</ele>
        <time>2017-02-25T10:14:49Z</time>
      </trkpt>
      <trkpt lat="45.65389" lon="4.66498">
        <ele>467</ele>
        <time>2017-02-25T10:14:51Z</time>
      </trkpt>
      <trkpt lat="45.65385" lon="4.66503">
        <ele>466</ele>
        <time>2017-02-25T10:14:53Z</time>
      </trkpt>
      <trkpt lat="45.65381" lon="4.66509">
        <ele>467</ele>
        <time>2017-02-25T10:14:55Z</time>
      </trkpt>
      <trkpt lat="45.65376" lon="4.66515">
        <ele>466</ele>
        <time>2017-02-25T10:14:57Z</time>
      </trkpt>
      <trkpt lat="45.65371" lon="4.66522">
        <ele>466</ele>
        <time>2017-02-25T10:14:59Z</time>
      </trkpt>
      <trkpt lat="45.65368" lon="4.66528">
        <ele>465</ele>
        <time>2017-02-25T10:15:01Z</time>
      </trkpt>
      <trkpt lat="45.65365" lon="4.66533">
        <ele>464</ele>
        <time>2017-02-25T10:15:03Z</time>
      </trkpt>
      <trkpt lat="45.65362" lon="4.66538">
        <ele>463</ele>
        <time>2017-02-25T10:15:05Z</time>
      </trkpt>
      <trkpt lat="45.65358" lon="4.66544">
        <ele>463</ele>
        <time>2017-02-25T10:15:07Z</time>
      </trkpt>
      <trkpt lat="45.65355" lon="4.66549">
        <ele>461</ele>
        <time>2017-02-25T10:15:09Z</time>
      </trkpt>
      <trkpt lat="45.65352" lon="4.66555">
        <ele>461</ele>
        <time>2017-02-25T10:15:11Z</time>
      </trkpt>
      <trkpt lat="45.65349" lon="4.66561">
        <ele>460</ele>
        <time>2017-02-25T10:15:13Z</time>
      </trkpt>
      <trkpt lat="45.65345" lon="4.66566">
        <ele>460</ele>
        <time>2017-02-25T10:15:15Z</time>
      </trkpt>
      <trkpt lat="45.65342" lon="4.66571">
        <ele>460</ele>
        <time>2017-02-25T10:15:17Z</time>
      </trkpt>
      <trkpt lat="45.65338" lon="4.66576">
        <ele>459</ele>
        <time>2017-02-25T10:15:19Z</time>
      </trkpt>
      <trkpt lat="45.65334" lon="4.6658">
        <ele>459</ele>
        <time>2017-02-25T10:15:21Z</time>
      </trkpt>
      <trkpt lat="45.6533" lon="4.66585">
        <ele>459</ele>
        <time>2017-02-25T10:15:23Z</time>
      </trkpt>
      <trkpt lat="45.65326" lon="4.6659">
        <ele>458</ele>
        <time>2017-02-25T10:15:25Z</time>
      </trkpt>
      <trkpt lat="45.65321" lon="4.66597">
        <ele>457</ele>
        <time>2017-02-25T10:15:27Z</time>
      </trkpt>
      <trkpt lat="45.65316" lon="4.666">
        <ele>457</ele>
        <time>2017-02-25T10:15:29Z</time>
      </trkpt>
      <trkpt lat="45.6531" lon="4.66603">
        <ele>456</ele>
        <time>2017-02-25T10:15:31Z</time>
      </trkpt>
      <trkpt lat="45.65305" lon="4.66609">
        <ele>456</ele>
        <time>2017-02-25T10:15:33Z</time>
      </trkpt>
      <trkpt lat="45.65301" lon="4.66615">
        <ele>456</ele>
        <time>2017-02-25T10:15:35Z</time>
      </trkpt>
      <trkpt lat="45.65298" lon="4.66623">
        <ele>455</ele>
        <time>2017-02-25T10:15:37Z</time>
      </trkpt>
      <trkpt lat="45.65296" lon="4.6663">
        <ele>455</ele>
        <time>2017-02-25T10:15:39Z</time>
      </trkpt>
      <trkpt lat="45.65294" lon="4.66637">
        <ele>456</ele>
        <time>2017-02-25T10:15:41Z</time>
      </trkpt>
      <trkpt lat="45.65291" lon="4.66643">
        <ele>457</ele>
        <time>2017-02-25T10:15:43Z</time>
      </trkpt>
      <trkpt lat="45.65287" lon="4.66649">
        <ele>458</ele>
        <time>2017-02-25T10:15:45Z</time>
      </trkpt>
      <trkpt lat="45.65283" lon="4.66655">
        <ele>459</ele>
        <time>2017-02-25T10:15:47Z</time>
      </trkpt>
      <trkpt lat="45.65279" lon="4.66661">
        <ele>460</ele>
        <time>2017-02-25T10:15:49Z</time>
      </trkpt>
      <trkpt lat="45.65275" lon="4.66667">
        <ele>460</ele>
        <time>2017-02-25T10:15:51Z</time>
      </trkpt>
      <trkpt lat="45.65269" lon="4.66672">
        <ele>459</ele>
        <time>2017-02-25T10:15:53Z</time>
      </trkpt>
      <trkpt lat="45.65264" lon="4.66676">
        <ele>459</ele>
        <time>2017-02-25T10:15:55Z</time>
      </trkpt>
      <trkpt lat="45.65259" lon="4.66681">
        <ele>459</ele>
        <time>2017-02-25T10:15:57Z</time>
      </trkpt>
      <trkpt lat="45.65254" lon="4.66684">
        <ele>459</ele>
        <time>2017-02-25T10:15:59Z</time>
      </trkpt>
      <trkpt lat="45.65249" lon="4.66683">
        <ele>457</ele>
        <time>2017-02-25T10:16:02Z</time>
      </trkpt>
      <trkpt lat="45.65242" lon="4.66687">
        <ele>457</ele>
        <time>2017-02-25T10:16:05Z</time>
      </trkpt>
      <trkpt lat="45.65237" lon="4.66688">
        <ele>456</ele>
        <time>2017-02-25T10:16:07Z</time>
      </trkpt>
      <trkpt lat="45.65232" lon="4.66692">
        <ele>455</ele>
        <time>2017-02-25T10:16:09Z</time>
      </trkpt>
      <trkpt lat="45.65226" lon="4.66697">
        <ele>454</ele>
        <time>2017-02-25T10:16:11Z</time>
      </trkpt>
      <trkpt lat="45.65221" lon="4.667">
        <ele>453</ele>
        <time>2017-02-25T10:16:13Z</time>
      </trkpt>
      <trkpt lat="45.65216" lon="4.66703">
        <ele>453</ele>
        <time>2017-02-25T10:16:15Z</time>
      </trkpt>
      <trkpt lat="45.65211" lon="4.66704">
        <ele>452</ele>
        <time>2017-02-25T10:16:17Z</time>
      </trkpt>
      <trkpt lat="45.65204" lon="4.66707">
        <ele>452</ele>
        <time>2017-02-25T10:16:19Z</time>
      </trkpt>
      <trkpt lat="45.65197" lon="4.6671">
        <ele>452</ele>
        <time>2017-02-25T10:16:21Z</time>
      </trkpt>
      <trkpt lat="45.65191" lon="4.66711">
        <ele>452</ele>
        <time>2017-02-25T10:16:23Z</time>
      </trkpt>
      <trkpt lat="45.65182" lon="4.66711">
        <ele>452</ele>
        <time>2017-02-25T10:16:25Z</time>
      </trkpt>
      <trkpt lat="45.65173" lon="4.66709">
        <ele>452</ele>
        <time>2017-02-25T10:16:27Z</time>
      </trkpt>
      <trkpt lat="45.65166" lon="4.66704">
        <ele>452</ele>
        <time>2017-02-25T10:16:29Z</time>
      </trkpt>
      <trkpt lat="45.65162" lon="4.66702">
        <ele>452</ele>
        <time>2017-02-25T10:16:31Z</time>
      </trkpt>
      <trkpt lat="45.65159" lon="4.66708">
        <ele>452</ele>
        <time>2017-02-25T10:16:34Z</time>
      </trkpt>
      <trkpt lat="45.6516" lon="4.66717">
        <ele>452</ele>
        <time>2017-02-25T10:16:37Z</time>
      </trkpt>
      <trkpt lat="45.65164" lon="4.66725">
        <ele>454</ele>
        <time>2017-02-25T10:16:40Z</time>
      </trkpt>
      <trkpt lat="45.65168" lon="4.66731">
        <ele>455</ele>
        <time>2017-02-25T10:16:43Z</time>
      </trkpt>
      <trkpt lat="45.65169" lon="4.66738">
        <ele>455</ele>
        <time>2017-02-25T10:16:46Z</time>
      </trkpt>
      <trkpt lat="45.65171" lon="4.66746">
        <ele>457</ele>
        <time>2017-02-25T10:16:50Z</time>
      </trkpt>
      <trkpt lat="45.65173" lon="4.66752">
        <ele>457</ele>
        <time>2017-02-25T10:16:53Z</time>
      </trkpt>
      <trkpt lat="45.65178" lon="4.66755">
        <ele>456</ele>
        <time>2017-02-25T10:16:56Z</time>
      </trkpt>
      <trkpt lat="45.65181" lon="4.66762">
        <ele>456</ele>
        <time>2017-02-25T10:17:00Z</time>
      </trkpt>
      <trkpt lat="45.65183" lon="4.6677">
        <ele>455</ele>
        <time>2017-02-25T10:17:04Z</time>
      </trkpt>
      <trkpt lat="45.65185" lon="4.66776">
        <ele>454</ele>
        <time>2017-02-25T10:17:07Z</time>
      </trkpt>
      <trkpt lat="45.65189" lon="4.66781">
        <ele>452</ele>
        <time>2017-02-25T10:17:11Z</time>
      </trkpt>
      <trkpt lat="45.65193" lon="4.66787">
        <ele>451</ele>
        <time>2017-02-25T10:17:15Z</time>
      </trkpt>
      <trkpt lat="45.65196" lon="4.66794">
        <ele>451</ele>
        <time>2017-02-25T10:17:19Z</time>
      </trkpt>
      <trkpt lat="45.65198" lon="4.66802">
        <ele>450</ele>
        <time>2017-02-25T10:17:23Z</time>
      </trkpt>
      <trkpt lat="45.65196" lon="4.66809">
        <ele>450</ele>
        <time>2017-02-25T10:17:27Z</time>
      </trkpt>
      <trkpt lat="45.65196" lon="4.66815">
        <ele>450</ele>
        <time>2017-02-25T10:17:39Z</time>
      </trkpt>
      <trkpt lat="45.65194" lon="4.66817">
        <ele>451</ele>
        <time>2017-02-25T10:17:54Z</time>
      </trkpt>
      <trkpt lat="45.65194" lon="4.66817">
        <ele>451</ele>
        <time>2017-02-25T10:17:57Z</time>
      </trkpt>
      <trkpt lat="45.65194" lon="4.66817">
        <ele>452</ele>
        <time>2017-02-25T10:18:24Z</time>
      </trkpt>
      <trkpt lat="45.65194" lon="4.66817">
        <ele>453</ele>
        <time>2017-02-25T10:18:27Z</time>
      </trkpt>
      <trkpt lat="45.65194" lon="4.66824">
        <ele>454</ele>
        <time>2017-02-25T10:18:45Z</time>
      </trkpt>
      <trkpt lat="45.65195" lon="4.66831">
        <ele>455</ele>
        <time>2017-02-25T10:18:48Z</time>
      </trkpt>
      <trkpt lat="45.65196" lon="4.66838">
        <ele>456</ele>
        <time>2017-02-25T10:18:51Z</time>
      </trkpt>
      <trkpt lat="45.65199" lon="4.66844">
        <ele>457</ele>
        <time>2017-02-25T10:18:54Z</time>
      </trkpt>
      <trkpt lat="45.65199" lon="4.66852">
        <ele>457</ele>
        <time>2017-02-25T10:18:58Z</time>
      </trkpt>
      <trkpt lat="45.65197" lon="4.66859">
        <ele>458</ele>
        <time>2017-02-25T10:19:01Z</time>
      </trkpt>
      <trkpt lat="45.65194" lon="4.66864">
        <ele>459</ele>
        <time>2017-02-25T10:19:04Z</time>
      </trkpt>
      <trkpt lat="45.65191" lon="4.6687">
        <ele>459</ele>
        <time>2017-02-25T10:19:08Z</time>
      </trkpt>
      <trkpt lat="45.65189" lon="4.66877">
        <ele>459</ele>
        <time>2017-02-25T10:19:12Z</time>
      </trkpt>
      <trkpt lat="45.65188" lon="4.66884">
        <ele>459</ele>
        <time>2017-02-25T10:19:16Z</time>
      </trkpt>
      <trkpt lat="45.65186" lon="4.6689">
        <ele>460</ele>
        <time>2017-02-25T10:19:20Z</time>
      </trkpt>
      <trkpt lat="45.65184" lon="4.66896">
        <ele>461</ele>
        <time>2017-02-25T10:19:24Z</time>
      </trkpt>
      <trkpt lat="45.65181" lon="4.66902">
        <ele>462</ele>
        <time>2017-02-25T10:19:28Z</time>
      </trkpt>
      <trkpt lat="45.65179" lon="4.66909">
        <ele>464</ele>
        <time>2017-02-25T10:19:32Z</time>
      </trkpt>
      <trkpt lat="45.65177" lon="4.66916">
        <ele>464</ele>
        <time>2017-02-25T10:19:36Z</time>
      </trkpt>
      <trkpt lat="45.65174" lon="4.66922">
        <ele>464</ele>
        <time>2017-02-25T10:19:40Z</time>
      </trkpt>
      <trkpt lat="45.65171" lon="4.66929">
        <ele>464</ele>
        <time>2017-02-25T10:19:44Z</time>
      </trkpt>
      <trkpt lat="45.65168" lon="4.66934">
        <ele>464</ele>
        <time>2017-02-25T10:19:47Z</time>
      </trkpt>
      <trkpt lat="45.65164" lon="4.66941">
        <ele>464</ele>
        <time>2017-02-25T10:19:50Z</time>
      </trkpt>
      <trkpt lat="45.65161" lon="4.66947">
        <ele>464</ele>
        <time>2017-02-25T10:19:53Z</time>
      </trkpt>
      <trkpt lat="45.65159" lon="4.66954">
        <ele>463</ele>
        <time>2017-02-25T10:19:55Z</time>
      </trkpt>
      <trkpt lat="45.65155" lon="4.66958">
        <ele>463</ele>
        <time>2017-02-25T10:19:57Z</time>
      </trkpt>
      <trkpt lat="45.65151" lon="4.66964">
        <ele>463</ele>
        <time>2017-02-25T10:20:00Z</time>
      </trkpt>
      <trkpt lat="45.65146" lon="4.6697">
        <ele>463</ele>
        <time>2017-02-25T10:20:03Z</time>
      </trkpt>
      <trkpt lat="45.65142" lon="4.66974">
        <ele>463</ele>
        <time>2017-02-25T10:20:05Z</time>
      </trkpt>
      <trkpt lat="45.65137" lon="4.66978">
        <ele>463</ele>
        <time>2017-02-25T10:20:07Z</time>
      </trkpt>
      <trkpt lat="45.65133" lon="4.66981">
        <ele>463</ele>
        <time>2017-02-25T10:20:09Z</time>
      </trkpt>
      <trkpt lat="45.65129" lon="4.66985">
        <ele>463</ele>
        <time>2017-02-25T10:20:11Z</time>
      </trkpt>
      <trkpt lat="45.65125" lon="4.66989">
        <ele>463</ele>
        <time>2017-02-25T10:20:13Z</time>
      </trkpt>
      <trkpt lat="45.6512" lon="4.66992">
        <ele>463</ele>
        <time>2017-02-25T10:20:15Z</time>
      </trkpt>
      <trkpt lat="45.65115" lon="4.66995">
        <ele>463</ele>
        <time>2017-02-25T10:20:17Z</time>
      </trkpt>
      <trkpt lat="45.6511" lon="4.66996">
        <ele>464</ele>
        <time>2017-02-25T10:20:19Z</time>
      </trkpt>
      <trkpt lat="45.65104" lon="4.66997">
        <ele>464</ele>
        <time>2017-02-25T10:20:21Z</time>
      </trkpt>
      <trkpt lat="45.65098" lon="4.66998">
        <ele>464</ele>
        <time>2017-02-25T10:20:23Z</time>
      </trkpt>
      <trkpt lat="45.65093" lon="4.67">
        <ele>465</ele>
        <time>2017-02-25T10:20:25Z</time>
      </trkpt>
      <trkpt lat="45.65088" lon="4.67001">
        <ele>465</ele>
        <time>2017-02-25T10:20:27Z</time>
      </trkpt>
      <trkpt lat="45.65083" lon="4.67002">
        <ele>465</ele>
        <time>2017-02-25T10:20:29Z</time>
      </trkpt>
      <trkpt lat="45.65078" lon="4.67006">
        <ele>466</ele>
        <time>2017-02-25T10:20:31Z</time>
      </trkpt>
      <trkpt lat="45.65074" lon="4.67009">
        <ele>465</ele>
        <time>2017-02-25T10:20:33Z</time>
      </trkpt>
      <trkpt lat="45.6507" lon="4.67013">
        <ele>464</ele>
        <time>2017-02-25T10:20:35Z</time>
      </trkpt>
      <trkpt lat="45.65065" lon="4.67018">
        <ele>464</ele>
        <time>2017-02-25T10:20:37Z</time>
      </trkpt>
      <trkpt lat="45.65062" lon="4.67024">
        <ele>463</ele>
        <time>2017-02-25T10:20:39Z</time>
      </trkpt>
      <trkpt lat="45.65057" lon="4.67029">
        <ele>463</ele>
        <time>2017-02-25T10:20:41Z</time>
      </trkpt>
      <trkpt lat="45.65054" lon="4.67034">
        <ele>464</ele>
        <time>2017-02-25T10:20:43Z</time>
      </trkpt>
      <trkpt lat="45.6505" lon="4.67038">
        <ele>464</ele>
        <time>2017-02-25T10:20:45Z</time>
      </trkpt>
      <trkpt lat="45.65046" lon="4.67043">
        <ele>463</ele>
        <time>2017-02-25T10:20:47Z</time>
      </trkpt>
      <trkpt lat="45.65042" lon="4.67049">
        <ele>464</ele>
        <time>2017-02-25T10:20:50Z</time>
      </trkpt>
      <trkpt lat="45.65036" lon="4.67054">
        <ele>464</ele>
        <time>2017-02-25T10:20:53Z</time>
      </trkpt>
      <trkpt lat="45.65031" lon="4.6706">
        <ele>464</ele>
        <time>2017-02-25T10:20:56Z</time>
      </trkpt>
      <trkpt lat="45.65026" lon="4.67066">
        <ele>464</ele>
        <time>2017-02-25T10:20:59Z</time>
      </trkpt>
      <trkpt lat="45.65022" lon="4.6707">
        <ele>465</ele>
        <time>2017-02-25T10:21:01Z</time>
      </trkpt>
      <trkpt lat="45.65018" lon="4.67075">
        <ele>465</ele>
        <time>2017-02-25T10:21:03Z</time>
      </trkpt>
      <trkpt lat="45.65012" lon="4.6708">
        <ele>464</ele>
        <time>2017-02-25T10:21:05Z</time>
      </trkpt>
      <trkpt lat="45.65006" lon="4.67086">
        <ele>464</ele>
        <time>2017-02-25T10:21:07Z</time>
      </trkpt>
      <trkpt lat="45.64999" lon="4.67091">
        <ele>463</ele>
        <time>2017-02-25T10:21:09Z</time>
      </trkpt>
      <trkpt lat="45.64996" lon="4.67095">
        <ele>462</ele>
        <time>2017-02-25T10:21:10Z</time>
      </trkpt>
      <trkpt lat="45.64988" lon="4.67102">
        <ele>461</ele>
        <time>2017-02-25T10:21:12Z</time>
      </trkpt>
      <trkpt lat="45.64985" lon="4.67105">
        <ele>460</ele>
        <time>2017-02-25T10:21:13Z</time>
      </trkpt>
      <trkpt lat="45.64978" lon="4.67111">
        <ele>460</ele>
        <time>2017-02-25T10:21:15Z</time>
      </trkpt>
      <trkpt lat="45.6497" lon="4.67117">
        <ele>461</ele>
        <time>2017-02-25T10:21:17Z</time>
      </trkpt>
      <trkpt lat="45.64963" lon="4.67123">
        <ele>462</ele>
        <time>2017-02-25T10:21:19Z</time>
      </trkpt>
      <trkpt lat="45.64955" lon="4.67127">
        <ele>462</ele>
        <time>2017-02-25T10:21:21Z</time>
      </trkpt>
      <trkpt lat="45.64946" lon="4.67132">
        <ele>463</ele>
        <time>2017-02-25T10:21:23Z</time>
      </trkpt>
      <trkpt lat="45.64938" lon="4.67135">
        <ele>464</ele>
        <time>2017-02-25T10:21:25Z</time>
      </trkpt>
      <trkpt lat="45.64931" lon="4.67138">
        <ele>464</ele>
        <time>2017-02-25T10:21:27Z</time>
      </trkpt>
      <trkpt lat="45.64923" lon="4.67141">
        <ele>465</ele>
        <time>2017-02-25T10:21:29Z</time>
      </trkpt>
      <trkpt lat="45.64867" lon="4.67209">
        <ele>465</ele>
        <time>2017-02-25T10:21:52Z</time>
      </trkpt>
      <trkpt lat="45.64863" lon="4.67217">
        <ele>465</ele>
        <time>2017-02-25T10:21:54Z</time>
      </trkpt>
      <trkpt lat="45.64861" lon="4.67226">
        <ele>465</ele>
        <time>2017-02-25T10:21:56Z</time>
      </trkpt>
      <trkpt lat="45.64858" lon="4.67234">
        <ele>466</ele>
        <time>2017-02-25T10:21:58Z</time>
      </trkpt>
      <trkpt lat="45.64856" lon="4.6724">
        <ele>467</ele>
        <time>2017-02-25T10:22:00Z</time>
      </trkpt>
      <trkpt lat="45.64854" lon="4.67246">
        <ele>467</ele>
        <time>2017-02-25T10:22:02Z</time>
      </trkpt>
      <trkpt lat="45.64851" lon="4.67253">
        <ele>468</ele>
        <time>2017-02-25T10:22:04Z</time>
      </trkpt>
      <trkpt lat="45.64849" lon="4.67259">
        <ele>468</ele>
        <time>2017-02-25T10:22:06Z</time>
      </trkpt>
      <trkpt lat="45.64846" lon="4.67265">
        <ele>469</ele>
        <time>2017-02-25T10:22:08Z</time>
      </trkpt>
      <trkpt lat="45.64844" lon="4.6727">
        <ele>469</ele>
        <time>2017-02-25T10:22:10Z</time>
      </trkpt>
      <trkpt lat="45.64841" lon="4.67276">
        <ele>469</ele>
        <time>2017-02-25T10:22:12Z</time>
      </trkpt>
      <trkpt lat="45.64838" lon="4.67282">
        <ele>469</ele>
        <time>2017-02-25T10:22:14Z</time>
      </trkpt>
      <trkpt lat="45.64835" lon="4.67287">
        <ele>469</ele>
        <time>2017-02-25T10:22:16Z</time>
      </trkpt>
      <trkpt lat="45.64833" lon="4.67293">
        <ele>470</ele>
        <time>2017-02-25T10:22:18Z</time>
      </trkpt>
      <trkpt lat="45.6483" lon="4.67299">
        <ele>470</ele>
        <time>2017-02-25T10:22:20Z</time>
      </trkpt>
      <trkpt lat="45.64827" lon="4.67305">
        <ele>470</ele>
        <time>2017-02-25T10:22:22Z</time>
      </trkpt>
      <trkpt lat="45.64825" lon="4.67311">
        <ele>470</ele>
        <time>2017-02-25T10:22:24Z</time>
      </trkpt>
      <trkpt lat="45.64822" lon="4.67318">
        <ele>470</ele>
        <time>2017-02-25T10:22:28Z</time>
      </trkpt>
      <trkpt lat="45.64825" lon="4.67319">
        <ele>471</ele>
        <time>2017-02-25T10:22:55Z</time>
      </trkpt>
      <trkpt lat="45.64825" lon="4.67319">
        <ele>472</ele>
        <time>2017-02-25T10:22:57Z</time>
      </trkpt>
      <trkpt lat="45.64825" lon="4.67319">
        <ele>472</ele>
        <time>2017-02-25T10:23:25Z</time>
      </trkpt>
      <trkpt lat="45.64825" lon="4.67319">
        <ele>472</ele>
        <time>2017-02-25T10:23:27Z</time>
      </trkpt>
      <trkpt lat="45.64825" lon="4.67319">
        <ele>473</ele>
        <time>2017-02-25T10:23:55Z</time>
      </trkpt>
      <trkpt lat="45.64825" lon="4.67319">
        <ele>473</ele>
        <time>2017-02-25T10:23:57Z</time>
      </trkpt>
      <trkpt lat="45.64825" lon="4.67328">
        <ele>473</ele>
        <time>2017-02-25T10:24:16Z</time>
      </trkpt>
      <trkpt lat="45.64826" lon="4.67336">
        <ele>473</ele>
        <time>2017-02-25T10:24:18Z</time>
      </trkpt>
      <trkpt lat="45.64827" lon="4.67344">
        <ele>473</ele>
        <time>2017-02-25T10:24:20Z</time>
      </trkpt>
      <trkpt lat="45.64829" lon="4.67353">
        <ele>473</ele>
        <time>2017-02-25T10:24:21Z</time>
      </trkpt>
      <trkpt lat="45.64833" lon="4.67363">
        <ele>473</ele>
        <time>2017-02-25T10:24:22Z</time>
      </trkpt>
      <trkpt lat="45.64835" lon="4.67369">
        <ele>473</ele>
        <time>2017-02-25T10:24:23Z</time>
      </trkpt>
      <trkpt lat="45.64838" lon="4.67376">
        <ele>472</ele>
        <time>2017-02-25T10:24:24Z</time>
      </trkpt>
      <trkpt lat="45.64841" lon="4.67383">
        <ele>472</ele>
        <time>2017-02-25T10:24:25Z</time>
      </trkpt>
      <trkpt lat="45.64843" lon="4.6739">
        <ele>471</ele>
        <time>2017-02-25T10:24:26Z</time>
      </trkpt>
      <trkpt lat="45.64845" lon="4.67397">
        <ele>470</ele>
        <time>2017-02-25T10:24:27Z</time>
      </trkpt>
      <trkpt lat="45.64851" lon="4.67401">
        <ele>469</ele>
        <time>2017-02-25T10:24:28Z</time>
      </trkpt>
      <trkpt lat="45.64851" lon="4.67408">
        <ele>468</ele>
        <time>2017-02-25T10:24:29Z</time>
      </trkpt>
      <trkpt lat="45.64853" lon="4.67415">
        <ele>467</ele>
        <time>2017-02-25T10:24:30Z</time>
      </trkpt>
      <trkpt lat="45.64853" lon="4.67423">
        <ele>466</ele>
        <time>2017-02-25T10:24:31Z</time>
      </trkpt>
      <trkpt lat="45.64846" lon="4.67435">
        <ele>465</ele>
        <time>2017-02-25T10:24:33Z</time>
      </trkpt>
      <trkpt lat="45.64846" lon="4.67442">
        <ele>465</ele>
        <time>2017-02-25T10:24:34Z</time>
      </trkpt>
      <trkpt lat="45.64846" lon="4.67453">
        <ele>465</ele>
        <time>2017-02-25T10:24:36Z</time>
      </trkpt>
      <trkpt lat="45.64847" lon="4.67465">
        <ele>466</ele>
        <time>2017-02-25T10:24:38Z</time>
      </trkpt>
      <trkpt lat="45.64846" lon="4.67475">
        <ele>467</ele>
        <time>2017-02-25T10:24:40Z</time>
      </trkpt>
      <trkpt lat="45.64848" lon="4.67486">
        <ele>468</ele>
        <time>2017-02-25T10:24:42Z</time>
      </trkpt>
      <trkpt lat="45.64848" lon="4.67497">
        <ele>468</ele>
        <time>2017-02-25T10:24:44Z</time>
      </trkpt>
      <trkpt lat="45.64848" lon="4.67508">
        <ele>467</ele>
        <time>2017-02-25T10:24:46Z</time>
      </trkpt>
      <trkpt lat="45.64845" lon="4.67517">
        <ele>466</ele>
        <time>2017-02-25T10:24:48Z</time>
      </trkpt>
      <trkpt lat="45.64841" lon="4.67524">
        <ele>466</ele>
        <time>2017-02-25T10:24:50Z</time>
      </trkpt>
      <trkpt lat="45.64835" lon="4.67528">
        <ele>466</ele>
        <time>2017-02-25T10:24:52Z</time>
      </trkpt>
      <trkpt lat="45.64827" lon="4.6753">
        <ele>466</ele>
        <time>2017-02-25T10:24:54Z</time>
      </trkpt>
      <trkpt lat="45.64821" lon="4.6753">
        <ele>466</ele>
        <time>2017-02-25T10:24:56Z</time>
      </trkpt>
      <trkpt lat="45.64813" lon="4.6753">
        <ele>466</ele>
        <time>2017-02-25T10:24:58Z</time>
      </trkpt>
      <trkpt lat="45.64806" lon="4.6753">
        <ele>466</ele>
        <time>2017-02-25T10:25:00Z</time>
      </trkpt>
      <trkpt lat="45.64798" lon="4.6753">
        <ele>466</ele>
        <time>2017-02-25T10:25:02Z</time>
      </trkpt>
      <trkpt lat="45.6479" lon="4.67529">
        <ele>466</ele>
        <time>2017-02-25T10:25:04Z</time>
      </trkpt>
      <trkpt lat="45.64782" lon="4.67529">
        <ele>467</ele>
        <time>2017-02-25T10:25:05Z</time>
      </trkpt>
      <trkpt lat="45.64777" lon="4.6753">
        <ele>467</ele>
        <time>2017-02-25T10:25:06Z</time>
      </trkpt>
      <trkpt lat="45.64768" lon="4.67531">
        <ele>467</ele>
        <time>2017-02-25T10:25:08Z</time>
      </trkpt>
      <trkpt lat="45.64763" lon="4.67532">
        <ele>468</ele>
        <time>2017-02-25T10:25:09Z</time>
      </trkpt>
      <trkpt lat="45.64755" lon="4.67534">
        <ele>468</ele>
        <time>2017-02-25T10:25:11Z</time>
      </trkpt>
      <trkpt lat="45.6475" lon="4.67534">
        <ele>469</ele>
        <time>2017-02-25T10:25:12Z</time>
      </trkpt>
      <trkpt lat="45.64744" lon="4.67536">
        <ele>469</ele>
        <time>2017-02-25T10:25:14Z</time>
      </trkpt>
      <trkpt lat="45.64737" lon="4.67535">
        <ele>470</ele>
        <time>2017-02-25T10:25:16Z</time>
      </trkpt>
      <trkpt lat="45.64731" lon="4.67534">
        <ele>470</ele>
        <time>2017-02-25T10:25:18Z</time>
      </trkpt>
      <trkpt lat="45.64726" lon="4.67534">
        <ele>470</ele>
        <time>2017-02-25T10:25:20Z</time>
      </trkpt>
      <trkpt lat="45.6472" lon="4.67534">
        <ele>471</ele>
        <time>2017-02-25T10:25:23Z</time>
      </trkpt>
      <trkpt lat="45.64715" lon="4.67532">
        <ele>472</ele>
        <time>2017-02-25T10:25:26Z</time>
      </trkpt>
      <trkpt lat="45.6471" lon="4.6753">
        <ele>473</ele>
        <time>2017-02-25T10:25:29Z</time>
      </trkpt>
      <trkpt lat="45.64706" lon="4.67527">
        <ele>475</ele>
        <time>2017-02-25T10:25:33Z</time>
      </trkpt>
      <trkpt lat="45.64701" lon="4.67525">
        <ele>476</ele>
        <time>2017-02-25T10:25:37Z</time>
      </trkpt>
      <trkpt lat="45.64695" lon="4.67523">
        <ele>476</ele>
        <time>2017-02-25T10:25:40Z</time>
      </trkpt>
      <trkpt lat="45.64689" lon="4.67521">
        <ele>476</ele>
        <time>2017-02-25T10:25:42Z</time>
      </trkpt>
      <trkpt lat="45.64682" lon="4.67517">
        <ele>475</ele>
        <time>2017-02-25T10:25:44Z</time>
      </trkpt>
      <trkpt lat="45.64677" lon="4.67513">
        <ele>474</ele>
        <time>2017-02-25T10:25:45Z</time>
      </trkpt>
      <trkpt lat="45.64671" lon="4.67508">
        <ele>473</ele>
        <time>2017-02-25T10:25:46Z</time>
      </trkpt>
      <trkpt lat="45.64666" lon="4.67504">
        <ele>473</ele>
        <time>2017-02-25T10:25:48Z</time>
      </trkpt>
      <trkpt lat="45.64662" lon="4.67502">
        <ele>472</ele>
        <time>2017-02-25T10:25:50Z</time>
      </trkpt>
      <trkpt lat="45.64658" lon="4.67499">
        <ele>472</ele>
        <time>2017-02-25T10:25:52Z</time>
      </trkpt>
      <trkpt lat="45.64652" lon="4.67497">
        <ele>472</ele>
        <time>2017-02-25T10:25:54Z</time>
      </trkpt>
      <trkpt lat="45.64646" lon="4.67495">
        <ele>472</ele>
        <time>2017-02-25T10:25:56Z</time>
      </trkpt>
      <trkpt lat="45.64638" lon="4.67494">
        <ele>471</ele>
        <time>2017-02-25T10:25:58Z</time>
      </trkpt>
      <trkpt lat="45.64631" lon="4.67493">
        <ele>470</ele>
        <time>2017-02-25T10:26:00Z</time>
      </trkpt>
      <trkpt lat="45.64624" lon="4.67494">
        <ele>469</ele>
        <time>2017-02-25T10:26:02Z</time>
      </trkpt>
      <trkpt lat="45.64616" lon="4.67495">
        <ele>468</ele>
        <time>2017-02-25T10:26:04Z</time>
      </trkpt>
      <trkpt lat="45.64609" lon="4.67496">
        <ele>468</ele>
        <time>2017-02-25T10:26:06Z</time>
      </trkpt>
      <trkpt lat="45.64602" lon="4.67496">
        <ele>468</ele>
        <time>2017-02-25T10:26:07Z</time>
      </trkpt>
      <trkpt lat="45.64595" lon="4.67495">
        <ele>468</ele>
        <time>2017-02-25T10:26:08Z</time>
      </trkpt>
      <trkpt lat="45.64591" lon="4.67494">
        <ele>469</ele>
        <time>2017-02-25T10:26:09Z</time>
      </trkpt>
      <trkpt lat="45.64585" lon="4.67493">
        <ele>469</ele>
        <time>2017-02-25T10:26:10Z</time>
      </trkpt>
      <trkpt lat="45.6458" lon="4.67491">
        <ele>468</ele>
        <time>2017-02-25T10:26:11Z</time>
      </trkpt>
      <trkpt lat="45.64573" lon="4.67486">
        <ele>467</ele>
        <time>2017-02-25T10:26:13Z</time>
      </trkpt>
      <trkpt lat="45.64568" lon="4.67486">
        <ele>466</ele>
        <time>2017-02-25T10:26:14Z</time>
      </trkpt>
      <trkpt lat="45.64558" lon="4.67484">
        <ele>466</ele>
        <time>2017-02-25T10:26:16Z</time>
      </trkpt>
      <trkpt lat="45.64552" lon="4.67485">
        <ele>465</ele>
        <time>2017-02-25T10:26:17Z</time>
      </trkpt>
      <trkpt lat="45.64545" lon="4.67484">
        <ele>464</ele>
        <time>2017-02-25T10:26:19Z</time>
      </trkpt>
      <trkpt lat="45.64539" lon="4.67484">
        <ele>464</ele>
        <time>2017-02-25T10:26:20Z</time>
      </trkpt>
      <trkpt lat="45.64534" lon="4.67481">
        <ele>464</ele>
        <time>2017-02-25T10:26:21Z</time>
      </trkpt>
      <trkpt lat="45.64528" lon="4.67479">
        <ele>463</ele>
        <time>2017-02-25T10:26:22Z</time>
      </trkpt>
      <trkpt lat="45.64522" lon="4.67478">
        <ele>463</ele>
        <time>2017-02-25T10:26:23Z</time>
      </trkpt>
      <trkpt lat="45.64518" lon="4.67476">
        <ele>463</ele>
        <time>2017-02-25T10:26:24Z</time>
      </trkpt>
      <trkpt lat="45.6451" lon="4.67473">
        <ele>462</ele>
        <time>2017-02-25T10:26:26Z</time>
      </trkpt>
      <trkpt lat="45.64504" lon="4.67471">
        <ele>462</ele>
        <time>2017-02-25T10:26:28Z</time>
      </trkpt>
      <trkpt lat="45.64497" lon="4.67467">
        <ele>462</ele>
        <time>2017-02-25T10:26:30Z</time>
      </trkpt>
      <trkpt lat="45.64418" lon="4.67368">
        <ele>460</ele>
        <time>2017-02-25T10:26:58Z</time>
      </trkpt>
      <trkpt lat="45.64418" lon="4.67364">
        <ele>459</ele>
        <time>2017-02-25T10:27:00Z</time>
      </trkpt>
      <trkpt lat="45.64417" lon="4.67295">
        <ele>459</ele>
        <time>2017-02-25T10:27:17Z</time>
      </trkpt>
      <trkpt lat="45.64415" lon="4.67286">
        <ele>460</ele>
        <time>2017-02-25T10:27:19Z</time>
      </trkpt>
      <trkpt lat="45.64412" lon="4.67276">
        <ele>461</ele>
        <time>2017-02-25T10:27:21Z</time>
      </trkpt>
      <trkpt lat="45.64409" lon="4.67266">
        <ele>463</ele>
        <time>2017-02-25T10:27:23Z</time>
      </trkpt>
      <trkpt lat="45.64407" lon="4.67256">
        <ele>466</ele>
        <time>2017-02-25T10:27:25Z</time>
      </trkpt>
      <trkpt lat="45.64406" lon="4.67249">
        <ele>467</ele>
        <time>2017-02-25T10:27:26Z</time>
      </trkpt>
      <trkpt lat="45.64404" lon="4.67237">
        <ele>468</ele>
        <time>2017-02-25T10:27:28Z</time>
      </trkpt>
      <trkpt lat="45.64403" lon="4.6723">
        <ele>467</ele>
        <time>2017-02-25T10:27:29Z</time>
      </trkpt>
      <trkpt lat="45.64402" lon="4.67223">
        <ele>467</ele>
        <time>2017-02-25T10:27:30Z</time>
      </trkpt>
      <trkpt lat="45.64401" lon="4.67215">
        <ele>467</ele>
        <time>2017-02-25T10:27:31Z</time>
      </trkpt>
      <trkpt lat="45.644" lon="4.67208">
        <ele>467</ele>
        <time>2017-02-25T10:27:32Z</time>
      </trkpt>
      <trkpt lat="45.64399" lon="4.67201">
        <ele>467</ele>
        <time>2017-02-25T10:27:33Z</time>
      </trkpt>
      <trkpt lat="45.64397" lon="4.67193">
        <ele>466</ele>
        <time>2017-02-25T10:27:34Z</time>
      </trkpt>
      <trkpt lat="45.64396" lon="4.6718">
        <ele>466</ele>
        <time>2017-02-25T10:27:36Z</time>
      </trkpt>
      <trkpt lat="45.64394" lon="4.67173">
        <ele>466</ele>
        <time>2017-02-25T10:27:37Z</time>
      </trkpt>
      <trkpt lat="45.64393" lon="4.67165">
        <ele>466</ele>
        <time>2017-02-25T10:27:38Z</time>
      </trkpt>
      <trkpt lat="45.64393" lon="4.67158">
        <ele>465</ele>
        <time>2017-02-25T10:27:39Z</time>
      </trkpt>
      <trkpt lat="45.64389" lon="4.67146">
        <ele>465</ele>
        <time>2017-02-25T10:27:41Z</time>
      </trkpt>
      <trkpt lat="45.64388" lon="4.6714">
        <ele>465</ele>
        <time>2017-02-25T10:27:42Z</time>
      </trkpt>
      <trkpt lat="45.64388" lon="4.67133">
        <ele>465</ele>
        <time>2017-02-25T10:27:43Z</time>
      </trkpt>
      <trkpt lat="45.64388" lon="4.67126">
        <ele>464</ele>
        <time>2017-02-25T10:27:44Z</time>
      </trkpt>
      <trkpt lat="45.64387" lon="4.67114">
        <ele>464</ele>
        <time>2017-02-25T10:27:46Z</time>
      </trkpt>
      <trkpt lat="45.64386" lon="4.67105">
        <ele>464</ele>
        <time>2017-02-25T10:27:47Z</time>
      </trkpt>
      <trkpt lat="45.64386" lon="4.67093">
        <ele>463</ele>
        <time>2017-02-25T10:27:49Z</time>
      </trkpt>
      <trkpt lat="45.64385" lon="4.67087">
        <ele>463</ele>
        <time>2017-02-25T10:27:50Z</time>
      </trkpt>
      <trkpt lat="45.64383" lon="4.67075">
        <ele>463</ele>
        <time>2017-02-25T10:27:52Z</time>
      </trkpt>
      <trkpt lat="45.64381" lon="4.67064">
        <ele>463</ele>
        <time>2017-02-25T10:27:54Z</time>
      </trkpt>
      <trkpt lat="45.6438" lon="4.67053">
        <ele>463</ele>
        <time>2017-02-25T10:27:56Z</time>
      </trkpt>
      <trkpt lat="45.6438" lon="4.67047">
        <ele>463</ele>
        <time>2017-02-25T10:27:57Z</time>
      </trkpt>
      <trkpt lat="45.6438" lon="4.67036">
        <ele>463</ele>
        <time>2017-02-25T10:27:59Z</time>
      </trkpt>
      <trkpt lat="45.6438" lon="4.67026">
        <ele>463</ele>
        <time>2017-02-25T10:28:01Z</time>
      </trkpt>
      <trkpt lat="45.64381" lon="4.67015">
        <ele>463</ele>
        <time>2017-02-25T10:28:03Z</time>
      </trkpt>
      <trkpt lat="45.64383" lon="4.67004">
        <ele>464</ele>
        <time>2017-02-25T10:28:05Z</time>
      </trkpt>
      <trkpt lat="45.64385" lon="4.66995">
        <ele>464</ele>
        <time>2017-02-25T10:28:07Z</time>
      </trkpt>
      <trkpt lat="45.64386" lon="4.66988">
        <ele>464</ele>
        <time>2017-02-25T10:28:09Z</time>
      </trkpt>
      <trkpt lat="45.64385" lon="4.66981">
        <ele>465</ele>
        <time>2017-02-25T10:28:11Z</time>
      </trkpt>
      <trkpt lat="45.64381" lon="4.66976">
        <ele>465</ele>
        <time>2017-02-25T10:28:13Z</time>
      </trkpt>
      <trkpt lat="45.64373" lon="4.66978">
        <ele>465</ele>
        <time>2017-02-25T10:28:15Z</time>
      </trkpt>
      <trkpt lat="45.64365" lon="4.66984">
        <ele>464</ele>
        <time>2017-02-25T10:28:16Z</time>
      </trkpt>
      <trkpt lat="45.64359" lon="4.66987">
        <ele>464</ele>
        <time>2017-02-25T10:28:17Z</time>
      </trkpt>
      <trkpt lat="45.64354" lon="4.6699">
        <ele>463</ele>
        <time>2017-02-25T10:28:18Z</time>
      </trkpt>
      <trkpt lat="45.64348" lon="4.66992">
        <ele>462</ele>
        <time>2017-02-25T10:28:19Z</time>
      </trkpt>
      <trkpt lat="45.64342" lon="4.66996">
        <ele>462</ele>
        <time>2017-02-25T10:28:20Z</time>
      </trkpt>
      <trkpt lat="45.64336" lon="4.66998">
        <ele>462</ele>
        <time>2017-02-25T10:28:21Z</time>
      </trkpt>
      <trkpt lat="45.64331" lon="4.66998">
        <ele>461</ele>
        <time>2017-02-25T10:28:22Z</time>
      </trkpt>
      <trkpt lat="45.64326" lon="4.66995">
        <ele>460</ele>
        <time>2017-02-25T10:28:23Z</time>
      </trkpt>
      <trkpt lat="45.64323" lon="4.66987">
        <ele>459</ele>
        <time>2017-02-25T10:28:24Z</time>
      </trkpt>
      <trkpt lat="45.64319" lon="4.66979">
        <ele>458</ele>
        <time>2017-02-25T10:28:25Z</time>
      </trkpt>
      <trkpt lat="45.64314" lon="4.6697">
        <ele>456</ele>
        <time>2017-02-25T10:28:26Z</time>
      </trkpt>
      <trkpt lat="45.64308" lon="4.66959">
        <ele>454</ele>
        <time>2017-02-25T10:28:27Z</time>
      </trkpt>
      <trkpt lat="45.64302" lon="4.66947">
        <ele>453</ele>
        <time>2017-02-25T10:28:28Z</time>
      </trkpt>
      <trkpt lat="45.64296" lon="4.66936">
        <ele>451</ele>
        <time>2017-02-25T10:28:29Z</time>
      </trkpt>
      <trkpt lat="45.6429" lon="4.66925">
        <ele>450</ele>
        <time>2017-02-25T10:28:30Z</time>
      </trkpt>
      <trkpt lat="45.64285" lon="4.66914">
        <ele>450</ele>
        <time>2017-02-25T10:28:31Z</time>
      </trkpt>
      <trkpt lat="45.64279" lon="4.66903">
        <ele>449</ele>
        <time>2017-02-25T10:28:32Z</time>
      </trkpt>
      <trkpt lat="45.64273" lon="4.66891">
        <ele>449</ele>
        <time>2017-02-25T10:28:33Z</time>
      </trkpt>
      <trkpt lat="45.64267" lon="4.6688">
        <ele>448</ele>
        <time>2017-02-25T10:28:34Z</time>
      </trkpt>
      <trkpt lat="45.6426" lon="4.66872">
        <ele>447</ele>
        <time>2017-02-25T10:28:35Z</time>
      </trkpt>
      <trkpt lat="45.64254" lon="4.66865">
        <ele>448</ele>
        <time>2017-02-25T10:28:36Z</time>
      </trkpt>
      <trkpt lat="45.64247" lon="4.66858">
        <ele>449</ele>
        <time>2017-02-25T10:28:37Z</time>
      </trkpt>
      <trkpt lat="45.6424" lon="4.66852">
        <ele>450</ele>
        <time>2017-02-25T10:28:38Z</time>
      </trkpt>
      <trkpt lat="45.64233" lon="4.66848">
        <ele>451</ele>
        <time>2017-02-25T10:28:39Z</time>
      </trkpt>
      <trkpt lat="45.64227" lon="4.66846">
        <ele>452</ele>
        <time>2017-02-25T10:28:40Z</time>
      </trkpt>
      <trkpt lat="45.64219" lon="4.66843">
        <ele>452</ele>
        <time>2017-02-25T10:28:41Z</time>
      </trkpt>
      <trkpt lat="45.64212" lon="4.66841">
        <ele>453</ele>
        <time>2017-02-25T10:28:42Z</time>
      </trkpt>
      <trkpt lat="45.64206" lon="4.66839">
        <ele>453</ele>
        <time>2017-02-25T10:28:43Z</time>
      </trkpt>
      <trkpt lat="45.64199" lon="4.66839">
        <ele>453</ele>
        <time>2017-02-25T10:28:44Z</time>
      </trkpt>
      <trkpt lat="45.64194" lon="4.66839">
        <ele>453</ele>
        <time>2017-02-25T10:28:45Z</time>
      </trkpt>
      <trkpt lat="45.64186" lon="4.66842">
        <ele>452</ele>
        <time>2017-02-25T10:28:46Z</time>
      </trkpt>
      <trkpt lat="45.6418" lon="4.66843">
        <ele>451</ele>
        <time>2017-02-25T10:28:47Z</time>
      </trkpt>
      <trkpt lat="45.64173" lon="4.66845">
        <ele>451</ele>
        <time>2017-02-25T10:28:48Z</time>
      </trkpt>
      <trkpt lat="45.64167" lon="4.66846">
        <ele>450</ele>
        <time>2017-02-25T10:28:49Z</time>
      </trkpt>
      <trkpt lat="45.64162" lon="4.66847">
        <ele>451</ele>
        <time>2017-02-25T10:28:50Z</time>
      </trkpt>
      <trkpt lat="45.64156" lon="4.66846">
        <ele>450</ele>
        <time>2017-02-25T10:28:51Z</time>
      </trkpt>
      <trkpt lat="45.64151" lon="4.66849">
        <ele>450</ele>
        <time>2017-02-25T10:28:52Z</time>
      </trkpt>
      <trkpt lat="45.64144" lon="4.66852">
        <ele>450</ele>
        <time>2017-02-25T10:28:53Z</time>
      </trkpt>
      <trkpt lat="45.64138" lon="4.66854">
        <ele>450</ele>
        <time>2017-02-25T10:28:54Z</time>
      </trkpt>
      <trkpt lat="45.64132" lon="4.66855">
        <ele>450</ele>
        <time>2017-02-25T10:28:55Z</time>
      </trkpt>
      <trkpt lat="45.64126" lon="4.66856">
        <ele>450</ele>
        <time>2017-02-25T10:28:56Z</time>
      </trkpt>
      <trkpt lat="45.64119" lon="4.66858">
        <ele>450</ele>
        <time>2017-02-25T10:28:57Z</time>
      </trkpt>
      <trkpt lat="45.64112" lon="4.66857">
        <ele>451</ele>
        <time>2017-02-25T10:28:58Z</time>
      </trkpt>
      <trkpt lat="45.64105" lon="4.66859">
        <ele>451</ele>
        <time>2017-02-25T10:28:59Z</time>
      </trkpt>
      <trkpt lat="45.64099" lon="4.6686">
        <ele>450</ele>
        <time>2017-02-25T10:29:00Z</time>
      </trkpt>
      <trkpt lat="45.64092" lon="4.66861">
        <ele>450</ele>
        <time>2017-02-25T10:29:01Z</time>
      </trkpt>
      <trkpt lat="45.64084" lon="4.66862">
        <ele>449</ele>
        <time>2017-02-25T10:29:02Z</time>
      </trkpt>
      <trkpt lat="45.64078" lon="4.66858">
        <ele>448</ele>
        <time>2017-02-25T10:29:04Z</time>
      </trkpt>
      <trkpt lat="45.6407" lon="4.66852">
        <ele>446</ele>
        <time>2017-02-25T10:29:06Z</time>
      </trkpt>
      <trkpt lat="45.64066" lon="4.66847">
        <ele>444</ele>
        <time>2017-02-25T10:29:08Z</time>
      </trkpt>
      <trkpt lat="45.6406" lon="4.66845">
        <ele>442</ele>
        <time>2017-02-25T10:29:11Z</time>
      </trkpt>
      <trkpt lat="45.64061" lon="4.66837">
        <ele>440</ele>
        <time>2017-02-25T10:29:14Z</time>
      </trkpt>
    </trkseg>
  </trk>
</gpx>